<?xml version="1.0" encoding="UTF-8"?>
<gpx version="1.1" creator="2bulu-scraper" xmlns="http://www.topografix.com/GPX/1/1">
  <metadata><name>凌霄城大环线</name><desc>source: 2bulu.com trackId=83750097; exported 2026-08-31T01:43:42.543Z</desc>
    <bounds minlat="28.267867" minlon="105.016566" maxlat="28.295917" maxlon="105.047855"/>
    <link href="https://www.2bulu.com/track/t-VtVGaGWtv6Tp%252FR2KBg5Tzw%253D%253D.htm"><text>2bulu 源页面</text></link>
  </metadata>
  <wpt lat="28.295488" lon="105.034441"><ele>418</ele><name>从党群服务中心，沿右边公路进来</name></wpt>
  <wpt lat="28.294226" lon="105.036476"><ele>418</ele><name>右边进小路</name></wpt>
  <wpt lat="28.293375" lon="105.036594"><ele>414</ele><name>往右
</name></wpt>
  <wpt lat="28.292982" lon="105.036519"><ele>411</ele><name>直行
</name></wpt>
  <wpt lat="28.291024" lon="105.03771"><ele>416</ele><name>沿河沟走</name></wpt>
  <wpt lat="28.290909" lon="105.038307"><ele>424</ele><name>过河</name></wpt>
  <wpt lat="28.29043" lon="105.038266"><ele>420</ele><name>沿着走到马路上</name></wpt>
  <wpt lat="28.290374" lon="105.037778"><ele>425</ele><name>上坡</name></wpt>
  <wpt lat="28.290181" lon="105.037547"><ele>440</ele><name>上石梯</name></wpt>
  <wpt lat="28.289676" lon="105.037019"><ele>476</ele><name>继续上坡</name></wpt>
  <wpt lat="28.28905" lon="105.037084"><ele>489</ele><name>沿小道上行</name></wpt>
  <wpt lat="28.286124" lon="105.03561"><ele>541</ele><name>沿着山崖绕一圈</name></wpt>
  <wpt lat="28.286914" lon="105.036719"><ele>524</ele><name>沿小路上行</name></wpt>
  <wpt lat="28.284631" lon="105.035535"><ele>571</ele><name>与公路汇合</name></wpt>
  <wpt lat="28.284513" lon="105.035464"><ele>575</ele><name>上坡</name></wpt>
  <wpt lat="28.285875" lon="105.033228"><ele>583</ele><name>上坡往左</name></wpt>
  <wpt lat="28.285577" lon="105.032855"><ele>590</ele><name>往右（上）</name></wpt>
  <wpt lat="28.286865" lon="105.032689"><ele>596</ele><name>进小路（上）</name></wpt>
  <wpt lat="28.286542" lon="105.029751"><ele>689</ele><name>到马路往右</name></wpt>
  <wpt lat="28.288636" lon="105.028862"><ele>661</ele><name>往左（上）</name></wpt>
  <wpt lat="28.288618" lon="105.028673"><ele>663</ele><name>往右</name></wpt>
  <wpt lat="28.28905" lon="105.02604"><ele>685</ele><name>沿马上继续往前</name></wpt>
  <wpt lat="28.288648" lon="105.02395"><ele>691</ele><name>进小路</name></wpt>
  <wpt lat="28.288183" lon="105.023571"><ele>688</ele><name>沿公路往前（下）</name></wpt>
  <wpt lat="28.287342" lon="105.019957"><ele>634</ele><name>往左（下）</name></wpt>
  <wpt lat="28.285833" lon="105.016992"><ele>630</ele><name>往回走一段</name></wpt>
  <wpt lat="28.28652" lon="105.017449"><ele>639</ele><name>进小路（往上）</name></wpt>
  <wpt lat="28.286345" lon="105.017785"><ele>653</ele><name>左上</name></wpt>
  <wpt lat="28.285576" lon="105.019631"><ele>715</ele><name>沿马路往上</name></wpt>
  <wpt lat="28.284997" lon="105.02018"><ele>744</ele><name>往上</name></wpt>
  <wpt lat="28.28494" lon="105.020195"><ele>745</ele><name>往上爬梯</name></wpt>
  <wpt lat="28.280776" lon="105.02178"><ele>961</ele><name>进小道（往上）</name></wpt>
  <wpt lat="28.276936" lon="105.020212"><ele>969</ele><name>继续往上爬</name></wpt>
  <wpt lat="28.271781" lon="105.018539"><ele>983</ele><name>沿马路往前</name></wpt>
  <wpt lat="28.268405" lon="105.017768"><ele>934</ele><name>左转后往前</name></wpt>
  <wpt lat="28.267915" lon="105.017887"><ele>935</ele><name>穿竹林往上</name></wpt>
  <wpt lat="28.267996" lon="105.018597"><ele>961</ele><name>沿马上往上</name></wpt>
  <wpt lat="28.270781" lon="105.032097"><ele>1019</ele><name>进小路</name></wpt>
  <wpt lat="28.274838" lon="105.036867"><ele>765</ele><name>进小路</name></wpt>
  <wpt lat="28.26941" lon="105.046961"><ele>638</ele><name>进小路</name></wpt>
  <wpt lat="28.273596" lon="105.046358"><ele>615</ele><name>下坡</name></wpt>
  <trk><name>凌霄城大环线</name>
      <trkseg>
        <trkpt lat="28.295762" lon="105.033564"><ele>419.49872</ele><time>2026-05-05T17:21:02.000Z</time></trkpt>
        <trkpt lat="28.29575" lon="105.033616"><ele>419.1305</ele><time>2026-05-05T17:21:04.000Z</time></trkpt>
        <trkpt lat="28.295722" lon="105.033668"><ele>418.39905</ele><time>2026-05-05T17:21:08.000Z</time></trkpt>
        <trkpt lat="28.295707" lon="105.033723"><ele>418.3426</ele><time>2026-05-05T17:21:13.000Z</time></trkpt>
        <trkpt lat="28.295678" lon="105.03378"><ele>418.26285</ele><time>2026-05-05T17:21:18.000Z</time></trkpt>
        <trkpt lat="28.295643" lon="105.033826"><ele>418.3424</ele><time>2026-05-05T17:21:23.000Z</time></trkpt>
        <trkpt lat="28.29562" lon="105.033872"><ele>417.64883</ele><time>2026-05-05T17:21:28.000Z</time></trkpt>
        <trkpt lat="28.2956" lon="105.033926"><ele>417.54282</ele><time>2026-05-05T17:21:30.000Z</time></trkpt>
        <trkpt lat="28.29558" lon="105.033997"><ele>416.45828</ele><time>2026-05-05T17:21:33.000Z</time></trkpt>
        <trkpt lat="28.295573" lon="105.034048"><ele>416.68353</ele><time>2026-05-05T17:21:36.000Z</time></trkpt>
        <trkpt lat="28.295559" lon="105.034104"><ele>416.05698</ele><time>2026-05-05T17:21:40.000Z</time></trkpt>
        <trkpt lat="28.295548" lon="105.034159"><ele>416.4488</ele><time>2026-05-05T17:21:44.000Z</time></trkpt>
        <trkpt lat="28.295536" lon="105.034216"><ele>416.75427</ele><time>2026-05-05T17:21:48.000Z</time></trkpt>
        <trkpt lat="28.29553" lon="105.034273"><ele>416.47357</ele><time>2026-05-05T17:21:52.000Z</time></trkpt>
        <trkpt lat="28.29552" lon="105.034323"><ele>417.19995</ele><time>2026-05-05T17:21:56.000Z</time></trkpt>
        <trkpt lat="28.295504" lon="105.034379"><ele>418.0075</ele><time>2026-05-05T17:22:00.000Z</time></trkpt>
        <trkpt lat="28.295488" lon="105.034441"><ele>418.10834</ele><time>2026-05-05T17:22:04.000Z</time></trkpt>
        <trkpt lat="28.295475" lon="105.034502"><ele>418.2005</ele><time>2026-05-05T17:22:08.000Z</time></trkpt>
        <trkpt lat="28.295446" lon="105.034544"><ele>419.4934</ele><time>2026-05-05T17:22:12.000Z</time></trkpt>
        <trkpt lat="28.295411" lon="105.034594"><ele>420.23883</ele><time>2026-05-05T17:22:16.000Z</time></trkpt>
        <trkpt lat="28.295374" lon="105.034626"><ele>419.96924</ele><time>2026-05-05T17:22:20.000Z</time></trkpt>
        <trkpt lat="28.295331" lon="105.034668"><ele>419.74817</ele><time>2026-05-05T17:22:24.000Z</time></trkpt>
        <trkpt lat="28.295294" lon="105.034699"><ele>418.78555</ele><time>2026-05-05T17:22:27.000Z</time></trkpt>
        <trkpt lat="28.295261" lon="105.034742"><ele>418.63245</ele><time>2026-05-05T17:22:30.000Z</time></trkpt>
        <trkpt lat="28.295228" lon="105.03478"><ele>417.06677</ele><time>2026-05-05T17:22:33.000Z</time></trkpt>
        <trkpt lat="28.29519" lon="105.034811"><ele>416.16492</ele><time>2026-05-05T17:22:36.000Z</time></trkpt>
        <trkpt lat="28.295159" lon="105.034849"><ele>416.06015</ele><time>2026-05-05T17:22:39.000Z</time></trkpt>
        <trkpt lat="28.295124" lon="105.034882"><ele>415.56168</ele><time>2026-05-05T17:22:42.000Z</time></trkpt>
        <trkpt lat="28.295084" lon="105.034928"><ele>415.4701</ele><time>2026-05-05T17:22:45.000Z</time></trkpt>
        <trkpt lat="28.295054" lon="105.034987"><ele>415.63123</ele><time>2026-05-05T17:22:48.000Z</time></trkpt>
        <trkpt lat="28.295029" lon="105.035035"><ele>416.36154</ele><time>2026-05-05T17:22:51.000Z</time></trkpt>
        <trkpt lat="28.295014" lon="105.03509"><ele>415.60925</ele><time>2026-05-05T17:22:54.000Z</time></trkpt>
        <trkpt lat="28.294987" lon="105.035147"><ele>414.69846</ele><time>2026-05-05T17:22:58.000Z</time></trkpt>
        <trkpt lat="28.294961" lon="105.035201"><ele>415.06253</ele><time>2026-05-05T17:23:02.000Z</time></trkpt>
        <trkpt lat="28.29495" lon="105.035251"><ele>414.72485</ele><time>2026-05-05T17:23:06.000Z</time></trkpt>
        <trkpt lat="28.294924" lon="105.035308"><ele>414.2785</ele><time>2026-05-05T17:23:12.000Z</time></trkpt>
        <trkpt lat="28.2949" lon="105.035354"><ele>414.25742</ele><time>2026-05-05T17:23:16.000Z</time></trkpt>
        <trkpt lat="28.29488" lon="105.035401"><ele>415.1249</ele><time>2026-05-05T17:23:20.000Z</time></trkpt>
        <trkpt lat="28.29486" lon="105.035455"><ele>416.5617</ele><time>2026-05-05T17:23:25.000Z</time></trkpt>
        <trkpt lat="28.294834" lon="105.0355"><ele>417.0244</ele><time>2026-05-05T17:23:29.000Z</time></trkpt>
        <trkpt lat="28.294798" lon="105.035545"><ele>417.5837</ele><time>2026-05-05T17:23:33.000Z</time></trkpt>
        <trkpt lat="28.294757" lon="105.035586"><ele>417.2844</ele><time>2026-05-05T17:23:37.000Z</time></trkpt>
        <trkpt lat="28.294721" lon="105.035633"><ele>416.97723</ele><time>2026-05-05T17:23:41.000Z</time></trkpt>
        <trkpt lat="28.294693" lon="105.035675"><ele>415.82718</ele><time>2026-05-05T17:23:45.000Z</time></trkpt>
        <trkpt lat="28.294657" lon="105.035728"><ele>415.4808</ele><time>2026-05-05T17:23:49.000Z</time></trkpt>
        <trkpt lat="28.294614" lon="105.035774"><ele>415.2538</ele><time>2026-05-05T17:23:53.000Z</time></trkpt>
        <trkpt lat="28.294577" lon="105.035817"><ele>415.53055</ele><time>2026-05-05T17:23:57.000Z</time></trkpt>
        <trkpt lat="28.294537" lon="105.035854"><ele>415.62274</ele><time>2026-05-05T17:24:01.000Z</time></trkpt>
        <trkpt lat="28.294505" lon="105.035896"><ele>415.9642</ele><time>2026-05-05T17:24:06.000Z</time></trkpt>
        <trkpt lat="28.294479" lon="105.035946"><ele>415.97513</ele><time>2026-05-05T17:24:11.000Z</time></trkpt>
        <trkpt lat="28.29447" lon="105.035996"><ele>416.99417</ele><time>2026-05-05T17:24:16.000Z</time></trkpt>
        <trkpt lat="28.294475" lon="105.036052"><ele>417.4322</ele><time>2026-05-05T17:24:21.000Z</time></trkpt>
        <trkpt lat="28.294483" lon="105.036115"><ele>417.44153</ele><time>2026-05-05T17:24:27.000Z</time></trkpt>
        <trkpt lat="28.294483" lon="105.036174"><ele>418.31207</ele><time>2026-05-05T17:24:32.000Z</time></trkpt>
        <trkpt lat="28.294467" lon="105.036223"><ele>418.98648</ele><time>2026-05-05T17:24:36.000Z</time></trkpt>
        <trkpt lat="28.29446" lon="105.03628"><ele>420.7089</ele><time>2026-05-05T17:24:41.000Z</time></trkpt>
        <trkpt lat="28.294433" lon="105.036327"><ele>422.1572</ele><time>2026-05-05T17:24:46.000Z</time></trkpt>
        <trkpt lat="28.294405" lon="105.036373"><ele>422.6155</ele><time>2026-05-05T17:24:51.000Z</time></trkpt>
        <trkpt lat="28.294359" lon="105.036393"><ele>421.6172</ele><time>2026-05-05T17:25:05.000Z</time></trkpt>
        <trkpt lat="28.294316" lon="105.036424"><ele>420.2062</ele><time>2026-05-05T17:25:12.000Z</time></trkpt>
        <trkpt lat="28.29427" lon="105.03646"><ele>419.2489</ele><time>2026-05-05T17:25:17.000Z</time></trkpt>
        <trkpt lat="28.294226" lon="105.036476"><ele>418.06122</ele><time>2026-05-05T17:25:24.000Z</time></trkpt>
        <trkpt lat="28.294173" lon="105.036482"><ele>417.2904</ele><time>2026-05-05T17:25:30.000Z</time></trkpt>
        <trkpt lat="28.294127" lon="105.036465"><ele>414.9268</ele><time>2026-05-05T17:25:41.000Z</time></trkpt>
        <trkpt lat="28.294083" lon="105.036436"><ele>412.33984</ele><time>2026-05-05T17:25:50.000Z</time></trkpt>
        <trkpt lat="28.294032" lon="105.036428"><ele>412.64783</ele><time>2026-05-05T17:25:55.000Z</time></trkpt>
        <trkpt lat="28.293985" lon="105.03644"><ele>412.33835</ele><time>2026-05-05T17:26:15.000Z</time></trkpt>
        <trkpt lat="28.293942" lon="105.036456"><ele>411.51477</ele><time>2026-05-05T17:26:19.000Z</time></trkpt>
        <trkpt lat="28.293904" lon="105.036485"><ele>412.28156</ele><time>2026-05-05T17:26:23.000Z</time></trkpt>
        <trkpt lat="28.293859" lon="105.036502"><ele>412.16275</ele><time>2026-05-05T17:26:29.000Z</time></trkpt>
        <trkpt lat="28.293815" lon="105.036518"><ele>413.41495</ele><time>2026-05-05T17:26:36.000Z</time></trkpt>
        <trkpt lat="28.293767" lon="105.036538"><ele>414.12485</ele><time>2026-05-05T17:26:42.000Z</time></trkpt>
        <trkpt lat="28.293727" lon="105.036581"><ele>415.1193</ele><time>2026-05-05T17:26:51.000Z</time></trkpt>
        <trkpt lat="28.293701" lon="105.036628"><ele>414.3398</ele><time>2026-05-05T17:27:06.000Z</time></trkpt>
        <trkpt lat="28.293647" lon="105.036622"><ele>413.8145</ele><time>2026-05-05T17:27:59.000Z</time></trkpt>
        <trkpt lat="28.293592" lon="105.036607"><ele>413.29013</ele><time>2026-05-05T17:28:03.000Z</time></trkpt>
        <trkpt lat="28.293548" lon="105.036588"><ele>412.56192</ele><time>2026-05-05T17:28:06.000Z</time></trkpt>
        <trkpt lat="28.293502" lon="105.036574"><ele>412.90378</ele><time>2026-05-05T17:28:08.000Z</time></trkpt>
        <trkpt lat="28.293465" lon="105.036543"><ele>412.5058</ele><time>2026-05-05T17:28:13.000Z</time></trkpt>
        <trkpt lat="28.293419" lon="105.036534"><ele>412.01355</ele><time>2026-05-05T17:28:16.000Z</time></trkpt>
        <trkpt lat="28.293367" lon="105.036537"><ele>412.08295</ele><time>2026-05-05T17:28:19.000Z</time></trkpt>
        <trkpt lat="28.293375" lon="105.036594"><ele>413.66196</ele><time>2026-05-05T17:28:22.000Z</time></trkpt>
        <trkpt lat="28.293355" lon="105.036548"><ele>414.91922</ele><time>2026-05-05T17:28:29.000Z</time></trkpt>
        <trkpt lat="28.293358" lon="105.036613"><ele>415.02145</ele><time>2026-05-05T17:28:35.000Z</time></trkpt>
        <trkpt lat="28.293346" lon="105.036666"><ele>415.5191</ele><time>2026-05-05T17:28:38.000Z</time></trkpt>
        <trkpt lat="28.293382" lon="105.036703"><ele>415.85834</ele><time>2026-05-05T17:28:43.000Z</time></trkpt>
        <trkpt lat="28.293358" lon="105.036659"><ele>413.9965</ele><time>2026-05-05T17:29:44.000Z</time></trkpt>
        <trkpt lat="28.29336" lon="105.036604"><ele>413.1512</ele><time>2026-05-05T17:30:00.000Z</time></trkpt>
        <trkpt lat="28.293368" lon="105.036546"><ele>412.39294</ele><time>2026-05-05T17:30:05.000Z</time></trkpt>
        <trkpt lat="28.293416" lon="105.036545"><ele>412.98785</ele><time>2026-05-05T17:30:13.000Z</time></trkpt>
        <trkpt lat="28.293463" lon="105.036554"><ele>413.77936</ele><time>2026-05-05T17:30:20.000Z</time></trkpt>
        <trkpt lat="28.29351" lon="105.036572"><ele>413.51</ele><time>2026-05-05T17:30:29.000Z</time></trkpt>
        <trkpt lat="28.293558" lon="105.036584"><ele>413.77097</ele><time>2026-05-05T17:30:34.000Z</time></trkpt>
        <trkpt lat="28.293612" lon="105.036606"><ele>414.40042</ele><time>2026-05-05T17:30:41.000Z</time></trkpt>
        <trkpt lat="28.293657" lon="105.036624"><ele>414.04865</ele><time>2026-05-05T17:30:47.000Z</time></trkpt>
        <trkpt lat="28.293704" lon="105.036618"><ele>414.442</ele><time>2026-05-05T17:31:01.000Z</time></trkpt>
        <trkpt lat="28.293745" lon="105.036588"><ele>413.08978</ele><time>2026-05-05T17:31:08.000Z</time></trkpt>
        <trkpt lat="28.293773" lon="105.036544"><ele>412.8628</ele><time>2026-05-05T17:31:14.000Z</time></trkpt>
        <trkpt lat="28.293818" lon="105.036525"><ele>413.61884</ele><time>2026-05-05T17:31:47.000Z</time></trkpt>
        <trkpt lat="28.293778" lon="105.036548"><ele>413.70953</ele><time>2026-05-05T17:32:13.000Z</time></trkpt>
        <trkpt lat="28.29374" lon="105.03658"><ele>414.67142</ele><time>2026-05-05T17:32:19.000Z</time></trkpt>
        <trkpt lat="28.293705" lon="105.036621"><ele>414.31342</ele><time>2026-05-05T17:32:25.000Z</time></trkpt>
        <trkpt lat="28.293653" lon="105.036624"><ele>413.37772</ele><time>2026-05-05T17:32:32.000Z</time></trkpt>
        <trkpt lat="28.293597" lon="105.036622"><ele>413.31067</ele><time>2026-05-05T17:32:37.000Z</time></trkpt>
        <trkpt lat="28.293555" lon="105.036584"><ele>412.69025</ele><time>2026-05-05T17:32:42.000Z</time></trkpt>
        <trkpt lat="28.293502" lon="105.036562"><ele>413.09912</ele><time>2026-05-05T17:32:46.000Z</time></trkpt>
        <trkpt lat="28.293455" lon="105.036539"><ele>413.47946</ele><time>2026-05-05T17:32:51.000Z</time></trkpt>
        <trkpt lat="28.293415" lon="105.036511"><ele>413.2554</ele><time>2026-05-05T17:32:55.000Z</time></trkpt>
        <trkpt lat="28.293361" lon="105.03653"><ele>412.88297</ele><time>2026-05-05T17:32:59.000Z</time></trkpt>
        <trkpt lat="28.2933" lon="105.036536"><ele>412.77997</ele><time>2026-05-05T17:33:04.000Z</time></trkpt>
        <trkpt lat="28.293251" lon="105.036549"><ele>411.37936</ele><time>2026-05-05T17:33:11.000Z</time></trkpt>
        <trkpt lat="28.293227" lon="105.036498"><ele>410.86218</ele><time>2026-05-05T17:33:18.000Z</time></trkpt>
        <trkpt lat="28.293173" lon="105.036495"><ele>409.9674</ele><time>2026-05-05T17:33:25.000Z</time></trkpt>
        <trkpt lat="28.293125" lon="105.036502"><ele>411.20923</ele><time>2026-05-05T17:33:31.000Z</time></trkpt>
        <trkpt lat="28.293081" lon="105.036515"><ele>410.14346</ele><time>2026-05-05T17:33:38.000Z</time></trkpt>
        <trkpt lat="28.29303" lon="105.036516"><ele>409.90942</ele><time>2026-05-05T17:33:45.000Z</time></trkpt>
        <trkpt lat="28.292982" lon="105.036519"><ele>411.1056</ele><time>2026-05-05T17:33:51.000Z</time></trkpt>
        <trkpt lat="28.292933" lon="105.036511"><ele>410.86322</ele><time>2026-05-05T17:33:58.000Z</time></trkpt>
        <trkpt lat="28.292877" lon="105.036514"><ele>411.16275</ele><time>2026-05-05T17:34:05.000Z</time></trkpt>
        <trkpt lat="28.292829" lon="105.03649"><ele>409.91385</ele><time>2026-05-05T17:34:13.000Z</time></trkpt>
        <trkpt lat="28.292794" lon="105.036451"><ele>410.629</ele><time>2026-05-05T17:34:22.000Z</time></trkpt>
        <trkpt lat="28.292749" lon="105.036436"><ele>410.3996</ele><time>2026-05-05T17:34:27.000Z</time></trkpt>
        <trkpt lat="28.292706" lon="105.036457"><ele>411.3884</ele><time>2026-05-05T17:34:33.000Z</time></trkpt>
        <trkpt lat="28.292656" lon="105.036455"><ele>411.68054</ele><time>2026-05-05T17:34:38.000Z</time></trkpt>
        <trkpt lat="28.2926" lon="105.036455"><ele>412.61838</ele><time>2026-05-05T17:34:43.000Z</time></trkpt>
        <trkpt lat="28.292549" lon="105.036455"><ele>412.90445</ele><time>2026-05-05T17:34:49.000Z</time></trkpt>
        <trkpt lat="28.292501" lon="105.036453"><ele>412.79926</ele><time>2026-05-05T17:34:57.000Z</time></trkpt>
        <trkpt lat="28.292454" lon="105.036476"><ele>412.2326</ele><time>2026-05-05T17:35:03.000Z</time></trkpt>
        <trkpt lat="28.292398" lon="105.036498"><ele>411.90683</ele><time>2026-05-05T17:35:10.000Z</time></trkpt>
        <trkpt lat="28.292351" lon="105.036509"><ele>411.70825</ele><time>2026-05-05T17:35:15.000Z</time></trkpt>
        <trkpt lat="28.292306" lon="105.036527"><ele>412.8452</ele><time>2026-05-05T17:35:20.000Z</time></trkpt>
        <trkpt lat="28.292262" lon="105.036548"><ele>413.20847</ele><time>2026-05-05T17:35:24.000Z</time></trkpt>
        <trkpt lat="28.292221" lon="105.036569"><ele>412.79453</ele><time>2026-05-05T17:35:29.000Z</time></trkpt>
        <trkpt lat="28.292172" lon="105.036604"><ele>413.1567</ele><time>2026-05-05T17:35:36.000Z</time></trkpt>
        <trkpt lat="28.292122" lon="105.03663"><ele>414.05258</ele><time>2026-05-05T17:35:42.000Z</time></trkpt>
        <trkpt lat="28.292081" lon="105.036653"><ele>414.14017</ele><time>2026-05-05T17:35:47.000Z</time></trkpt>
        <trkpt lat="28.292036" lon="105.036659"><ele>413.8771</ele><time>2026-05-05T17:35:50.000Z</time></trkpt>
        <trkpt lat="28.291987" lon="105.036665"><ele>413.1144</ele><time>2026-05-05T17:35:55.000Z</time></trkpt>
        <trkpt lat="28.291934" lon="105.036684"><ele>413.0039</ele><time>2026-05-05T17:35:59.000Z</time></trkpt>
        <trkpt lat="28.291892" lon="105.036705"><ele>414.29922</ele><time>2026-05-05T17:36:03.000Z</time></trkpt>
        <trkpt lat="28.29185" lon="105.036733"><ele>414.08655</ele><time>2026-05-05T17:36:08.000Z</time></trkpt>
        <trkpt lat="28.291799" lon="105.036736"><ele>414.127</ele><time>2026-05-05T17:36:12.000Z</time></trkpt>
        <trkpt lat="28.291759" lon="105.036759"><ele>413.89966</ele><time>2026-05-05T17:36:16.000Z</time></trkpt>
        <trkpt lat="28.291708" lon="105.03676"><ele>413.7266</ele><time>2026-05-05T17:36:21.000Z</time></trkpt>
        <trkpt lat="28.291654" lon="105.036774"><ele>412.91086</ele><time>2026-05-05T17:36:25.000Z</time></trkpt>
        <trkpt lat="28.291607" lon="105.036784"><ele>413.50977</ele><time>2026-05-05T17:36:30.000Z</time></trkpt>
        <trkpt lat="28.291554" lon="105.036817"><ele>414.50214</ele><time>2026-05-05T17:36:34.000Z</time></trkpt>
        <trkpt lat="28.291498" lon="105.036833"><ele>415.01437</ele><time>2026-05-05T17:36:39.000Z</time></trkpt>
        <trkpt lat="28.291456" lon="105.036852"><ele>415.60114</ele><time>2026-05-05T17:36:43.000Z</time></trkpt>
        <trkpt lat="28.291407" lon="105.036869"><ele>416.40405</ele><time>2026-05-05T17:36:48.000Z</time></trkpt>
        <trkpt lat="28.291366" lon="105.036906"><ele>417.62735</ele><time>2026-05-05T17:36:54.000Z</time></trkpt>
        <trkpt lat="28.291326" lon="105.036941"><ele>419.28827</ele><time>2026-05-05T17:37:07.000Z</time></trkpt>
        <trkpt lat="28.29128" lon="105.036969"><ele>419.0859</ele><time>2026-05-05T17:37:13.000Z</time></trkpt>
        <trkpt lat="28.291237" lon="105.037002"><ele>418.45605</ele><time>2026-05-05T17:37:18.000Z</time></trkpt>
        <trkpt lat="28.291187" lon="105.037025"><ele>418.50934</ele><time>2026-05-05T17:37:23.000Z</time></trkpt>
        <trkpt lat="28.291141" lon="105.037069"><ele>418.2336</ele><time>2026-05-05T17:37:30.000Z</time></trkpt>
        <trkpt lat="28.291098" lon="105.037102"><ele>418.37296</ele><time>2026-05-05T17:37:36.000Z</time></trkpt>
        <trkpt lat="28.291059" lon="105.037128"><ele>419.69305</ele><time>2026-05-05T17:37:41.000Z</time></trkpt>
        <trkpt lat="28.291034" lon="105.037181"><ele>418.6731</ele><time>2026-05-05T17:37:49.000Z</time></trkpt>
        <trkpt lat="28.291004" lon="105.037221"><ele>418.40485</ele><time>2026-05-05T17:37:56.000Z</time></trkpt>
        <trkpt lat="28.290989" lon="105.037274"><ele>418.9285</ele><time>2026-05-05T17:38:02.000Z</time></trkpt>
        <trkpt lat="28.290979" lon="105.037331"><ele>418.67548</ele><time>2026-05-05T17:38:08.000Z</time></trkpt>
        <trkpt lat="28.290984" lon="105.037383"><ele>417.60974</ele><time>2026-05-05T17:38:14.000Z</time></trkpt>
        <trkpt lat="28.290984" lon="105.037435"><ele>416.36697</ele><time>2026-05-05T17:38:19.000Z</time></trkpt>
        <trkpt lat="28.290984" lon="105.037486"><ele>417.03134</ele><time>2026-05-05T17:38:26.000Z</time></trkpt>
        <trkpt lat="28.291003" lon="105.037539"><ele>416.51215</ele><time>2026-05-05T17:38:33.000Z</time></trkpt>
        <trkpt lat="28.291008" lon="105.0376"><ele>416.91333</ele><time>2026-05-05T17:38:40.000Z</time></trkpt>
        <trkpt lat="28.291014" lon="105.037655"><ele>416.65552</ele><time>2026-05-05T17:38:47.000Z</time></trkpt>
        <trkpt lat="28.291024" lon="105.03771"><ele>416.3022</ele><time>2026-05-05T17:38:53.000Z</time></trkpt>
        <trkpt lat="28.29101" lon="105.037759"><ele>418.13812</ele><time>2026-05-05T17:39:10.000Z</time></trkpt>
        <trkpt lat="28.291028" lon="105.037809"><ele>419.17838</ele><time>2026-05-05T17:39:36.000Z</time></trkpt>
        <trkpt lat="28.291029" lon="105.037861"><ele>420.94437</ele><time>2026-05-05T17:39:48.000Z</time></trkpt>
        <trkpt lat="28.291031" lon="105.037914"><ele>420.79095</ele><time>2026-05-05T17:39:54.000Z</time></trkpt>
        <trkpt lat="28.291017" lon="105.037973"><ele>420.32352</ele><time>2026-05-05T17:39:58.000Z</time></trkpt>
        <trkpt lat="28.291023" lon="105.038041"><ele>419.903</ele><time>2026-05-05T17:40:03.000Z</time></trkpt>
        <trkpt lat="28.291018" lon="105.038094"><ele>418.99228</ele><time>2026-05-05T17:40:09.000Z</time></trkpt>
        <trkpt lat="28.291033" lon="105.038148"><ele>420.26404</ele><time>2026-05-05T17:40:14.000Z</time></trkpt>
        <trkpt lat="28.291037" lon="105.038207"><ele>420.14212</ele><time>2026-05-05T17:40:19.000Z</time></trkpt>
        <trkpt lat="28.291038" lon="105.038265"><ele>421.19363</ele><time>2026-05-05T17:40:24.000Z</time></trkpt>
        <trkpt lat="28.291009" lon="105.038318"><ele>422.06488</ele><time>2026-05-05T17:40:38.000Z</time></trkpt>
        <trkpt lat="28.290956" lon="105.038308"><ele>421.74936</ele><time>2026-05-05T17:40:45.000Z</time></trkpt>
        <trkpt lat="28.290909" lon="105.038307"><ele>423.57535</ele><time>2026-05-05T17:40:59.000Z</time></trkpt>
        <trkpt lat="28.290903" lon="105.038358"><ele>423.24887</ele><time>2026-05-05T17:41:35.000Z</time></trkpt>
        <trkpt lat="28.290879" lon="105.038403"><ele>424.32443</ele><time>2026-05-05T17:43:49.000Z</time></trkpt>
        <trkpt lat="28.290855" lon="105.038447"><ele>426.5422</ele><time>2026-05-05T17:44:14.000Z</time></trkpt>
        <trkpt lat="28.290808" lon="105.038432"><ele>426.6689</ele><time>2026-05-05T17:44:39.000Z</time></trkpt>
        <trkpt lat="28.290773" lon="105.03847"><ele>426.58047</ele><time>2026-05-05T17:45:15.000Z</time></trkpt>
        <trkpt lat="28.290727" lon="105.038479"><ele>427.465</ele><time>2026-05-05T17:45:28.000Z</time></trkpt>
        <trkpt lat="28.290712" lon="105.038528"><ele>427.16653</ele><time>2026-05-05T17:45:36.000Z</time></trkpt>
        <trkpt lat="28.290668" lon="105.038547"><ele>427.9573</ele><time>2026-05-05T17:45:45.000Z</time></trkpt>
        <trkpt lat="28.290641" lon="105.038491"><ele>426.69177</ele><time>2026-05-05T17:45:51.000Z</time></trkpt>
        <trkpt lat="28.29064" lon="105.038434"><ele>424.7195</ele><time>2026-05-05T17:45:57.000Z</time></trkpt>
        <trkpt lat="28.290608" lon="105.038389"><ele>423.1407</ele><time>2026-05-05T17:46:04.000Z</time></trkpt>
        <trkpt lat="28.290563" lon="105.038377"><ele>421.86343</ele><time>2026-05-05T17:46:12.000Z</time></trkpt>
        <trkpt lat="28.290536" lon="105.038334"><ele>420.81262</ele><time>2026-05-05T17:46:18.000Z</time></trkpt>
        <trkpt lat="28.290524" lon="105.038283"><ele>419.61505</ele><time>2026-05-05T17:46:27.000Z</time></trkpt>
        <trkpt lat="28.290478" lon="105.038274"><ele>419.9194</ele><time>2026-05-05T17:46:31.000Z</time></trkpt>
        <trkpt lat="28.29043" lon="105.038266"><ele>420.0526</ele><time>2026-05-05T17:46:38.000Z</time></trkpt>
        <trkpt lat="28.290404" lon="105.038221"><ele>420.4453</ele><time>2026-05-05T17:46:47.000Z</time></trkpt>
        <trkpt lat="28.290409" lon="105.038168"><ele>421.36197</ele><time>2026-05-05T17:46:52.000Z</time></trkpt>
        <trkpt lat="28.290417" lon="105.038111"><ele>421.81723</ele><time>2026-05-05T17:46:58.000Z</time></trkpt>
        <trkpt lat="28.290409" lon="105.038053"><ele>422.16568</ele><time>2026-05-05T17:47:06.000Z</time></trkpt>
        <trkpt lat="28.290393" lon="105.038003"><ele>423.46976</ele><time>2026-05-05T17:47:13.000Z</time></trkpt>
        <trkpt lat="28.29039" lon="105.037945"><ele>423.74146</ele><time>2026-05-05T17:47:19.000Z</time></trkpt>
        <trkpt lat="28.290389" lon="105.03789"><ele>423.97043</ele><time>2026-05-05T17:47:24.000Z</time></trkpt>
        <trkpt lat="28.290374" lon="105.037833"><ele>424.42438</ele><time>2026-05-05T17:47:29.000Z</time></trkpt>
        <trkpt lat="28.290374" lon="105.037778"><ele>425.1095</ele><time>2026-05-05T17:47:33.000Z</time></trkpt>
        <trkpt lat="28.290364" lon="105.037729"><ele>425.53024</ele><time>2026-05-05T17:47:37.000Z</time></trkpt>
        <trkpt lat="28.290353" lon="105.037673"><ele>425.55414</ele><time>2026-05-05T17:47:41.000Z</time></trkpt>
        <trkpt lat="28.29034" lon="105.037624"><ele>428.18863</ele><time>2026-05-05T17:47:45.000Z</time></trkpt>
        <trkpt lat="28.290318" lon="105.037572"><ele>430.02502</ele><time>2026-05-05T17:47:51.000Z</time></trkpt>
        <trkpt lat="28.290274" lon="105.037593"><ele>434.62405</ele><time>2026-05-05T17:48:13.000Z</time></trkpt>
        <trkpt lat="28.290224" lon="105.037568"><ele>437.37625</ele><time>2026-05-05T17:48:21.000Z</time></trkpt>
        <trkpt lat="28.290181" lon="105.037547"><ele>439.84775</ele><time>2026-05-05T17:48:33.000Z</time></trkpt>
        <trkpt lat="28.290141" lon="105.03752"><ele>441.42865</ele><time>2026-05-05T17:48:39.000Z</time></trkpt>
        <trkpt lat="28.290097" lon="105.037506"><ele>445.0211</ele><time>2026-05-05T17:48:46.000Z</time></trkpt>
        <trkpt lat="28.290044" lon="105.037482"><ele>447.79266</ele><time>2026-05-05T17:48:55.000Z</time></trkpt>
        <trkpt lat="28.290005" lon="105.037457"><ele>450.56323</ele><time>2026-05-05T17:49:05.000Z</time></trkpt>
        <trkpt lat="28.289959" lon="105.037433"><ele>454.37817</ele><time>2026-05-05T17:49:17.000Z</time></trkpt>
        <trkpt lat="28.289921" lon="105.037397"><ele>456.11172</ele><time>2026-05-05T17:49:27.000Z</time></trkpt>
        <trkpt lat="28.289886" lon="105.037362"><ele>457.11996</ele><time>2026-05-05T17:49:35.000Z</time></trkpt>
        <trkpt lat="28.28986" lon="105.037314"><ele>460.05768</ele><time>2026-05-05T17:49:48.000Z</time></trkpt>
        <trkpt lat="28.289832" lon="105.037273"><ele>461.76447</ele><time>2026-05-05T17:49:56.000Z</time></trkpt>
        <trkpt lat="28.289813" lon="105.037226"><ele>467.70557</ele><time>2026-05-05T17:50:17.000Z</time></trkpt>
        <trkpt lat="28.289775" lon="105.037191"><ele>468.34473</ele><time>2026-05-05T17:50:23.000Z</time></trkpt>
        <trkpt lat="28.289757" lon="105.037139"><ele>470.97208</ele><time>2026-05-05T17:50:37.000Z</time></trkpt>
        <trkpt lat="28.289718" lon="105.037111"><ele>472.7426</ele><time>2026-05-05T17:50:50.000Z</time></trkpt>
        <trkpt lat="28.28969" lon="105.037069"><ele>474.96237</ele><time>2026-05-05T17:51:25.000Z</time></trkpt>
        <trkpt lat="28.289676" lon="105.037019"><ele>475.93692</ele><time>2026-05-05T17:51:34.000Z</time></trkpt>
        <trkpt lat="28.289628" lon="105.037021"><ele>479.0273</ele><time>2026-05-05T17:51:44.000Z</time></trkpt>
        <trkpt lat="28.289606" lon="105.037072"><ele>480.05713</ele><time>2026-05-05T17:51:55.000Z</time></trkpt>
        <trkpt lat="28.289567" lon="105.03711"><ele>481.25992</ele><time>2026-05-05T17:52:03.000Z</time></trkpt>
        <trkpt lat="28.289535" lon="105.037149"><ele>480.29446</ele><time>2026-05-05T17:52:10.000Z</time></trkpt>
        <trkpt lat="28.289484" lon="105.037145"><ele>481.49753</ele><time>2026-05-05T17:52:18.000Z</time></trkpt>
        <trkpt lat="28.289431" lon="105.037161"><ele>481.5464</ele><time>2026-05-05T17:52:29.000Z</time></trkpt>
        <trkpt lat="28.28944" lon="105.037227"><ele>477.19717</ele><time>2026-05-05T17:52:39.000Z</time></trkpt>
        <trkpt lat="28.289362" lon="105.037148"><ele>480.44022</ele><time>2026-05-05T17:52:40.000Z</time></trkpt>
        <trkpt lat="28.289318" lon="105.037121"><ele>480.93533</ele><time>2026-05-05T17:52:49.000Z</time></trkpt>
        <trkpt lat="28.289272" lon="105.037112"><ele>482.29755</ele><time>2026-05-05T17:53:00.000Z</time></trkpt>
        <trkpt lat="28.289218" lon="105.037122"><ele>484.56512</ele><time>2026-05-05T17:53:09.000Z</time></trkpt>
        <trkpt lat="28.289161" lon="105.037131"><ele>485.00464</ele><time>2026-05-05T17:53:19.000Z</time></trkpt>
        <trkpt lat="28.289144" lon="105.03708"><ele>487.42523</ele><time>2026-05-05T17:53:31.000Z</time></trkpt>
        <trkpt lat="28.289097" lon="105.037089"><ele>487.56873</ele><time>2026-05-05T17:53:46.000Z</time></trkpt>
        <trkpt lat="28.28905" lon="105.037084"><ele>489.13498</ele><time>2026-05-05T17:54:00.000Z</time></trkpt>
        <trkpt lat="28.289007" lon="105.037063"><ele>488.9583</ele><time>2026-05-05T17:54:08.000Z</time></trkpt>
        <trkpt lat="28.288955" lon="105.037048"><ele>489.17053</ele><time>2026-05-05T17:54:13.000Z</time></trkpt>
        <trkpt lat="28.288901" lon="105.037027"><ele>490.5692</ele><time>2026-05-05T17:54:21.000Z</time></trkpt>
        <trkpt lat="28.288862" lon="105.036997"><ele>491.59204</ele><time>2026-05-05T17:54:26.000Z</time></trkpt>
        <trkpt lat="28.288825" lon="105.036967"><ele>492.6984</ele><time>2026-05-05T17:54:30.000Z</time></trkpt>
        <trkpt lat="28.288786" lon="105.036937"><ele>494.3694</ele><time>2026-05-05T17:54:36.000Z</time></trkpt>
        <trkpt lat="28.288753" lon="105.036899"><ele>495.9964</ele><time>2026-05-05T17:54:40.000Z</time></trkpt>
        <trkpt lat="28.288716" lon="105.036863"><ele>497.2305</ele><time>2026-05-05T17:54:45.000Z</time></trkpt>
        <trkpt lat="28.288691" lon="105.036817"><ele>498.8414</ele><time>2026-05-05T17:54:57.000Z</time></trkpt>
        <trkpt lat="28.288656" lon="105.036753"><ele>498.39127</ele><time>2026-05-05T17:55:04.000Z</time></trkpt>
        <trkpt lat="28.288632" lon="105.036709"><ele>499.42526</ele><time>2026-05-05T17:55:14.000Z</time></trkpt>
        <trkpt lat="28.288594" lon="105.036675"><ele>502.40485</ele><time>2026-05-05T17:55:22.000Z</time></trkpt>
        <trkpt lat="28.288553" lon="105.036649"><ele>502.8207</ele><time>2026-05-05T17:55:30.000Z</time></trkpt>
        <trkpt lat="28.288523" lon="105.036595"><ele>504.38367</ele><time>2026-05-05T17:55:36.000Z</time></trkpt>
        <trkpt lat="28.288491" lon="105.03655"><ele>505.6476</ele><time>2026-05-05T17:55:43.000Z</time></trkpt>
        <trkpt lat="28.288448" lon="105.036527"><ele>507.02637</ele><time>2026-05-05T17:55:49.000Z</time></trkpt>
        <trkpt lat="28.288411" lon="105.03648"><ele>507.3002</ele><time>2026-05-05T17:56:00.000Z</time></trkpt>
        <trkpt lat="28.288365" lon="105.036463"><ele>508.3767</ele><time>2026-05-05T17:56:04.000Z</time></trkpt>
        <trkpt lat="28.288317" lon="105.036441"><ele>507.84726</ele><time>2026-05-05T17:56:09.000Z</time></trkpt>
        <trkpt lat="28.28827" lon="105.036445"><ele>507.87036</ele><time>2026-05-05T17:56:22.000Z</time></trkpt>
        <trkpt lat="28.288224" lon="105.03643"><ele>505.91318</ele><time>2026-05-05T17:56:30.000Z</time></trkpt>
        <trkpt lat="28.288173" lon="105.036414"><ele>505.52798</ele><time>2026-05-05T17:56:36.000Z</time></trkpt>
        <trkpt lat="28.288118" lon="105.036397"><ele>503.9053</ele><time>2026-05-05T17:56:41.000Z</time></trkpt>
        <trkpt lat="28.288078" lon="105.036372"><ele>504.23694</ele><time>2026-05-05T17:56:45.000Z</time></trkpt>
        <trkpt lat="28.288039" lon="105.036343"><ele>503.65802</ele><time>2026-05-05T17:56:49.000Z</time></trkpt>
        <trkpt lat="28.287996" lon="105.036296"><ele>502.89114</ele><time>2026-05-05T17:56:53.000Z</time></trkpt>
        <trkpt lat="28.287961" lon="105.036247"><ele>502.079</ele><time>2026-05-05T17:56:57.000Z</time></trkpt>
        <trkpt lat="28.287905" lon="105.036236"><ele>502.51816</ele><time>2026-05-05T17:57:01.000Z</time></trkpt>
        <trkpt lat="28.287855" lon="105.03621"><ele>503.33572</ele><time>2026-05-05T17:57:05.000Z</time></trkpt>
        <trkpt lat="28.287802" lon="105.036191"><ele>504.95102</ele><time>2026-05-05T17:57:09.000Z</time></trkpt>
        <trkpt lat="28.287761" lon="105.036164"><ele>505.42383</ele><time>2026-05-05T17:57:13.000Z</time></trkpt>
        <trkpt lat="28.287708" lon="105.036139"><ele>505.02707</ele><time>2026-05-05T17:57:18.000Z</time></trkpt>
        <trkpt lat="28.287662" lon="105.036114"><ele>505.4093</ele><time>2026-05-05T17:57:23.000Z</time></trkpt>
        <trkpt lat="28.287609" lon="105.036087"><ele>506.07587</ele><time>2026-05-05T17:57:28.000Z</time></trkpt>
        <trkpt lat="28.287568" lon="105.036059"><ele>507.2488</ele><time>2026-05-05T17:57:32.000Z</time></trkpt>
        <trkpt lat="28.287517" lon="105.036038"><ele>508.26434</ele><time>2026-05-05T17:57:37.000Z</time></trkpt>
        <trkpt lat="28.287478" lon="105.036"><ele>508.99734</ele><time>2026-05-05T17:57:42.000Z</time></trkpt>
        <trkpt lat="28.287438" lon="105.035972"><ele>511.59134</ele><time>2026-05-05T17:57:49.000Z</time></trkpt>
        <trkpt lat="28.287414" lon="105.035925"><ele>512.48065</ele><time>2026-05-05T17:57:54.000Z</time></trkpt>
        <trkpt lat="28.287371" lon="105.035886"><ele>511.9299</ele><time>2026-05-05T17:57:58.000Z</time></trkpt>
        <trkpt lat="28.287333" lon="105.035847"><ele>512.0141</ele><time>2026-05-05T17:58:03.000Z</time></trkpt>
        <trkpt lat="28.287285" lon="105.035816"><ele>511.8399</ele><time>2026-05-05T17:58:09.000Z</time></trkpt>
        <trkpt lat="28.287238" lon="105.03579"><ele>511.61722</ele><time>2026-05-05T17:58:15.000Z</time></trkpt>
        <trkpt lat="28.287194" lon="105.035771"><ele>512.11646</ele><time>2026-05-05T17:58:22.000Z</time></trkpt>
        <trkpt lat="28.28715" lon="105.035734"><ele>512.03284</ele><time>2026-05-05T17:58:30.000Z</time></trkpt>
        <trkpt lat="28.287095" lon="105.035707"><ele>513.7498</ele><time>2026-05-05T17:58:37.000Z</time></trkpt>
        <trkpt lat="28.287053" lon="105.03566"><ele>513.83014</ele><time>2026-05-05T17:58:43.000Z</time></trkpt>
        <trkpt lat="28.28701" lon="105.035618"><ele>515.1362</ele><time>2026-05-05T17:58:48.000Z</time></trkpt>
        <trkpt lat="28.286977" lon="105.035579"><ele>517.1274</ele><time>2026-05-05T17:58:55.000Z</time></trkpt>
        <trkpt lat="28.286942" lon="105.035534"><ele>517.61676</ele><time>2026-05-05T17:59:00.000Z</time></trkpt>
        <trkpt lat="28.286914" lon="105.035492"><ele>518.1144</ele><time>2026-05-05T17:59:06.000Z</time></trkpt>
        <trkpt lat="28.286868" lon="105.035476"><ele>522.1702</ele><time>2026-05-05T17:59:28.000Z</time></trkpt>
        <trkpt lat="28.28684" lon="105.035434"><ele>522.7392</ele><time>2026-05-05T17:59:37.000Z</time></trkpt>
        <trkpt lat="28.286835" lon="105.035372"><ele>525.91675</ele><time>2026-05-05T17:59:51.000Z</time></trkpt>
        <trkpt lat="28.286795" lon="105.035345"><ele>528.3729</ele><time>2026-05-05T18:00:00.000Z</time></trkpt>
        <trkpt lat="28.286769" lon="105.035288"><ele>528.69495</ele><time>2026-05-05T18:00:08.000Z</time></trkpt>
        <trkpt lat="28.286721" lon="105.035275"><ele>528.8477</ele><time>2026-05-05T18:00:12.000Z</time></trkpt>
        <trkpt lat="28.286662" lon="105.035263"><ele>529.97314</ele><time>2026-05-05T18:00:22.000Z</time></trkpt>
        <trkpt lat="28.286602" lon="105.03529"><ele>529.73425</ele><time>2026-05-05T18:00:24.000Z</time></trkpt>
        <trkpt lat="28.286556" lon="105.035286"><ele>530.06964</ele><time>2026-05-05T18:00:29.000Z</time></trkpt>
        <trkpt lat="28.286503" lon="105.035316"><ele>530.11017</ele><time>2026-05-05T18:00:30.000Z</time></trkpt>
        <trkpt lat="28.286436" lon="105.035411"><ele>531.09064</ele><time>2026-05-05T18:00:31.000Z</time></trkpt>
        <trkpt lat="28.286391" lon="105.035453"><ele>531.2438</ele><time>2026-05-05T18:00:32.000Z</time></trkpt>
        <trkpt lat="28.286348" lon="105.035486"><ele>532.3921</ele><time>2026-05-05T18:00:33.000Z</time></trkpt>
        <trkpt lat="28.286298" lon="105.035501"><ele>533.1678</ele><time>2026-05-05T18:00:34.000Z</time></trkpt>
        <trkpt lat="28.286252" lon="105.035546"><ele>534.98016</ele><time>2026-05-05T18:00:36.000Z</time></trkpt>
        <trkpt lat="28.286224" lon="105.035587"><ele>536.72644</ele><time>2026-05-05T18:00:38.000Z</time></trkpt>
        <trkpt lat="28.286178" lon="105.035606"><ele>538.92896</ele><time>2026-05-05T18:00:41.000Z</time></trkpt>
        <trkpt lat="28.286124" lon="105.03561"><ele>540.89996</ele><time>2026-05-05T18:00:44.000Z</time></trkpt>
        <trkpt lat="28.28605" lon="105.035601"><ele>542.0867</ele><time>2026-05-05T18:00:46.000Z</time></trkpt>
        <trkpt lat="28.28598" lon="105.035595"><ele>544.34186</ele><time>2026-05-05T18:00:49.000Z</time></trkpt>
        <trkpt lat="28.285933" lon="105.035575"><ele>545.8297</ele><time>2026-05-05T18:00:52.000Z</time></trkpt>
        <trkpt lat="28.285884" lon="105.035562"><ele>549.5775</ele><time>2026-05-05T18:00:57.000Z</time></trkpt>
        <trkpt lat="28.28584" lon="105.035536"><ele>553.18964</ele><time>2026-05-05T18:01:02.000Z</time></trkpt>
        <trkpt lat="28.285792" lon="105.035502"><ele>556.0244</ele><time>2026-05-05T18:01:05.000Z</time></trkpt>
        <trkpt lat="28.285756" lon="105.03547"><ele>557.2501</ele><time>2026-05-05T18:01:07.000Z</time></trkpt>
        <trkpt lat="28.285721" lon="105.035409"><ele>557.6774</ele><time>2026-05-05T18:01:09.000Z</time></trkpt>
        <trkpt lat="28.285684" lon="105.035369"><ele>558.424</ele><time>2026-05-05T18:01:11.000Z</time></trkpt>
        <trkpt lat="28.285637" lon="105.035355"><ele>560.5355</ele><time>2026-05-05T18:01:14.000Z</time></trkpt>
        <trkpt lat="28.285602" lon="105.035319"><ele>561.75366</ele><time>2026-05-05T18:01:17.000Z</time></trkpt>
        <trkpt lat="28.285595" lon="105.035267"><ele>562.67084</ele><time>2026-05-05T18:01:22.000Z</time></trkpt>
        <trkpt lat="28.285579" lon="105.035214"><ele>563.7695</ele><time>2026-05-05T18:01:30.000Z</time></trkpt>
        <trkpt lat="28.285566" lon="105.035269"><ele>566.4853</ele><time>2026-05-05T18:01:50.000Z</time></trkpt>
        <trkpt lat="28.285603" lon="105.035235"><ele>567.82623</ele><time>2026-05-05T18:01:59.000Z</time></trkpt>
        <trkpt lat="28.285669" lon="105.035176"><ele>568.0577</ele><time>2026-05-05T18:02:07.000Z</time></trkpt>
        <trkpt lat="28.285674" lon="105.035106"><ele>568.34625</ele><time>2026-05-05T18:02:09.000Z</time></trkpt>
        <trkpt lat="28.285658" lon="105.035052"><ele>568.4008</ele><time>2026-05-05T18:02:10.000Z</time></trkpt>
        <trkpt lat="28.28571" lon="105.035027"><ele>569.44806</ele><time>2026-05-05T18:02:13.000Z</time></trkpt>
        <trkpt lat="28.285809" lon="105.035035"><ele>569.663</ele><time>2026-05-05T18:02:16.000Z</time></trkpt>
        <trkpt lat="28.285857" lon="105.035023"><ele>568.73157</ele><time>2026-05-05T18:02:20.000Z</time></trkpt>
        <trkpt lat="28.285892" lon="105.035059"><ele>567.5136</ele><time>2026-05-05T18:02:29.000Z</time></trkpt>
        <trkpt lat="28.285912" lon="105.035118"><ele>565.8199</ele><time>2026-05-05T18:02:36.000Z</time></trkpt>
        <trkpt lat="28.285864" lon="105.035125"><ele>564.30286</ele><time>2026-05-05T18:02:45.000Z</time></trkpt>
        <trkpt lat="28.285809" lon="105.035138"><ele>565.7422</ele><time>2026-05-05T18:02:51.000Z</time></trkpt>
        <trkpt lat="28.285766" lon="105.035174"><ele>565.27155</ele><time>2026-05-05T18:02:58.000Z</time></trkpt>
        <trkpt lat="28.285718" lon="105.035124"><ele>565.63306</ele><time>2026-05-05T18:03:03.000Z</time></trkpt>
        <trkpt lat="28.285693" lon="105.035068"><ele>565.3769</ele><time>2026-05-05T18:03:06.000Z</time></trkpt>
        <trkpt lat="28.28565" lon="105.035021"><ele>565.1107</ele><time>2026-05-05T18:03:10.000Z</time></trkpt>
        <trkpt lat="28.285607" lon="105.034996"><ele>565.2317</ele><time>2026-05-05T18:03:13.000Z</time></trkpt>
        <trkpt lat="28.285555" lon="105.034961"><ele>565.76105</ele><time>2026-05-05T18:03:19.000Z</time></trkpt>
        <trkpt lat="28.285508" lon="105.034948"><ele>567.1172</ele><time>2026-05-05T18:03:29.000Z</time></trkpt>
        <trkpt lat="28.285575" lon="105.03485"><ele>567.1993</ele><time>2026-05-05T18:03:32.000Z</time></trkpt>
        <trkpt lat="28.285599" lon="105.034789"><ele>567.14435</ele><time>2026-05-05T18:03:34.000Z</time></trkpt>
        <trkpt lat="28.285725" lon="105.034617"><ele>566.0394</ele><time>2026-05-05T18:03:42.000Z</time></trkpt>
        <trkpt lat="28.285759" lon="105.034581"><ele>565.85364</ele><time>2026-05-05T18:03:44.000Z</time></trkpt>
        <trkpt lat="28.285851" lon="105.034487"><ele>565.1755</ele><time>2026-05-05T18:03:47.000Z</time></trkpt>
        <trkpt lat="28.285878" lon="105.03444"><ele>564.7401</ele><time>2026-05-05T18:03:49.000Z</time></trkpt>
        <trkpt lat="28.285915" lon="105.034406"><ele>564.3304</ele><time>2026-05-05T18:03:51.000Z</time></trkpt>
        <trkpt lat="28.285963" lon="105.034386"><ele>563.70905</ele><time>2026-05-05T18:03:53.000Z</time></trkpt>
        <trkpt lat="28.28593" lon="105.03435"><ele>563.00146</ele><time>2026-05-05T18:03:59.000Z</time></trkpt>
        <trkpt lat="28.285862" lon="105.034427"><ele>561.85974</ele><time>2026-05-05T18:04:07.000Z</time></trkpt>
        <trkpt lat="28.285897" lon="105.03437"><ele>561.36975</ele><time>2026-05-05T18:04:13.000Z</time></trkpt>
        <trkpt lat="28.285932" lon="105.034336"><ele>560.6123</ele><time>2026-05-05T18:04:30.000Z</time></trkpt>
        <trkpt lat="28.285925" lon="105.03439"><ele>561.4323</ele><time>2026-05-05T18:04:38.000Z</time></trkpt>
        <trkpt lat="28.285982" lon="105.034426"><ele>561.2893</ele><time>2026-05-05T18:04:42.000Z</time></trkpt>
        <trkpt lat="28.286034" lon="105.034419"><ele>560.50507</ele><time>2026-05-05T18:04:53.000Z</time></trkpt>
        <trkpt lat="28.285995" lon="105.034389"><ele>560.08484</ele><time>2026-05-05T18:05:10.000Z</time></trkpt>
        <trkpt lat="28.285925" lon="105.034402"><ele>560.11365</ele><time>2026-05-05T18:05:20.000Z</time></trkpt>
        <trkpt lat="28.285886" lon="105.034436"><ele>559.88</ele><time>2026-05-05T18:05:36.000Z</time></trkpt>
        <trkpt lat="28.285927" lon="105.034414"><ele>560.04675</ele><time>2026-05-05T18:05:57.000Z</time></trkpt>
        <trkpt lat="28.28597" lon="105.034451"><ele>560.4048</ele><time>2026-05-05T18:06:18.000Z</time></trkpt>
        <trkpt lat="28.285971" lon="105.034502"><ele>560.2803</ele><time>2026-05-05T18:06:24.000Z</time></trkpt>
        <trkpt lat="28.285995" lon="105.034547"><ele>559.82874</ele><time>2026-05-05T18:06:28.000Z</time></trkpt>
        <trkpt lat="28.286007" lon="105.034603"><ele>559.01385</ele><time>2026-05-05T18:06:35.000Z</time></trkpt>
        <trkpt lat="28.286015" lon="105.034653"><ele>558.3422</ele><time>2026-05-05T18:06:41.000Z</time></trkpt>
        <trkpt lat="28.286052" lon="105.034622"><ele>558.9724</ele><time>2026-05-05T18:06:43.000Z</time></trkpt>
        <trkpt lat="28.286092" lon="105.034593"><ele>558.76</ele><time>2026-05-05T18:06:45.000Z</time></trkpt>
        <trkpt lat="28.2861" lon="105.034646"><ele>558.3165</ele><time>2026-05-05T18:06:50.000Z</time></trkpt>
        <trkpt lat="28.28611" lon="105.034699"><ele>557.7384</ele><time>2026-05-05T18:06:54.000Z</time></trkpt>
        <trkpt lat="28.286105" lon="105.034755"><ele>556.67926</ele><time>2026-05-05T18:06:58.000Z</time></trkpt>
        <trkpt lat="28.286109" lon="105.034806"><ele>555.8796</ele><time>2026-05-05T18:07:02.000Z</time></trkpt>
        <trkpt lat="28.286128" lon="105.034859"><ele>554.53235</ele><time>2026-05-05T18:07:07.000Z</time></trkpt>
        <trkpt lat="28.286143" lon="105.034908"><ele>553.2129</ele><time>2026-05-05T18:07:12.000Z</time></trkpt>
        <trkpt lat="28.286174" lon="105.034955"><ele>552.8274</ele><time>2026-05-05T18:07:18.000Z</time></trkpt>
        <trkpt lat="28.286176" lon="105.035007"><ele>552.2258</ele><time>2026-05-05T18:07:24.000Z</time></trkpt>
        <trkpt lat="28.286183" lon="105.035066"><ele>551.86884</ele><time>2026-05-05T18:07:29.000Z</time></trkpt>
        <trkpt lat="28.286162" lon="105.03513"><ele>551.2882</ele><time>2026-05-05T18:07:32.000Z</time></trkpt>
        <trkpt lat="28.286144" lon="105.035204"><ele>550.26227</ele><time>2026-05-05T18:07:36.000Z</time></trkpt>
        <trkpt lat="28.286141" lon="105.03527"><ele>550.14386</ele><time>2026-05-05T18:07:39.000Z</time></trkpt>
        <trkpt lat="28.286137" lon="105.035323"><ele>548.9012</ele><time>2026-05-05T18:07:42.000Z</time></trkpt>
        <trkpt lat="28.286163" lon="105.035377"><ele>546.8401</ele><time>2026-05-05T18:07:58.000Z</time></trkpt>
        <trkpt lat="28.286219" lon="105.035391"><ele>544.5137</ele><time>2026-05-05T18:08:04.000Z</time></trkpt>
        <trkpt lat="28.28625" lon="105.035429"><ele>542.4778</ele><time>2026-05-05T18:08:13.000Z</time></trkpt>
        <trkpt lat="28.286301" lon="105.035441"><ele>541.01117</ele><time>2026-05-05T18:08:19.000Z</time></trkpt>
        <trkpt lat="28.286256" lon="105.035455"><ele>538.2356</ele><time>2026-05-05T18:08:46.000Z</time></trkpt>
        <trkpt lat="28.286211" lon="105.035469"><ele>539.38116</ele><time>2026-05-05T18:08:54.000Z</time></trkpt>
        <trkpt lat="28.286273" lon="105.035461"><ele>543.1637</ele><time>2026-05-05T18:09:12.000Z</time></trkpt>
        <trkpt lat="28.286226" lon="105.03548"><ele>541.99646</ele><time>2026-05-05T18:09:26.000Z</time></trkpt>
        <trkpt lat="28.286174" lon="105.035482"><ele>542.8959</ele><time>2026-05-05T18:09:33.000Z</time></trkpt>
        <trkpt lat="28.28614" lon="105.035518"><ele>543.2589</ele><time>2026-05-05T18:09:42.000Z</time></trkpt>
        <trkpt lat="28.286188" lon="105.035496"><ele>542.7794</ele><time>2026-05-05T18:09:46.000Z</time></trkpt>
        <trkpt lat="28.286231" lon="105.035479"><ele>543.4357</ele><time>2026-05-05T18:09:51.000Z</time></trkpt>
        <trkpt lat="28.28628" lon="105.035442"><ele>543.7691</ele><time>2026-05-05T18:09:54.000Z</time></trkpt>
        <trkpt lat="28.286332" lon="105.035435"><ele>542.9475</ele><time>2026-05-05T18:10:06.000Z</time></trkpt>
        <trkpt lat="28.286385" lon="105.035428"><ele>542.3139</ele><time>2026-05-05T18:10:09.000Z</time></trkpt>
        <trkpt lat="28.286444" lon="105.03545"><ele>542.38214</ele><time>2026-05-05T18:10:20.000Z</time></trkpt>
        <trkpt lat="28.286513" lon="105.035446"><ele>542.4139</ele><time>2026-05-05T18:10:22.000Z</time></trkpt>
        <trkpt lat="28.286581" lon="105.035448"><ele>542.01404</ele><time>2026-05-05T18:10:24.000Z</time></trkpt>
        <trkpt lat="28.28663" lon="105.035418"><ele>539.121</ele><time>2026-05-05T18:10:32.000Z</time></trkpt>
        <trkpt lat="28.286692" lon="105.035413"><ele>536.7677</ele><time>2026-05-05T18:10:41.000Z</time></trkpt>
        <trkpt lat="28.286574" lon="105.035458"><ele>532.2216</ele><time>2026-05-05T18:10:56.000Z</time></trkpt>
        <trkpt lat="28.286518" lon="105.035461"><ele>532.17975</ele><time>2026-05-05T18:11:02.000Z</time></trkpt>
        <trkpt lat="28.286469" lon="105.03545"><ele>532.7328</ele><time>2026-05-05T18:11:21.000Z</time></trkpt>
        <trkpt lat="28.286425" lon="105.03543"><ele>533.3489</ele><time>2026-05-05T18:11:26.000Z</time></trkpt>
        <trkpt lat="28.286476" lon="105.035417"><ele>533.9659</ele><time>2026-05-05T18:11:30.000Z</time></trkpt>
        <trkpt lat="28.286426" lon="105.035388"><ele>531.14435</ele><time>2026-05-05T18:11:39.000Z</time></trkpt>
        <trkpt lat="28.28652" lon="105.035379"><ele>526.4477</ele><time>2026-05-05T18:12:03.000Z</time></trkpt>
        <trkpt lat="28.286567" lon="105.035385"><ele>526.4612</ele><time>2026-05-05T18:12:07.000Z</time></trkpt>
        <trkpt lat="28.286633" lon="105.03537"><ele>525.83636</ele><time>2026-05-05T18:12:11.000Z</time></trkpt>
        <trkpt lat="28.286542" lon="105.035394"><ele>523.36523</ele><time>2026-05-05T18:12:30.000Z</time></trkpt>
        <trkpt lat="28.286583" lon="105.035421"><ele>530.39154</ele><time>2026-05-05T18:12:49.000Z</time></trkpt>
        <trkpt lat="28.286535" lon="105.035443"><ele>529.066</ele><time>2026-05-05T18:12:57.000Z</time></trkpt>
        <trkpt lat="28.286494" lon="105.035481"><ele>528.71814</ele><time>2026-05-05T18:13:00.000Z</time></trkpt>
        <trkpt lat="28.28644" lon="105.035503"><ele>533.8387</ele><time>2026-05-05T18:13:20.000Z</time></trkpt>
        <trkpt lat="28.286484" lon="105.035484"><ele>536.14874</ele><time>2026-05-05T18:13:26.000Z</time></trkpt>
        <trkpt lat="28.286536" lon="105.03546"><ele>536.4983</ele><time>2026-05-05T18:13:28.000Z</time></trkpt>
        <trkpt lat="28.286526" lon="105.035523"><ele>535.3377</ele><time>2026-05-05T18:13:39.000Z</time></trkpt>
        <trkpt lat="28.286524" lon="105.035576"><ele>534.78876</ele><time>2026-05-05T18:13:43.000Z</time></trkpt>
        <trkpt lat="28.28652" lon="105.035632"><ele>533.91693</ele><time>2026-05-05T18:13:50.000Z</time></trkpt>
        <trkpt lat="28.286518" lon="105.035683"><ele>532.0315</ele><time>2026-05-05T18:14:15.000Z</time></trkpt>
        <trkpt lat="28.2865" lon="105.035736"><ele>532.0616</ele><time>2026-05-05T18:14:19.000Z</time></trkpt>
        <trkpt lat="28.286513" lon="105.035796"><ele>532.34436</ele><time>2026-05-05T18:14:26.000Z</time></trkpt>
        <trkpt lat="28.286543" lon="105.035853"><ele>533.7431</ele><time>2026-05-05T18:14:31.000Z</time></trkpt>
        <trkpt lat="28.28659" lon="105.035844"><ele>535.1325</ele><time>2026-05-05T18:14:41.000Z</time></trkpt>
        <trkpt lat="28.286619" lon="105.035804"><ele>534.7603</ele><time>2026-05-05T18:14:47.000Z</time></trkpt>
        <trkpt lat="28.286669" lon="105.035822"><ele>534.72906</ele><time>2026-05-05T18:14:50.000Z</time></trkpt>
        <trkpt lat="28.286718" lon="105.03582"><ele>534.63116</ele><time>2026-05-05T18:14:56.000Z</time></trkpt>
        <trkpt lat="28.286734" lon="105.035871"><ele>534.7408</ele><time>2026-05-05T18:15:02.000Z</time></trkpt>
        <trkpt lat="28.286761" lon="105.035921"><ele>534.1534</ele><time>2026-05-05T18:15:08.000Z</time></trkpt>
        <trkpt lat="28.286785" lon="105.035971"><ele>533.0647</ele><time>2026-05-05T18:15:13.000Z</time></trkpt>
        <trkpt lat="28.286782" lon="105.036025"><ele>530.28345</ele><time>2026-05-05T18:15:22.000Z</time></trkpt>
        <trkpt lat="28.286792" lon="105.036078"><ele>530.01917</ele><time>2026-05-05T18:15:29.000Z</time></trkpt>
        <trkpt lat="28.2868" lon="105.036135"><ele>528.84076</ele><time>2026-05-05T18:15:36.000Z</time></trkpt>
        <trkpt lat="28.286821" lon="105.036187"><ele>526.9534</ele><time>2026-05-05T18:15:44.000Z</time></trkpt>
        <trkpt lat="28.286826" lon="105.036245"><ele>528.36896</ele><time>2026-05-05T18:15:54.000Z</time></trkpt>
        <trkpt lat="28.28682" lon="105.036296"><ele>526.6895</ele><time>2026-05-05T18:16:01.000Z</time></trkpt>
        <trkpt lat="28.286821" lon="105.036348"><ele>525.3785</ele><time>2026-05-05T18:16:08.000Z</time></trkpt>
        <trkpt lat="28.286845" lon="105.036399"><ele>524.77686</ele><time>2026-05-05T18:16:16.000Z</time></trkpt>
        <trkpt lat="28.286857" lon="105.036451"><ele>524.59863</ele><time>2026-05-05T18:16:24.000Z</time></trkpt>
        <trkpt lat="28.286875" lon="105.036501"><ele>525.11633</ele><time>2026-05-05T18:16:32.000Z</time></trkpt>
        <trkpt lat="28.286906" lon="105.036544"><ele>525.3343</ele><time>2026-05-05T18:16:41.000Z</time></trkpt>
        <trkpt lat="28.286911" lon="105.036597"><ele>524.2442</ele><time>2026-05-05T18:16:50.000Z</time></trkpt>
        <trkpt lat="28.286932" lon="105.036648"><ele>524.4172</ele><time>2026-05-05T18:16:59.000Z</time></trkpt>
        <trkpt lat="28.286956" lon="105.0367"><ele>524.1907</ele><time>2026-05-05T18:17:06.000Z</time></trkpt>
        <trkpt lat="28.286914" lon="105.036719"><ele>524.4126</ele><time>2026-05-05T18:17:30.000Z</time></trkpt>
        <trkpt lat="28.286871" lon="105.03669"><ele>525.0811</ele><time>2026-05-05T18:17:44.000Z</time></trkpt>
        <trkpt lat="28.286844" lon="105.036641"><ele>526.1028</ele><time>2026-05-05T18:17:53.000Z</time></trkpt>
        <trkpt lat="28.286806" lon="105.036607"><ele>526.315</ele><time>2026-05-05T18:17:59.000Z</time></trkpt>
        <trkpt lat="28.286761" lon="105.036576"><ele>527.4792</ele><time>2026-05-05T18:18:06.000Z</time></trkpt>
        <trkpt lat="28.286735" lon="105.036532"><ele>529.3582</ele><time>2026-05-05T18:18:15.000Z</time></trkpt>
        <trkpt lat="28.286687" lon="105.036513"><ele>530.4312</ele><time>2026-05-05T18:18:27.000Z</time></trkpt>
        <trkpt lat="28.286639" lon="105.036495"><ele>534.5541</ele><time>2026-05-05T18:18:45.000Z</time></trkpt>
        <trkpt lat="28.286604" lon="105.036458"><ele>535.6861</ele><time>2026-05-05T18:18:49.000Z</time></trkpt>
        <trkpt lat="28.286576" lon="105.036416"><ele>538.6121</ele><time>2026-05-05T18:18:58.000Z</time></trkpt>
        <trkpt lat="28.286552" lon="105.036369"><ele>541.2314</ele><time>2026-05-05T18:19:12.000Z</time></trkpt>
        <trkpt lat="28.28652" lon="105.036329"><ele>542.5312</ele><time>2026-05-05T18:19:18.000Z</time></trkpt>
        <trkpt lat="28.286482" lon="105.036294"><ele>542.56696</ele><time>2026-05-05T18:19:27.000Z</time></trkpt>
        <trkpt lat="28.286435" lon="105.036252"><ele>544.53796</ele><time>2026-05-05T18:19:37.000Z</time></trkpt>
        <trkpt lat="28.286412" lon="105.036203"><ele>545.41547</ele><time>2026-05-05T18:19:46.000Z</time></trkpt>
        <trkpt lat="28.286383" lon="105.036159"><ele>546.2606</ele><time>2026-05-05T18:19:52.000Z</time></trkpt>
        <trkpt lat="28.286332" lon="105.036149"><ele>548.4784</ele><time>2026-05-05T18:20:00.000Z</time></trkpt>
        <trkpt lat="28.286297" lon="105.036108"><ele>550.4075</ele><time>2026-05-05T18:20:08.000Z</time></trkpt>
        <trkpt lat="28.286264" lon="105.036069"><ele>552.5169</ele><time>2026-05-05T18:20:15.000Z</time></trkpt>
        <trkpt lat="28.28624" lon="105.036024"><ele>552.9181</ele><time>2026-05-05T18:20:27.000Z</time></trkpt>
        <trkpt lat="28.286219" lon="105.035979"><ele>554.257</ele><time>2026-05-05T18:20:37.000Z</time></trkpt>
        <trkpt lat="28.286181" lon="105.035952"><ele>553.52545</ele><time>2026-05-05T18:20:41.000Z</time></trkpt>
        <trkpt lat="28.286145" lon="105.035918"><ele>555.8881</ele><time>2026-05-05T18:20:57.000Z</time></trkpt>
        <trkpt lat="28.286101" lon="105.035882"><ele>557.76184</ele><time>2026-05-05T18:21:05.000Z</time></trkpt>
        <trkpt lat="28.286062" lon="105.035851"><ele>561.7473</ele><time>2026-05-05T18:21:18.000Z</time></trkpt>
        <trkpt lat="28.286019" lon="105.035829"><ele>563.5573</ele><time>2026-05-05T18:21:37.000Z</time></trkpt>
        <trkpt lat="28.285968" lon="105.035811"><ele>568.3879</ele><time>2026-05-05T18:21:49.000Z</time></trkpt>
        <trkpt lat="28.285929" lon="105.035777"><ele>569.0528</ele><time>2026-05-05T18:21:59.000Z</time></trkpt>
        <trkpt lat="28.285885" lon="105.035743"><ele>571.2948</ele><time>2026-05-05T18:22:09.000Z</time></trkpt>
        <trkpt lat="28.285855" lon="105.035696"><ele>573.5741</ele><time>2026-05-05T18:22:18.000Z</time></trkpt>
        <trkpt lat="28.285824" lon="105.03566"><ele>573.09296</ele><time>2026-05-05T18:22:26.000Z</time></trkpt>
        <trkpt lat="28.28579" lon="105.035626"><ele>573.9911</ele><time>2026-05-05T18:22:35.000Z</time></trkpt>
        <trkpt lat="28.285742" lon="105.035623"><ele>575.0518</ele><time>2026-05-05T18:22:45.000Z</time></trkpt>
        <trkpt lat="28.285704" lon="105.03559"><ele>576.00885</ele><time>2026-05-05T18:22:53.000Z</time></trkpt>
        <trkpt lat="28.285656" lon="105.035572"><ele>576.3202</ele><time>2026-05-05T18:23:03.000Z</time></trkpt>
        <trkpt lat="28.285611" lon="105.035555"><ele>575.8309</ele><time>2026-05-05T18:23:10.000Z</time></trkpt>
        <trkpt lat="28.28556" lon="105.03556"><ele>576.61975</ele><time>2026-05-05T18:23:18.000Z</time></trkpt>
        <trkpt lat="28.285513" lon="105.035539"><ele>577.5875</ele><time>2026-05-05T18:23:25.000Z</time></trkpt>
        <trkpt lat="28.285479" lon="105.035503"><ele>578.6315</ele><time>2026-05-05T18:23:33.000Z</time></trkpt>
        <trkpt lat="28.285428" lon="105.035469"><ele>577.8864</ele><time>2026-05-05T18:23:43.000Z</time></trkpt>
        <trkpt lat="28.285394" lon="105.035434"><ele>577.0993</ele><time>2026-05-05T18:23:48.000Z</time></trkpt>
        <trkpt lat="28.285348" lon="105.035402"><ele>576.7901</ele><time>2026-05-05T18:23:56.000Z</time></trkpt>
        <trkpt lat="28.285303" lon="105.035393"><ele>577.4803</ele><time>2026-05-05T18:24:02.000Z</time></trkpt>
        <trkpt lat="28.28525" lon="105.035362"><ele>576.7678</ele><time>2026-05-05T18:24:07.000Z</time></trkpt>
        <trkpt lat="28.285201" lon="105.035352"><ele>576.1186</ele><time>2026-05-05T18:24:18.000Z</time></trkpt>
        <trkpt lat="28.285147" lon="105.035363"><ele>573.3073</ele><time>2026-05-05T18:24:31.000Z</time></trkpt>
        <trkpt lat="28.285118" lon="105.035404"><ele>573.3995</ele><time>2026-05-05T18:24:36.000Z</time></trkpt>
        <trkpt lat="28.285094" lon="105.03545"><ele>574.7543</ele><time>2026-05-05T18:24:40.000Z</time></trkpt>
        <trkpt lat="28.285069" lon="105.035504"><ele>575.6578</ele><time>2026-05-05T18:24:45.000Z</time></trkpt>
        <trkpt lat="28.285029" lon="105.035532"><ele>574.3597</ele><time>2026-05-05T18:24:51.000Z</time></trkpt>
        <trkpt lat="28.284985" lon="105.035519"><ele>573.0585</ele><time>2026-05-05T18:24:56.000Z</time></trkpt>
        <trkpt lat="28.284948" lon="105.035489"><ele>572.1236</ele><time>2026-05-05T18:25:00.000Z</time></trkpt>
        <trkpt lat="28.284902" lon="105.035484"><ele>570.4123</ele><time>2026-05-05T18:25:05.000Z</time></trkpt>
        <trkpt lat="28.284859" lon="105.035456"><ele>569.9012</ele><time>2026-05-05T18:25:09.000Z</time></trkpt>
        <trkpt lat="28.284806" lon="105.035451"><ele>569.706</ele><time>2026-05-05T18:25:14.000Z</time></trkpt>
        <trkpt lat="28.28476" lon="105.035464"><ele>569.6742</ele><time>2026-05-05T18:25:20.000Z</time></trkpt>
        <trkpt lat="28.284713" lon="105.03548"><ele>569.4345</ele><time>2026-05-05T18:25:26.000Z</time></trkpt>
        <trkpt lat="28.28468" lon="105.035528"><ele>569.362</ele><time>2026-05-05T18:25:32.000Z</time></trkpt>
        <trkpt lat="28.284631" lon="105.035535"><ele>570.85034</ele><time>2026-05-05T18:25:40.000Z</time></trkpt>
        <trkpt lat="28.284598" lon="105.0355"><ele>571.6948</ele><time>2026-05-05T18:25:49.000Z</time></trkpt>
        <trkpt lat="28.284561" lon="105.035469"><ele>572.81885</ele><time>2026-05-05T18:25:55.000Z</time></trkpt>
        <trkpt lat="28.284513" lon="105.035464"><ele>574.7209</ele><time>2026-05-05T18:26:07.000Z</time></trkpt>
        <trkpt lat="28.284469" lon="105.035454"><ele>575.0346</ele><time>2026-05-05T18:26:14.000Z</time></trkpt>
        <trkpt lat="28.284422" lon="105.035435"><ele>576.39215</ele><time>2026-05-05T18:26:23.000Z</time></trkpt>
        <trkpt lat="28.284367" lon="105.035441"><ele>576.7507</ele><time>2026-05-05T18:26:31.000Z</time></trkpt>
        <trkpt lat="28.28432" lon="105.035437"><ele>578.06134</ele><time>2026-05-05T18:26:39.000Z</time></trkpt>
        <trkpt lat="28.284272" lon="105.03544"><ele>578.89984</ele><time>2026-05-05T18:26:46.000Z</time></trkpt>
        <trkpt lat="28.284223" lon="105.035429"><ele>578.9533</ele><time>2026-05-05T18:26:53.000Z</time></trkpt>
        <trkpt lat="28.284174" lon="105.035431"><ele>579.7622</ele><time>2026-05-05T18:27:01.000Z</time></trkpt>
        <trkpt lat="28.284125" lon="105.035437"><ele>581.0076</ele><time>2026-05-05T18:27:09.000Z</time></trkpt>
        <trkpt lat="28.284073" lon="105.035438"><ele>581.14905</ele><time>2026-05-05T18:27:15.000Z</time></trkpt>
        <trkpt lat="28.284022" lon="105.035414"><ele>580.37305</ele><time>2026-05-05T18:27:20.000Z</time></trkpt>
        <trkpt lat="28.283998" lon="105.035364"><ele>581.6568</ele><time>2026-05-05T18:27:25.000Z</time></trkpt>
        <trkpt lat="28.283983" lon="105.035309"><ele>581.3105</ele><time>2026-05-05T18:27:30.000Z</time></trkpt>
        <trkpt lat="28.283983" lon="105.035252"><ele>581.1938</ele><time>2026-05-05T18:27:35.000Z</time></trkpt>
        <trkpt lat="28.283982" lon="105.035193"><ele>582.59534</ele><time>2026-05-05T18:27:42.000Z</time></trkpt>
        <trkpt lat="28.28398" lon="105.035132"><ele>583.6651</ele><time>2026-05-05T18:27:48.000Z</time></trkpt>
        <trkpt lat="28.283985" lon="105.035067"><ele>584.51044</ele><time>2026-05-05T18:27:55.000Z</time></trkpt>
        <trkpt lat="28.283981" lon="105.035013"><ele>584.86816</ele><time>2026-05-05T18:28:00.000Z</time></trkpt>
        <trkpt lat="28.283983" lon="105.03496"><ele>585.4554</ele><time>2026-05-05T18:28:05.000Z</time></trkpt>
        <trkpt lat="28.283975" lon="105.034909"><ele>584.80066</ele><time>2026-05-05T18:28:10.000Z</time></trkpt>
        <trkpt lat="28.283966" lon="105.034849"><ele>584.44684</ele><time>2026-05-05T18:28:16.000Z</time></trkpt>
        <trkpt lat="28.283928" lon="105.034799"><ele>583.96735</ele><time>2026-05-05T18:28:21.000Z</time></trkpt>
        <trkpt lat="28.283903" lon="105.034755"><ele>583.0718</ele><time>2026-05-05T18:28:25.000Z</time></trkpt>
        <trkpt lat="28.28388" lon="105.034697"><ele>582.5895</ele><time>2026-05-05T18:28:30.000Z</time></trkpt>
        <trkpt lat="28.283869" lon="105.03464"><ele>582.1284</ele><time>2026-05-05T18:28:34.000Z</time></trkpt>
        <trkpt lat="28.283874" lon="105.034579"><ele>582.5392</ele><time>2026-05-05T18:28:39.000Z</time></trkpt>
        <trkpt lat="28.283894" lon="105.034526"><ele>582.0637</ele><time>2026-05-05T18:28:44.000Z</time></trkpt>
        <trkpt lat="28.283906" lon="105.034471"><ele>581.5074</ele><time>2026-05-05T18:28:49.000Z</time></trkpt>
        <trkpt lat="28.283929" lon="105.034413"><ele>581.86053</ele><time>2026-05-05T18:28:54.000Z</time></trkpt>
        <trkpt lat="28.283931" lon="105.034358"><ele>581.71985</ele><time>2026-05-05T18:28:58.000Z</time></trkpt>
        <trkpt lat="28.283946" lon="105.0343"><ele>581.3836</ele><time>2026-05-05T18:29:02.000Z</time></trkpt>
        <trkpt lat="28.28393" lon="105.034244"><ele>581.6177</ele><time>2026-05-05T18:29:06.000Z</time></trkpt>
        <trkpt lat="28.283914" lon="105.034194"><ele>581.9021</ele><time>2026-05-05T18:29:10.000Z</time></trkpt>
        <trkpt lat="28.283905" lon="105.034137"><ele>581.4748</ele><time>2026-05-05T18:29:14.000Z</time></trkpt>
        <trkpt lat="28.283882" lon="105.034085"><ele>580.46936</ele><time>2026-05-05T18:29:18.000Z</time></trkpt>
        <trkpt lat="28.283855" lon="105.034037"><ele>579.7305</ele><time>2026-05-05T18:29:22.000Z</time></trkpt>
        <trkpt lat="28.283834" lon="105.033992"><ele>579.6138</ele><time>2026-05-05T18:29:26.000Z</time></trkpt>
        <trkpt lat="28.283815" lon="105.033945"><ele>579.5194</ele><time>2026-05-05T18:29:31.000Z</time></trkpt>
        <trkpt lat="28.283818" lon="105.033884"><ele>580.35455</ele><time>2026-05-05T18:29:35.000Z</time></trkpt>
        <trkpt lat="28.283827" lon="105.033826"><ele>580.3403</ele><time>2026-05-05T18:29:40.000Z</time></trkpt>
        <trkpt lat="28.283859" lon="105.033781"><ele>580.7282</ele><time>2026-05-05T18:29:45.000Z</time></trkpt>
        <trkpt lat="28.283902" lon="105.033752"><ele>581.0039</ele><time>2026-05-05T18:29:50.000Z</time></trkpt>
        <trkpt lat="28.283949" lon="105.033741"><ele>581.6825</ele><time>2026-05-05T18:29:55.000Z</time></trkpt>
        <trkpt lat="28.283999" lon="105.033742"><ele>581.34656</ele><time>2026-05-05T18:32:17.000Z</time></trkpt>
        <trkpt lat="28.28404" lon="105.033704"><ele>581.5438</ele><time>2026-05-05T18:32:28.000Z</time></trkpt>
        <trkpt lat="28.28409" lon="105.033693"><ele>581.5257</ele><time>2026-05-05T18:32:32.000Z</time></trkpt>
        <trkpt lat="28.284137" lon="105.033682"><ele>580.13336</ele><time>2026-05-05T18:32:37.000Z</time></trkpt>
        <trkpt lat="28.28418" lon="105.033659"><ele>579.33325</ele><time>2026-05-05T18:32:43.000Z</time></trkpt>
        <trkpt lat="28.284224" lon="105.033637"><ele>578.2418</ele><time>2026-05-05T18:32:48.000Z</time></trkpt>
        <trkpt lat="28.284267" lon="105.033621"><ele>578.1968</ele><time>2026-05-05T18:32:53.000Z</time></trkpt>
        <trkpt lat="28.284312" lon="105.033603"><ele>577.97906</ele><time>2026-05-05T18:32:58.000Z</time></trkpt>
        <trkpt lat="28.284364" lon="105.033586"><ele>577.9814</ele><time>2026-05-05T18:33:04.000Z</time></trkpt>
        <trkpt lat="28.284403" lon="105.033558"><ele>577.4721</ele><time>2026-05-05T18:33:10.000Z</time></trkpt>
        <trkpt lat="28.284447" lon="105.033539"><ele>577.5663</ele><time>2026-05-05T18:33:15.000Z</time></trkpt>
        <trkpt lat="28.284487" lon="105.033516"><ele>576.4859</ele><time>2026-05-05T18:33:20.000Z</time></trkpt>
        <trkpt lat="28.284532" lon="105.033482"><ele>575.8143</ele><time>2026-05-05T18:33:25.000Z</time></trkpt>
        <trkpt lat="28.284571" lon="105.033455"><ele>574.8387</ele><time>2026-05-05T18:33:29.000Z</time></trkpt>
        <trkpt lat="28.284611" lon="105.033432"><ele>574.64343</ele><time>2026-05-05T18:33:33.000Z</time></trkpt>
        <trkpt lat="28.284658" lon="105.033395"><ele>574.4336</ele><time>2026-05-05T18:33:38.000Z</time></trkpt>
        <trkpt lat="28.284703" lon="105.03336"><ele>573.7116</ele><time>2026-05-05T18:33:45.000Z</time></trkpt>
        <trkpt lat="28.284743" lon="105.033329"><ele>573.65356</ele><time>2026-05-05T18:33:49.000Z</time></trkpt>
        <trkpt lat="28.284789" lon="105.0333"><ele>573.6865</ele><time>2026-05-05T18:33:53.000Z</time></trkpt>
        <trkpt lat="28.284836" lon="105.033281"><ele>574.37</ele><time>2026-05-05T18:33:56.000Z</time></trkpt>
        <trkpt lat="28.28488" lon="105.033257"><ele>573.56476</ele><time>2026-05-05T18:34:00.000Z</time></trkpt>
        <trkpt lat="28.284929" lon="105.033239"><ele>572.99945</ele><time>2026-05-05T18:34:04.000Z</time></trkpt>
        <trkpt lat="28.284975" lon="105.033218"><ele>572.43304</ele><time>2026-05-05T18:34:08.000Z</time></trkpt>
        <trkpt lat="28.285023" lon="105.03322"><ele>572.832</ele><time>2026-05-05T18:34:13.000Z</time></trkpt>
        <trkpt lat="28.285077" lon="105.033216"><ele>573.2406</ele><time>2026-05-05T18:34:17.000Z</time></trkpt>
        <trkpt lat="28.285124" lon="105.033206"><ele>574.3462</ele><time>2026-05-05T18:34:22.000Z</time></trkpt>
        <trkpt lat="28.285173" lon="105.033217"><ele>576.33386</ele><time>2026-05-05T18:34:27.000Z</time></trkpt>
        <trkpt lat="28.285218" lon="105.033231"><ele>576.5993</ele><time>2026-05-05T18:34:32.000Z</time></trkpt>
        <trkpt lat="28.285265" lon="105.033226"><ele>577.46344</ele><time>2026-05-05T18:34:37.000Z</time></trkpt>
        <trkpt lat="28.285316" lon="105.033208"><ele>578.4193</ele><time>2026-05-05T18:34:43.000Z</time></trkpt>
        <trkpt lat="28.285362" lon="105.033191"><ele>580.0691</ele><time>2026-05-05T18:34:49.000Z</time></trkpt>
        <trkpt lat="28.285412" lon="105.033163"><ele>580.45776</ele><time>2026-05-05T18:34:54.000Z</time></trkpt>
        <trkpt lat="28.285459" lon="105.03316"><ele>581.18616</ele><time>2026-05-05T18:34:59.000Z</time></trkpt>
        <trkpt lat="28.285523" lon="105.033166"><ele>581.8165</ele><time>2026-05-05T18:35:04.000Z</time></trkpt>
        <trkpt lat="28.285569" lon="105.033184"><ele>583.26855</ele><time>2026-05-05T18:35:09.000Z</time></trkpt>
        <trkpt lat="28.285621" lon="105.03321"><ele>583.3149</ele><time>2026-05-05T18:35:13.000Z</time></trkpt>
        <trkpt lat="28.285676" lon="105.033223"><ele>583.94086</ele><time>2026-05-05T18:35:18.000Z</time></trkpt>
        <trkpt lat="28.285731" lon="105.033234"><ele>584.3556</ele><time>2026-05-05T18:35:23.000Z</time></trkpt>
        <trkpt lat="28.28578" lon="105.033245"><ele>584.0226</ele><time>2026-05-05T18:35:28.000Z</time></trkpt>
        <trkpt lat="28.28583" lon="105.033241"><ele>583.359</ele><time>2026-05-05T18:35:33.000Z</time></trkpt>
        <trkpt lat="28.285875" lon="105.033228"><ele>583.055</ele><time>2026-05-05T18:35:42.000Z</time></trkpt>
        <trkpt lat="28.285849" lon="105.033186"><ele>582.26227</ele><time>2026-05-05T18:36:03.000Z</time></trkpt>
        <trkpt lat="28.285808" lon="105.033148"><ele>582.63525</ele><time>2026-05-05T18:36:09.000Z</time></trkpt>
        <trkpt lat="28.285763" lon="105.033093"><ele>581.9832</ele><time>2026-05-05T18:36:13.000Z</time></trkpt>
        <trkpt lat="28.285737" lon="105.033049"><ele>582.4014</ele><time>2026-05-05T18:36:18.000Z</time></trkpt>
        <trkpt lat="28.285689" lon="105.033013"><ele>583.2012</ele><time>2026-05-05T18:36:24.000Z</time></trkpt>
        <trkpt lat="28.285644" lon="105.032994"><ele>583.75555</ele><time>2026-05-05T18:36:29.000Z</time></trkpt>
        <trkpt lat="28.2856" lon="105.032975"><ele>584.2826</ele><time>2026-05-05T18:36:33.000Z</time></trkpt>
        <trkpt lat="28.285555" lon="105.032958"><ele>584.81506</ele><time>2026-05-05T18:36:37.000Z</time></trkpt>
        <trkpt lat="28.285508" lon="105.032944"><ele>586.006</ele><time>2026-05-05T18:36:41.000Z</time></trkpt>
        <trkpt lat="28.285454" lon="105.032919"><ele>587.0255</ele><time>2026-05-05T18:36:45.000Z</time></trkpt>
        <trkpt lat="28.285482" lon="105.032872"><ele>587.7076</ele><time>2026-05-05T18:36:50.000Z</time></trkpt>
        <trkpt lat="28.285528" lon="105.032849"><ele>589.0329</ele><time>2026-05-05T18:36:57.000Z</time></trkpt>
        <trkpt lat="28.285577" lon="105.032855"><ele>590.15204</ele><time>2026-05-05T18:37:02.000Z</time></trkpt>
        <trkpt lat="28.285621" lon="105.032816"><ele>590.3656</ele><time>2026-05-05T18:37:09.000Z</time></trkpt>
        <trkpt lat="28.285661" lon="105.032784"><ele>590.9746</ele><time>2026-05-05T18:37:13.000Z</time></trkpt>
        <trkpt lat="28.28571" lon="105.032784"><ele>591.2148</ele><time>2026-05-05T18:37:17.000Z</time></trkpt>
        <trkpt lat="28.28577" lon="105.03279"><ele>591.8788</ele><time>2026-05-05T18:37:21.000Z</time></trkpt>
        <trkpt lat="28.285818" lon="105.032806"><ele>593.28217</ele><time>2026-05-05T18:37:25.000Z</time></trkpt>
        <trkpt lat="28.285867" lon="105.032827"><ele>593.1564</ele><time>2026-05-05T18:37:30.000Z</time></trkpt>
        <trkpt lat="28.285919" lon="105.032837"><ele>593.31586</ele><time>2026-05-05T18:37:34.000Z</time></trkpt>
        <trkpt lat="28.285967" lon="105.032826"><ele>593.9051</ele><time>2026-05-05T18:37:39.000Z</time></trkpt>
        <trkpt lat="28.28602" lon="105.032823"><ele>593.8637</ele><time>2026-05-05T18:37:43.000Z</time></trkpt>
        <trkpt lat="28.28607" lon="105.032838"><ele>594.2139</ele><time>2026-05-05T18:37:47.000Z</time></trkpt>
        <trkpt lat="28.286116" lon="105.032869"><ele>593.407</ele><time>2026-05-05T18:37:53.000Z</time></trkpt>
        <trkpt lat="28.286162" lon="105.032897"><ele>593.5472</ele><time>2026-05-05T18:37:57.000Z</time></trkpt>
        <trkpt lat="28.286208" lon="105.03292"><ele>594.2634</ele><time>2026-05-05T18:38:02.000Z</time></trkpt>
        <trkpt lat="28.286257" lon="105.032937"><ele>595.24866</ele><time>2026-05-05T18:38:06.000Z</time></trkpt>
        <trkpt lat="28.286307" lon="105.032951"><ele>594.644</ele><time>2026-05-05T18:38:10.000Z</time></trkpt>
        <trkpt lat="28.286362" lon="105.032933"><ele>594.01196</ele><time>2026-05-05T18:38:15.000Z</time></trkpt>
        <trkpt lat="28.286406" lon="105.032915"><ele>593.9937</ele><time>2026-05-05T18:38:20.000Z</time></trkpt>
        <trkpt lat="28.28645" lon="105.032881"><ele>593.8277</ele><time>2026-05-05T18:38:26.000Z</time></trkpt>
        <trkpt lat="28.286494" lon="105.032849"><ele>594.15796</ele><time>2026-05-05T18:38:32.000Z</time></trkpt>
        <trkpt lat="28.286535" lon="105.032821"><ele>594.8465</ele><time>2026-05-05T18:38:36.000Z</time></trkpt>
        <trkpt lat="28.286585" lon="105.032813"><ele>595.069</ele><time>2026-05-05T18:38:41.000Z</time></trkpt>
        <trkpt lat="28.286633" lon="105.032792"><ele>595.34924</ele><time>2026-05-05T18:38:45.000Z</time></trkpt>
        <trkpt lat="28.286685" lon="105.032787"><ele>595.80865</ele><time>2026-05-05T18:38:49.000Z</time></trkpt>
        <trkpt lat="28.286733" lon="105.032774"><ele>596.44293</ele><time>2026-05-05T18:38:55.000Z</time></trkpt>
        <trkpt lat="28.286782" lon="105.032763"><ele>596.1345</ele><time>2026-05-05T18:38:59.000Z</time></trkpt>
        <trkpt lat="28.286832" lon="105.032762"><ele>596.00635</ele><time>2026-05-05T18:39:03.000Z</time></trkpt>
        <trkpt lat="28.286878" lon="105.032743"><ele>595.46387</ele><time>2026-05-05T18:39:11.000Z</time></trkpt>
        <trkpt lat="28.286865" lon="105.032689"><ele>596.3165</ele><time>2026-05-05T18:39:20.000Z</time></trkpt>
        <trkpt lat="28.286838" lon="105.032643"><ele>599.3813</ele><time>2026-05-05T18:39:33.000Z</time></trkpt>
        <trkpt lat="28.286816" lon="105.032598"><ele>598.8746</ele><time>2026-05-05T18:39:43.000Z</time></trkpt>
        <trkpt lat="28.286781" lon="105.032559"><ele>602.1969</ele><time>2026-05-05T18:40:16.000Z</time></trkpt>
        <trkpt lat="28.286766" lon="105.032509"><ele>608.48724</ele><time>2026-05-05T18:44:20.000Z</time></trkpt>
        <trkpt lat="28.286759" lon="105.032455"><ele>608.87915</ele><time>2026-05-05T18:44:28.000Z</time></trkpt>
        <trkpt lat="28.286744" lon="105.032403"><ele>610.5953</ele><time>2026-05-05T18:44:38.000Z</time></trkpt>
        <trkpt lat="28.286733" lon="105.032345"><ele>611.88275</ele><time>2026-05-05T18:44:46.000Z</time></trkpt>
        <trkpt lat="28.286722" lon="105.032293"><ele>614.7676</ele><time>2026-05-05T18:44:54.000Z</time></trkpt>
        <trkpt lat="28.286718" lon="105.032235"><ele>617.4618</ele><time>2026-05-05T18:45:04.000Z</time></trkpt>
        <trkpt lat="28.286695" lon="105.032189"><ele>620.70013</ele><time>2026-05-05T18:45:12.000Z</time></trkpt>
        <trkpt lat="28.28666" lon="105.032155"><ele>622.2232</ele><time>2026-05-05T18:45:23.000Z</time></trkpt>
        <trkpt lat="28.286632" lon="105.032105"><ele>624.6635</ele><time>2026-05-05T18:45:32.000Z</time></trkpt>
        <trkpt lat="28.286608" lon="105.032058"><ele>626.1383</ele><time>2026-05-05T18:45:40.000Z</time></trkpt>
        <trkpt lat="28.286584" lon="105.032015"><ele>625.21173</ele><time>2026-05-05T18:45:45.000Z</time></trkpt>
        <trkpt lat="28.286546" lon="105.031979"><ele>625.73694</ele><time>2026-05-05T18:45:54.000Z</time></trkpt>
        <trkpt lat="28.28652" lon="105.031937"><ele>627.143</ele><time>2026-05-05T18:46:03.000Z</time></trkpt>
        <trkpt lat="28.286507" lon="105.031883"><ele>629.0176</ele><time>2026-05-05T18:46:12.000Z</time></trkpt>
        <trkpt lat="28.28647" lon="105.031855"><ele>628.75195</ele><time>2026-05-05T18:46:19.000Z</time></trkpt>
        <trkpt lat="28.286436" lon="105.031819"><ele>629.6354</ele><time>2026-05-05T18:46:29.000Z</time></trkpt>
        <trkpt lat="28.286404" lon="105.031772"><ele>633.3942</ele><time>2026-05-05T18:46:39.000Z</time></trkpt>
        <trkpt lat="28.28638" lon="105.031727"><ele>634.6717</ele><time>2026-05-05T18:46:46.000Z</time></trkpt>
        <trkpt lat="28.286417" lon="105.031697"><ele>638.17773</ele><time>2026-05-05T18:47:03.000Z</time></trkpt>
        <trkpt lat="28.286437" lon="105.031652"><ele>639.3221</ele><time>2026-05-05T18:47:22.000Z</time></trkpt>
        <trkpt lat="28.286491" lon="105.031652"><ele>641.6005</ele><time>2026-05-05T18:47:31.000Z</time></trkpt>
        <trkpt lat="28.286482" lon="105.031597"><ele>641.8648</ele><time>2026-05-05T18:47:55.000Z</time></trkpt>
        <trkpt lat="28.286517" lon="105.031562"><ele>642.091</ele><time>2026-05-05T18:48:10.000Z</time></trkpt>
        <trkpt lat="28.286557" lon="105.031585"><ele>643.455</ele><time>2026-05-05T18:48:18.000Z</time></trkpt>
        <trkpt lat="28.286609" lon="105.031597"><ele>644.0529</ele><time>2026-05-05T18:48:26.000Z</time></trkpt>
        <trkpt lat="28.286644" lon="105.031561"><ele>645.3742</ele><time>2026-05-05T18:48:35.000Z</time></trkpt>
        <trkpt lat="28.286628" lon="105.031504"><ele>648.0335</ele><time>2026-05-05T18:49:05.000Z</time></trkpt>
        <trkpt lat="28.286645" lon="105.03145"><ele>651.7931</ele><time>2026-05-05T18:49:46.000Z</time></trkpt>
        <trkpt lat="28.286616" lon="105.03141"><ele>652.7726</ele><time>2026-05-05T18:49:54.000Z</time></trkpt>
        <trkpt lat="28.286631" lon="105.031358"><ele>652.7395</ele><time>2026-05-05T18:50:00.000Z</time></trkpt>
        <trkpt lat="28.28662" lon="105.031307"><ele>653.3579</ele><time>2026-05-05T18:50:06.000Z</time></trkpt>
        <trkpt lat="28.286609" lon="105.031249"><ele>654.63007</ele><time>2026-05-05T18:50:14.000Z</time></trkpt>
        <trkpt lat="28.286618" lon="105.031199"><ele>655.5742</ele><time>2026-05-05T18:50:20.000Z</time></trkpt>
        <trkpt lat="28.286631" lon="105.031139"><ele>656.17615</ele><time>2026-05-05T18:50:33.000Z</time></trkpt>
        <trkpt lat="28.286651" lon="105.031088"><ele>656.7225</ele><time>2026-05-05T18:50:40.000Z</time></trkpt>
        <trkpt lat="28.286663" lon="105.031031"><ele>657.67676</ele><time>2026-05-05T18:50:51.000Z</time></trkpt>
        <trkpt lat="28.286701" lon="105.031002"><ele>658.1985</ele><time>2026-05-05T18:50:56.000Z</time></trkpt>
        <trkpt lat="28.286722" lon="105.030956"><ele>658.2622</ele><time>2026-05-05T18:51:00.000Z</time></trkpt>
        <trkpt lat="28.286736" lon="105.030902"><ele>658.06226</ele><time>2026-05-05T18:51:05.000Z</time></trkpt>
        <trkpt lat="28.286749" lon="105.030852"><ele>658.3067</ele><time>2026-05-05T18:51:11.000Z</time></trkpt>
        <trkpt lat="28.286766" lon="105.030804"><ele>658.3295</ele><time>2026-05-05T18:51:17.000Z</time></trkpt>
        <trkpt lat="28.286778" lon="105.030753"><ele>657.4791</ele><time>2026-05-05T18:51:22.000Z</time></trkpt>
        <trkpt lat="28.286782" lon="105.0307"><ele>658.2484</ele><time>2026-05-05T18:51:27.000Z</time></trkpt>
        <trkpt lat="28.286736" lon="105.030684"><ele>658.9712</ele><time>2026-05-05T18:51:33.000Z</time></trkpt>
        <trkpt lat="28.286762" lon="105.030642"><ele>658.3499</ele><time>2026-05-05T18:51:36.000Z</time></trkpt>
        <trkpt lat="28.28676" lon="105.030584"><ele>659.69525</ele><time>2026-05-05T18:51:42.000Z</time></trkpt>
        <trkpt lat="28.286782" lon="105.030529"><ele>659.79114</ele><time>2026-05-05T18:51:48.000Z</time></trkpt>
        <trkpt lat="28.286796" lon="105.030476"><ele>660.3159</ele><time>2026-05-05T18:51:55.000Z</time></trkpt>
        <trkpt lat="28.286748" lon="105.030436"><ele>662.95233</ele><time>2026-05-05T18:52:06.000Z</time></trkpt>
        <trkpt lat="28.286738" lon="105.030381"><ele>663.79205</ele><time>2026-05-05T18:52:16.000Z</time></trkpt>
        <trkpt lat="28.286715" lon="105.03033"><ele>666.3284</ele><time>2026-05-05T18:52:27.000Z</time></trkpt>
        <trkpt lat="28.286679" lon="105.030294"><ele>667.5704</ele><time>2026-05-05T18:52:37.000Z</time></trkpt>
        <trkpt lat="28.286643" lon="105.030263"><ele>670.40094</ele><time>2026-05-05T18:52:51.000Z</time></trkpt>
        <trkpt lat="28.28662" lon="105.030216"><ele>671.3935</ele><time>2026-05-05T18:53:07.000Z</time></trkpt>
        <trkpt lat="28.286594" lon="105.030172"><ele>672.96436</ele><time>2026-05-05T18:53:23.000Z</time></trkpt>
        <trkpt lat="28.286552" lon="105.030147"><ele>675.71735</ele><time>2026-05-05T18:53:34.000Z</time></trkpt>
        <trkpt lat="28.286528" lon="105.030098"><ele>677.29</ele><time>2026-05-05T18:54:11.000Z</time></trkpt>
        <trkpt lat="28.286498" lon="105.030055"><ele>677.5061</ele><time>2026-05-05T18:54:22.000Z</time></trkpt>
        <trkpt lat="28.286496" lon="105.03"><ele>677.8004</ele><time>2026-05-05T18:54:30.000Z</time></trkpt>
        <trkpt lat="28.286478" lon="105.029953"><ele>680.5375</ele><time>2026-05-05T18:54:41.000Z</time></trkpt>
        <trkpt lat="28.286473" lon="105.029895"><ele>683.24945</ele><time>2026-05-05T18:54:50.000Z</time></trkpt>
        <trkpt lat="28.286472" lon="105.029844"><ele>686.04816</ele><time>2026-05-05T18:54:59.000Z</time></trkpt>
        <trkpt lat="28.286469" lon="105.029792"><ele>690.11237</ele><time>2026-05-05T18:55:10.000Z</time></trkpt>
        <trkpt lat="28.286496" lon="105.02975"><ele>690.54944</ele><time>2026-05-05T18:55:36.000Z</time></trkpt>
        <trkpt lat="28.286542" lon="105.029751"><ele>689.3095</ele><time>2026-05-05T18:55:47.000Z</time></trkpt>
        <trkpt lat="28.286589" lon="105.029757"><ele>688.6162</ele><time>2026-05-05T18:55:56.000Z</time></trkpt>
        <trkpt lat="28.286639" lon="105.02975"><ele>689.7819</ele><time>2026-05-05T18:56:04.000Z</time></trkpt>
        <trkpt lat="28.286666" lon="105.029708"><ele>689.2593</ele><time>2026-05-05T18:56:11.000Z</time></trkpt>
        <trkpt lat="28.286685" lon="105.029656"><ele>689.9501</ele><time>2026-05-05T18:56:18.000Z</time></trkpt>
        <trkpt lat="28.286698" lon="105.029602"><ele>691.6546</ele><time>2026-05-05T18:56:25.000Z</time></trkpt>
        <trkpt lat="28.286718" lon="105.02955"><ele>689.9946</ele><time>2026-05-05T18:56:33.000Z</time></trkpt>
        <trkpt lat="28.286754" lon="105.029503"><ele>691.842</ele><time>2026-05-05T18:56:39.000Z</time></trkpt>
        <trkpt lat="28.286806" lon="105.0295"><ele>693.86804</ele><time>2026-05-05T18:56:44.000Z</time></trkpt>
        <trkpt lat="28.286855" lon="105.02951"><ele>694.13684</ele><time>2026-05-05T18:56:51.000Z</time></trkpt>
        <trkpt lat="28.2869" lon="105.02952"><ele>695.5691</ele><time>2026-05-05T18:56:57.000Z</time></trkpt>
        <trkpt lat="28.286948" lon="105.029515"><ele>695.0158</ele><time>2026-05-05T18:57:02.000Z</time></trkpt>
        <trkpt lat="28.286997" lon="105.029513"><ele>693.8855</ele><time>2026-05-05T18:57:09.000Z</time></trkpt>
        <trkpt lat="28.287041" lon="105.029525"><ele>693.5053</ele><time>2026-05-05T18:57:15.000Z</time></trkpt>
        <trkpt lat="28.28709" lon="105.029519"><ele>692.45447</ele><time>2026-05-05T18:57:20.000Z</time></trkpt>
        <trkpt lat="28.28714" lon="105.029497"><ele>691.0071</ele><time>2026-05-05T18:57:26.000Z</time></trkpt>
        <trkpt lat="28.287177" lon="105.029467"><ele>688.8893</ele><time>2026-05-05T18:57:35.000Z</time></trkpt>
        <trkpt lat="28.287218" lon="105.029493"><ele>685.7311</ele><time>2026-05-05T18:57:47.000Z</time></trkpt>
        <trkpt lat="28.287257" lon="105.029453"><ele>683.3671</ele><time>2026-05-05T18:58:25.000Z</time></trkpt>
        <trkpt lat="28.287262" lon="105.0294"><ele>685.0514</ele><time>2026-05-05T18:58:33.000Z</time></trkpt>
        <trkpt lat="28.287226" lon="105.029357"><ele>683.4407</ele><time>2026-05-05T18:58:38.000Z</time></trkpt>
        <trkpt lat="28.287198" lon="105.029309"><ele>683.4109</ele><time>2026-05-05T18:58:44.000Z</time></trkpt>
        <trkpt lat="28.287167" lon="105.029264"><ele>682.55225</ele><time>2026-05-05T18:58:50.000Z</time></trkpt>
        <trkpt lat="28.287136" lon="105.029221"><ele>682.14624</ele><time>2026-05-05T18:58:55.000Z</time></trkpt>
        <trkpt lat="28.287101" lon="105.029178"><ele>681.6</ele><time>2026-05-05T18:59:02.000Z</time></trkpt>
        <trkpt lat="28.287059" lon="105.029151"><ele>681.2152</ele><time>2026-05-05T18:59:07.000Z</time></trkpt>
        <trkpt lat="28.287034" lon="105.029108"><ele>683.1292</ele><time>2026-05-05T18:59:13.000Z</time></trkpt>
        <trkpt lat="28.286992" lon="105.029069"><ele>685.6568</ele><time>2026-05-05T18:59:22.000Z</time></trkpt>
        <trkpt lat="28.286959" lon="105.029028"><ele>685.30176</ele><time>2026-05-05T18:59:27.000Z</time></trkpt>
        <trkpt lat="28.28694" lon="105.028981"><ele>684.68085</ele><time>2026-05-05T18:59:32.000Z</time></trkpt>
        <trkpt lat="28.286908" lon="105.028943"><ele>686.03705</ele><time>2026-05-05T18:59:37.000Z</time></trkpt>
        <trkpt lat="28.286876" lon="105.028904"><ele>685.2996</ele><time>2026-05-05T18:59:43.000Z</time></trkpt>
        <trkpt lat="28.286852" lon="105.028858"><ele>684.6881</ele><time>2026-05-05T18:59:48.000Z</time></trkpt>
        <trkpt lat="28.286822" lon="105.028814"><ele>686.4332</ele><time>2026-05-05T18:59:52.000Z</time></trkpt>
        <trkpt lat="28.286792" lon="105.028766"><ele>686.9338</ele><time>2026-05-05T18:59:58.000Z</time></trkpt>
        <trkpt lat="28.286777" lon="105.028716"><ele>687.0212</ele><time>2026-05-05T19:00:04.000Z</time></trkpt>
        <trkpt lat="28.286741" lon="105.028683"><ele>687.32526</ele><time>2026-05-05T19:00:11.000Z</time></trkpt>
        <trkpt lat="28.286709" lon="105.028641"><ele>687.3677</ele><time>2026-05-05T19:00:19.000Z</time></trkpt>
        <trkpt lat="28.286671" lon="105.028612"><ele>686.515</ele><time>2026-05-05T19:00:24.000Z</time></trkpt>
        <trkpt lat="28.286647" lon="105.028569"><ele>686.9687</ele><time>2026-05-05T19:00:29.000Z</time></trkpt>
        <trkpt lat="28.286617" lon="105.028526"><ele>687.936</ele><time>2026-05-05T19:00:34.000Z</time></trkpt>
        <trkpt lat="28.286628" lon="105.028474"><ele>689.19196</ele><time>2026-05-05T19:00:40.000Z</time></trkpt>
        <trkpt lat="28.286635" lon="105.028421"><ele>689.75354</ele><time>2026-05-05T19:00:45.000Z</time></trkpt>
        <trkpt lat="28.286665" lon="105.02838"><ele>690.80927</ele><time>2026-05-05T19:00:51.000Z</time></trkpt>
        <trkpt lat="28.286708" lon="105.02835"><ele>691.3532</ele><time>2026-05-05T19:00:56.000Z</time></trkpt>
        <trkpt lat="28.286755" lon="105.028333"><ele>691.79596</ele><time>2026-05-05T19:01:02.000Z</time></trkpt>
        <trkpt lat="28.286805" lon="105.028333"><ele>691.58844</ele><time>2026-05-05T19:01:09.000Z</time></trkpt>
        <trkpt lat="28.286857" lon="105.028331"><ele>692.38635</ele><time>2026-05-05T19:01:16.000Z</time></trkpt>
        <trkpt lat="28.286915" lon="105.028344"><ele>691.5445</ele><time>2026-05-05T19:01:21.000Z</time></trkpt>
        <trkpt lat="28.286964" lon="105.028366"><ele>690.8908</ele><time>2026-05-05T19:01:27.000Z</time></trkpt>
        <trkpt lat="28.287016" lon="105.028387"><ele>689.937</ele><time>2026-05-05T19:01:35.000Z</time></trkpt>
        <trkpt lat="28.287056" lon="105.028416"><ele>690.03796</ele><time>2026-05-05T19:01:41.000Z</time></trkpt>
        <trkpt lat="28.287098" lon="105.028436"><ele>689.3407</ele><time>2026-05-05T19:01:46.000Z</time></trkpt>
        <trkpt lat="28.287135" lon="105.028472"><ele>688.6619</ele><time>2026-05-05T19:01:51.000Z</time></trkpt>
        <trkpt lat="28.287178" lon="105.028492"><ele>687.5171</ele><time>2026-05-05T19:01:56.000Z</time></trkpt>
        <trkpt lat="28.287227" lon="105.0285"><ele>686.67114</ele><time>2026-05-05T19:02:02.000Z</time></trkpt>
        <trkpt lat="28.287279" lon="105.028501"><ele>685.4534</ele><time>2026-05-05T19:02:07.000Z</time></trkpt>
        <trkpt lat="28.287325" lon="105.028492"><ele>684.96277</ele><time>2026-05-05T19:02:12.000Z</time></trkpt>
        <trkpt lat="28.287372" lon="105.02847"><ele>683.69543</ele><time>2026-05-05T19:02:19.000Z</time></trkpt>
        <trkpt lat="28.287424" lon="105.028463"><ele>686.32135</ele><time>2026-05-05T19:02:25.000Z</time></trkpt>
        <trkpt lat="28.287476" lon="105.028476"><ele>688.00507</ele><time>2026-05-05T19:02:31.000Z</time></trkpt>
        <trkpt lat="28.287517" lon="105.028503"><ele>689.17584</ele><time>2026-05-05T19:02:36.000Z</time></trkpt>
        <trkpt lat="28.287555" lon="105.028544"><ele>689.95056</ele><time>2026-05-05T19:02:41.000Z</time></trkpt>
        <trkpt lat="28.287593" lon="105.028573"><ele>689.31665</ele><time>2026-05-05T19:02:45.000Z</time></trkpt>
        <trkpt lat="28.287631" lon="105.028615"><ele>689.72504</ele><time>2026-05-05T19:02:50.000Z</time></trkpt>
        <trkpt lat="28.287673" lon="105.028647"><ele>689.45593</ele><time>2026-05-05T19:02:54.000Z</time></trkpt>
        <trkpt lat="28.287714" lon="105.028685"><ele>688.9572</ele><time>2026-05-05T19:02:59.000Z</time></trkpt>
        <trkpt lat="28.28776" lon="105.02872"><ele>688.36816</ele><time>2026-05-05T19:03:04.000Z</time></trkpt>
        <trkpt lat="28.287789" lon="105.02876"><ele>688.2957</ele><time>2026-05-05T19:03:09.000Z</time></trkpt>
        <trkpt lat="28.287836" lon="105.028783"><ele>686.9747</ele><time>2026-05-05T19:03:14.000Z</time></trkpt>
        <trkpt lat="28.287891" lon="105.028814"><ele>686.53394</ele><time>2026-05-05T19:03:18.000Z</time></trkpt>
        <trkpt lat="28.287931" lon="105.028839"><ele>684.78015</ele><time>2026-05-05T19:03:23.000Z</time></trkpt>
        <trkpt lat="28.287982" lon="105.028865"><ele>684.1975</ele><time>2026-05-05T19:03:28.000Z</time></trkpt>
        <trkpt lat="28.288031" lon="105.028889"><ele>682.82416</ele><time>2026-05-05T19:03:32.000Z</time></trkpt>
        <trkpt lat="28.288078" lon="105.028879"><ele>680.98914</ele><time>2026-05-05T19:03:38.000Z</time></trkpt>
        <trkpt lat="28.288106" lon="105.028836"><ele>677.9284</ele><time>2026-05-05T19:03:47.000Z</time></trkpt>
        <trkpt lat="28.288121" lon="105.028784"><ele>677.6447</ele><time>2026-05-05T19:03:55.000Z</time></trkpt>
        <trkpt lat="28.288141" lon="105.028733"><ele>676.3442</ele><time>2026-05-05T19:04:02.000Z</time></trkpt>
        <trkpt lat="28.288179" lon="105.028701"><ele>677.37775</ele><time>2026-05-05T19:04:07.000Z</time></trkpt>
        <trkpt lat="28.288223" lon="105.028682"><ele>677.7675</ele><time>2026-05-05T19:04:12.000Z</time></trkpt>
        <trkpt lat="28.288274" lon="105.028677"><ele>677.576</ele><time>2026-05-05T19:04:17.000Z</time></trkpt>
        <trkpt lat="28.288335" lon="105.028673"><ele>677.4071</ele><time>2026-05-05T19:04:22.000Z</time></trkpt>
        <trkpt lat="28.288395" lon="105.028677"><ele>675.90875</ele><time>2026-05-05T19:04:28.000Z</time></trkpt>
        <trkpt lat="28.288445" lon="105.028691"><ele>675.017</ele><time>2026-05-05T19:04:33.000Z</time></trkpt>
        <trkpt lat="28.288486" lon="105.028715"><ele>673.0529</ele><time>2026-05-05T19:04:38.000Z</time></trkpt>
        <trkpt lat="28.288525" lon="105.028747"><ele>672.10156</ele><time>2026-05-05T19:04:43.000Z</time></trkpt>
        <trkpt lat="28.288557" lon="105.028786"><ele>667.64197</ele><time>2026-05-05T19:04:55.000Z</time></trkpt>
        <trkpt lat="28.288589" lon="105.028823"><ele>661.8191</ele><time>2026-05-05T19:05:49.000Z</time></trkpt>
        <trkpt lat="28.288636" lon="105.028862"><ele>660.67584</ele><time>2026-05-05T19:05:53.000Z</time></trkpt>
        <trkpt lat="28.288657" lon="105.028815"><ele>659.44977</ele><time>2026-05-05T19:06:36.000Z</time></trkpt>
        <trkpt lat="28.288616" lon="105.028774"><ele>661.42505</ele><time>2026-05-05T19:06:41.000Z</time></trkpt>
        <trkpt lat="28.288607" lon="105.028723"><ele>662.23926</ele><time>2026-05-05T19:06:51.000Z</time></trkpt>
        <trkpt lat="28.288618" lon="105.028673"><ele>662.6055</ele><time>2026-05-05T19:07:01.000Z</time></trkpt>
        <trkpt lat="28.288635" lon="105.028617"><ele>663.46826</ele><time>2026-05-05T19:07:09.000Z</time></trkpt>
        <trkpt lat="28.288665" lon="105.028574"><ele>664.4264</ele><time>2026-05-05T19:07:16.000Z</time></trkpt>
        <trkpt lat="28.288645" lon="105.028514"><ele>665.38873</ele><time>2026-05-05T19:07:22.000Z</time></trkpt>
        <trkpt lat="28.288607" lon="105.028466"><ele>665.2667</ele><time>2026-05-05T19:07:28.000Z</time></trkpt>
        <trkpt lat="28.288566" lon="105.028422"><ele>665.9651</ele><time>2026-05-05T19:07:33.000Z</time></trkpt>
        <trkpt lat="28.288529" lon="105.028391"><ele>667.0726</ele><time>2026-05-05T19:07:38.000Z</time></trkpt>
        <trkpt lat="28.288499" lon="105.02835"><ele>666.1305</ele><time>2026-05-05T19:07:43.000Z</time></trkpt>
        <trkpt lat="28.288485" lon="105.028284"><ele>668.3699</ele><time>2026-05-05T19:07:49.000Z</time></trkpt>
        <trkpt lat="28.288482" lon="105.028222"><ele>670.9615</ele><time>2026-05-05T19:07:53.000Z</time></trkpt>
        <trkpt lat="28.288498" lon="105.028164"><ele>669.8414</ele><time>2026-05-05T19:07:58.000Z</time></trkpt>
        <trkpt lat="28.288496" lon="105.028112"><ele>669.4928</ele><time>2026-05-05T19:08:03.000Z</time></trkpt>
        <trkpt lat="28.288495" lon="105.028061"><ele>669.8916</ele><time>2026-05-05T19:08:07.000Z</time></trkpt>
        <trkpt lat="28.288478" lon="105.028013"><ele>669.0858</ele><time>2026-05-05T19:08:14.000Z</time></trkpt>
        <trkpt lat="28.288468" lon="105.027947"><ele>669.056</ele><time>2026-05-05T19:08:19.000Z</time></trkpt>
        <trkpt lat="28.288449" lon="105.027899"><ele>668.2442</ele><time>2026-05-05T19:08:24.000Z</time></trkpt>
        <trkpt lat="28.288414" lon="105.027857"><ele>668.94214</ele><time>2026-05-05T19:08:30.000Z</time></trkpt>
        <trkpt lat="28.288383" lon="105.02781"><ele>669.87006</ele><time>2026-05-05T19:08:37.000Z</time></trkpt>
        <trkpt lat="28.288345" lon="105.027783"><ele>670.25574</ele><time>2026-05-05T19:08:41.000Z</time></trkpt>
        <trkpt lat="28.288297" lon="105.027765"><ele>670.86</ele><time>2026-05-05T19:08:46.000Z</time></trkpt>
        <trkpt lat="28.288258" lon="105.027719"><ele>671.6217</ele><time>2026-05-05T19:08:54.000Z</time></trkpt>
        <trkpt lat="28.288212" lon="105.027699"><ele>671.5191</ele><time>2026-05-05T19:08:58.000Z</time></trkpt>
        <trkpt lat="28.288164" lon="105.027663"><ele>671.06964</ele><time>2026-05-05T19:09:04.000Z</time></trkpt>
        <trkpt lat="28.28813" lon="105.027628"><ele>672.02496</ele><time>2026-05-05T19:09:09.000Z</time></trkpt>
        <trkpt lat="28.288087" lon="105.027598"><ele>672.80835</ele><time>2026-05-05T19:09:13.000Z</time></trkpt>
        <trkpt lat="28.288043" lon="105.02758"><ele>672.164</ele><time>2026-05-05T19:09:17.000Z</time></trkpt>
        <trkpt lat="28.28801" lon="105.027543"><ele>672.44135</ele><time>2026-05-05T19:09:21.000Z</time></trkpt>
        <trkpt lat="28.287966" lon="105.027508"><ele>672.0791</ele><time>2026-05-05T19:09:26.000Z</time></trkpt>
        <trkpt lat="28.28792" lon="105.027471"><ele>672.55927</ele><time>2026-05-05T19:09:30.000Z</time></trkpt>
        <trkpt lat="28.287883" lon="105.027428"><ele>674.97876</ele><time>2026-05-05T19:09:36.000Z</time></trkpt>
        <trkpt lat="28.287855" lon="105.027386"><ele>675.34875</ele><time>2026-05-05T19:09:40.000Z</time></trkpt>
        <trkpt lat="28.287826" lon="105.027348"><ele>675.27997</ele><time>2026-05-05T19:09:45.000Z</time></trkpt>
        <trkpt lat="28.287806" lon="105.027297"><ele>676.1527</ele><time>2026-05-05T19:09:51.000Z</time></trkpt>
        <trkpt lat="28.287791" lon="105.027243"><ele>677.05597</ele><time>2026-05-05T19:09:56.000Z</time></trkpt>
        <trkpt lat="28.287799" lon="105.027184"><ele>679.5433</ele><time>2026-05-05T19:10:02.000Z</time></trkpt>
        <trkpt lat="28.287799" lon="105.027129"><ele>681.2142</ele><time>2026-05-05T19:10:08.000Z</time></trkpt>
        <trkpt lat="28.287815" lon="105.027072"><ele>680.99347</ele><time>2026-05-05T19:10:13.000Z</time></trkpt>
        <trkpt lat="28.287821" lon="105.027011"><ele>677.3221</ele><time>2026-05-05T19:10:17.000Z</time></trkpt>
        <trkpt lat="28.287812" lon="105.026947"><ele>674.6494</ele><time>2026-05-05T19:10:22.000Z</time></trkpt>
        <trkpt lat="28.287792" lon="105.026892"><ele>672.51984</ele><time>2026-05-05T19:10:28.000Z</time></trkpt>
        <trkpt lat="28.287776" lon="105.026842"><ele>672.0447</ele><time>2026-05-05T19:10:34.000Z</time></trkpt>
        <trkpt lat="28.28777" lon="105.026785"><ele>674.0458</ele><time>2026-05-05T19:10:42.000Z</time></trkpt>
        <trkpt lat="28.287796" lon="105.026737"><ele>677.0834</ele><time>2026-05-05T19:10:48.000Z</time></trkpt>
        <trkpt lat="28.287825" lon="105.026697"><ele>679.4826</ele><time>2026-05-05T19:10:54.000Z</time></trkpt>
        <trkpt lat="28.287874" lon="105.026675"><ele>681.1312</ele><time>2026-05-05T19:10:59.000Z</time></trkpt>
        <trkpt lat="28.28792" lon="105.026658"><ele>682.3874</ele><time>2026-05-05T19:11:07.000Z</time></trkpt>
        <trkpt lat="28.287977" lon="105.026667"><ele>683.1307</ele><time>2026-05-05T19:11:15.000Z</time></trkpt>
        <trkpt lat="28.288031" lon="105.026664"><ele>683.53485</ele><time>2026-05-05T19:11:22.000Z</time></trkpt>
        <trkpt lat="28.288081" lon="105.026665"><ele>684.0338</ele><time>2026-05-05T19:11:29.000Z</time></trkpt>
        <trkpt lat="28.288142" lon="105.026672"><ele>684.0856</ele><time>2026-05-05T19:11:35.000Z</time></trkpt>
        <trkpt lat="28.288187" lon="105.026648"><ele>683.99915</ele><time>2026-05-05T19:11:42.000Z</time></trkpt>
        <trkpt lat="28.288232" lon="105.026638"><ele>683.60474</ele><time>2026-05-05T19:11:50.000Z</time></trkpt>
        <trkpt lat="28.288258" lon="105.026592"><ele>682.754</ele><time>2026-05-05T19:11:58.000Z</time></trkpt>
        <trkpt lat="28.288253" lon="105.02654"><ele>683.3228</ele><time>2026-05-05T19:12:07.000Z</time></trkpt>
        <trkpt lat="28.288256" lon="105.026485"><ele>682.5024</ele><time>2026-05-05T19:12:16.000Z</time></trkpt>
        <trkpt lat="28.288272" lon="105.026437"><ele>683.39343</ele><time>2026-05-05T19:12:22.000Z</time></trkpt>
        <trkpt lat="28.288299" lon="105.026385"><ele>686.4964</ele><time>2026-05-05T19:12:28.000Z</time></trkpt>
        <trkpt lat="28.288348" lon="105.026361"><ele>688.7419</ele><time>2026-05-05T19:12:33.000Z</time></trkpt>
        <trkpt lat="28.288396" lon="105.026362"><ele>691.5625</ele><time>2026-05-05T19:12:38.000Z</time></trkpt>
        <trkpt lat="28.288443" lon="105.026369"><ele>692.2855</ele><time>2026-05-05T19:12:43.000Z</time></trkpt>
        <trkpt lat="28.288494" lon="105.026373"><ele>694.3733</ele><time>2026-05-05T19:12:49.000Z</time></trkpt>
        <trkpt lat="28.28855" lon="105.026387"><ele>693.2613</ele><time>2026-05-05T19:12:56.000Z</time></trkpt>
        <trkpt lat="28.288598" lon="105.026393"><ele>693.3681</ele><time>2026-05-05T19:13:01.000Z</time></trkpt>
        <trkpt lat="28.288657" lon="105.026378"><ele>693.19196</ele><time>2026-05-05T19:13:08.000Z</time></trkpt>
        <trkpt lat="28.288706" lon="105.026376"><ele>693.1793</ele><time>2026-05-05T19:13:13.000Z</time></trkpt>
        <trkpt lat="28.288759" lon="105.026358"><ele>691.0879</ele><time>2026-05-05T19:13:20.000Z</time></trkpt>
        <trkpt lat="28.288811" lon="105.026339"><ele>689.12146</ele><time>2026-05-05T19:13:26.000Z</time></trkpt>
        <trkpt lat="28.288861" lon="105.026313"><ele>688.2877</ele><time>2026-05-05T19:13:31.000Z</time></trkpt>
        <trkpt lat="28.2889" lon="105.026283"><ele>687.138</ele><time>2026-05-05T19:13:36.000Z</time></trkpt>
        <trkpt lat="28.288941" lon="105.026248"><ele>687.3071</ele><time>2026-05-05T19:13:41.000Z</time></trkpt>
        <trkpt lat="28.288988" lon="105.026225"><ele>687.2294</ele><time>2026-05-05T19:13:46.000Z</time></trkpt>
        <trkpt lat="28.289028" lon="105.026197"><ele>687.20966</ele><time>2026-05-05T19:13:55.000Z</time></trkpt>
        <trkpt lat="28.289053" lon="105.026147"><ele>685.5134</ele><time>2026-05-05T19:14:04.000Z</time></trkpt>
        <trkpt lat="28.289045" lon="105.026094"><ele>686.27527</ele><time>2026-05-05T19:14:12.000Z</time></trkpt>
        <trkpt lat="28.28905" lon="105.02604"><ele>685.2246</ele><time>2026-05-05T19:14:18.000Z</time></trkpt>
        <trkpt lat="28.289039" lon="105.025986"><ele>686.1789</ele><time>2026-05-05T19:14:26.000Z</time></trkpt>
        <trkpt lat="28.289004" lon="105.025949"><ele>685.13983</ele><time>2026-05-05T19:14:31.000Z</time></trkpt>
        <trkpt lat="28.288974" lon="105.025901"><ele>684.55444</ele><time>2026-05-05T19:14:38.000Z</time></trkpt>
        <trkpt lat="28.288941" lon="105.025854"><ele>684.8778</ele><time>2026-05-05T19:14:44.000Z</time></trkpt>
        <trkpt lat="28.288898" lon="105.02582"><ele>687.4434</ele><time>2026-05-05T19:14:51.000Z</time></trkpt>
        <trkpt lat="28.288867" lon="105.025776"><ele>690.6017</ele><time>2026-05-05T19:14:57.000Z</time></trkpt>
        <trkpt lat="28.28884" lon="105.02573"><ele>692.07983</ele><time>2026-05-05T19:15:02.000Z</time></trkpt>
        <trkpt lat="28.288808" lon="105.025692"><ele>693.84174</ele><time>2026-05-05T19:15:10.000Z</time></trkpt>
        <trkpt lat="28.288773" lon="105.025642"><ele>695.28485</ele><time>2026-05-05T19:15:16.000Z</time></trkpt>
        <trkpt lat="28.288746" lon="105.025585"><ele>697.10645</ele><time>2026-05-05T19:15:22.000Z</time></trkpt>
        <trkpt lat="28.288765" lon="105.025531"><ele>699.6099</ele><time>2026-05-05T19:15:29.000Z</time></trkpt>
        <trkpt lat="28.288774" lon="105.02548"><ele>699.4879</ele><time>2026-05-05T19:15:33.000Z</time></trkpt>
        <trkpt lat="28.288805" lon="105.025425"><ele>697.86127</ele><time>2026-05-05T19:15:39.000Z</time></trkpt>
        <trkpt lat="28.288828" lon="105.025376"><ele>696.3284</ele><time>2026-05-05T19:15:44.000Z</time></trkpt>
        <trkpt lat="28.288851" lon="105.025329"><ele>695.7347</ele><time>2026-05-05T19:15:49.000Z</time></trkpt>
        <trkpt lat="28.288872" lon="105.025274"><ele>693.56635</ele><time>2026-05-05T19:15:54.000Z</time></trkpt>
        <trkpt lat="28.288885" lon="105.025221"><ele>691.77203</ele><time>2026-05-05T19:15:59.000Z</time></trkpt>
        <trkpt lat="28.288892" lon="105.025156"><ele>692.25543</ele><time>2026-05-05T19:16:05.000Z</time></trkpt>
        <trkpt lat="28.288871" lon="105.025109"><ele>691.7055</ele><time>2026-05-05T19:16:10.000Z</time></trkpt>
        <trkpt lat="28.288854" lon="105.025061"><ele>692.0998</ele><time>2026-05-05T19:16:17.000Z</time></trkpt>
        <trkpt lat="28.288822" lon="105.025012"><ele>691.83923</ele><time>2026-05-05T19:16:23.000Z</time></trkpt>
        <trkpt lat="28.288804" lon="105.024957"><ele>693.7408</ele><time>2026-05-05T19:16:31.000Z</time></trkpt>
        <trkpt lat="28.288772" lon="105.024905"><ele>694.78107</ele><time>2026-05-05T19:16:38.000Z</time></trkpt>
        <trkpt lat="28.288758" lon="105.02485"><ele>697.15137</ele><time>2026-05-05T19:16:56.000Z</time></trkpt>
        <trkpt lat="28.288726" lon="105.024794"><ele>697.4292</ele><time>2026-05-05T19:17:02.000Z</time></trkpt>
        <trkpt lat="28.288694" lon="105.02475"><ele>698.8174</ele><time>2026-05-05T19:17:08.000Z</time></trkpt>
        <trkpt lat="28.288647" lon="105.02474"><ele>699.8507</ele><time>2026-05-05T19:17:13.000Z</time></trkpt>
        <trkpt lat="28.288602" lon="105.024746"><ele>700.2841</ele><time>2026-05-05T19:17:18.000Z</time></trkpt>
        <trkpt lat="28.288557" lon="105.024738"><ele>701.8815</ele><time>2026-05-05T19:17:27.000Z</time></trkpt>
        <trkpt lat="28.288535" lon="105.024693"><ele>699.76117</ele><time>2026-05-05T19:17:56.000Z</time></trkpt>
        <trkpt lat="28.288498" lon="105.024731"><ele>700.9796</ele><time>2026-05-05T19:18:05.000Z</time></trkpt>
        <trkpt lat="28.28845" lon="105.024738"><ele>703.6219</ele><time>2026-05-05T19:18:13.000Z</time></trkpt>
        <trkpt lat="28.288403" lon="105.024718"><ele>703.4079</ele><time>2026-05-05T19:18:20.000Z</time></trkpt>
        <trkpt lat="28.288374" lon="105.024671"><ele>704.00616</ele><time>2026-05-05T19:18:30.000Z</time></trkpt>
        <trkpt lat="28.288349" lon="105.024621"><ele>702.9541</ele><time>2026-05-05T19:18:37.000Z</time></trkpt>
        <trkpt lat="28.288324" lon="105.024578"><ele>703.51086</ele><time>2026-05-05T19:18:42.000Z</time></trkpt>
        <trkpt lat="28.2883" lon="105.024527"><ele>703.05695</ele><time>2026-05-05T19:18:47.000Z</time></trkpt>
        <trkpt lat="28.288308" lon="105.024464"><ele>703.9315</ele><time>2026-05-05T19:18:52.000Z</time></trkpt>
        <trkpt lat="28.288329" lon="105.02442"><ele>701.8284</ele><time>2026-05-05T19:18:56.000Z</time></trkpt>
        <trkpt lat="28.288346" lon="105.024371"><ele>699.97504</ele><time>2026-05-05T19:19:01.000Z</time></trkpt>
        <trkpt lat="28.288365" lon="105.024319"><ele>698.2967</ele><time>2026-05-05T19:19:06.000Z</time></trkpt>
        <trkpt lat="28.288382" lon="105.024271"><ele>697.9181</ele><time>2026-05-05T19:19:11.000Z</time></trkpt>
        <trkpt lat="28.288402" lon="105.024216"><ele>697.1044</ele><time>2026-05-05T19:19:15.000Z</time></trkpt>
        <trkpt lat="28.288427" lon="105.024162"><ele>697.1635</ele><time>2026-05-05T19:19:20.000Z</time></trkpt>
        <trkpt lat="28.288452" lon="105.024105"><ele>696.6484</ele><time>2026-05-05T19:19:25.000Z</time></trkpt>
        <trkpt lat="28.288478" lon="105.024061"><ele>695.80707</ele><time>2026-05-05T19:19:30.000Z</time></trkpt>
        <trkpt lat="28.28851" lon="105.024014"><ele>696.03564</ele><time>2026-05-05T19:19:38.000Z</time></trkpt>
        <trkpt lat="28.288554" lon="105.023989"><ele>694.43744</ele><time>2026-05-05T19:19:43.000Z</time></trkpt>
        <trkpt lat="28.288601" lon="105.023964"><ele>692.56195</ele><time>2026-05-05T19:19:49.000Z</time></trkpt>
        <trkpt lat="28.288648" lon="105.02395"><ele>690.62994</ele><time>2026-05-05T19:20:01.000Z</time></trkpt>
        <trkpt lat="28.288649" lon="105.023894"><ele>686.896</ele><time>2026-05-05T19:20:19.000Z</time></trkpt>
        <trkpt lat="28.288683" lon="105.023859"><ele>686.3701</ele><time>2026-05-05T19:20:26.000Z</time></trkpt>
        <trkpt lat="28.288643" lon="105.023824"><ele>684.16943</ele><time>2026-05-05T19:20:35.000Z</time></trkpt>
        <trkpt lat="28.288605" lon="105.023787"><ele>682.78564</ele><time>2026-05-05T19:20:40.000Z</time></trkpt>
        <trkpt lat="28.28856" lon="105.02376"><ele>681.27515</ele><time>2026-05-05T19:20:48.000Z</time></trkpt>
        <trkpt lat="28.288513" lon="105.023739"><ele>680.53094</ele><time>2026-05-05T19:20:53.000Z</time></trkpt>
        <trkpt lat="28.288464" lon="105.023752"><ele>680.2174</ele><time>2026-05-05T19:21:00.000Z</time></trkpt>
        <trkpt lat="28.288416" lon="105.023762"><ele>681.6601</ele><time>2026-05-05T19:21:08.000Z</time></trkpt>
        <trkpt lat="28.288368" lon="105.023773"><ele>682.00287</ele><time>2026-05-05T19:21:14.000Z</time></trkpt>
        <trkpt lat="28.288318" lon="105.023745"><ele>684.0589</ele><time>2026-05-05T19:21:20.000Z</time></trkpt>
        <trkpt lat="28.288278" lon="105.023714"><ele>688.13416</ele><time>2026-05-05T19:21:27.000Z</time></trkpt>
        <trkpt lat="28.288238" lon="105.023677"><ele>690.5709</ele><time>2026-05-05T19:21:37.000Z</time></trkpt>
        <trkpt lat="28.288199" lon="105.023631"><ele>689.7651</ele><time>2026-05-05T19:21:42.000Z</time></trkpt>
        <trkpt lat="28.288183" lon="105.023571"><ele>688.11615</ele><time>2026-05-05T19:21:49.000Z</time></trkpt>
        <trkpt lat="28.288205" lon="105.023513"><ele>686.3725</ele><time>2026-05-05T19:21:54.000Z</time></trkpt>
        <trkpt lat="28.288212" lon="105.023452"><ele>685.0501</ele><time>2026-05-05T19:21:59.000Z</time></trkpt>
        <trkpt lat="28.288211" lon="105.023396"><ele>683.12085</ele><time>2026-05-05T19:22:04.000Z</time></trkpt>
        <trkpt lat="28.288198" lon="105.023338"><ele>682.9133</ele><time>2026-05-05T19:22:08.000Z</time></trkpt>
        <trkpt lat="28.288188" lon="105.023284"><ele>681.37555</ele><time>2026-05-05T19:22:13.000Z</time></trkpt>
        <trkpt lat="28.288167" lon="105.023232"><ele>680.1868</ele><time>2026-05-05T19:22:18.000Z</time></trkpt>
        <trkpt lat="28.288133" lon="105.023188"><ele>679.7043</ele><time>2026-05-05T19:22:26.000Z</time></trkpt>
        <trkpt lat="28.288111" lon="105.023138"><ele>680.00183</ele><time>2026-05-05T19:22:34.000Z</time></trkpt>
        <trkpt lat="28.28809" lon="105.023082"><ele>680.51263</ele><time>2026-05-05T19:22:39.000Z</time></trkpt>
        <trkpt lat="28.288102" lon="105.023021"><ele>681.30194</ele><time>2026-05-05T19:22:43.000Z</time></trkpt>
        <trkpt lat="28.288106" lon="105.022958"><ele>681.6804</ele><time>2026-05-05T19:22:47.000Z</time></trkpt>
        <trkpt lat="28.288118" lon="105.022896"><ele>681.30194</ele><time>2026-05-05T19:22:51.000Z</time></trkpt>
        <trkpt lat="28.288133" lon="105.022836"><ele>680.2702</ele><time>2026-05-05T19:22:56.000Z</time></trkpt>
        <trkpt lat="28.288149" lon="105.022784"><ele>676.9277</ele><time>2026-05-05T19:23:00.000Z</time></trkpt>
        <trkpt lat="28.288153" lon="105.022727"><ele>675.9475</ele><time>2026-05-05T19:23:08.000Z</time></trkpt>
        <trkpt lat="28.288127" lon="105.022669"><ele>674.55334</ele><time>2026-05-05T19:23:14.000Z</time></trkpt>
        <trkpt lat="28.288095" lon="105.022619"><ele>674.0019</ele><time>2026-05-05T19:23:20.000Z</time></trkpt>
        <trkpt lat="28.288055" lon="105.022586"><ele>674.439</ele><time>2026-05-05T19:23:26.000Z</time></trkpt>
        <trkpt lat="28.288014" lon="105.022551"><ele>674.8674</ele><time>2026-05-05T19:23:31.000Z</time></trkpt>
        <trkpt lat="28.287983" lon="105.022507"><ele>677.09467</ele><time>2026-05-05T19:23:36.000Z</time></trkpt>
        <trkpt lat="28.287969" lon="105.022449"><ele>680.03766</ele><time>2026-05-05T19:23:41.000Z</time></trkpt>
        <trkpt lat="28.287965" lon="105.022397"><ele>681.84235</ele><time>2026-05-05T19:23:45.000Z</time></trkpt>
        <trkpt lat="28.287964" lon="105.022344"><ele>684.4573</ele><time>2026-05-05T19:23:49.000Z</time></trkpt>
        <trkpt lat="28.287971" lon="105.022287"><ele>686.75446</ele><time>2026-05-05T19:23:53.000Z</time></trkpt>
        <trkpt lat="28.287998" lon="105.02223"><ele>687.96344</ele><time>2026-05-05T19:23:57.000Z</time></trkpt>
        <trkpt lat="28.288023" lon="105.02217"><ele>687.9583</ele><time>2026-05-05T19:24:01.000Z</time></trkpt>
        <trkpt lat="28.288048" lon="105.022114"><ele>688.1487</ele><time>2026-05-05T19:24:05.000Z</time></trkpt>
        <trkpt lat="28.288065" lon="105.02206"><ele>687.7977</ele><time>2026-05-05T19:24:08.000Z</time></trkpt>
        <trkpt lat="28.288081" lon="105.022005"><ele>685.6297</ele><time>2026-05-05T19:24:12.000Z</time></trkpt>
        <trkpt lat="28.288103" lon="105.021947"><ele>684.71313</ele><time>2026-05-05T19:24:16.000Z</time></trkpt>
        <trkpt lat="28.288129" lon="105.021893"><ele>683.0767</ele><time>2026-05-05T19:24:20.000Z</time></trkpt>
        <trkpt lat="28.28815" lon="105.021848"><ele>681.8663</ele><time>2026-05-05T19:24:23.000Z</time></trkpt>
        <trkpt lat="28.288187" lon="105.021803"><ele>681.2219</ele><time>2026-05-05T19:24:27.000Z</time></trkpt>
        <trkpt lat="28.28822" lon="105.021753"><ele>678.83704</ele><time>2026-05-05T19:24:31.000Z</time></trkpt>
        <trkpt lat="28.288228" lon="105.021694"><ele>674.9353</ele><time>2026-05-05T19:24:37.000Z</time></trkpt>
        <trkpt lat="28.288242" lon="105.021638"><ele>671.87555</ele><time>2026-05-05T19:24:42.000Z</time></trkpt>
        <trkpt lat="28.288256" lon="105.021585"><ele>670.22015</ele><time>2026-05-05T19:24:46.000Z</time></trkpt>
        <trkpt lat="28.288269" lon="105.021527"><ele>669.3824</ele><time>2026-05-05T19:24:51.000Z</time></trkpt>
        <trkpt lat="28.288287" lon="105.021468"><ele>668.45667</ele><time>2026-05-05T19:24:56.000Z</time></trkpt>
        <trkpt lat="28.288305" lon="105.021417"><ele>667.7132</ele><time>2026-05-05T19:25:00.000Z</time></trkpt>
        <trkpt lat="28.288328" lon="105.021366"><ele>666.8783</ele><time>2026-05-05T19:25:07.000Z</time></trkpt>
        <trkpt lat="28.288332" lon="105.021309"><ele>665.34467</ele><time>2026-05-05T19:25:15.000Z</time></trkpt>
        <trkpt lat="28.288316" lon="105.02126"><ele>664.63513</ele><time>2026-05-05T19:25:20.000Z</time></trkpt>
        <trkpt lat="28.288319" lon="105.021205"><ele>664.2963</ele><time>2026-05-05T19:25:25.000Z</time></trkpt>
        <trkpt lat="28.288326" lon="105.021141"><ele>663.7945</ele><time>2026-05-05T19:25:30.000Z</time></trkpt>
        <trkpt lat="28.288324" lon="105.021085"><ele>661.94275</ele><time>2026-05-05T19:25:34.000Z</time></trkpt>
        <trkpt lat="28.28832" lon="105.021026"><ele>661.48737</ele><time>2026-05-05T19:25:39.000Z</time></trkpt>
        <trkpt lat="28.288308" lon="105.020977"><ele>661.37274</ele><time>2026-05-05T19:25:43.000Z</time></trkpt>
        <trkpt lat="28.288279" lon="105.020934"><ele>661.49207</ele><time>2026-05-05T19:25:47.000Z</time></trkpt>
        <trkpt lat="28.288255" lon="105.020887"><ele>660.74805</ele><time>2026-05-05T19:25:53.000Z</time></trkpt>
        <trkpt lat="28.288218" lon="105.020849"><ele>660.14136</ele><time>2026-05-05T19:25:58.000Z</time></trkpt>
        <trkpt lat="28.288176" lon="105.02081"><ele>659.5435</ele><time>2026-05-05T19:26:02.000Z</time></trkpt>
        <trkpt lat="28.288123" lon="105.020786"><ele>659.1388</ele><time>2026-05-05T19:26:08.000Z</time></trkpt>
        <trkpt lat="28.288076" lon="105.020779"><ele>658.18463</ele><time>2026-05-05T19:26:13.000Z</time></trkpt>
        <trkpt lat="28.288022" lon="105.020772"><ele>657.2085</ele><time>2026-05-05T19:26:18.000Z</time></trkpt>
        <trkpt lat="28.287975" lon="105.020788"><ele>657.2545</ele><time>2026-05-05T19:26:22.000Z</time></trkpt>
        <trkpt lat="28.287923" lon="105.020797"><ele>655.91876</ele><time>2026-05-05T19:26:27.000Z</time></trkpt>
        <trkpt lat="28.28787" lon="105.020803"><ele>655.2817</ele><time>2026-05-05T19:26:31.000Z</time></trkpt>
        <trkpt lat="28.287822" lon="105.020822"><ele>653.9169</ele><time>2026-05-05T19:26:35.000Z</time></trkpt>
        <trkpt lat="28.287777" lon="105.020859"><ele>652.87445</ele><time>2026-05-05T19:26:40.000Z</time></trkpt>
        <trkpt lat="28.287728" lon="105.020867"><ele>652.2708</ele><time>2026-05-05T19:26:43.000Z</time></trkpt>
        <trkpt lat="28.287683" lon="105.02086"><ele>651.72516</ele><time>2026-05-05T19:26:50.000Z</time></trkpt>
        <trkpt lat="28.287631" lon="105.020851"><ele>651.34796</ele><time>2026-05-05T19:26:59.000Z</time></trkpt>
        <trkpt lat="28.287583" lon="105.020849"><ele>653.211</ele><time>2026-05-05T19:27:10.000Z</time></trkpt>
        <trkpt lat="28.287527" lon="105.020828"><ele>652.4972</ele><time>2026-05-05T19:27:15.000Z</time></trkpt>
        <trkpt lat="28.28748" lon="105.020805"><ele>651.16547</ele><time>2026-05-05T19:27:20.000Z</time></trkpt>
        <trkpt lat="28.287449" lon="105.020766"><ele>648.76483</ele><time>2026-05-05T19:27:46.000Z</time></trkpt>
        <trkpt lat="28.287399" lon="105.020759"><ele>648.4173</ele><time>2026-05-05T19:27:50.000Z</time></trkpt>
        <trkpt lat="28.287354" lon="105.020772"><ele>648.39026</ele><time>2026-05-05T19:27:54.000Z</time></trkpt>
        <trkpt lat="28.287305" lon="105.020761"><ele>647.20044</ele><time>2026-05-05T19:27:58.000Z</time></trkpt>
        <trkpt lat="28.287252" lon="105.020737"><ele>646.0724</ele><time>2026-05-05T19:28:02.000Z</time></trkpt>
        <trkpt lat="28.287201" lon="105.020703"><ele>646.50964</ele><time>2026-05-05T19:28:06.000Z</time></trkpt>
        <trkpt lat="28.287157" lon="105.020661"><ele>647.5141</ele><time>2026-05-05T19:28:10.000Z</time></trkpt>
        <trkpt lat="28.28714" lon="105.020599"><ele>649.7992</ele><time>2026-05-05T19:28:14.000Z</time></trkpt>
        <trkpt lat="28.287116" lon="105.020542"><ele>649.2942</ele><time>2026-05-05T19:28:18.000Z</time></trkpt>
        <trkpt lat="28.287121" lon="105.020489"><ele>649.3851</ele><time>2026-05-05T19:28:21.000Z</time></trkpt>
        <trkpt lat="28.28712" lon="105.020424"><ele>649.50793</ele><time>2026-05-05T19:28:25.000Z</time></trkpt>
        <trkpt lat="28.287121" lon="105.020368"><ele>651.32245</ele><time>2026-05-05T19:28:29.000Z</time></trkpt>
        <trkpt lat="28.287133" lon="105.020319"><ele>652.9311</ele><time>2026-05-05T19:28:33.000Z</time></trkpt>
        <trkpt lat="28.28716" lon="105.020276"><ele>651.923</ele><time>2026-05-05T19:28:36.000Z</time></trkpt>
        <trkpt lat="28.287176" lon="105.020226"><ele>649.70013</ele><time>2026-05-05T19:28:39.000Z</time></trkpt>
        <trkpt lat="28.287192" lon="105.020176"><ele>647.21826</ele><time>2026-05-05T19:28:42.000Z</time></trkpt>
        <trkpt lat="28.287224" lon="105.020132"><ele>648.20593</ele><time>2026-05-05T19:28:47.000Z</time></trkpt>
        <trkpt lat="28.287261" lon="105.020091"><ele>647.1217</ele><time>2026-05-05T19:28:51.000Z</time></trkpt>
        <trkpt lat="28.28729" lon="105.020042"><ele>643.3833</ele><time>2026-05-05T19:28:58.000Z</time></trkpt>
        <trkpt lat="28.287334" lon="105.020054"><ele>636.4889</ele><time>2026-05-05T19:29:22.000Z</time></trkpt>
        <trkpt lat="28.287358" lon="105.020006"><ele>634.3507</ele><time>2026-05-05T19:29:37.000Z</time></trkpt>
        <trkpt lat="28.287342" lon="105.019957"><ele>633.81616</ele><time>2026-05-05T19:29:45.000Z</time></trkpt>
        <trkpt lat="28.287327" lon="105.019908"><ele>632.17554</ele><time>2026-05-05T19:30:08.000Z</time></trkpt>
        <trkpt lat="28.287348" lon="105.019852"><ele>632.4126</ele><time>2026-05-05T19:30:36.000Z</time></trkpt>
        <trkpt lat="28.287344" lon="105.019795"><ele>630.9663</ele><time>2026-05-05T19:31:00.000Z</time></trkpt>
        <trkpt lat="28.287326" lon="105.019745"><ele>630.05566</ele><time>2026-05-05T19:31:07.000Z</time></trkpt>
        <trkpt lat="28.287298" lon="105.019694"><ele>630.4861</ele><time>2026-05-05T19:31:12.000Z</time></trkpt>
        <trkpt lat="28.28726" lon="105.019658"><ele>631.5035</ele><time>2026-05-05T19:31:16.000Z</time></trkpt>
        <trkpt lat="28.287226" lon="105.019616"><ele>634.1608</ele><time>2026-05-05T19:31:23.000Z</time></trkpt>
        <trkpt lat="28.287209" lon="105.019569"><ele>635.7001</ele><time>2026-05-05T19:31:27.000Z</time></trkpt>
        <trkpt lat="28.287201" lon="105.019509"><ele>637.3828</ele><time>2026-05-05T19:31:32.000Z</time></trkpt>
        <trkpt lat="28.287189" lon="105.019439"><ele>638.6206</ele><time>2026-05-05T19:31:37.000Z</time></trkpt>
        <trkpt lat="28.287197" lon="105.01938"><ele>638.7706</ele><time>2026-05-05T19:31:41.000Z</time></trkpt>
        <trkpt lat="28.287202" lon="105.019321"><ele>640.0819</ele><time>2026-05-05T19:31:46.000Z</time></trkpt>
        <trkpt lat="28.287211" lon="105.019269"><ele>641.1192</ele><time>2026-05-05T19:31:50.000Z</time></trkpt>
        <trkpt lat="28.287222" lon="105.019211"><ele>641.4848</ele><time>2026-05-05T19:31:55.000Z</time></trkpt>
        <trkpt lat="28.287242" lon="105.019152"><ele>642.431</ele><time>2026-05-05T19:32:00.000Z</time></trkpt>
        <trkpt lat="28.287252" lon="105.0191"><ele>642.9185</ele><time>2026-05-05T19:32:04.000Z</time></trkpt>
        <trkpt lat="28.287267" lon="105.019045"><ele>643.72296</ele><time>2026-05-05T19:32:08.000Z</time></trkpt>
        <trkpt lat="28.287281" lon="105.01899"><ele>645.67804</ele><time>2026-05-05T19:32:13.000Z</time></trkpt>
        <trkpt lat="28.287301" lon="105.01893"><ele>645.9296</ele><time>2026-05-05T19:32:18.000Z</time></trkpt>
        <trkpt lat="28.287327" lon="105.018878"><ele>645.6492</ele><time>2026-05-05T19:32:22.000Z</time></trkpt>
        <trkpt lat="28.287347" lon="105.01882"><ele>645.30774</ele><time>2026-05-05T19:32:26.000Z</time></trkpt>
        <trkpt lat="28.287379" lon="105.018776"><ele>644.2228</ele><time>2026-05-05T19:32:30.000Z</time></trkpt>
        <trkpt lat="28.287419" lon="105.018738"><ele>643.45135</ele><time>2026-05-05T19:32:34.000Z</time></trkpt>
        <trkpt lat="28.287463" lon="105.018694"><ele>643.2982</ele><time>2026-05-05T19:32:38.000Z</time></trkpt>
        <trkpt lat="28.287502" lon="105.018662"><ele>641.9746</ele><time>2026-05-05T19:32:42.000Z</time></trkpt>
        <trkpt lat="28.287539" lon="105.018623"><ele>641.7729</ele><time>2026-05-05T19:32:47.000Z</time></trkpt>
        <trkpt lat="28.28758" lon="105.018591"><ele>642.06586</ele><time>2026-05-05T19:32:51.000Z</time></trkpt>
        <trkpt lat="28.287619" lon="105.01856"><ele>642.59155</ele><time>2026-05-05T19:32:55.000Z</time></trkpt>
        <trkpt lat="28.287658" lon="105.018511"><ele>642.8346</ele><time>2026-05-05T19:33:00.000Z</time></trkpt>
        <trkpt lat="28.287704" lon="105.018482"><ele>642.1315</ele><time>2026-05-05T19:33:04.000Z</time></trkpt>
        <trkpt lat="28.287744" lon="105.018446"><ele>641.1342</ele><time>2026-05-05T19:33:08.000Z</time></trkpt>
        <trkpt lat="28.287794" lon="105.018412"><ele>639.96356</ele><time>2026-05-05T19:33:12.000Z</time></trkpt>
        <trkpt lat="28.287837" lon="105.018399"><ele>640.11676</ele><time>2026-05-05T19:33:15.000Z</time></trkpt>
        <trkpt lat="28.287882" lon="105.01838"><ele>638.6924</ele><time>2026-05-05T19:33:20.000Z</time></trkpt>
        <trkpt lat="28.287925" lon="105.018359"><ele>637.3823</ele><time>2026-05-05T19:33:25.000Z</time></trkpt>
        <trkpt lat="28.287959" lon="105.018321"><ele>637.1272</ele><time>2026-05-05T19:33:29.000Z</time></trkpt>
        <trkpt lat="28.287994" lon="105.018278"><ele>637.13226</ele><time>2026-05-05T19:33:34.000Z</time></trkpt>
        <trkpt lat="28.288014" lon="105.018223"><ele>636.5664</ele><time>2026-05-05T19:33:40.000Z</time></trkpt>
        <trkpt lat="28.288032" lon="105.018176"><ele>636.6175</ele><time>2026-05-05T19:33:45.000Z</time></trkpt>
        <trkpt lat="28.288047" lon="105.01812"><ele>636.89276</ele><time>2026-05-05T19:33:50.000Z</time></trkpt>
        <trkpt lat="28.288057" lon="105.018065"><ele>637.0781</ele><time>2026-05-05T19:33:55.000Z</time></trkpt>
        <trkpt lat="28.288072" lon="105.018008"><ele>637.0028</ele><time>2026-05-05T19:34:00.000Z</time></trkpt>
        <trkpt lat="28.288071" lon="105.017954"><ele>635.5085</ele><time>2026-05-05T19:34:04.000Z</time></trkpt>
        <trkpt lat="28.288062" lon="105.017904"><ele>635.3547</ele><time>2026-05-05T19:34:08.000Z</time></trkpt>
        <trkpt lat="28.28805" lon="105.01785"><ele>634.583</ele><time>2026-05-05T19:34:12.000Z</time></trkpt>
        <trkpt lat="28.288027" lon="105.017801"><ele>634.07635</ele><time>2026-05-05T19:34:16.000Z</time></trkpt>
        <trkpt lat="28.287998" lon="105.017752"><ele>634.34686</ele><time>2026-05-05T19:34:21.000Z</time></trkpt>
        <trkpt lat="28.287969" lon="105.017703"><ele>633.9926</ele><time>2026-05-05T19:34:26.000Z</time></trkpt>
        <trkpt lat="28.287934" lon="105.01766"><ele>633.15845</ele><time>2026-05-05T19:34:30.000Z</time></trkpt>
        <trkpt lat="28.2879" lon="105.017626"><ele>632.953</ele><time>2026-05-05T19:34:34.000Z</time></trkpt>
        <trkpt lat="28.287857" lon="105.017591"><ele>633.06335</ele><time>2026-05-05T19:34:39.000Z</time></trkpt>
        <trkpt lat="28.287811" lon="105.017567"><ele>633.06354</ele><time>2026-05-05T19:34:43.000Z</time></trkpt>
        <trkpt lat="28.287761" lon="105.017575"><ele>632.5093</ele><time>2026-05-05T19:34:47.000Z</time></trkpt>
        <trkpt lat="28.287715" lon="105.017577"><ele>632.40576</ele><time>2026-05-05T19:34:51.000Z</time></trkpt>
        <trkpt lat="28.287667" lon="105.017601"><ele>634.1453</ele><time>2026-05-05T19:34:56.000Z</time></trkpt>
        <trkpt lat="28.287616" lon="105.017618"><ele>633.9929</ele><time>2026-05-05T19:35:01.000Z</time></trkpt>
        <trkpt lat="28.287562" lon="105.01762"><ele>635.44556</ele><time>2026-05-05T19:35:06.000Z</time></trkpt>
        <trkpt lat="28.287517" lon="105.017631"><ele>635.40497</ele><time>2026-05-05T19:35:10.000Z</time></trkpt>
        <trkpt lat="28.28747" lon="105.017636"><ele>636.0482</ele><time>2026-05-05T19:35:14.000Z</time></trkpt>
        <trkpt lat="28.287419" lon="105.017661"><ele>636.6807</ele><time>2026-05-05T19:35:19.000Z</time></trkpt>
        <trkpt lat="28.287372" lon="105.017666"><ele>636.6754</ele><time>2026-05-05T19:35:23.000Z</time></trkpt>
        <trkpt lat="28.287319" lon="105.017666"><ele>637.17004</ele><time>2026-05-05T19:35:27.000Z</time></trkpt>
        <trkpt lat="28.287274" lon="105.017655"><ele>637.8189</ele><time>2026-05-05T19:35:31.000Z</time></trkpt>
        <trkpt lat="28.287212" lon="105.017635"><ele>637.70197</ele><time>2026-05-05T19:35:36.000Z</time></trkpt>
        <trkpt lat="28.287169" lon="105.017607"><ele>637.40356</ele><time>2026-05-05T19:35:41.000Z</time></trkpt>
        <trkpt lat="28.287126" lon="105.017586"><ele>637.21515</ele><time>2026-05-05T19:35:45.000Z</time></trkpt>
        <trkpt lat="28.287075" lon="105.01757"><ele>637.1562</ele><time>2026-05-05T19:35:49.000Z</time></trkpt>
        <trkpt lat="28.287024" lon="105.01756"><ele>637.2852</ele><time>2026-05-05T19:35:53.000Z</time></trkpt>
        <trkpt lat="28.286971" lon="105.017553"><ele>635.29614</ele><time>2026-05-05T19:35:59.000Z</time></trkpt>
        <trkpt lat="28.28692" lon="105.017567"><ele>634.6861</ele><time>2026-05-05T19:36:04.000Z</time></trkpt>
        <trkpt lat="28.286871" lon="105.017568"><ele>633.95233</ele><time>2026-05-05T19:36:09.000Z</time></trkpt>
        <trkpt lat="28.286819" lon="105.017562"><ele>634.33136</ele><time>2026-05-05T19:36:14.000Z</time></trkpt>
        <trkpt lat="28.28677" lon="105.017561"><ele>634.8178</ele><time>2026-05-05T19:36:18.000Z</time></trkpt>
        <trkpt lat="28.286724" lon="105.017552"><ele>635.5019</ele><time>2026-05-05T19:36:23.000Z</time></trkpt>
        <trkpt lat="28.28667" lon="105.017543"><ele>637.3162</ele><time>2026-05-05T19:36:29.000Z</time></trkpt>
        <trkpt lat="28.286625" lon="105.017523"><ele>639.11163</ele><time>2026-05-05T19:36:33.000Z</time></trkpt>
        <trkpt lat="28.286585" lon="105.017487"><ele>641.3535</ele><time>2026-05-05T19:36:38.000Z</time></trkpt>
        <trkpt lat="28.286546" lon="105.017453"><ele>642.4518</ele><time>2026-05-05T19:36:43.000Z</time></trkpt>
        <trkpt lat="28.28651" lon="105.017414"><ele>642.9751</ele><time>2026-05-05T19:36:47.000Z</time></trkpt>
        <trkpt lat="28.286474" lon="105.017363"><ele>642.56805</ele><time>2026-05-05T19:36:51.000Z</time></trkpt>
        <trkpt lat="28.286448" lon="105.017321"><ele>642.2013</ele><time>2026-05-05T19:36:56.000Z</time></trkpt>
        <trkpt lat="28.286416" lon="105.017283"><ele>641.7888</ele><time>2026-05-05T19:37:00.000Z</time></trkpt>
        <trkpt lat="28.286383" lon="105.017249"><ele>641.21136</ele><time>2026-05-05T19:37:05.000Z</time></trkpt>
        <trkpt lat="28.286342" lon="105.017224"><ele>640.3519</ele><time>2026-05-05T19:37:10.000Z</time></trkpt>
        <trkpt lat="28.286308" lon="105.017187"><ele>639.076</ele><time>2026-05-05T19:37:17.000Z</time></trkpt>
        <trkpt lat="28.286262" lon="105.017164"><ele>637.8937</ele><time>2026-05-05T19:37:27.000Z</time></trkpt>
        <trkpt lat="28.286215" lon="105.01715"><ele>637.11743</ele><time>2026-05-05T19:37:35.000Z</time></trkpt>
        <trkpt lat="28.286171" lon="105.017129"><ele>636.76526</ele><time>2026-05-05T19:37:39.000Z</time></trkpt>
        <trkpt lat="28.28613" lon="105.017104"><ele>636.1488</ele><time>2026-05-05T19:37:44.000Z</time></trkpt>
        <trkpt lat="28.286086" lon="105.017091"><ele>635.6897</ele><time>2026-05-05T19:37:48.000Z</time></trkpt>
        <trkpt lat="28.286042" lon="105.017076"><ele>634.9083</ele><time>2026-05-05T19:37:52.000Z</time></trkpt>
        <trkpt lat="28.285995" lon="105.017075"><ele>634.6</ele><time>2026-05-05T19:37:57.000Z</time></trkpt>
        <trkpt lat="28.285945" lon="105.017062"><ele>633.1027</ele><time>2026-05-05T19:38:02.000Z</time></trkpt>
        <trkpt lat="28.285894" lon="105.017061"><ele>631.7332</ele><time>2026-05-05T19:38:07.000Z</time></trkpt>
        <trkpt lat="28.285838" lon="105.01706"><ele>631.0137</ele><time>2026-05-05T19:38:11.000Z</time></trkpt>
        <trkpt lat="28.285781" lon="105.017054"><ele>630.9752</ele><time>2026-05-05T19:38:14.000Z</time></trkpt>
        <trkpt lat="28.285731" lon="105.017036"><ele>632.4013</ele><time>2026-05-05T19:38:17.000Z</time></trkpt>
        <trkpt lat="28.285682" lon="105.016999"><ele>630.92957</ele><time>2026-05-05T19:38:24.000Z</time></trkpt>
        <trkpt lat="28.285667" lon="105.01694"><ele>630.88654</ele><time>2026-05-05T19:38:40.000Z</time></trkpt>
        <trkpt lat="28.285651" lon="105.017005"><ele>625.687</ele><time>2026-05-05T19:39:17.000Z</time></trkpt>
        <trkpt lat="28.285573" lon="105.017106"><ele>634.6111</ele><time>2026-05-05T19:39:52.000Z</time></trkpt>
        <trkpt lat="28.285089" lon="105.017304"><ele>634.28644</ele><time>2026-05-05T19:40:39.000Z</time></trkpt>
        <trkpt lat="28.285057" lon="105.017263"><ele>636.6364</ele><time>2026-05-05T19:40:47.000Z</time></trkpt>
        <trkpt lat="28.285094" lon="105.017318"><ele>637.55206</ele><time>2026-05-05T19:41:05.000Z</time></trkpt>
        <trkpt lat="28.285077" lon="105.017382"><ele>639.7747</ele><time>2026-05-05T19:41:45.000Z</time></trkpt>
        <trkpt lat="28.285098" lon="105.017442"><ele>643.4687</ele><time>2026-05-05T19:41:57.000Z</time></trkpt>
        <trkpt lat="28.285159" lon="105.017439"><ele>645.45966</ele><time>2026-05-05T19:42:08.000Z</time></trkpt>
        <trkpt lat="28.285135" lon="105.017473"><ele>645.9457</ele><time>2026-05-05T19:42:23.000Z</time></trkpt>
        <trkpt lat="28.285197" lon="105.017414"><ele>654.1093</ele><time>2026-05-05T19:42:45.000Z</time></trkpt>
        <trkpt lat="28.285091" lon="105.01748"><ele>647.84875</ele><time>2026-05-05T19:42:58.000Z</time></trkpt>
        <trkpt lat="28.285196" lon="105.01748"><ele>648.4727</ele><time>2026-05-05T19:43:10.000Z</time></trkpt>
        <trkpt lat="28.285179" lon="105.01751"><ele>649.4502</ele><time>2026-05-05T19:43:20.000Z</time></trkpt>
        <trkpt lat="28.285201" lon="105.017464"><ele>649.89343</ele><time>2026-05-05T19:43:26.000Z</time></trkpt>
        <trkpt lat="28.285153" lon="105.017463"><ele>649.7601</ele><time>2026-05-05T19:43:34.000Z</time></trkpt>
        <trkpt lat="28.285186" lon="105.017499"><ele>649.51135</ele><time>2026-05-05T19:43:44.000Z</time></trkpt>
        <trkpt lat="28.285125" lon="105.017486"><ele>649.65155</ele><time>2026-05-05T19:43:50.000Z</time></trkpt>
        <trkpt lat="28.285096" lon="105.017486"><ele>649.06604</ele><time>2026-05-05T19:44:21.000Z</time></trkpt>
        <trkpt lat="28.28514" lon="105.017469"><ele>649.49023</ele><time>2026-05-05T19:44:32.000Z</time></trkpt>
        <trkpt lat="28.285115" lon="105.01742"><ele>649.3997</ele><time>2026-05-05T19:44:36.000Z</time></trkpt>
        <trkpt lat="28.285135" lon="105.017487"><ele>648.81836</ele><time>2026-05-05T19:44:43.000Z</time></trkpt>
        <trkpt lat="28.285146" lon="105.017496"><ele>654.6124</ele><time>2026-05-05T19:45:20.000Z</time></trkpt>
        <trkpt lat="28.28557" lon="105.016566"><ele>634.9849</ele><time>2026-05-05T19:46:29.000Z</time></trkpt>
        <trkpt lat="28.285566" lon="105.016646"><ele>634.1183</ele><time>2026-05-05T19:46:30.000Z</time></trkpt>
        <trkpt lat="28.285586" lon="105.016736"><ele>632.60187</ele><time>2026-05-05T19:46:32.000Z</time></trkpt>
        <trkpt lat="28.285581" lon="105.016798"><ele>632.095</ele><time>2026-05-05T19:46:33.000Z</time></trkpt>
        <trkpt lat="28.285583" lon="105.016903"><ele>630.58215</ele><time>2026-05-05T19:46:35.000Z</time></trkpt>
        <trkpt lat="28.285583" lon="105.016981"><ele>629.6751</ele><time>2026-05-05T19:46:37.000Z</time></trkpt>
        <trkpt lat="28.285564" lon="105.017045"><ele>631.2645</ele><time>2026-05-05T19:46:47.000Z</time></trkpt>
        <trkpt lat="28.285576" lon="105.016993"><ele>632.86584</ele><time>2026-05-05T19:46:53.000Z</time></trkpt>
        <trkpt lat="28.285623" lon="105.016979"><ele>630.3951</ele><time>2026-05-05T19:47:00.000Z</time></trkpt>
        <trkpt lat="28.285671" lon="105.016979"><ele>629.3212</ele><time>2026-05-05T19:47:24.000Z</time></trkpt>
        <trkpt lat="28.285713" lon="105.016955"><ele>636.795</ele><time>2026-05-05T19:48:22.000Z</time></trkpt>
        <trkpt lat="28.285662" lon="105.016964"><ele>637.37634</ele><time>2026-05-05T19:48:45.000Z</time></trkpt>
        <trkpt lat="28.285706" lon="105.016946"><ele>630.21265</ele><time>2026-05-05T19:49:25.000Z</time></trkpt>
        <trkpt lat="28.285778" lon="105.01696"><ele>629.3107</ele><time>2026-05-05T19:50:27.000Z</time></trkpt>
        <trkpt lat="28.285789" lon="105.01701"><ele>630.20935</ele><time>2026-05-05T19:51:23.000Z</time></trkpt>
        <trkpt lat="28.285833" lon="105.016992"><ele>629.73706</ele><time>2026-05-05T19:51:43.000Z</time></trkpt>
        <trkpt lat="28.285875" lon="105.016964"><ele>630.261</ele><time>2026-05-05T19:51:52.000Z</time></trkpt>
        <trkpt lat="28.285932" lon="105.01696"><ele>631.1863</ele><time>2026-05-05T19:52:00.000Z</time></trkpt>
        <trkpt lat="28.285984" lon="105.016958"><ele>630.4398</ele><time>2026-05-05T19:52:07.000Z</time></trkpt>
        <trkpt lat="28.28603" lon="105.016971"><ele>633.1797</ele><time>2026-05-05T19:52:12.000Z</time></trkpt>
        <trkpt lat="28.286085" lon="105.016984"><ele>632.503</ele><time>2026-05-05T19:52:20.000Z</time></trkpt>
        <trkpt lat="28.28613" lon="105.016999"><ele>633.4954</ele><time>2026-05-05T19:52:25.000Z</time></trkpt>
        <trkpt lat="28.286162" lon="105.017037"><ele>633.973</ele><time>2026-05-05T19:52:30.000Z</time></trkpt>
        <trkpt lat="28.2862" lon="105.017074"><ele>633.6552</ele><time>2026-05-05T19:52:38.000Z</time></trkpt>
        <trkpt lat="28.286243" lon="105.0171"><ele>633.09064</ele><time>2026-05-05T19:52:44.000Z</time></trkpt>
        <trkpt lat="28.286281" lon="105.017132"><ele>633.05695</ele><time>2026-05-05T19:52:49.000Z</time></trkpt>
        <trkpt lat="28.286329" lon="105.017162"><ele>632.88245</ele><time>2026-05-05T19:52:55.000Z</time></trkpt>
        <trkpt lat="28.286373" lon="105.01718"><ele>632.7352</ele><time>2026-05-05T19:53:00.000Z</time></trkpt>
        <trkpt lat="28.286415" lon="105.017214"><ele>632.284</ele><time>2026-05-05T19:53:05.000Z</time></trkpt>
        <trkpt lat="28.286455" lon="105.01724"><ele>632.2169</ele><time>2026-05-05T19:53:10.000Z</time></trkpt>
        <trkpt lat="28.286492" lon="105.01728"><ele>632.4194</ele><time>2026-05-05T19:53:14.000Z</time></trkpt>
        <trkpt lat="28.286527" lon="105.017321"><ele>634.336</ele><time>2026-05-05T19:53:20.000Z</time></trkpt>
        <trkpt lat="28.286565" lon="105.017361"><ele>634.3578</ele><time>2026-05-05T19:53:26.000Z</time></trkpt>
        <trkpt lat="28.286553" lon="105.017415"><ele>637.7637</ele><time>2026-05-05T19:53:46.000Z</time></trkpt>
        <trkpt lat="28.28652" lon="105.017449"><ele>639.12274</ele><time>2026-05-05T19:54:01.000Z</time></trkpt>
        <trkpt lat="28.286497" lon="105.017499"><ele>641.669</ele><time>2026-05-05T19:54:16.000Z</time></trkpt>
        <trkpt lat="28.28646" lon="105.017539"><ele>643.8044</ele><time>2026-05-05T19:54:24.000Z</time></trkpt>
        <trkpt lat="28.286431" lon="105.017588"><ele>645.6079</ele><time>2026-05-05T19:54:30.000Z</time></trkpt>
        <trkpt lat="28.286395" lon="105.017624"><ele>648.28516</ele><time>2026-05-05T19:54:36.000Z</time></trkpt>
        <trkpt lat="28.286362" lon="105.017678"><ele>653.0568</ele><time>2026-05-05T19:54:47.000Z</time></trkpt>
        <trkpt lat="28.286354" lon="105.017731"><ele>652.47766</ele><time>2026-05-05T19:55:02.000Z</time></trkpt>
        <trkpt lat="28.286345" lon="105.017785"><ele>653.2492</ele><time>2026-05-05T19:55:22.000Z</time></trkpt>
        <trkpt lat="28.286354" lon="105.017839"><ele>656.0354</ele><time>2026-05-05T19:55:48.000Z</time></trkpt>
        <trkpt lat="28.286342" lon="105.017892"><ele>656.0667</ele><time>2026-05-05T19:55:59.000Z</time></trkpt>
        <trkpt lat="28.286306" lon="105.017927"><ele>656.1039</ele><time>2026-05-05T19:56:03.000Z</time></trkpt>
        <trkpt lat="28.286262" lon="105.017957"><ele>657.03937</ele><time>2026-05-05T19:56:09.000Z</time></trkpt>
        <trkpt lat="28.286227" lon="105.017991"><ele>658.8744</ele><time>2026-05-05T19:56:17.000Z</time></trkpt>
        <trkpt lat="28.286196" lon="105.01804"><ele>661.049</ele><time>2026-05-05T19:56:24.000Z</time></trkpt>
        <trkpt lat="28.286167" lon="105.018084"><ele>663.707</ele><time>2026-05-05T19:56:37.000Z</time></trkpt>
        <trkpt lat="28.286135" lon="105.018128"><ele>665.251</ele><time>2026-05-05T19:56:49.000Z</time></trkpt>
        <trkpt lat="28.286118" lon="105.018176"><ele>667.10175</ele><time>2026-05-05T19:56:57.000Z</time></trkpt>
        <trkpt lat="28.286103" lon="105.018231"><ele>669.77405</ele><time>2026-05-05T19:57:11.000Z</time></trkpt>
        <trkpt lat="28.286087" lon="105.018285"><ele>672.124</ele><time>2026-05-05T19:57:23.000Z</time></trkpt>
        <trkpt lat="28.286063" lon="105.018339"><ele>673.74054</ele><time>2026-05-05T19:57:36.000Z</time></trkpt>
        <trkpt lat="28.286036" lon="105.018383"><ele>676.1283</ele><time>2026-05-05T19:57:45.000Z</time></trkpt>
        <trkpt lat="28.286056" lon="105.018429"><ele>677.832</ele><time>2026-05-05T19:58:18.000Z</time></trkpt>
        <trkpt lat="28.286066" lon="105.018485"><ele>679.7831</ele><time>2026-05-05T19:58:36.000Z</time></trkpt>
        <trkpt lat="28.286056" lon="105.018541"><ele>680.96735</ele><time>2026-05-05T19:58:52.000Z</time></trkpt>
        <trkpt lat="28.286047" lon="105.018594"><ele>683.33905</ele><time>2026-05-05T19:59:09.000Z</time></trkpt>
        <trkpt lat="28.28604" lon="105.018647"><ele>684.7158</ele><time>2026-05-05T19:59:19.000Z</time></trkpt>
        <trkpt lat="28.286029" lon="105.0187"><ele>688.1473</ele><time>2026-05-05T19:59:30.000Z</time></trkpt>
        <trkpt lat="28.286017" lon="105.018644"><ele>690.4556</ele><time>2026-05-05T20:00:05.000Z</time></trkpt>
        <trkpt lat="28.286066" lon="105.018631"><ele>692.9558</ele><time>2026-05-05T20:00:19.000Z</time></trkpt>
        <trkpt lat="28.28611" lon="105.01865"><ele>694.37427</ele><time>2026-05-05T20:00:25.000Z</time></trkpt>
        <trkpt lat="28.286135" lon="105.018703"><ele>694.3225</ele><time>2026-05-05T20:00:31.000Z</time></trkpt>
        <trkpt lat="28.286158" lon="105.01875"><ele>694.5636</ele><time>2026-05-05T20:00:39.000Z</time></trkpt>
        <trkpt lat="28.28615" lon="105.018804"><ele>695.2443</ele><time>2026-05-05T20:00:48.000Z</time></trkpt>
        <trkpt lat="28.286127" lon="105.018852"><ele>697.25824</ele><time>2026-05-05T20:01:02.000Z</time></trkpt>
        <trkpt lat="28.286091" lon="105.018888"><ele>698.4104</ele><time>2026-05-05T20:01:11.000Z</time></trkpt>
        <trkpt lat="28.286047" lon="105.018914"><ele>698.4583</ele><time>2026-05-05T20:01:18.000Z</time></trkpt>
        <trkpt lat="28.286001" lon="105.01894"><ele>699.26044</ele><time>2026-05-05T20:01:28.000Z</time></trkpt>
        <trkpt lat="28.285955" lon="105.018949"><ele>700.4686</ele><time>2026-05-05T20:01:39.000Z</time></trkpt>
        <trkpt lat="28.285907" lon="105.018948"><ele>698.20496</ele><time>2026-05-05T20:01:47.000Z</time></trkpt>
        <trkpt lat="28.285895" lon="105.018893"><ele>695.94476</ele><time>2026-05-05T20:02:03.000Z</time></trkpt>
        <trkpt lat="28.28593" lon="105.018852"><ele>696.9858</ele><time>2026-05-05T20:02:13.000Z</time></trkpt>
        <trkpt lat="28.285981" lon="105.018841"><ele>696.06604</ele><time>2026-05-05T20:02:20.000Z</time></trkpt>
        <trkpt lat="28.286036" lon="105.018835"><ele>695.2535</ele><time>2026-05-05T20:02:38.000Z</time></trkpt>
        <trkpt lat="28.286084" lon="105.018852"><ele>697.24677</ele><time>2026-05-05T20:02:51.000Z</time></trkpt>
        <trkpt lat="28.286118" lon="105.018893"><ele>699.2647</ele><time>2026-05-05T20:03:04.000Z</time></trkpt>
        <trkpt lat="28.286146" lon="105.018935"><ele>699.5794</ele><time>2026-05-05T20:03:10.000Z</time></trkpt>
        <trkpt lat="28.286143" lon="105.01899"><ele>699.6993</ele><time>2026-05-05T20:03:16.000Z</time></trkpt>
        <trkpt lat="28.286122" lon="105.01904"><ele>701.4201</ele><time>2026-05-05T20:03:25.000Z</time></trkpt>
        <trkpt lat="28.286084" lon="105.019082"><ele>704.0646</ele><time>2026-05-05T20:03:36.000Z</time></trkpt>
        <trkpt lat="28.28605" lon="105.019121"><ele>705.8784</ele><time>2026-05-05T20:03:45.000Z</time></trkpt>
        <trkpt lat="28.286022" lon="105.019164"><ele>706.47144</ele><time>2026-05-05T20:03:55.000Z</time></trkpt>
        <trkpt lat="28.285985" lon="105.019194"><ele>708.38214</ele><time>2026-05-05T20:04:06.000Z</time></trkpt>
        <trkpt lat="28.285946" lon="105.019224"><ele>710.0979</ele><time>2026-05-05T20:04:16.000Z</time></trkpt>
        <trkpt lat="28.285897" lon="105.01925"><ele>711.932</ele><time>2026-05-05T20:04:24.000Z</time></trkpt>
        <trkpt lat="28.285853" lon="105.019279"><ele>714.12915</ele><time>2026-05-05T20:04:32.000Z</time></trkpt>
        <trkpt lat="28.285822" lon="105.019317"><ele>714.8974</ele><time>2026-05-05T20:04:40.000Z</time></trkpt>
        <trkpt lat="28.285786" lon="105.01935"><ele>716.36383</ele><time>2026-05-05T20:04:46.000Z</time></trkpt>
        <trkpt lat="28.285759" lon="105.019392"><ele>715.70276</ele><time>2026-05-05T20:04:51.000Z</time></trkpt>
        <trkpt lat="28.285725" lon="105.019426"><ele>715.3083</ele><time>2026-05-05T20:04:55.000Z</time></trkpt>
        <trkpt lat="28.285693" lon="105.019469"><ele>715.7683</ele><time>2026-05-05T20:05:00.000Z</time></trkpt>
        <trkpt lat="28.28566" lon="105.019509"><ele>715.9498</ele><time>2026-05-05T20:05:05.000Z</time></trkpt>
        <trkpt lat="28.285613" lon="105.019537"><ele>715.558</ele><time>2026-05-05T20:05:10.000Z</time></trkpt>
        <trkpt lat="28.285561" lon="105.019544"><ele>715.86676</ele><time>2026-05-05T20:05:15.000Z</time></trkpt>
        <trkpt lat="28.285514" lon="105.019545"><ele>715.6187</ele><time>2026-05-05T20:05:22.000Z</time></trkpt>
        <trkpt lat="28.285536" lon="105.019592"><ele>715.241</ele><time>2026-05-05T20:05:38.000Z</time></trkpt>
        <trkpt lat="28.285576" lon="105.019631"><ele>715.4684</ele><time>2026-05-05T20:05:46.000Z</time></trkpt>
        <trkpt lat="28.285603" lon="105.019679"><ele>717.84344</ele><time>2026-05-05T20:05:55.000Z</time></trkpt>
        <trkpt lat="28.28561" lon="105.019736"><ele>718.5492</ele><time>2026-05-05T20:06:01.000Z</time></trkpt>
        <trkpt lat="28.285644" lon="105.019777"><ele>718.8549</ele><time>2026-05-05T20:06:08.000Z</time></trkpt>
        <trkpt lat="28.285651" lon="105.019836"><ele>720.4286</ele><time>2026-05-05T20:06:15.000Z</time></trkpt>
        <trkpt lat="28.285638" lon="105.019887"><ele>722.4442</ele><time>2026-05-05T20:06:21.000Z</time></trkpt>
        <trkpt lat="28.285616" lon="105.019934"><ele>724.33136</ele><time>2026-05-05T20:06:28.000Z</time></trkpt>
        <trkpt lat="28.285582" lon="105.019969"><ele>724.9796</ele><time>2026-05-05T20:06:36.000Z</time></trkpt>
        <trkpt lat="28.285533" lon="105.019967"><ele>726.7425</ele><time>2026-05-05T20:06:42.000Z</time></trkpt>
        <trkpt lat="28.285495" lon="105.019927"><ele>726.89166</ele><time>2026-05-05T20:06:52.000Z</time></trkpt>
        <trkpt lat="28.285493" lon="105.019874"><ele>727.1621</ele><time>2026-05-05T20:06:58.000Z</time></trkpt>
        <trkpt lat="28.285472" lon="105.019823"><ele>726.20575</ele><time>2026-05-05T20:07:05.000Z</time></trkpt>
        <trkpt lat="28.285432" lon="105.019799"><ele>727.2297</ele><time>2026-05-05T20:07:11.000Z</time></trkpt>
        <trkpt lat="28.285386" lon="105.019804"><ele>728.2129</ele><time>2026-05-05T20:07:17.000Z</time></trkpt>
        <trkpt lat="28.285384" lon="105.019857"><ele>728.57855</ele><time>2026-05-05T20:07:25.000Z</time></trkpt>
        <trkpt lat="28.28539" lon="105.019913"><ele>729.4227</ele><time>2026-05-05T20:07:32.000Z</time></trkpt>
        <trkpt lat="28.285393" lon="105.019964"><ele>729.6783</ele><time>2026-05-05T20:07:38.000Z</time></trkpt>
        <trkpt lat="28.285369" lon="105.020019"><ele>731.6804</ele><time>2026-05-05T20:07:47.000Z</time></trkpt>
        <trkpt lat="28.285326" lon="105.020053"><ele>732.5196</ele><time>2026-05-05T20:07:55.000Z</time></trkpt>
        <trkpt lat="28.285285" lon="105.020086"><ele>734.8976</ele><time>2026-05-05T20:08:04.000Z</time></trkpt>
        <trkpt lat="28.285242" lon="105.020121"><ele>735.56384</ele><time>2026-05-05T20:08:10.000Z</time></trkpt>
        <trkpt lat="28.285191" lon="105.020128"><ele>736.4726</ele><time>2026-05-05T20:08:16.000Z</time></trkpt>
        <trkpt lat="28.285143" lon="105.020163"><ele>739.0564</ele><time>2026-05-05T20:08:22.000Z</time></trkpt>
        <trkpt lat="28.285089" lon="105.020162"><ele>739.26654</ele><time>2026-05-05T20:08:28.000Z</time></trkpt>
        <trkpt lat="28.285045" lon="105.020182"><ele>739.8648</ele><time>2026-05-05T20:08:39.000Z</time></trkpt>
        <trkpt lat="28.284997" lon="105.02018"><ele>743.5358</ele><time>2026-05-05T20:08:49.000Z</time></trkpt>
        <trkpt lat="28.284974" lon="105.020229"><ele>744.0584</ele><time>2026-05-05T20:09:01.000Z</time></trkpt>
        <trkpt lat="28.28494" lon="105.020195"><ele>744.5816</ele><time>2026-05-05T20:09:18.000Z</time></trkpt>
        <trkpt lat="28.284932" lon="105.020247"><ele>747.84607</ele><time>2026-05-05T20:11:31.000Z</time></trkpt>
        <trkpt lat="28.284903" lon="105.020288"><ele>750.9591</ele><time>2026-05-05T20:11:59.000Z</time></trkpt>
        <trkpt lat="28.284878" lon="105.020332"><ele>755.1415</ele><time>2026-05-05T20:12:19.000Z</time></trkpt>
        <trkpt lat="28.284849" lon="105.020378"><ele>758.2118</ele><time>2026-05-05T20:12:32.000Z</time></trkpt>
        <trkpt lat="28.284829" lon="105.020425"><ele>758.54736</ele><time>2026-05-05T20:12:43.000Z</time></trkpt>
        <trkpt lat="28.284821" lon="105.020481"><ele>765.349</ele><time>2026-05-05T20:13:02.000Z</time></trkpt>
        <trkpt lat="28.284774" lon="105.020501"><ele>766.52637</ele><time>2026-05-05T20:13:13.000Z</time></trkpt>
        <trkpt lat="28.284761" lon="105.020552"><ele>770.7887</ele><time>2026-05-05T20:13:39.000Z</time></trkpt>
        <trkpt lat="28.284721" lon="105.02058"><ele>774.89154</ele><time>2026-05-05T20:13:51.000Z</time></trkpt>
        <trkpt lat="28.284686" lon="105.020612"><ele>775.11127</ele><time>2026-05-05T20:14:00.000Z</time></trkpt>
        <trkpt lat="28.284658" lon="105.020656"><ele>777.48236</ele><time>2026-05-05T20:14:15.000Z</time></trkpt>
        <trkpt lat="28.284615" lon="105.020683"><ele>782.9275</ele><time>2026-05-05T20:14:43.000Z</time></trkpt>
        <trkpt lat="28.284569" lon="105.020687"><ele>783.1526</ele><time>2026-05-05T20:14:51.000Z</time></trkpt>
        <trkpt lat="28.284523" lon="105.020675"><ele>784.2717</ele><time>2026-05-05T20:15:02.000Z</time></trkpt>
        <trkpt lat="28.284477" lon="105.020698"><ele>788.1348</ele><time>2026-05-05T20:15:25.000Z</time></trkpt>
        <trkpt lat="28.284432" lon="105.020687"><ele>794.4511</ele><time>2026-05-05T20:15:48.000Z</time></trkpt>
        <trkpt lat="28.284385" lon="105.020685"><ele>796.27924</ele><time>2026-05-05T20:15:55.000Z</time></trkpt>
        <trkpt lat="28.284421" lon="105.020718"><ele>795.34546</ele><time>2026-05-05T20:16:24.000Z</time></trkpt>
        <trkpt lat="28.284409" lon="105.02077"><ele>797.37067</ele><time>2026-05-05T20:16:42.000Z</time></trkpt>
        <trkpt lat="28.28438" lon="105.020811"><ele>805.9382</ele><time>2026-05-05T20:17:43.000Z</time></trkpt>
        <trkpt lat="28.284327" lon="105.020827"><ele>804.6612</ele><time>2026-05-05T20:17:50.000Z</time></trkpt>
        <trkpt lat="28.284289" lon="105.020867"><ele>808.6241</ele><time>2026-05-05T20:18:09.000Z</time></trkpt>
        <trkpt lat="28.284275" lon="105.02092"><ele>809.7265</ele><time>2026-05-05T20:18:17.000Z</time></trkpt>
        <trkpt lat="28.284224" lon="105.020919"><ele>810.30304</ele><time>2026-05-05T20:18:23.000Z</time></trkpt>
        <trkpt lat="28.284178" lon="105.020904"><ele>814.3511</ele><time>2026-05-05T20:18:35.000Z</time></trkpt>
        <trkpt lat="28.284136" lon="105.020923"><ele>819.20685</ele><time>2026-05-05T20:18:51.000Z</time></trkpt>
        <trkpt lat="28.284091" lon="105.0209"><ele>820.35345</ele><time>2026-05-05T20:18:57.000Z</time></trkpt>
        <trkpt lat="28.28413" lon="105.02093"><ele>823.2987</ele><time>2026-05-05T20:19:32.000Z</time></trkpt>
        <trkpt lat="28.284157" lon="105.020974"><ele>824.7294</ele><time>2026-05-05T20:19:40.000Z</time></trkpt>
        <trkpt lat="28.284194" lon="105.021012"><ele>826.10864</ele><time>2026-05-05T20:19:48.000Z</time></trkpt>
        <trkpt lat="28.284149" lon="105.021022"><ele>830.4603</ele><time>2026-05-05T20:20:11.000Z</time></trkpt>
        <trkpt lat="28.284105" lon="105.021006"><ele>832.52435</ele><time>2026-05-05T20:20:21.000Z</time></trkpt>
        <trkpt lat="28.284055" lon="105.02101"><ele>835.5062</ele><time>2026-05-05T20:20:38.000Z</time></trkpt>
        <trkpt lat="28.284017" lon="105.021041"><ele>835.65674</ele><time>2026-05-05T20:20:51.000Z</time></trkpt>
        <trkpt lat="28.284062" lon="105.021046"><ele>838.42377</ele><time>2026-05-05T20:21:04.000Z</time></trkpt>
        <trkpt lat="28.28404" lon="105.021095"><ele>841.20917</ele><time>2026-05-05T20:21:25.000Z</time></trkpt>
        <trkpt lat="28.284004" lon="105.021127"><ele>841.23694</ele><time>2026-05-05T20:21:32.000Z</time></trkpt>
        <trkpt lat="28.284037" lon="105.021162"><ele>844.61804</ele><time>2026-05-05T20:21:49.000Z</time></trkpt>
        <trkpt lat="28.284077" lon="105.021192"><ele>847.14044</ele><time>2026-05-05T20:22:02.000Z</time></trkpt>
        <trkpt lat="28.284114" lon="105.021233"><ele>848.1912</ele><time>2026-05-05T20:22:12.000Z</time></trkpt>
        <trkpt lat="28.284127" lon="105.021282"><ele>848.5475</ele><time>2026-05-05T20:22:19.000Z</time></trkpt>
        <trkpt lat="28.284136" lon="105.021336"><ele>857.4343</ele><time>2026-05-05T20:22:58.000Z</time></trkpt>
        <trkpt lat="28.284087" lon="105.021344"><ele>861.38916</ele><time>2026-05-05T20:23:15.000Z</time></trkpt>
        <trkpt lat="28.284041" lon="105.021354"><ele>862.89825</ele><time>2026-05-05T20:23:24.000Z</time></trkpt>
        <trkpt lat="28.283992" lon="105.021353"><ele>864.5248</ele><time>2026-05-05T20:23:36.000Z</time></trkpt>
        <trkpt lat="28.284022" lon="105.021396"><ele>866.9701</ele><time>2026-05-05T20:24:09.000Z</time></trkpt>
        <trkpt lat="28.284062" lon="105.021432"><ele>869.08344</ele><time>2026-05-05T20:24:20.000Z</time></trkpt>
        <trkpt lat="28.284063" lon="105.021484"><ele>872.22675</ele><time>2026-05-05T20:24:34.000Z</time></trkpt>
        <trkpt lat="28.284033" lon="105.021524"><ele>873.89716</ele><time>2026-05-05T20:24:44.000Z</time></trkpt>
        <trkpt lat="28.283991" lon="105.021564"><ele>874.4828</ele><time>2026-05-05T20:25:01.000Z</time></trkpt>
        <trkpt lat="28.284038" lon="105.021558"><ele>879.4776</ele><time>2026-05-05T20:25:19.000Z</time></trkpt>
        <trkpt lat="28.284027" lon="105.021618"><ele>877.3013</ele><time>2026-05-05T20:25:37.000Z</time></trkpt>
        <trkpt lat="28.284036" lon="105.021671"><ele>883.2179</ele><time>2026-05-05T20:26:16.000Z</time></trkpt>
        <trkpt lat="28.284013" lon="105.021716"><ele>884.74756</ele><time>2026-05-05T20:26:25.000Z</time></trkpt>
        <trkpt lat="28.283979" lon="105.021752"><ele>886.2611</ele><time>2026-05-05T20:26:34.000Z</time></trkpt>
        <trkpt lat="28.283939" lon="105.021782"><ele>887.0038</ele><time>2026-05-05T20:26:41.000Z</time></trkpt>
        <trkpt lat="28.283893" lon="105.021798"><ele>889.8155</ele><time>2026-05-05T20:26:54.000Z</time></trkpt>
        <trkpt lat="28.28391" lon="105.021847"><ele>892.6128</ele><time>2026-05-05T20:27:04.000Z</time></trkpt>
        <trkpt lat="28.283952" lon="105.021872"><ele>895.7282</ele><time>2026-05-05T20:27:25.000Z</time></trkpt>
        <trkpt lat="28.283957" lon="105.021924"><ele>897.00006</ele><time>2026-05-05T20:27:35.000Z</time></trkpt>
        <trkpt lat="28.283957" lon="105.021976"><ele>899.8524</ele><time>2026-05-05T20:27:44.000Z</time></trkpt>
        <trkpt lat="28.283917" lon="105.02202"><ele>903.7047</ele><time>2026-05-05T20:28:06.000Z</time></trkpt>
        <trkpt lat="28.283871" lon="105.02204"><ele>902.9081</ele><time>2026-05-05T20:28:20.000Z</time></trkpt>
        <trkpt lat="28.283874" lon="105.022093"><ele>909.17334</ele><time>2026-05-05T20:28:49.000Z</time></trkpt>
        <trkpt lat="28.283873" lon="105.022146"><ele>909.7919</ele><time>2026-05-05T20:28:58.000Z</time></trkpt>
        <trkpt lat="28.283851" lon="105.022192"><ele>909.52704</ele><time>2026-05-05T20:29:16.000Z</time></trkpt>
        <trkpt lat="28.283882" lon="105.02223"><ele>913.4333</ele><time>2026-05-05T20:30:12.000Z</time></trkpt>
        <trkpt lat="28.283845" lon="105.02227"><ele>914.7628</ele><time>2026-05-05T20:30:23.000Z</time></trkpt>
        <trkpt lat="28.28382" lon="105.022316"><ele>915.8826</ele><time>2026-05-05T20:30:34.000Z</time></trkpt>
        <trkpt lat="28.283778" lon="105.02234"><ele>916.7861</ele><time>2026-05-05T20:30:46.000Z</time></trkpt>
        <trkpt lat="28.283756" lon="105.022296"><ele>925.38367</ele><time>2026-05-05T20:31:23.000Z</time></trkpt>
        <trkpt lat="28.283798" lon="105.022316"><ele>923.909</ele><time>2026-05-05T20:31:44.000Z</time></trkpt>
        <trkpt lat="28.283826" lon="105.022361"><ele>923.5564</ele><time>2026-05-05T20:31:54.000Z</time></trkpt>
        <trkpt lat="28.283852" lon="105.022409"><ele>924.23047</ele><time>2026-05-05T20:32:26.000Z</time></trkpt>
        <trkpt lat="28.283838" lon="105.022464"><ele>925.3071</ele><time>2026-05-05T20:32:37.000Z</time></trkpt>
        <trkpt lat="28.283796" lon="105.022496"><ele>929.2918</ele><time>2026-05-05T20:33:06.000Z</time></trkpt>
        <trkpt lat="28.283755" lon="105.022522"><ele>937.33215</ele><time>2026-05-05T20:33:53.000Z</time></trkpt>
        <trkpt lat="28.2838" lon="105.022539"><ele>934.6881</ele><time>2026-05-05T20:34:27.000Z</time></trkpt>
        <trkpt lat="28.283838" lon="105.022567"><ele>935.80804</ele><time>2026-05-05T20:34:43.000Z</time></trkpt>
        <trkpt lat="28.283869" lon="105.022605"><ele>935.553</ele><time>2026-05-05T20:35:05.000Z</time></trkpt>
        <trkpt lat="28.283849" lon="105.022653"><ele>946.86646</ele><time>2026-05-05T20:35:45.000Z</time></trkpt>
        <trkpt lat="28.283803" lon="105.022676"><ele>953.97003</ele><time>2026-05-05T20:36:16.000Z</time></trkpt>
        <trkpt lat="28.283755" lon="105.02266"><ele>955.15216</ele><time>2026-05-05T20:36:24.000Z</time></trkpt>
        <trkpt lat="28.283702" lon="105.022657"><ele>956.8381</ele><time>2026-05-05T20:36:43.000Z</time></trkpt>
        <trkpt lat="28.283672" lon="105.022696"><ele>956.0247</ele><time>2026-05-05T20:36:52.000Z</time></trkpt>
        <trkpt lat="28.283719" lon="105.022686"><ele>967.037</ele><time>2026-05-05T20:38:24.000Z</time></trkpt>
        <trkpt lat="28.283756" lon="105.022716"><ele>970.0069</ele><time>2026-05-05T20:38:35.000Z</time></trkpt>
        <trkpt lat="28.283746" lon="105.022767"><ele>973.7931</ele><time>2026-05-05T20:38:59.000Z</time></trkpt>
        <trkpt lat="28.283773" lon="105.022821"><ele>977.73303</ele><time>2026-05-05T20:39:21.000Z</time></trkpt>
        <trkpt lat="28.283742" lon="105.02286"><ele>981.3101</ele><time>2026-05-05T20:39:41.000Z</time></trkpt>
        <trkpt lat="28.283724" lon="105.022909"><ele>984.9204</ele><time>2026-05-05T20:40:05.000Z</time></trkpt>
        <trkpt lat="28.283691" lon="105.022954"><ele>985.47565</ele><time>2026-05-05T20:40:26.000Z</time></trkpt>
        <trkpt lat="28.283678" lon="105.023008"><ele>988.0266</ele><time>2026-05-05T20:40:35.000Z</time></trkpt>
        <trkpt lat="28.28367" lon="105.023059"><ele>990.3733</ele><time>2026-05-05T20:40:56.000Z</time></trkpt>
        <trkpt lat="28.283642" lon="105.023102"><ele>987.7027</ele><time>2026-05-05T20:41:11.000Z</time></trkpt>
        <trkpt lat="28.283603" lon="105.023129"><ele>988.62024</ele><time>2026-05-05T20:41:23.000Z</time></trkpt>
        <trkpt lat="28.283563" lon="105.023101"><ele>990.201</ele><time>2026-05-05T20:41:34.000Z</time></trkpt>
        <trkpt lat="28.283522" lon="105.023067"><ele>989.57776</ele><time>2026-05-05T20:41:41.000Z</time></trkpt>
        <trkpt lat="28.283467" lon="105.023033"><ele>991.1066</ele><time>2026-05-05T20:41:48.000Z</time></trkpt>
        <trkpt lat="28.283415" lon="105.023018"><ele>991.12244</ele><time>2026-05-05T20:41:58.000Z</time></trkpt>
        <trkpt lat="28.283368" lon="105.023014"><ele>991.9566</ele><time>2026-05-05T20:42:03.000Z</time></trkpt>
        <trkpt lat="28.283321" lon="105.023014"><ele>991.5861</ele><time>2026-05-05T20:42:07.000Z</time></trkpt>
        <trkpt lat="28.283267" lon="105.023"><ele>992.64905</ele><time>2026-05-05T20:42:13.000Z</time></trkpt>
        <trkpt lat="28.283222" lon="105.022986"><ele>992.70123</ele><time>2026-05-05T20:42:19.000Z</time></trkpt>
        <trkpt lat="28.283172" lon="105.022956"><ele>991.39496</ele><time>2026-05-05T20:42:25.000Z</time></trkpt>
        <trkpt lat="28.283125" lon="105.02295"><ele>990.52014</ele><time>2026-05-05T20:42:30.000Z</time></trkpt>
        <trkpt lat="28.28307" lon="105.022941"><ele>990.8871</ele><time>2026-05-05T20:42:36.000Z</time></trkpt>
        <trkpt lat="28.283023" lon="105.022947"><ele>990.8397</ele><time>2026-05-05T20:42:42.000Z</time></trkpt>
        <trkpt lat="28.282967" lon="105.022939"><ele>989.86444</ele><time>2026-05-05T20:42:49.000Z</time></trkpt>
        <trkpt lat="28.282926" lon="105.022915"><ele>988.8794</ele><time>2026-05-05T20:42:56.000Z</time></trkpt>
        <trkpt lat="28.282877" lon="105.022906"><ele>987.4289</ele><time>2026-05-05T20:43:05.000Z</time></trkpt>
        <trkpt lat="28.282829" lon="105.022905"><ele>985.9147</ele><time>2026-05-05T20:43:13.000Z</time></trkpt>
        <trkpt lat="28.282777" lon="105.022911"><ele>984.7908</ele><time>2026-05-05T20:43:21.000Z</time></trkpt>
        <trkpt lat="28.282784" lon="105.02286"><ele>982.3291</ele><time>2026-05-05T20:43:39.000Z</time></trkpt>
        <trkpt lat="28.282827" lon="105.022838"><ele>982.1821</ele><time>2026-05-05T20:43:47.000Z</time></trkpt>
        <trkpt lat="28.282801" lon="105.022881"><ele>986.85455</ele><time>2026-05-05T20:44:51.000Z</time></trkpt>
        <trkpt lat="28.282758" lon="105.022898"><ele>985.2239</ele><time>2026-05-05T20:45:00.000Z</time></trkpt>
        <trkpt lat="28.282711" lon="105.022905"><ele>985.3636</ele><time>2026-05-05T20:45:05.000Z</time></trkpt>
        <trkpt lat="28.282659" lon="105.022924"><ele>986.6391</ele><time>2026-05-05T20:45:12.000Z</time></trkpt>
        <trkpt lat="28.282613" lon="105.02292"><ele>987.35266</ele><time>2026-05-05T20:45:17.000Z</time></trkpt>
        <trkpt lat="28.282558" lon="105.022914"><ele>989.1743</ele><time>2026-05-05T20:45:22.000Z</time></trkpt>
        <trkpt lat="28.2825" lon="105.022896"><ele>988.861</ele><time>2026-05-05T20:45:27.000Z</time></trkpt>
        <trkpt lat="28.282452" lon="105.022885"><ele>988.5527</ele><time>2026-05-05T20:45:32.000Z</time></trkpt>
        <trkpt lat="28.282402" lon="105.022864"><ele>987.4642</ele><time>2026-05-05T20:45:37.000Z</time></trkpt>
        <trkpt lat="28.282352" lon="105.022847"><ele>987.0839</ele><time>2026-05-05T20:45:42.000Z</time></trkpt>
        <trkpt lat="28.282313" lon="105.022821"><ele>984.2878</ele><time>2026-05-05T20:45:47.000Z</time></trkpt>
        <trkpt lat="28.282257" lon="105.02281"><ele>983.0286</ele><time>2026-05-05T20:45:51.000Z</time></trkpt>
        <trkpt lat="28.282212" lon="105.022799"><ele>982.1522</ele><time>2026-05-05T20:45:55.000Z</time></trkpt>
        <trkpt lat="28.282166" lon="105.022777"><ele>983.21985</ele><time>2026-05-05T20:45:58.000Z</time></trkpt>
        <trkpt lat="28.282127" lon="105.022729"><ele>980.71594</ele><time>2026-05-05T20:46:03.000Z</time></trkpt>
        <trkpt lat="28.282082" lon="105.022695"><ele>978.8317</ele><time>2026-05-05T20:46:09.000Z</time></trkpt>
        <trkpt lat="28.282067" lon="105.022646"><ele>976.93256</ele><time>2026-05-05T20:46:14.000Z</time></trkpt>
        <trkpt lat="28.282049" lon="105.022596"><ele>975.65063</ele><time>2026-05-05T20:46:19.000Z</time></trkpt>
        <trkpt lat="28.282029" lon="105.022547"><ele>975.0932</ele><time>2026-05-05T20:46:24.000Z</time></trkpt>
        <trkpt lat="28.282013" lon="105.022491"><ele>974.9496</ele><time>2026-05-05T20:46:28.000Z</time></trkpt>
        <trkpt lat="28.282006" lon="105.022435"><ele>975.5113</ele><time>2026-05-05T20:46:34.000Z</time></trkpt>
        <trkpt lat="28.281989" lon="105.022387"><ele>975.68854</ele><time>2026-05-05T20:46:41.000Z</time></trkpt>
        <trkpt lat="28.281992" lon="105.022334"><ele>973.80634</ele><time>2026-05-05T20:46:57.000Z</time></trkpt>
        <trkpt lat="28.281938" lon="105.022332"><ele>966.11444</ele><time>2026-05-05T20:47:24.000Z</time></trkpt>
        <trkpt lat="28.281889" lon="105.022335"><ele>965.94037</ele><time>2026-05-05T20:47:29.000Z</time></trkpt>
        <trkpt lat="28.281848" lon="105.022365"><ele>967.04004</ele><time>2026-05-05T20:47:34.000Z</time></trkpt>
        <trkpt lat="28.281811" lon="105.022336"><ele>967.98267</ele><time>2026-05-05T20:47:45.000Z</time></trkpt>
        <trkpt lat="28.281767" lon="105.022319"><ele>969.5017</ele><time>2026-05-05T20:48:22.000Z</time></trkpt>
        <trkpt lat="28.281759" lon="105.022369"><ele>969.10626</ele><time>2026-05-05T20:49:30.000Z</time></trkpt>
        <trkpt lat="28.281707" lon="105.022356"><ele>971.2435</ele><time>2026-05-05T20:55:02.000Z</time></trkpt>
        <trkpt lat="28.281736" lon="105.022317"><ele>971.64594</ele><time>2026-05-05T20:56:39.000Z</time></trkpt>
        <trkpt lat="28.281759" lon="105.022263"><ele>962.5458</ele><time>2026-05-05T20:57:34.000Z</time></trkpt>
        <trkpt lat="28.281707" lon="105.022254"><ele>961.4563</ele><time>2026-05-05T20:57:56.000Z</time></trkpt>
        <trkpt lat="28.281734" lon="105.02221"><ele>965.6743</ele><time>2026-05-05T20:58:14.000Z</time></trkpt>
        <trkpt lat="28.281681" lon="105.02222"><ele>964.1787</ele><time>2026-05-05T20:59:04.000Z</time></trkpt>
        <trkpt lat="28.281747" lon="105.022204"><ele>964.99097</ele><time>2026-05-05T20:59:40.000Z</time></trkpt>
        <trkpt lat="28.281702" lon="105.022234"><ele>962.33624</ele><time>2026-05-05T21:00:36.000Z</time></trkpt>
        <trkpt lat="28.281788" lon="105.022203"><ele>962.8729</ele><time>2026-05-05T21:01:41.000Z</time></trkpt>
        <trkpt lat="28.281727" lon="105.022218"><ele>963.7224</ele><time>2026-05-05T21:02:31.000Z</time></trkpt>
        <trkpt lat="28.281733" lon="105.022164"><ele>967.80054</ele><time>2026-05-05T21:11:29.000Z</time></trkpt>
        <trkpt lat="28.281689" lon="105.022136"><ele>965.2396</ele><time>2026-05-05T21:12:39.000Z</time></trkpt>
        <trkpt lat="28.281651" lon="105.022173"><ele>964.7887</ele><time>2026-05-05T21:15:29.000Z</time></trkpt>
        <trkpt lat="28.281623" lon="105.022105"><ele>967.51776</ele><time>2026-05-05T21:20:04.000Z</time></trkpt>
        <trkpt lat="28.281639" lon="105.022155"><ele>960.43146</ele><time>2026-05-05T21:21:14.000Z</time></trkpt>
        <trkpt lat="28.281642" lon="105.022206"><ele>958.27826</ele><time>2026-05-05T21:22:07.000Z</time></trkpt>
        <trkpt lat="28.281622" lon="105.022155"><ele>958.494</ele><time>2026-05-05T21:22:21.000Z</time></trkpt>
        <trkpt lat="28.281578" lon="105.022172"><ele>958.175</ele><time>2026-05-05T21:22:29.000Z</time></trkpt>
        <trkpt lat="28.281551" lon="105.022129"><ele>954.1265</ele><time>2026-05-05T21:22:58.000Z</time></trkpt>
        <trkpt lat="28.281513" lon="105.022157"><ele>950.1614</ele><time>2026-05-05T21:23:17.000Z</time></trkpt>
        <trkpt lat="28.281484" lon="105.022197"><ele>950.9999</ele><time>2026-05-05T21:23:31.000Z</time></trkpt>
        <trkpt lat="28.281453" lon="105.022237"><ele>955.35846</ele><time>2026-05-05T21:23:40.000Z</time></trkpt>
        <trkpt lat="28.28141" lon="105.022222"><ele>956.38367</ele><time>2026-05-05T21:23:45.000Z</time></trkpt>
        <trkpt lat="28.281362" lon="105.022212"><ele>956.9629</ele><time>2026-05-05T21:23:56.000Z</time></trkpt>
        <trkpt lat="28.281333" lon="105.02217"><ele>957.1743</ele><time>2026-05-05T21:24:12.000Z</time></trkpt>
        <trkpt lat="28.281304" lon="105.022127"><ele>958.07874</ele><time>2026-05-05T21:24:19.000Z</time></trkpt>
        <trkpt lat="28.281271" lon="105.022088"><ele>956.8625</ele><time>2026-05-05T21:24:29.000Z</time></trkpt>
        <trkpt lat="28.281233" lon="105.022055"><ele>956.41077</ele><time>2026-05-05T21:24:45.000Z</time></trkpt>
        <trkpt lat="28.281195" lon="105.022018"><ele>956.35565</ele><time>2026-05-05T21:25:14.000Z</time></trkpt>
        <trkpt lat="28.281163" lon="105.021959"><ele>956.0497</ele><time>2026-05-05T21:25:52.000Z</time></trkpt>
        <trkpt lat="28.281124" lon="105.021932"><ele>957.37665</ele><time>2026-05-05T21:26:00.000Z</time></trkpt>
        <trkpt lat="28.281087" lon="105.021901"><ele>962.8527</ele><time>2026-05-05T21:26:11.000Z</time></trkpt>
        <trkpt lat="28.281045" lon="105.021878"><ele>962.1756</ele><time>2026-05-05T21:26:38.000Z</time></trkpt>
        <trkpt lat="28.281003" lon="105.021858"><ele>962.4388</ele><time>2026-05-05T21:26:44.000Z</time></trkpt>
        <trkpt lat="28.280965" lon="105.021829"><ele>963.2171</ele><time>2026-05-05T21:26:53.000Z</time></trkpt>
        <trkpt lat="28.280921" lon="105.021806"><ele>961.16144</ele><time>2026-05-05T21:27:18.000Z</time></trkpt>
        <trkpt lat="28.280873" lon="105.021796"><ele>959.27356</ele><time>2026-05-05T21:27:29.000Z</time></trkpt>
        <trkpt lat="28.280822" lon="105.021779"><ele>960.1092</ele><time>2026-05-05T21:27:40.000Z</time></trkpt>
        <trkpt lat="28.280776" lon="105.02178"><ele>961.0582</ele><time>2026-05-05T21:27:49.000Z</time></trkpt>
        <trkpt lat="28.280738" lon="105.021824"><ele>962.4131</ele><time>2026-05-05T21:28:02.000Z</time></trkpt>
        <trkpt lat="28.280691" lon="105.021805"><ele>963.19275</ele><time>2026-05-05T21:28:09.000Z</time></trkpt>
        <trkpt lat="28.280644" lon="105.021806"><ele>963.01636</ele><time>2026-05-05T21:28:16.000Z</time></trkpt>
        <trkpt lat="28.280592" lon="105.021803"><ele>963.1789</ele><time>2026-05-05T21:28:23.000Z</time></trkpt>
        <trkpt lat="28.280545" lon="105.021807"><ele>962.6291</ele><time>2026-05-05T21:28:29.000Z</time></trkpt>
        <trkpt lat="28.280499" lon="105.021793"><ele>964.8111</ele><time>2026-05-05T21:28:46.000Z</time></trkpt>
        <trkpt lat="28.280462" lon="105.021754"><ele>964.2441</ele><time>2026-05-05T21:28:54.000Z</time></trkpt>
        <trkpt lat="28.280426" lon="105.02172"><ele>963.856</ele><time>2026-05-05T21:29:00.000Z</time></trkpt>
        <trkpt lat="28.280397" lon="105.021672"><ele>961.61707</ele><time>2026-05-05T21:29:08.000Z</time></trkpt>
        <trkpt lat="28.280371" lon="105.021623"><ele>960.8964</ele><time>2026-05-05T21:29:13.000Z</time></trkpt>
        <trkpt lat="28.280348" lon="105.021572"><ele>959.5496</ele><time>2026-05-05T21:29:20.000Z</time></trkpt>
        <trkpt lat="28.280326" lon="105.021525"><ele>959.00543</ele><time>2026-05-05T21:29:27.000Z</time></trkpt>
        <trkpt lat="28.280325" lon="105.021463"><ele>959.8108</ele><time>2026-05-05T21:29:36.000Z</time></trkpt>
        <trkpt lat="28.280291" lon="105.02142"><ele>961.9297</ele><time>2026-05-05T21:29:45.000Z</time></trkpt>
        <trkpt lat="28.280299" lon="105.021362"><ele>967.3579</ele><time>2026-05-05T21:29:55.000Z</time></trkpt>
        <trkpt lat="28.280267" lon="105.021324"><ele>972.09875</ele><time>2026-05-05T21:30:07.000Z</time></trkpt>
        <trkpt lat="28.280223" lon="105.021296"><ele>969.4008</ele><time>2026-05-05T21:30:15.000Z</time></trkpt>
        <trkpt lat="28.280178" lon="105.021272"><ele>969.01184</ele><time>2026-05-05T21:30:22.000Z</time></trkpt>
        <trkpt lat="28.280129" lon="105.021262"><ele>966.3077</ele><time>2026-05-05T21:30:28.000Z</time></trkpt>
        <trkpt lat="28.280084" lon="105.021247"><ele>966.5693</ele><time>2026-05-05T21:30:34.000Z</time></trkpt>
        <trkpt lat="28.280034" lon="105.021236"><ele>966.11163</ele><time>2026-05-05T21:30:39.000Z</time></trkpt>
        <trkpt lat="28.279988" lon="105.021225"><ele>966.5026</ele><time>2026-05-05T21:30:46.000Z</time></trkpt>
        <trkpt lat="28.279945" lon="105.021193"><ele>967.3466</ele><time>2026-05-05T21:30:51.000Z</time></trkpt>
        <trkpt lat="28.279901" lon="105.021178"><ele>968.083</ele><time>2026-05-05T21:30:57.000Z</time></trkpt>
        <trkpt lat="28.279857" lon="105.021163"><ele>969.77936</ele><time>2026-05-05T21:31:03.000Z</time></trkpt>
        <trkpt lat="28.279812" lon="105.021146"><ele>970.09094</ele><time>2026-05-05T21:31:08.000Z</time></trkpt>
        <trkpt lat="28.279765" lon="105.021124"><ele>970.74023</ele><time>2026-05-05T21:31:13.000Z</time></trkpt>
        <trkpt lat="28.279709" lon="105.02111"><ele>970.2851</ele><time>2026-05-05T21:31:20.000Z</time></trkpt>
        <trkpt lat="28.27967" lon="105.021085"><ele>970.8384</ele><time>2026-05-05T21:31:25.000Z</time></trkpt>
        <trkpt lat="28.279624" lon="105.02106"><ele>970.68756</ele><time>2026-05-05T21:31:30.000Z</time></trkpt>
        <trkpt lat="28.279582" lon="105.021038"><ele>972.0175</ele><time>2026-05-05T21:31:37.000Z</time></trkpt>
        <trkpt lat="28.279538" lon="105.021025"><ele>973.0987</ele><time>2026-05-05T21:31:45.000Z</time></trkpt>
        <trkpt lat="28.279491" lon="105.021006"><ele>973.8453</ele><time>2026-05-05T21:31:54.000Z</time></trkpt>
        <trkpt lat="28.279444" lon="105.020985"><ele>973.8054</ele><time>2026-05-05T21:32:00.000Z</time></trkpt>
        <trkpt lat="28.279409" lon="105.020953"><ele>972.9274</ele><time>2026-05-05T21:32:05.000Z</time></trkpt>
        <trkpt lat="28.279385" lon="105.020904"><ele>972.6446</ele><time>2026-05-05T21:32:12.000Z</time></trkpt>
        <trkpt lat="28.279343" lon="105.020868"><ele>972.80273</ele><time>2026-05-05T21:32:20.000Z</time></trkpt>
        <trkpt lat="28.279298" lon="105.020842"><ele>974.1188</ele><time>2026-05-05T21:32:27.000Z</time></trkpt>
        <trkpt lat="28.279257" lon="105.020813"><ele>974.2438</ele><time>2026-05-05T21:32:34.000Z</time></trkpt>
        <trkpt lat="28.279216" lon="105.020785"><ele>973.8209</ele><time>2026-05-05T21:32:42.000Z</time></trkpt>
        <trkpt lat="28.279168" lon="105.020757"><ele>973.0308</ele><time>2026-05-05T21:32:50.000Z</time></trkpt>
        <trkpt lat="28.279121" lon="105.020759"><ele>972.8456</ele><time>2026-05-05T21:32:57.000Z</time></trkpt>
        <trkpt lat="28.279063" lon="105.020777"><ele>973.08856</ele><time>2026-05-05T21:33:04.000Z</time></trkpt>
        <trkpt lat="28.279013" lon="105.020766"><ele>973.8353</ele><time>2026-05-05T21:33:10.000Z</time></trkpt>
        <trkpt lat="28.278963" lon="105.020762"><ele>970.5881</ele><time>2026-05-05T21:33:15.000Z</time></trkpt>
        <trkpt lat="28.278916" lon="105.020762"><ele>968.5782</ele><time>2026-05-05T21:33:22.000Z</time></trkpt>
        <trkpt lat="28.278869" lon="105.02075"><ele>967.7579</ele><time>2026-05-05T21:33:29.000Z</time></trkpt>
        <trkpt lat="28.278824" lon="105.020724"><ele>966.1702</ele><time>2026-05-05T21:33:36.000Z</time></trkpt>
        <trkpt lat="28.278781" lon="105.020695"><ele>965.2835</ele><time>2026-05-05T21:33:41.000Z</time></trkpt>
        <trkpt lat="28.278726" lon="105.020689"><ele>966.3566</ele><time>2026-05-05T21:33:47.000Z</time></trkpt>
        <trkpt lat="28.278672" lon="105.020688"><ele>967.85364</ele><time>2026-05-05T21:33:53.000Z</time></trkpt>
        <trkpt lat="28.278626" lon="105.020682"><ele>966.82153</ele><time>2026-05-05T21:33:58.000Z</time></trkpt>
        <trkpt lat="28.27858" lon="105.020674"><ele>966.034</ele><time>2026-05-05T21:34:03.000Z</time></trkpt>
        <trkpt lat="28.278531" lon="105.020667"><ele>964.1543</ele><time>2026-05-05T21:34:09.000Z</time></trkpt>
        <trkpt lat="28.278486" lon="105.02066"><ele>963.8871</ele><time>2026-05-05T21:34:13.000Z</time></trkpt>
        <trkpt lat="28.278456" lon="105.020701"><ele>965.92554</ele><time>2026-05-05T21:34:20.000Z</time></trkpt>
        <trkpt lat="28.278432" lon="105.020751"><ele>970.29004</ele><time>2026-05-05T21:34:27.000Z</time></trkpt>
        <trkpt lat="28.278394" lon="105.020791"><ele>969.07477</ele><time>2026-05-05T21:34:32.000Z</time></trkpt>
        <trkpt lat="28.278355" lon="105.020832"><ele>969.4887</ele><time>2026-05-05T21:34:38.000Z</time></trkpt>
        <trkpt lat="28.278316" lon="105.020868"><ele>970.1561</ele><time>2026-05-05T21:34:47.000Z</time></trkpt>
        <trkpt lat="28.278273" lon="105.020896"><ele>970.93243</ele><time>2026-05-05T21:34:54.000Z</time></trkpt>
        <trkpt lat="28.278223" lon="105.020903"><ele>971.83136</ele><time>2026-05-05T21:35:00.000Z</time></trkpt>
        <trkpt lat="28.27818" lon="105.020871"><ele>971.06915</ele><time>2026-05-05T21:35:07.000Z</time></trkpt>
        <trkpt lat="28.278148" lon="105.020828"><ele>971.4988</ele><time>2026-05-05T21:35:14.000Z</time></trkpt>
        <trkpt lat="28.278122" lon="105.020778"><ele>969.94464</ele><time>2026-05-05T21:35:19.000Z</time></trkpt>
        <trkpt lat="28.278093" lon="105.020736"><ele>970.1106</ele><time>2026-05-05T21:35:27.000Z</time></trkpt>
        <trkpt lat="28.278076" lon="105.020683"><ele>967.44824</ele><time>2026-05-05T21:35:32.000Z</time></trkpt>
        <trkpt lat="28.278041" lon="105.020647"><ele>967.4299</ele><time>2026-05-05T21:35:37.000Z</time></trkpt>
        <trkpt lat="28.277995" lon="105.020663"><ele>968.1448</ele><time>2026-05-05T21:35:45.000Z</time></trkpt>
        <trkpt lat="28.277963" lon="105.020699"><ele>969.89056</ele><time>2026-05-05T21:35:51.000Z</time></trkpt>
        <trkpt lat="28.277935" lon="105.02074"><ele>972.0568</ele><time>2026-05-05T21:36:00.000Z</time></trkpt>
        <trkpt lat="28.2779" lon="105.020777"><ele>972.55774</ele><time>2026-05-05T21:36:08.000Z</time></trkpt>
        <trkpt lat="28.277864" lon="105.02082"><ele>974.11676</ele><time>2026-05-05T21:36:15.000Z</time></trkpt>
        <trkpt lat="28.277819" lon="105.020845"><ele>974.5374</ele><time>2026-05-05T21:36:21.000Z</time></trkpt>
        <trkpt lat="28.277772" lon="105.020836"><ele>973.83276</ele><time>2026-05-05T21:36:29.000Z</time></trkpt>
        <trkpt lat="28.277729" lon="105.020804"><ele>974.1891</ele><time>2026-05-05T21:36:36.000Z</time></trkpt>
        <trkpt lat="28.277702" lon="105.020757"><ele>973.5595</ele><time>2026-05-05T21:36:43.000Z</time></trkpt>
        <trkpt lat="28.277671" lon="105.02071"><ele>973.4788</ele><time>2026-05-05T21:36:51.000Z</time></trkpt>
        <trkpt lat="28.277651" lon="105.020657"><ele>973.19586</ele><time>2026-05-05T21:36:57.000Z</time></trkpt>
        <trkpt lat="28.277616" lon="105.02062"><ele>971.7256</ele><time>2026-05-05T21:37:05.000Z</time></trkpt>
        <trkpt lat="28.277566" lon="105.020614"><ele>971.47705</ele><time>2026-05-05T21:37:15.000Z</time></trkpt>
        <trkpt lat="28.277517" lon="105.020614"><ele>971.36346</ele><time>2026-05-05T21:37:22.000Z</time></trkpt>
        <trkpt lat="28.277465" lon="105.020598"><ele>970.5443</ele><time>2026-05-05T21:37:30.000Z</time></trkpt>
        <trkpt lat="28.277417" lon="105.020589"><ele>970.5013</ele><time>2026-05-05T21:37:36.000Z</time></trkpt>
        <trkpt lat="28.277366" lon="105.020581"><ele>972.2179</ele><time>2026-05-05T21:37:42.000Z</time></trkpt>
        <trkpt lat="28.277319" lon="105.020573"><ele>972.7718</ele><time>2026-05-05T21:37:48.000Z</time></trkpt>
        <trkpt lat="28.277277" lon="105.020546"><ele>973.17</ele><time>2026-05-05T21:37:53.000Z</time></trkpt>
        <trkpt lat="28.277238" lon="105.020516"><ele>972.1583</ele><time>2026-05-05T21:37:58.000Z</time></trkpt>
        <trkpt lat="28.277212" lon="105.020473"><ele>969.32855</ele><time>2026-05-05T21:38:03.000Z</time></trkpt>
        <trkpt lat="28.277184" lon="105.020426"><ele>969.53815</ele><time>2026-05-05T21:38:07.000Z</time></trkpt>
        <trkpt lat="28.277149" lon="105.020383"><ele>968.7393</ele><time>2026-05-05T21:38:13.000Z</time></trkpt>
        <trkpt lat="28.27711" lon="105.020338"><ele>970.1656</ele><time>2026-05-05T21:38:19.000Z</time></trkpt>
        <trkpt lat="28.277074" lon="105.020296"><ele>969.3403</ele><time>2026-05-05T21:38:28.000Z</time></trkpt>
        <trkpt lat="28.277028" lon="105.020263"><ele>969.0888</ele><time>2026-05-05T21:38:34.000Z</time></trkpt>
        <trkpt lat="28.276985" lon="105.020232"><ele>968.29694</ele><time>2026-05-05T21:38:40.000Z</time></trkpt>
        <trkpt lat="28.276936" lon="105.020212"><ele>968.56476</ele><time>2026-05-05T21:38:48.000Z</time></trkpt>
        <trkpt lat="28.276895" lon="105.02019"><ele>968.726</ele><time>2026-05-05T21:38:54.000Z</time></trkpt>
        <trkpt lat="28.27686" lon="105.020148"><ele>968.74927</ele><time>2026-05-05T21:39:00.000Z</time></trkpt>
        <trkpt lat="28.276836" lon="105.020098"><ele>970.811</ele><time>2026-05-05T21:39:06.000Z</time></trkpt>
        <trkpt lat="28.276795" lon="105.020061"><ele>973.4562</ele><time>2026-05-05T21:39:13.000Z</time></trkpt>
        <trkpt lat="28.27676" lon="105.020016"><ele>974.24274</ele><time>2026-05-05T21:39:19.000Z</time></trkpt>
        <trkpt lat="28.276727" lon="105.019975"><ele>975.26556</ele><time>2026-05-05T21:39:26.000Z</time></trkpt>
        <trkpt lat="28.276689" lon="105.019945"><ele>973.78064</ele><time>2026-05-05T21:39:31.000Z</time></trkpt>
        <trkpt lat="28.276641" lon="105.019918"><ele>973.4908</ele><time>2026-05-05T21:39:36.000Z</time></trkpt>
        <trkpt lat="28.276603" lon="105.019887"><ele>973.6908</ele><time>2026-05-05T21:39:43.000Z</time></trkpt>
        <trkpt lat="28.276553" lon="105.019869"><ele>973.2179</ele><time>2026-05-05T21:39:51.000Z</time></trkpt>
        <trkpt lat="28.276514" lon="105.019842"><ele>973.4288</ele><time>2026-05-05T21:40:14.000Z</time></trkpt>
        <trkpt lat="28.276476" lon="105.019813"><ele>974.3771</ele><time>2026-05-05T21:40:44.000Z</time></trkpt>
        <trkpt lat="28.276431" lon="105.019802"><ele>977.11206</ele><time>2026-05-05T21:40:52.000Z</time></trkpt>
        <trkpt lat="28.276384" lon="105.019795"><ele>978.0245</ele><time>2026-05-05T21:41:00.000Z</time></trkpt>
        <trkpt lat="28.276338" lon="105.019795"><ele>979.2143</ele><time>2026-05-05T21:41:07.000Z</time></trkpt>
        <trkpt lat="28.276284" lon="105.019791"><ele>980.8823</ele><time>2026-05-05T21:41:14.000Z</time></trkpt>
        <trkpt lat="28.276236" lon="105.019777"><ele>982.03723</ele><time>2026-05-05T21:41:22.000Z</time></trkpt>
        <trkpt lat="28.276188" lon="105.019771"><ele>983.1026</ele><time>2026-05-05T21:41:29.000Z</time></trkpt>
        <trkpt lat="28.276141" lon="105.019764"><ele>984.0286</ele><time>2026-05-05T21:41:36.000Z</time></trkpt>
        <trkpt lat="28.276092" lon="105.019752"><ele>985.50854</ele><time>2026-05-05T21:41:45.000Z</time></trkpt>
        <trkpt lat="28.276043" lon="105.019742"><ele>987.3492</ele><time>2026-05-05T21:41:53.000Z</time></trkpt>
        <trkpt lat="28.275994" lon="105.019732"><ele>987.2542</ele><time>2026-05-05T21:42:00.000Z</time></trkpt>
        <trkpt lat="28.275943" lon="105.019719"><ele>988.36285</ele><time>2026-05-05T21:42:07.000Z</time></trkpt>
        <trkpt lat="28.275896" lon="105.019714"><ele>988.5236</ele><time>2026-05-05T21:42:13.000Z</time></trkpt>
        <trkpt lat="28.275844" lon="105.019712"><ele>990.38135</ele><time>2026-05-05T21:42:19.000Z</time></trkpt>
        <trkpt lat="28.275805" lon="105.019678"><ele>991.9211</ele><time>2026-05-05T21:42:26.000Z</time></trkpt>
        <trkpt lat="28.275762" lon="105.019654"><ele>992.5916</ele><time>2026-05-05T21:42:33.000Z</time></trkpt>
        <trkpt lat="28.275727" lon="105.01962"><ele>994.4582</ele><time>2026-05-05T21:42:40.000Z</time></trkpt>
        <trkpt lat="28.275681" lon="105.0196"><ele>995.67944</ele><time>2026-05-05T21:42:48.000Z</time></trkpt>
        <trkpt lat="28.275636" lon="105.019605"><ele>996.3158</ele><time>2026-05-05T21:42:57.000Z</time></trkpt>
        <trkpt lat="28.275586" lon="105.019616"><ele>997.0555</ele><time>2026-05-05T21:43:08.000Z</time></trkpt>
        <trkpt lat="28.275539" lon="105.019622"><ele>998.3713</ele><time>2026-05-05T21:43:18.000Z</time></trkpt>
        <trkpt lat="28.275491" lon="105.019612"><ele>999.54626</ele><time>2026-05-05T21:43:29.000Z</time></trkpt>
        <trkpt lat="28.275451" lon="105.019587"><ele>1000.6961</ele><time>2026-05-05T21:43:37.000Z</time></trkpt>
        <trkpt lat="28.275401" lon="105.019582"><ele>1002.2174</ele><time>2026-05-05T21:43:45.000Z</time></trkpt>
        <trkpt lat="28.275355" lon="105.019578"><ele>1003.8224</ele><time>2026-05-05T21:43:55.000Z</time></trkpt>
        <trkpt lat="28.27531" lon="105.019572"><ele>1004.8146</ele><time>2026-05-05T21:44:03.000Z</time></trkpt>
        <trkpt lat="28.275265" lon="105.019554"><ele>1006.8033</ele><time>2026-05-05T21:44:11.000Z</time></trkpt>
        <trkpt lat="28.275227" lon="105.019521"><ele>1007.396</ele><time>2026-05-05T21:44:19.000Z</time></trkpt>
        <trkpt lat="28.275176" lon="105.019514"><ele>1008.4503</ele><time>2026-05-05T21:44:28.000Z</time></trkpt>
        <trkpt lat="28.275133" lon="105.019538"><ele>1008.8569</ele><time>2026-05-05T21:44:36.000Z</time></trkpt>
        <trkpt lat="28.275082" lon="105.019548"><ele>1008.9456</ele><time>2026-05-05T21:44:44.000Z</time></trkpt>
        <trkpt lat="28.275034" lon="105.019551"><ele>1009.7127</ele><time>2026-05-05T21:44:51.000Z</time></trkpt>
        <trkpt lat="28.274984" lon="105.019553"><ele>1012.204</ele><time>2026-05-05T21:44:58.000Z</time></trkpt>
        <trkpt lat="28.274933" lon="105.019563"><ele>1011.7934</ele><time>2026-05-05T21:45:06.000Z</time></trkpt>
        <trkpt lat="28.274879" lon="105.019574"><ele>1011.25366</ele><time>2026-05-05T21:45:13.000Z</time></trkpt>
        <trkpt lat="28.274826" lon="105.019589"><ele>1011.8151</ele><time>2026-05-05T21:45:20.000Z</time></trkpt>
        <trkpt lat="28.274781" lon="105.019601"><ele>1012.5017</ele><time>2026-05-05T21:45:26.000Z</time></trkpt>
        <trkpt lat="28.274732" lon="105.019615"><ele>1013.36365</ele><time>2026-05-05T21:45:33.000Z</time></trkpt>
        <trkpt lat="28.274677" lon="105.019619"><ele>1013.75256</ele><time>2026-05-05T21:45:40.000Z</time></trkpt>
        <trkpt lat="28.274632" lon="105.019621"><ele>1014.4625</ele><time>2026-05-05T21:45:46.000Z</time></trkpt>
        <trkpt lat="28.274584" lon="105.019615"><ele>1013.01544</ele><time>2026-05-05T21:45:52.000Z</time></trkpt>
        <trkpt lat="28.274533" lon="105.019608"><ele>1012.6043</ele><time>2026-05-05T21:45:59.000Z</time></trkpt>
        <trkpt lat="28.274482" lon="105.019602"><ele>1013.6496</ele><time>2026-05-05T21:46:04.000Z</time></trkpt>
        <trkpt lat="28.274438" lon="105.019586"><ele>1014.45825</ele><time>2026-05-05T21:46:11.000Z</time></trkpt>
        <trkpt lat="28.274384" lon="105.019588"><ele>1016.2782</ele><time>2026-05-05T21:46:18.000Z</time></trkpt>
        <trkpt lat="28.274333" lon="105.019583"><ele>1015.4415</ele><time>2026-05-05T21:46:25.000Z</time></trkpt>
        <trkpt lat="28.274283" lon="105.019575"><ele>1014.5137</ele><time>2026-05-05T21:46:32.000Z</time></trkpt>
        <trkpt lat="28.27423" lon="105.019569"><ele>1015.07166</ele><time>2026-05-05T21:46:38.000Z</time></trkpt>
        <trkpt lat="28.274184" lon="105.019556"><ele>1016.2934</ele><time>2026-05-05T21:46:43.000Z</time></trkpt>
        <trkpt lat="28.274138" lon="105.019548"><ele>1016.2792</ele><time>2026-05-05T21:46:50.000Z</time></trkpt>
        <trkpt lat="28.274092" lon="105.019544"><ele>1016.2162</ele><time>2026-05-05T21:46:56.000Z</time></trkpt>
        <trkpt lat="28.27405" lon="105.019571"><ele>1016.19055</ele><time>2026-05-05T21:47:04.000Z</time></trkpt>
        <trkpt lat="28.274012" lon="105.019608"><ele>1015.1718</ele><time>2026-05-05T21:47:12.000Z</time></trkpt>
        <trkpt lat="28.273966" lon="105.019625"><ele>1014.5166</ele><time>2026-05-05T21:47:20.000Z</time></trkpt>
        <trkpt lat="28.273917" lon="105.019622"><ele>1014.83875</ele><time>2026-05-05T21:47:27.000Z</time></trkpt>
        <trkpt lat="28.273873" lon="105.019632"><ele>1013.8496</ele><time>2026-05-05T21:47:34.000Z</time></trkpt>
        <trkpt lat="28.273828" lon="105.019638"><ele>1013.55835</ele><time>2026-05-05T21:47:41.000Z</time></trkpt>
        <trkpt lat="28.273781" lon="105.01963"><ele>1013.71564</ele><time>2026-05-05T21:47:48.000Z</time></trkpt>
        <trkpt lat="28.273736" lon="105.019617"><ele>1012.9705</ele><time>2026-05-05T21:47:58.000Z</time></trkpt>
        <trkpt lat="28.273694" lon="105.019581"><ele>1012.69366</ele><time>2026-05-05T21:48:07.000Z</time></trkpt>
        <trkpt lat="28.27365" lon="105.019565"><ele>1012.2592</ele><time>2026-05-05T21:48:15.000Z</time></trkpt>
        <trkpt lat="28.273604" lon="105.019552"><ele>1010.5102</ele><time>2026-05-05T21:48:21.000Z</time></trkpt>
        <trkpt lat="28.273567" lon="105.019521"><ele>1009.1519</ele><time>2026-05-05T21:48:28.000Z</time></trkpt>
        <trkpt lat="28.273535" lon="105.01948"><ele>1009.57184</ele><time>2026-05-05T21:48:36.000Z</time></trkpt>
        <trkpt lat="28.273493" lon="105.019442"><ele>1008.8114</ele><time>2026-05-05T21:48:47.000Z</time></trkpt>
        <trkpt lat="28.27346" lon="105.019405"><ele>1008.0523</ele><time>2026-05-05T21:48:57.000Z</time></trkpt>
        <trkpt lat="28.273423" lon="105.019362"><ele>1006.1461</ele><time>2026-05-05T21:49:06.000Z</time></trkpt>
        <trkpt lat="28.273377" lon="105.019353"><ele>1005.38715</ele><time>2026-05-05T21:49:13.000Z</time></trkpt>
        <trkpt lat="28.273333" lon="105.019343"><ele>1003.23785</ele><time>2026-05-05T21:49:21.000Z</time></trkpt>
        <trkpt lat="28.273283" lon="105.019333"><ele>1002.8342</ele><time>2026-05-05T21:49:27.000Z</time></trkpt>
        <trkpt lat="28.273249" lon="105.019298"><ele>1003.0369</ele><time>2026-05-05T21:49:31.000Z</time></trkpt>
        <trkpt lat="28.273231" lon="105.019249"><ele>1003.2959</ele><time>2026-05-05T21:49:36.000Z</time></trkpt>
        <trkpt lat="28.273228" lon="105.019195"><ele>1002.7803</ele><time>2026-05-05T21:49:46.000Z</time></trkpt>
        <trkpt lat="28.273209" lon="105.019147"><ele>998.9599</ele><time>2026-05-05T21:49:56.000Z</time></trkpt>
        <trkpt lat="28.273177" lon="105.019111"><ele>998.17944</ele><time>2026-05-05T21:50:04.000Z</time></trkpt>
        <trkpt lat="28.273142" lon="105.019072"><ele>995.9062</ele><time>2026-05-05T21:50:15.000Z</time></trkpt>
        <trkpt lat="28.273104" lon="105.019022"><ele>997.3214</ele><time>2026-05-05T21:50:33.000Z</time></trkpt>
        <trkpt lat="28.27307" lon="105.018985"><ele>996.2896</ele><time>2026-05-05T21:50:49.000Z</time></trkpt>
        <trkpt lat="28.273021" lon="105.01896"><ele>996.9079</ele><time>2026-05-05T21:51:12.000Z</time></trkpt>
        <trkpt lat="28.272974" lon="105.018935"><ele>996.42755</ele><time>2026-05-05T21:51:20.000Z</time></trkpt>
        <trkpt lat="28.272933" lon="105.018891"><ele>996.06964</ele><time>2026-05-05T21:51:32.000Z</time></trkpt>
        <trkpt lat="28.272903" lon="105.018844"><ele>995.6316</ele><time>2026-05-05T21:51:40.000Z</time></trkpt>
        <trkpt lat="28.272874" lon="105.018791"><ele>995.3008</ele><time>2026-05-05T21:51:46.000Z</time></trkpt>
        <trkpt lat="28.272833" lon="105.018747"><ele>995.9012</ele><time>2026-05-05T21:51:53.000Z</time></trkpt>
        <trkpt lat="28.272793" lon="105.018717"><ele>995.0112</ele><time>2026-05-05T21:52:05.000Z</time></trkpt>
        <trkpt lat="28.272748" lon="105.018693"><ele>993.66125</ele><time>2026-05-05T21:52:23.000Z</time></trkpt>
        <trkpt lat="28.272707" lon="105.01867"><ele>992.25836</ele><time>2026-05-05T21:52:33.000Z</time></trkpt>
        <trkpt lat="28.272664" lon="105.018654"><ele>991.28973</ele><time>2026-05-05T21:52:47.000Z</time></trkpt>
        <trkpt lat="28.272616" lon="105.01865"><ele>990.74005</ele><time>2026-05-05T21:52:58.000Z</time></trkpt>
        <trkpt lat="28.27257" lon="105.01863"><ele>990.4073</ele><time>2026-05-05T21:53:06.000Z</time></trkpt>
        <trkpt lat="28.27253" lon="105.018606"><ele>989.2535</ele><time>2026-05-05T21:53:17.000Z</time></trkpt>
        <trkpt lat="28.272489" lon="105.018582"><ele>987.4978</ele><time>2026-05-05T21:53:25.000Z</time></trkpt>
        <trkpt lat="28.272445" lon="105.018557"><ele>986.9281</ele><time>2026-05-05T21:53:31.000Z</time></trkpt>
        <trkpt lat="28.272396" lon="105.018545"><ele>987.30365</ele><time>2026-05-05T21:53:36.000Z</time></trkpt>
        <trkpt lat="28.272342" lon="105.018527"><ele>985.61957</ele><time>2026-05-05T21:53:44.000Z</time></trkpt>
        <trkpt lat="28.272294" lon="105.018528"><ele>984.82874</ele><time>2026-05-05T21:53:53.000Z</time></trkpt>
        <trkpt lat="28.272243" lon="105.018529"><ele>982.2983</ele><time>2026-05-05T21:53:59.000Z</time></trkpt>
        <trkpt lat="28.272195" lon="105.018534"><ele>981.8579</ele><time>2026-05-05T21:54:07.000Z</time></trkpt>
        <trkpt lat="28.27215" lon="105.018532"><ele>982.0951</ele><time>2026-05-05T21:54:15.000Z</time></trkpt>
        <trkpt lat="28.272101" lon="105.018536"><ele>983.418</ele><time>2026-05-05T21:54:20.000Z</time></trkpt>
        <trkpt lat="28.272055" lon="105.01854"><ele>984.24005</ele><time>2026-05-05T21:54:26.000Z</time></trkpt>
        <trkpt lat="28.272008" lon="105.018546"><ele>983.8767</ele><time>2026-05-05T21:54:34.000Z</time></trkpt>
        <trkpt lat="28.271961" lon="105.018548"><ele>983.49133</ele><time>2026-05-05T21:54:47.000Z</time></trkpt>
        <trkpt lat="28.27192" lon="105.018573"><ele>978.31586</ele><time>2026-05-05T21:54:55.000Z</time></trkpt>
        <trkpt lat="28.271871" lon="105.018569"><ele>981.26355</ele><time>2026-05-05T21:55:03.000Z</time></trkpt>
        <trkpt lat="28.271826" lon="105.018567"><ele>981.4597</ele><time>2026-05-05T21:55:09.000Z</time></trkpt>
        <trkpt lat="28.271781" lon="105.018539"><ele>982.57794</ele><time>2026-05-05T21:55:18.000Z</time></trkpt>
        <trkpt lat="28.271779" lon="105.018483"><ele>982.32513</ele><time>2026-05-05T21:55:28.000Z</time></trkpt>
        <trkpt lat="28.271738" lon="105.018451"><ele>984.46814</ele><time>2026-05-05T21:55:36.000Z</time></trkpt>
        <trkpt lat="28.271724" lon="105.018396"><ele>983.5428</ele><time>2026-05-05T21:55:42.000Z</time></trkpt>
        <trkpt lat="28.271729" lon="105.01833"><ele>983.2611</ele><time>2026-05-05T21:55:52.000Z</time></trkpt>
        <trkpt lat="28.271732" lon="105.018277"><ele>982.99677</ele><time>2026-05-05T21:56:00.000Z</time></trkpt>
        <trkpt lat="28.271713" lon="105.018229"><ele>981.5518</ele><time>2026-05-05T21:56:06.000Z</time></trkpt>
        <trkpt lat="28.271686" lon="105.018186"><ele>980.58966</ele><time>2026-05-05T21:56:13.000Z</time></trkpt>
        <trkpt lat="28.271677" lon="105.018135"><ele>980.51526</ele><time>2026-05-05T21:56:20.000Z</time></trkpt>
        <trkpt lat="28.27166" lon="105.018083"><ele>980.2058</ele><time>2026-05-05T21:56:26.000Z</time></trkpt>
        <trkpt lat="28.271645" lon="105.01803"><ele>981.2993</ele><time>2026-05-05T21:56:34.000Z</time></trkpt>
        <trkpt lat="28.271617" lon="105.017986"><ele>983.2086</ele><time>2026-05-05T21:56:41.000Z</time></trkpt>
        <trkpt lat="28.271574" lon="105.017963"><ele>980.4471</ele><time>2026-05-05T21:56:46.000Z</time></trkpt>
        <trkpt lat="28.27153" lon="105.017936"><ele>977.84955</ele><time>2026-05-05T21:56:53.000Z</time></trkpt>
        <trkpt lat="28.271479" lon="105.017906"><ele>974.426</ele><time>2026-05-05T21:57:01.000Z</time></trkpt>
        <trkpt lat="28.271435" lon="105.017887"><ele>972.9909</ele><time>2026-05-05T21:57:07.000Z</time></trkpt>
        <trkpt lat="28.271394" lon="105.017851"><ele>971.8398</ele><time>2026-05-05T21:57:12.000Z</time></trkpt>
        <trkpt lat="28.271347" lon="105.017837"><ele>970.0155</ele><time>2026-05-05T21:57:19.000Z</time></trkpt>
        <trkpt lat="28.271305" lon="105.017805"><ele>969.60504</ele><time>2026-05-05T21:57:27.000Z</time></trkpt>
        <trkpt lat="28.271263" lon="105.017772"><ele>968.4289</ele><time>2026-05-05T21:57:34.000Z</time></trkpt>
        <trkpt lat="28.271214" lon="105.017754"><ele>966.73816</ele><time>2026-05-05T21:57:43.000Z</time></trkpt>
        <trkpt lat="28.271171" lon="105.017736"><ele>965.8864</ele><time>2026-05-05T21:57:50.000Z</time></trkpt>
        <trkpt lat="28.271119" lon="105.01773"><ele>966.3494</ele><time>2026-05-05T21:57:56.000Z</time></trkpt>
        <trkpt lat="28.271068" lon="105.017719"><ele>966.44116</ele><time>2026-05-05T21:58:03.000Z</time></trkpt>
        <trkpt lat="28.271018" lon="105.017724"><ele>965.94977</ele><time>2026-05-05T21:58:09.000Z</time></trkpt>
        <trkpt lat="28.270965" lon="105.017708"><ele>965.5016</ele><time>2026-05-05T21:58:14.000Z</time></trkpt>
        <trkpt lat="28.270915" lon="105.01769"><ele>964.6746</ele><time>2026-05-05T21:58:21.000Z</time></trkpt>
        <trkpt lat="28.270872" lon="105.017658"><ele>964.568</ele><time>2026-05-05T21:58:27.000Z</time></trkpt>
        <trkpt lat="28.27083" lon="105.017624"><ele>962.3531</ele><time>2026-05-05T21:58:34.000Z</time></trkpt>
        <trkpt lat="28.270777" lon="105.017613"><ele>960.1839</ele><time>2026-05-05T21:58:43.000Z</time></trkpt>
        <trkpt lat="28.270731" lon="105.017637"><ele>958.3508</ele><time>2026-05-05T21:58:51.000Z</time></trkpt>
        <trkpt lat="28.270687" lon="105.017657"><ele>958.1995</ele><time>2026-05-05T21:58:57.000Z</time></trkpt>
        <trkpt lat="28.270645" lon="105.017681"><ele>957.81085</ele><time>2026-05-05T21:59:02.000Z</time></trkpt>
        <trkpt lat="28.2706" lon="105.017698"><ele>957.9953</ele><time>2026-05-05T21:59:07.000Z</time></trkpt>
        <trkpt lat="28.270555" lon="105.017711"><ele>959.208</ele><time>2026-05-05T21:59:12.000Z</time></trkpt>
        <trkpt lat="28.270509" lon="105.017716"><ele>960.5273</ele><time>2026-05-05T21:59:18.000Z</time></trkpt>
        <trkpt lat="28.270461" lon="105.017724"><ele>959.8483</ele><time>2026-05-05T21:59:23.000Z</time></trkpt>
        <trkpt lat="28.270406" lon="105.017736"><ele>960.37146</ele><time>2026-05-05T21:59:28.000Z</time></trkpt>
        <trkpt lat="28.270354" lon="105.017722"><ele>961.8942</ele><time>2026-05-05T21:59:34.000Z</time></trkpt>
        <trkpt lat="28.270303" lon="105.017718"><ele>962.1003</ele><time>2026-05-05T21:59:40.000Z</time></trkpt>
        <trkpt lat="28.270256" lon="105.017695"><ele>962.1111</ele><time>2026-05-05T21:59:47.000Z</time></trkpt>
        <trkpt lat="28.270216" lon="105.017669"><ele>960.7409</ele><time>2026-05-05T21:59:56.000Z</time></trkpt>
        <trkpt lat="28.270167" lon="105.017657"><ele>958.7696</ele><time>2026-05-05T22:00:04.000Z</time></trkpt>
        <trkpt lat="28.270122" lon="105.017668"><ele>958.2407</ele><time>2026-05-05T22:00:10.000Z</time></trkpt>
        <trkpt lat="28.270078" lon="105.01768"><ele>957.1783</ele><time>2026-05-05T22:00:16.000Z</time></trkpt>
        <trkpt lat="28.270025" lon="105.017685"><ele>957.06683</ele><time>2026-05-05T22:00:23.000Z</time></trkpt>
        <trkpt lat="28.269977" lon="105.017662"><ele>957.4885</ele><time>2026-05-05T22:00:29.000Z</time></trkpt>
        <trkpt lat="28.269935" lon="105.017637"><ele>956.15204</ele><time>2026-05-05T22:00:34.000Z</time></trkpt>
        <trkpt lat="28.269885" lon="105.017621"><ele>955.7279</ele><time>2026-05-05T22:00:40.000Z</time></trkpt>
        <trkpt lat="28.269832" lon="105.017611"><ele>955.1246</ele><time>2026-05-05T22:00:46.000Z</time></trkpt>
        <trkpt lat="28.269781" lon="105.017615"><ele>953.3521</ele><time>2026-05-05T22:00:53.000Z</time></trkpt>
        <trkpt lat="28.269735" lon="105.01762"><ele>951.6086</ele><time>2026-05-05T22:01:01.000Z</time></trkpt>
        <trkpt lat="28.269682" lon="105.017619"><ele>950.19</ele><time>2026-05-05T22:01:08.000Z</time></trkpt>
        <trkpt lat="28.269636" lon="105.017632"><ele>949.4925</ele><time>2026-05-05T22:01:14.000Z</time></trkpt>
        <trkpt lat="28.269585" lon="105.017644"><ele>948.9044</ele><time>2026-05-05T22:01:21.000Z</time></trkpt>
        <trkpt lat="28.269535" lon="105.017637"><ele>948.74835</ele><time>2026-05-05T22:01:28.000Z</time></trkpt>
        <trkpt lat="28.269484" lon="105.017627"><ele>948.0427</ele><time>2026-05-05T22:01:35.000Z</time></trkpt>
        <trkpt lat="28.269434" lon="105.017613"><ele>948.346</ele><time>2026-05-05T22:01:43.000Z</time></trkpt>
        <trkpt lat="28.269392" lon="105.017582"><ele>948.5111</ele><time>2026-05-05T22:01:49.000Z</time></trkpt>
        <trkpt lat="28.269352" lon="105.017557"><ele>947.00665</ele><time>2026-05-05T22:01:56.000Z</time></trkpt>
        <trkpt lat="28.2693" lon="105.017564"><ele>945.9171</ele><time>2026-05-05T22:02:02.000Z</time></trkpt>
        <trkpt lat="28.269255" lon="105.017569"><ele>944.2065</ele><time>2026-05-05T22:02:12.000Z</time></trkpt>
        <trkpt lat="28.269202" lon="105.01757"><ele>943.94824</ele><time>2026-05-05T22:02:19.000Z</time></trkpt>
        <trkpt lat="28.269149" lon="105.017579"><ele>944.9946</ele><time>2026-05-05T22:02:26.000Z</time></trkpt>
        <trkpt lat="28.269104" lon="105.017586"><ele>945.8126</ele><time>2026-05-05T22:02:32.000Z</time></trkpt>
        <trkpt lat="28.269046" lon="105.017589"><ele>946.0706</ele><time>2026-05-05T22:02:37.000Z</time></trkpt>
        <trkpt lat="28.268995" lon="105.017592"><ele>946.61487</ele><time>2026-05-05T22:02:43.000Z</time></trkpt>
        <trkpt lat="28.268945" lon="105.017599"><ele>945.7788</ele><time>2026-05-05T22:02:49.000Z</time></trkpt>
        <trkpt lat="28.268898" lon="105.017607"><ele>945.5706</ele><time>2026-05-05T22:02:56.000Z</time></trkpt>
        <trkpt lat="28.268853" lon="105.017619"><ele>945.63605</ele><time>2026-05-05T22:03:02.000Z</time></trkpt>
        <trkpt lat="28.268803" lon="105.017632"><ele>945.5449</ele><time>2026-05-05T22:03:06.000Z</time></trkpt>
        <trkpt lat="28.268747" lon="105.017645"><ele>944.0749</ele><time>2026-05-05T22:03:11.000Z</time></trkpt>
        <trkpt lat="28.268699" lon="105.017657"><ele>943.7299</ele><time>2026-05-05T22:03:16.000Z</time></trkpt>
        <trkpt lat="28.26865" lon="105.017664"><ele>942.25214</ele><time>2026-05-05T22:03:23.000Z</time></trkpt>
        <trkpt lat="28.268597" lon="105.017663"><ele>939.9606</ele><time>2026-05-05T22:03:29.000Z</time></trkpt>
        <trkpt lat="28.268552" lon="105.017639"><ele>938.5483</ele><time>2026-05-05T22:03:43.000Z</time></trkpt>
        <trkpt lat="28.268511" lon="105.017616"><ele>936.5407</ele><time>2026-05-05T22:03:58.000Z</time></trkpt>
        <trkpt lat="28.268473" lon="105.017646"><ele>936.0717</ele><time>2026-05-05T22:06:15.000Z</time></trkpt>
        <trkpt lat="28.268437" lon="105.017683"><ele>935.56</ele><time>2026-05-05T22:06:28.000Z</time></trkpt>
        <trkpt lat="28.268444" lon="105.017739"><ele>935.01514</ele><time>2026-05-05T22:06:42.000Z</time></trkpt>
        <trkpt lat="28.268405" lon="105.017768"><ele>934.14453</ele><time>2026-05-05T22:06:51.000Z</time></trkpt>
        <trkpt lat="28.268366" lon="105.017796"><ele>933.1716</ele><time>2026-05-05T22:06:59.000Z</time></trkpt>
        <trkpt lat="28.268324" lon="105.017822"><ele>931.7888</ele><time>2026-05-05T22:07:05.000Z</time></trkpt>
        <trkpt lat="28.268281" lon="105.017849"><ele>931.59735</ele><time>2026-05-05T22:07:11.000Z</time></trkpt>
        <trkpt lat="28.268234" lon="105.017855"><ele>932.4473</ele><time>2026-05-05T22:07:17.000Z</time></trkpt>
        <trkpt lat="28.268187" lon="105.017854"><ele>931.8959</ele><time>2026-05-05T22:07:23.000Z</time></trkpt>
        <trkpt lat="28.268141" lon="105.01785"><ele>933.02747</ele><time>2026-05-05T22:07:28.000Z</time></trkpt>
        <trkpt lat="28.268091" lon="105.017843"><ele>932.01886</ele><time>2026-05-05T22:07:35.000Z</time></trkpt>
        <trkpt lat="28.268046" lon="105.017837"><ele>931.6406</ele><time>2026-05-05T22:07:40.000Z</time></trkpt>
        <trkpt lat="28.267996" lon="105.017822"><ele>931.82556</ele><time>2026-05-05T22:07:45.000Z</time></trkpt>
        <trkpt lat="28.267946" lon="105.017793"><ele>932.67096</ele><time>2026-05-05T22:07:51.000Z</time></trkpt>
        <trkpt lat="28.267913" lon="105.017831"><ele>933.36475</ele><time>2026-05-05T22:08:02.000Z</time></trkpt>
        <trkpt lat="28.267915" lon="105.017887"><ele>935.25214</ele><time>2026-05-05T22:08:45.000Z</time></trkpt>
        <trkpt lat="28.267906" lon="105.017944"><ele>936.703</ele><time>2026-05-05T22:08:54.000Z</time></trkpt>
        <trkpt lat="28.267914" lon="105.018006"><ele>937.38275</ele><time>2026-05-05T22:09:01.000Z</time></trkpt>
        <trkpt lat="28.267928" lon="105.018057"><ele>942.4222</ele><time>2026-05-05T22:09:21.000Z</time></trkpt>
        <trkpt lat="28.267961" lon="105.018094"><ele>945.6277</ele><time>2026-05-05T22:09:34.000Z</time></trkpt>
        <trkpt lat="28.267959" lon="105.018146"><ele>947.1078</ele><time>2026-05-05T22:09:44.000Z</time></trkpt>
        <trkpt lat="28.267967" lon="105.018207"><ele>947.0661</ele><time>2026-05-05T22:09:53.000Z</time></trkpt>
        <trkpt lat="28.267968" lon="105.018261"><ele>948.9418</ele><time>2026-05-05T22:10:04.000Z</time></trkpt>
        <trkpt lat="28.267977" lon="105.018315"><ele>949.6133</ele><time>2026-05-05T22:10:13.000Z</time></trkpt>
        <trkpt lat="28.267963" lon="105.018365"><ele>950.68713</ele><time>2026-05-05T22:10:24.000Z</time></trkpt>
        <trkpt lat="28.267958" lon="105.018418"><ele>954.0507</ele><time>2026-05-05T22:10:35.000Z</time></trkpt>
        <trkpt lat="28.267966" lon="105.01847"><ele>955.28876</ele><time>2026-05-05T22:10:48.000Z</time></trkpt>
        <trkpt lat="28.267952" lon="105.018525"><ele>958.2334</ele><time>2026-05-05T22:10:59.000Z</time></trkpt>
        <trkpt lat="28.267912" lon="105.01856"><ele>957.9704</ele><time>2026-05-05T22:11:17.000Z</time></trkpt>
        <trkpt lat="28.267867" lon="105.01857"><ele>955.66565</ele><time>2026-05-05T22:11:35.000Z</time></trkpt>
        <trkpt lat="28.267889" lon="105.018616"><ele>955.7067</ele><time>2026-05-05T22:11:41.000Z</time></trkpt>
        <trkpt lat="28.267933" lon="105.018635"><ele>956.85535</ele><time>2026-05-05T22:11:48.000Z</time></trkpt>
        <trkpt lat="28.267981" lon="105.018646"><ele>957.93964</ele><time>2026-05-05T22:11:53.000Z</time></trkpt>
        <trkpt lat="28.267996" lon="105.018597"><ele>960.8207</ele><time>2026-05-05T22:12:07.000Z</time></trkpt>
        <trkpt lat="28.268041" lon="105.018588"><ele>960.20715</ele><time>2026-05-05T22:12:23.000Z</time></trkpt>
        <trkpt lat="28.268078" lon="105.018619"><ele>958.84515</ele><time>2026-05-05T22:12:31.000Z</time></trkpt>
        <trkpt lat="28.26812" lon="105.018647"><ele>959.4555</ele><time>2026-05-05T22:12:38.000Z</time></trkpt>
        <trkpt lat="28.268159" lon="105.018686"><ele>960.49164</ele><time>2026-05-05T22:12:44.000Z</time></trkpt>
        <trkpt lat="28.268189" lon="105.018726"><ele>958.46533</ele><time>2026-05-05T22:12:50.000Z</time></trkpt>
        <trkpt lat="28.268227" lon="105.01877"><ele>956.914</ele><time>2026-05-05T22:12:58.000Z</time></trkpt>
        <trkpt lat="28.268281" lon="105.018779"><ele>963.4217</ele><time>2026-05-05T22:13:11.000Z</time></trkpt>
        <trkpt lat="28.268329" lon="105.018803"><ele>963.8359</ele><time>2026-05-05T22:13:20.000Z</time></trkpt>
        <trkpt lat="28.268375" lon="105.018836"><ele>965.2424</ele><time>2026-05-05T22:13:33.000Z</time></trkpt>
        <trkpt lat="28.268421" lon="105.018842"><ele>966.6464</ele><time>2026-05-05T22:13:41.000Z</time></trkpt>
        <trkpt lat="28.268466" lon="105.018834"><ele>966.875</ele><time>2026-05-05T22:13:48.000Z</time></trkpt>
        <trkpt lat="28.268519" lon="105.018829"><ele>966.76447</ele><time>2026-05-05T22:13:56.000Z</time></trkpt>
        <trkpt lat="28.268567" lon="105.018818"><ele>967.2192</ele><time>2026-05-05T22:14:02.000Z</time></trkpt>
        <trkpt lat="28.268613" lon="105.018826"><ele>967.50275</ele><time>2026-05-05T22:14:09.000Z</time></trkpt>
        <trkpt lat="28.268663" lon="105.018833"><ele>968.0217</ele><time>2026-05-05T22:14:15.000Z</time></trkpt>
        <trkpt lat="28.26872" lon="105.018845"><ele>969.3369</ele><time>2026-05-05T22:14:21.000Z</time></trkpt>
        <trkpt lat="28.268768" lon="105.018847"><ele>967.75055</ele><time>2026-05-05T22:14:27.000Z</time></trkpt>
        <trkpt lat="28.268814" lon="105.018868"><ele>967.44995</ele><time>2026-05-05T22:14:36.000Z</time></trkpt>
        <trkpt lat="28.268847" lon="105.018911"><ele>963.52686</ele><time>2026-05-05T22:14:43.000Z</time></trkpt>
        <trkpt lat="28.268895" lon="105.018896"><ele>966.27826</ele><time>2026-05-05T22:14:58.000Z</time></trkpt>
        <trkpt lat="28.268939" lon="105.018932"><ele>966.6786</ele><time>2026-05-05T22:15:04.000Z</time></trkpt>
        <trkpt lat="28.268987" lon="105.018941"><ele>968.7988</ele><time>2026-05-05T22:15:13.000Z</time></trkpt>
        <trkpt lat="28.269038" lon="105.018938"><ele>971.3634</ele><time>2026-05-05T22:15:18.000Z</time></trkpt>
        <trkpt lat="28.269085" lon="105.018935"><ele>974.7267</ele><time>2026-05-05T22:15:24.000Z</time></trkpt>
        <trkpt lat="28.26913" lon="105.018954"><ele>974.0229</ele><time>2026-05-05T22:15:29.000Z</time></trkpt>
        <trkpt lat="28.269171" lon="105.018991"><ele>977.3967</ele><time>2026-05-05T22:15:35.000Z</time></trkpt>
        <trkpt lat="28.269206" lon="105.019028"><ele>977.3809</ele><time>2026-05-05T22:15:41.000Z</time></trkpt>
        <trkpt lat="28.269229" lon="105.019075"><ele>977.43256</ele><time>2026-05-05T22:15:47.000Z</time></trkpt>
        <trkpt lat="28.26926" lon="105.019119"><ele>979.0677</ele><time>2026-05-05T22:15:55.000Z</time></trkpt>
        <trkpt lat="28.269295" lon="105.019159"><ele>980.838</ele><time>2026-05-05T22:16:02.000Z</time></trkpt>
        <trkpt lat="28.269343" lon="105.019163"><ele>982.92285</ele><time>2026-05-05T22:16:09.000Z</time></trkpt>
        <trkpt lat="28.269393" lon="105.019135"><ele>983.0547</ele><time>2026-05-05T22:16:21.000Z</time></trkpt>
        <trkpt lat="28.26945" lon="105.019134"><ele>982.39935</ele><time>2026-05-05T22:16:31.000Z</time></trkpt>
        <trkpt lat="28.269488" lon="105.019104"><ele>983.4972</ele><time>2026-05-05T22:16:35.000Z</time></trkpt>
        <trkpt lat="28.269519" lon="105.019063"><ele>982.92017</ele><time>2026-05-05T22:16:43.000Z</time></trkpt>
        <trkpt lat="28.269558" lon="105.019032"><ele>983.34546</ele><time>2026-05-05T22:16:50.000Z</time></trkpt>
        <trkpt lat="28.269595" lon="105.019003"><ele>982.53064</ele><time>2026-05-05T22:16:56.000Z</time></trkpt>
        <trkpt lat="28.269649" lon="105.019014"><ele>983.9932</ele><time>2026-05-05T22:17:03.000Z</time></trkpt>
        <trkpt lat="28.269686" lon="105.019051"><ele>983.4566</ele><time>2026-05-05T22:17:09.000Z</time></trkpt>
        <trkpt lat="28.269725" lon="105.019084"><ele>984.81274</ele><time>2026-05-05T22:17:16.000Z</time></trkpt>
        <trkpt lat="28.269774" lon="105.0191"><ele>985.7123</ele><time>2026-05-05T22:17:26.000Z</time></trkpt>
        <trkpt lat="28.269813" lon="105.019129"><ele>987.4005</ele><time>2026-05-05T22:17:34.000Z</time></trkpt>
        <trkpt lat="28.269851" lon="105.019158"><ele>987.7551</ele><time>2026-05-05T22:17:40.000Z</time></trkpt>
        <trkpt lat="28.269896" lon="105.019169"><ele>988.65155</ele><time>2026-05-05T22:17:47.000Z</time></trkpt>
        <trkpt lat="28.269937" lon="105.019202"><ele>988.159</ele><time>2026-05-05T22:17:53.000Z</time></trkpt>
        <trkpt lat="28.269974" lon="105.019238"><ele>989.8968</ele><time>2026-05-05T22:18:00.000Z</time></trkpt>
        <trkpt lat="28.270003" lon="105.019278"><ele>989.83777</ele><time>2026-05-05T22:18:06.000Z</time></trkpt>
        <trkpt lat="28.270038" lon="105.019325"><ele>990.0557</ele><time>2026-05-05T22:18:11.000Z</time></trkpt>
        <trkpt lat="28.270082" lon="105.01936"><ele>992.1361</ele><time>2026-05-05T22:18:21.000Z</time></trkpt>
        <trkpt lat="28.270121" lon="105.019389"><ele>996.81335</ele><time>2026-05-05T22:18:32.000Z</time></trkpt>
        <trkpt lat="28.270158" lon="105.01935"><ele>1000.80615</ele><time>2026-05-05T22:18:44.000Z</time></trkpt>
        <trkpt lat="28.270202" lon="105.019323"><ele>1003.55817</ele><time>2026-05-05T22:18:52.000Z</time></trkpt>
        <trkpt lat="28.270205" lon="105.019267"><ele>1005.8369</ele><time>2026-05-05T22:18:57.000Z</time></trkpt>
        <trkpt lat="28.270238" lon="105.019222"><ele>1004.0344</ele><time>2026-05-05T22:19:01.000Z</time></trkpt>
        <trkpt lat="28.27026" lon="105.019175"><ele>1005.13257</ele><time>2026-05-05T22:19:05.000Z</time></trkpt>
        <trkpt lat="28.270295" lon="105.019137"><ele>1003.76355</ele><time>2026-05-05T22:19:09.000Z</time></trkpt>
        <trkpt lat="28.270315" lon="105.019084"><ele>1004.76154</ele><time>2026-05-05T22:19:15.000Z</time></trkpt>
        <trkpt lat="28.270351" lon="105.019051"><ele>1003.8823</ele><time>2026-05-05T22:19:21.000Z</time></trkpt>
        <trkpt lat="28.270395" lon="105.019023"><ele>1003.0222</ele><time>2026-05-05T22:19:29.000Z</time></trkpt>
        <trkpt lat="28.270406" lon="105.018964"><ele>1002.0385</ele><time>2026-05-05T22:19:34.000Z</time></trkpt>
        <trkpt lat="28.270415" lon="105.018898"><ele>1001.601</ele><time>2026-05-05T22:19:39.000Z</time></trkpt>
        <trkpt lat="28.27046" lon="105.018872"><ele>1001.8237</ele><time>2026-05-05T22:19:43.000Z</time></trkpt>
        <trkpt lat="28.270488" lon="105.018821"><ele>1004.461</ele><time>2026-05-05T22:19:46.000Z</time></trkpt>
        <trkpt lat="28.27052" lon="105.018784"><ele>1001.86395</ele><time>2026-05-05T22:19:53.000Z</time></trkpt>
        <trkpt lat="28.270556" lon="105.018743"><ele>1004.30884</ele><time>2026-05-05T22:19:59.000Z</time></trkpt>
        <trkpt lat="28.270592" lon="105.018705"><ele>1006.5789</ele><time>2026-05-05T22:20:05.000Z</time></trkpt>
        <trkpt lat="28.270624" lon="105.018664"><ele>1010.06335</ele><time>2026-05-05T22:20:10.000Z</time></trkpt>
        <trkpt lat="28.270659" lon="105.018622"><ele>1008.5801</ele><time>2026-05-05T22:20:18.000Z</time></trkpt>
        <trkpt lat="28.270697" lon="105.018585"><ele>1009.46063</ele><time>2026-05-05T22:20:24.000Z</time></trkpt>
        <trkpt lat="28.270739" lon="105.018556"><ele>1009.6719</ele><time>2026-05-05T22:20:31.000Z</time></trkpt>
        <trkpt lat="28.270781" lon="105.018533"><ele>1011.1682</ele><time>2026-05-05T22:20:41.000Z</time></trkpt>
        <trkpt lat="28.270817" lon="105.018501"><ele>1012.9192</ele><time>2026-05-05T22:20:48.000Z</time></trkpt>
        <trkpt lat="28.270853" lon="105.01846"><ele>1013.8239</ele><time>2026-05-05T22:20:57.000Z</time></trkpt>
        <trkpt lat="28.27089" lon="105.018422"><ele>1014.4953</ele><time>2026-05-05T22:21:03.000Z</time></trkpt>
        <trkpt lat="28.27092" lon="105.018383"><ele>1015.29865</ele><time>2026-05-05T22:21:08.000Z</time></trkpt>
        <trkpt lat="28.270966" lon="105.018348"><ele>1014.9935</ele><time>2026-05-05T22:21:14.000Z</time></trkpt>
        <trkpt lat="28.271005" lon="105.018319"><ele>1014.7732</ele><time>2026-05-05T22:21:20.000Z</time></trkpt>
        <trkpt lat="28.271054" lon="105.018313"><ele>1014.68256</ele><time>2026-05-05T22:21:26.000Z</time></trkpt>
        <trkpt lat="28.271095" lon="105.018348"><ele>1016.0822</ele><time>2026-05-05T22:21:36.000Z</time></trkpt>
        <trkpt lat="28.271109" lon="105.018406"><ele>1017.6683</ele><time>2026-05-05T22:21:44.000Z</time></trkpt>
        <trkpt lat="28.271109" lon="105.018462"><ele>1017.4721</ele><time>2026-05-05T22:21:53.000Z</time></trkpt>
        <trkpt lat="28.271111" lon="105.018519"><ele>1020.033</ele><time>2026-05-05T22:21:59.000Z</time></trkpt>
        <trkpt lat="28.271111" lon="105.018579"><ele>1020.66296</ele><time>2026-05-05T22:22:06.000Z</time></trkpt>
        <trkpt lat="28.271119" lon="105.018631"><ele>1021.6866</ele><time>2026-05-05T22:22:14.000Z</time></trkpt>
        <trkpt lat="28.271128" lon="105.018691"><ele>1020.88556</ele><time>2026-05-05T22:22:20.000Z</time></trkpt>
        <trkpt lat="28.271137" lon="105.018747"><ele>1020.5933</ele><time>2026-05-05T22:22:27.000Z</time></trkpt>
        <trkpt lat="28.271137" lon="105.018799"><ele>1021.1251</ele><time>2026-05-05T22:22:34.000Z</time></trkpt>
        <trkpt lat="28.271138" lon="105.018856"><ele>1024.9761</ele><time>2026-05-05T22:22:43.000Z</time></trkpt>
        <trkpt lat="28.271155" lon="105.018908"><ele>1024.598</ele><time>2026-05-05T22:22:49.000Z</time></trkpt>
        <trkpt lat="28.271179" lon="105.018959"><ele>1024.6664</ele><time>2026-05-05T22:22:56.000Z</time></trkpt>
        <trkpt lat="28.271219" lon="105.018998"><ele>1024.9296</ele><time>2026-05-05T22:23:02.000Z</time></trkpt>
        <trkpt lat="28.271259" lon="105.019032"><ele>1024.9026</ele><time>2026-05-05T22:23:08.000Z</time></trkpt>
        <trkpt lat="28.271293" lon="105.019067"><ele>1026.933</ele><time>2026-05-05T22:23:19.000Z</time></trkpt>
        <trkpt lat="28.271331" lon="105.019097"><ele>1026.9164</ele><time>2026-05-05T22:23:26.000Z</time></trkpt>
        <trkpt lat="28.271365" lon="105.019131"><ele>1026.8512</ele><time>2026-05-05T22:23:31.000Z</time></trkpt>
        <trkpt lat="28.271396" lon="105.019175"><ele>1027.1288</ele><time>2026-05-05T22:23:37.000Z</time></trkpt>
        <trkpt lat="28.271424" lon="105.019219"><ele>1028.2118</ele><time>2026-05-05T22:23:44.000Z</time></trkpt>
        <trkpt lat="28.271452" lon="105.01927"><ele>1029.6696</ele><time>2026-05-05T22:23:51.000Z</time></trkpt>
        <trkpt lat="28.271485" lon="105.019311"><ele>1030.8636</ele><time>2026-05-05T22:23:57.000Z</time></trkpt>
        <trkpt lat="28.271501" lon="105.019359"><ele>1031.7361</ele><time>2026-05-05T22:24:03.000Z</time></trkpt>
        <trkpt lat="28.271536" lon="105.019393"><ele>1033.4777</ele><time>2026-05-05T22:24:09.000Z</time></trkpt>
        <trkpt lat="28.271559" lon="105.019444"><ele>1034.3812</ele><time>2026-05-05T22:24:16.000Z</time></trkpt>
        <trkpt lat="28.271581" lon="105.01949"><ele>1034.0785</ele><time>2026-05-05T22:24:23.000Z</time></trkpt>
        <trkpt lat="28.271625" lon="105.019517"><ele>1036.3905</ele><time>2026-05-05T22:24:32.000Z</time></trkpt>
        <trkpt lat="28.271674" lon="105.019515"><ele>1038.2255</ele><time>2026-05-05T22:24:41.000Z</time></trkpt>
        <trkpt lat="28.271722" lon="105.019514"><ele>1037.0376</ele><time>2026-05-05T22:24:47.000Z</time></trkpt>
        <trkpt lat="28.271772" lon="105.019518"><ele>1035.8815</ele><time>2026-05-05T22:24:54.000Z</time></trkpt>
        <trkpt lat="28.271823" lon="105.019533"><ele>1036.4476</ele><time>2026-05-05T22:24:59.000Z</time></trkpt>
        <trkpt lat="28.271862" lon="105.019566"><ele>1036.7051</ele><time>2026-05-05T22:25:04.000Z</time></trkpt>
        <trkpt lat="28.271891" lon="105.019614"><ele>1034.9872</ele><time>2026-05-05T22:25:09.000Z</time></trkpt>
        <trkpt lat="28.271932" lon="105.019658"><ele>1036.202</ele><time>2026-05-05T22:25:15.000Z</time></trkpt>
        <trkpt lat="28.271954" lon="105.019706"><ele>1036.589</ele><time>2026-05-05T22:25:20.000Z</time></trkpt>
        <trkpt lat="28.271985" lon="105.019754"><ele>1038.6642</ele><time>2026-05-05T22:25:25.000Z</time></trkpt>
        <trkpt lat="28.271986" lon="105.019806"><ele>1039.9575</ele><time>2026-05-05T22:25:31.000Z</time></trkpt>
        <trkpt lat="28.27195" lon="105.019846"><ele>1041.4478</ele><time>2026-05-05T22:25:37.000Z</time></trkpt>
        <trkpt lat="28.271902" lon="105.019857"><ele>1042.187</ele><time>2026-05-05T22:25:44.000Z</time></trkpt>
        <trkpt lat="28.271855" lon="105.01985"><ele>1044.0504</ele><time>2026-05-05T22:25:51.000Z</time></trkpt>
        <trkpt lat="28.271814" lon="105.019824"><ele>1044.9528</ele><time>2026-05-05T22:25:56.000Z</time></trkpt>
        <trkpt lat="28.271775" lon="105.019792"><ele>1045.2986</ele><time>2026-05-05T22:26:02.000Z</time></trkpt>
        <trkpt lat="28.271732" lon="105.019777"><ele>1046.9127</ele><time>2026-05-05T22:26:08.000Z</time></trkpt>
        <trkpt lat="28.271687" lon="105.019761"><ele>1048.5516</ele><time>2026-05-05T22:26:15.000Z</time></trkpt>
        <trkpt lat="28.27164" lon="105.019758"><ele>1048.4211</ele><time>2026-05-05T22:26:21.000Z</time></trkpt>
        <trkpt lat="28.27159" lon="105.019759"><ele>1049.5433</ele><time>2026-05-05T22:26:26.000Z</time></trkpt>
        <trkpt lat="28.271539" lon="105.01976"><ele>1049.2222</ele><time>2026-05-05T22:26:32.000Z</time></trkpt>
        <trkpt lat="28.271493" lon="105.01973"><ele>1048.2852</ele><time>2026-05-05T22:26:37.000Z</time></trkpt>
        <trkpt lat="28.271455" lon="105.019696"><ele>1049.9578</ele><time>2026-05-05T22:26:43.000Z</time></trkpt>
        <trkpt lat="28.271421" lon="105.019657"><ele>1050.4519</ele><time>2026-05-05T22:26:48.000Z</time></trkpt>
        <trkpt lat="28.271386" lon="105.019612"><ele>1050.8862</ele><time>2026-05-05T22:26:54.000Z</time></trkpt>
        <trkpt lat="28.271336" lon="105.019585"><ele>1051.3861</ele><time>2026-05-05T22:27:00.000Z</time></trkpt>
        <trkpt lat="28.271285" lon="105.019564"><ele>1052.7418</ele><time>2026-05-05T22:27:06.000Z</time></trkpt>
        <trkpt lat="28.271237" lon="105.019557"><ele>1051.7161</ele><time>2026-05-05T22:27:12.000Z</time></trkpt>
        <trkpt lat="28.27119" lon="105.019556"><ele>1051.8085</ele><time>2026-05-05T22:27:18.000Z</time></trkpt>
        <trkpt lat="28.271138" lon="105.019557"><ele>1052.9882</ele><time>2026-05-05T22:27:23.000Z</time></trkpt>
        <trkpt lat="28.271085" lon="105.019554"><ele>1053.2908</ele><time>2026-05-05T22:27:29.000Z</time></trkpt>
        <trkpt lat="28.271038" lon="105.019557"><ele>1054.6599</ele><time>2026-05-05T22:27:34.000Z</time></trkpt>
        <trkpt lat="28.270992" lon="105.019583"><ele>1056.4749</ele><time>2026-05-05T22:27:40.000Z</time></trkpt>
        <trkpt lat="28.27095" lon="105.019612"><ele>1056.6508</ele><time>2026-05-05T22:27:46.000Z</time></trkpt>
        <trkpt lat="28.270916" lon="105.019649"><ele>1055.401</ele><time>2026-05-05T22:27:51.000Z</time></trkpt>
        <trkpt lat="28.270881" lon="105.019694"><ele>1054.0254</ele><time>2026-05-05T22:27:56.000Z</time></trkpt>
        <trkpt lat="28.270856" lon="105.019742"><ele>1054.8477</ele><time>2026-05-05T22:28:02.000Z</time></trkpt>
        <trkpt lat="28.270836" lon="105.01979"><ele>1055.6669</ele><time>2026-05-05T22:28:07.000Z</time></trkpt>
        <trkpt lat="28.270812" lon="105.019845"><ele>1055.7156</ele><time>2026-05-05T22:28:12.000Z</time></trkpt>
        <trkpt lat="28.270795" lon="105.019894"><ele>1057.0367</ele><time>2026-05-05T22:28:17.000Z</time></trkpt>
        <trkpt lat="28.270791" lon="105.019945"><ele>1056.5253</ele><time>2026-05-05T22:28:22.000Z</time></trkpt>
        <trkpt lat="28.270773" lon="105.020002"><ele>1057.078</ele><time>2026-05-05T22:28:27.000Z</time></trkpt>
        <trkpt lat="28.270754" lon="105.020056"><ele>1058.0708</ele><time>2026-05-05T22:28:32.000Z</time></trkpt>
        <trkpt lat="28.27074" lon="105.020107"><ele>1056.9907</ele><time>2026-05-05T22:28:37.000Z</time></trkpt>
        <trkpt lat="28.270724" lon="105.020156"><ele>1057.6725</ele><time>2026-05-05T22:28:42.000Z</time></trkpt>
        <trkpt lat="28.270709" lon="105.020213"><ele>1057.1772</ele><time>2026-05-05T22:28:47.000Z</time></trkpt>
        <trkpt lat="28.270695" lon="105.020268"><ele>1056.0818</ele><time>2026-05-05T22:28:53.000Z</time></trkpt>
        <trkpt lat="28.270685" lon="105.020327"><ele>1057.8395</ele><time>2026-05-05T22:28:59.000Z</time></trkpt>
        <trkpt lat="28.270673" lon="105.020382"><ele>1059.0475</ele><time>2026-05-05T22:29:05.000Z</time></trkpt>
        <trkpt lat="28.27067" lon="105.020444"><ele>1059.2993</ele><time>2026-05-05T22:29:11.000Z</time></trkpt>
        <trkpt lat="28.270661" lon="105.020501"><ele>1059.0286</ele><time>2026-05-05T22:29:16.000Z</time></trkpt>
        <trkpt lat="28.270662" lon="105.020553"><ele>1058.7717</ele><time>2026-05-05T22:29:20.000Z</time></trkpt>
        <trkpt lat="28.270654" lon="105.02061"><ele>1058.8386</ele><time>2026-05-05T22:29:25.000Z</time></trkpt>
        <trkpt lat="28.270651" lon="105.020662"><ele>1060.8326</ele><time>2026-05-05T22:29:31.000Z</time></trkpt>
        <trkpt lat="28.27064" lon="105.020717"><ele>1061.2406</ele><time>2026-05-05T22:29:36.000Z</time></trkpt>
        <trkpt lat="28.270615" lon="105.020772"><ele>1061.6835</ele><time>2026-05-05T22:29:43.000Z</time></trkpt>
        <trkpt lat="28.270601" lon="105.020821"><ele>1062.7051</ele><time>2026-05-05T22:29:48.000Z</time></trkpt>
        <trkpt lat="28.270578" lon="105.020868"><ele>1063.3972</ele><time>2026-05-05T22:29:53.000Z</time></trkpt>
        <trkpt lat="28.270548" lon="105.020911"><ele>1064.2546</ele><time>2026-05-05T22:29:59.000Z</time></trkpt>
        <trkpt lat="28.270515" lon="105.020952"><ele>1064.7277</ele><time>2026-05-05T22:30:05.000Z</time></trkpt>
        <trkpt lat="28.270481" lon="105.02099"><ele>1065.9119</ele><time>2026-05-05T22:30:11.000Z</time></trkpt>
        <trkpt lat="28.270452" lon="105.021031"><ele>1067.5975</ele><time>2026-05-05T22:30:17.000Z</time></trkpt>
        <trkpt lat="28.270424" lon="105.021082"><ele>1067.7217</ele><time>2026-05-05T22:30:23.000Z</time></trkpt>
        <trkpt lat="28.27039" lon="105.021127"><ele>1067.8838</ele><time>2026-05-05T22:30:29.000Z</time></trkpt>
        <trkpt lat="28.270357" lon="105.021168"><ele>1068.3417</ele><time>2026-05-05T22:30:34.000Z</time></trkpt>
        <trkpt lat="28.270316" lon="105.021213"><ele>1067.6184</ele><time>2026-05-05T22:30:40.000Z</time></trkpt>
        <trkpt lat="28.270283" lon="105.021248"><ele>1067.8451</ele><time>2026-05-05T22:30:45.000Z</time></trkpt>
        <trkpt lat="28.270247" lon="105.02128"><ele>1068.0154</ele><time>2026-05-05T22:30:50.000Z</time></trkpt>
        <trkpt lat="28.270205" lon="105.021308"><ele>1068.4768</ele><time>2026-05-05T22:30:55.000Z</time></trkpt>
        <trkpt lat="28.270165" lon="105.021343"><ele>1069.2657</ele><time>2026-05-05T22:31:01.000Z</time></trkpt>
        <trkpt lat="28.270121" lon="105.021379"><ele>1070.2096</ele><time>2026-05-05T22:31:07.000Z</time></trkpt>
        <trkpt lat="28.270094" lon="105.02142"><ele>1072.0718</ele><time>2026-05-05T22:31:12.000Z</time></trkpt>
        <trkpt lat="28.270057" lon="105.021452"><ele>1072.9988</ele><time>2026-05-05T22:31:19.000Z</time></trkpt>
        <trkpt lat="28.270023" lon="105.021486"><ele>1073.5061</ele><time>2026-05-05T22:31:25.000Z</time></trkpt>
        <trkpt lat="28.269984" lon="105.021525"><ele>1074.1906</ele><time>2026-05-05T22:31:33.000Z</time></trkpt>
        <trkpt lat="28.269954" lon="105.021567"><ele>1075.4698</ele><time>2026-05-05T22:31:40.000Z</time></trkpt>
        <trkpt lat="28.26992" lon="105.021603"><ele>1075.6976</ele><time>2026-05-05T22:31:46.000Z</time></trkpt>
        <trkpt lat="28.269879" lon="105.021624"><ele>1075.1146</ele><time>2026-05-05T22:32:02.000Z</time></trkpt>
        <trkpt lat="28.269857" lon="105.021675"><ele>1073.9789</ele><time>2026-05-05T22:32:07.000Z</time></trkpt>
        <trkpt lat="28.269842" lon="105.021726"><ele>1073.2513</ele><time>2026-05-05T22:32:11.000Z</time></trkpt>
        <trkpt lat="28.269834" lon="105.02178"><ele>1073.0474</ele><time>2026-05-05T22:32:16.000Z</time></trkpt>
        <trkpt lat="28.26982" lon="105.021835"><ele>1073.0906</ele><time>2026-05-05T22:32:21.000Z</time></trkpt>
        <trkpt lat="28.2698" lon="105.021896"><ele>1071.766</ele><time>2026-05-05T22:32:26.000Z</time></trkpt>
        <trkpt lat="28.2698" lon="105.021948"><ele>1071.9186</ele><time>2026-05-05T22:32:30.000Z</time></trkpt>
        <trkpt lat="28.269792" lon="105.022014"><ele>1071.753</ele><time>2026-05-05T22:32:35.000Z</time></trkpt>
        <trkpt lat="28.269783" lon="105.022065"><ele>1070.9655</ele><time>2026-05-05T22:32:39.000Z</time></trkpt>
        <trkpt lat="28.269763" lon="105.022119"><ele>1070.3759</ele><time>2026-05-05T22:32:43.000Z</time></trkpt>
        <trkpt lat="28.269755" lon="105.02217"><ele>1070.8783</ele><time>2026-05-05T22:32:47.000Z</time></trkpt>
        <trkpt lat="28.269752" lon="105.022227"><ele>1070.816</ele><time>2026-05-05T22:32:52.000Z</time></trkpt>
        <trkpt lat="28.269738" lon="105.022287"><ele>1071.6135</ele><time>2026-05-05T22:32:57.000Z</time></trkpt>
        <trkpt lat="28.269727" lon="105.022343"><ele>1070.2136</ele><time>2026-05-05T22:33:02.000Z</time></trkpt>
        <trkpt lat="28.26972" lon="105.022405"><ele>1071.9352</ele><time>2026-05-05T22:33:07.000Z</time></trkpt>
        <trkpt lat="28.269707" lon="105.02246"><ele>1070.694</ele><time>2026-05-05T22:33:12.000Z</time></trkpt>
        <trkpt lat="28.269699" lon="105.022511"><ele>1071.12</ele><time>2026-05-05T22:33:17.000Z</time></trkpt>
        <trkpt lat="28.269693" lon="105.022573"><ele>1070.2869</ele><time>2026-05-05T22:33:23.000Z</time></trkpt>
        <trkpt lat="28.2697" lon="105.022634"><ele>1070.7769</ele><time>2026-05-05T22:33:28.000Z</time></trkpt>
        <trkpt lat="28.269703" lon="105.022689"><ele>1070.7786</ele><time>2026-05-05T22:33:33.000Z</time></trkpt>
        <trkpt lat="28.269705" lon="105.022752"><ele>1070.1019</ele><time>2026-05-05T22:33:38.000Z</time></trkpt>
        <trkpt lat="28.269702" lon="105.022817"><ele>1069.7971</ele><time>2026-05-05T22:33:43.000Z</time></trkpt>
        <trkpt lat="28.269698" lon="105.022873"><ele>1070.0656</ele><time>2026-05-05T22:33:47.000Z</time></trkpt>
        <trkpt lat="28.269692" lon="105.022925"><ele>1068.961</ele><time>2026-05-05T22:33:51.000Z</time></trkpt>
        <trkpt lat="28.269679" lon="105.022975"><ele>1068.4423</ele><time>2026-05-05T22:33:55.000Z</time></trkpt>
        <trkpt lat="28.269651" lon="105.023016"><ele>1067.7057</ele><time>2026-05-05T22:33:59.000Z</time></trkpt>
        <trkpt lat="28.269627" lon="105.02307"><ele>1067.2274</ele><time>2026-05-05T22:34:04.000Z</time></trkpt>
        <trkpt lat="28.269594" lon="105.02311"><ele>1067.3032</ele><time>2026-05-05T22:34:08.000Z</time></trkpt>
        <trkpt lat="28.269561" lon="105.023159"><ele>1066.9348</ele><time>2026-05-05T22:34:13.000Z</time></trkpt>
        <trkpt lat="28.269527" lon="105.023207"><ele>1067.0596</ele><time>2026-05-05T22:34:17.000Z</time></trkpt>
        <trkpt lat="28.269515" lon="105.02326"><ele>1067.1583</ele><time>2026-05-05T22:34:21.000Z</time></trkpt>
        <trkpt lat="28.269533" lon="105.023315"><ele>1066.9437</ele><time>2026-05-05T22:34:26.000Z</time></trkpt>
        <trkpt lat="28.269576" lon="105.023356"><ele>1067.3722</ele><time>2026-05-05T22:34:31.000Z</time></trkpt>
        <trkpt lat="28.269609" lon="105.023393"><ele>1064.9243</ele><time>2026-05-05T22:34:36.000Z</time></trkpt>
        <trkpt lat="28.269644" lon="105.023429"><ele>1065.0969</ele><time>2026-05-05T22:34:41.000Z</time></trkpt>
        <trkpt lat="28.269672" lon="105.023471"><ele>1063.6217</ele><time>2026-05-05T22:34:46.000Z</time></trkpt>
        <trkpt lat="28.269705" lon="105.023519"><ele>1064.9032</ele><time>2026-05-05T22:34:52.000Z</time></trkpt>
        <trkpt lat="28.269732" lon="105.023563"><ele>1063.8323</ele><time>2026-05-05T22:34:56.000Z</time></trkpt>
        <trkpt lat="28.269761" lon="105.023614"><ele>1063.8151</ele><time>2026-05-05T22:35:01.000Z</time></trkpt>
        <trkpt lat="28.269781" lon="105.023667"><ele>1064.0635</ele><time>2026-05-05T22:35:06.000Z</time></trkpt>
        <trkpt lat="28.269805" lon="105.023716"><ele>1064.0057</ele><time>2026-05-05T22:35:10.000Z</time></trkpt>
        <trkpt lat="28.269823" lon="105.023768"><ele>1063.8314</ele><time>2026-05-05T22:35:14.000Z</time></trkpt>
        <trkpt lat="28.269831" lon="105.023823"><ele>1064.02</ele><time>2026-05-05T22:35:18.000Z</time></trkpt>
        <trkpt lat="28.269835" lon="105.023878"><ele>1064.1207</ele><time>2026-05-05T22:35:22.000Z</time></trkpt>
        <trkpt lat="28.269844" lon="105.023935"><ele>1062.9557</ele><time>2026-05-05T22:35:27.000Z</time></trkpt>
        <trkpt lat="28.26984" lon="105.02399"><ele>1063.6837</ele><time>2026-05-05T22:35:31.000Z</time></trkpt>
        <trkpt lat="28.269831" lon="105.024043"><ele>1064.5576</ele><time>2026-05-05T22:35:35.000Z</time></trkpt>
        <trkpt lat="28.269827" lon="105.024099"><ele>1063.6912</ele><time>2026-05-05T22:35:39.000Z</time></trkpt>
        <trkpt lat="28.269811" lon="105.024154"><ele>1064.7484</ele><time>2026-05-05T22:35:43.000Z</time></trkpt>
        <trkpt lat="28.26979" lon="105.02421"><ele>1063.7062</ele><time>2026-05-05T22:35:48.000Z</time></trkpt>
        <trkpt lat="28.269769" lon="105.02427"><ele>1063.1521</ele><time>2026-05-05T22:35:53.000Z</time></trkpt>
        <trkpt lat="28.269749" lon="105.024327"><ele>1063.1035</ele><time>2026-05-05T22:35:58.000Z</time></trkpt>
        <trkpt lat="28.269729" lon="105.024383"><ele>1063.6798</ele><time>2026-05-05T22:36:03.000Z</time></trkpt>
        <trkpt lat="28.269714" lon="105.024434"><ele>1064.8842</ele><time>2026-05-05T22:36:07.000Z</time></trkpt>
        <trkpt lat="28.269692" lon="105.024493"><ele>1064.2408</ele><time>2026-05-05T22:36:12.000Z</time></trkpt>
        <trkpt lat="28.269679" lon="105.024548"><ele>1063.5148</ele><time>2026-05-05T22:36:17.000Z</time></trkpt>
        <trkpt lat="28.269673" lon="105.024603"><ele>1063.5634</ele><time>2026-05-05T22:36:21.000Z</time></trkpt>
        <trkpt lat="28.269674" lon="105.024657"><ele>1064.4225</ele><time>2026-05-05T22:36:25.000Z</time></trkpt>
        <trkpt lat="28.269688" lon="105.024709"><ele>1063.2507</ele><time>2026-05-05T22:36:30.000Z</time></trkpt>
        <trkpt lat="28.269705" lon="105.024757"><ele>1063.2286</ele><time>2026-05-05T22:36:35.000Z</time></trkpt>
        <trkpt lat="28.269727" lon="105.024802"><ele>1060.7504</ele><time>2026-05-05T22:36:41.000Z</time></trkpt>
        <trkpt lat="28.269767" lon="105.024832"><ele>1060.2747</ele><time>2026-05-05T22:36:45.000Z</time></trkpt>
        <trkpt lat="28.269807" lon="105.024867"><ele>1058.96</ele><time>2026-05-05T22:36:49.000Z</time></trkpt>
        <trkpt lat="28.269854" lon="105.024889"><ele>1059.1847</ele><time>2026-05-05T22:36:53.000Z</time></trkpt>
        <trkpt lat="28.269895" lon="105.024917"><ele>1058.0481</ele><time>2026-05-05T22:36:57.000Z</time></trkpt>
        <trkpt lat="28.269937" lon="105.024951"><ele>1056.6975</ele><time>2026-05-05T22:37:01.000Z</time></trkpt>
        <trkpt lat="28.269983" lon="105.024984"><ele>1055.2357</ele><time>2026-05-05T22:37:05.000Z</time></trkpt>
        <trkpt lat="28.27002" lon="105.025017"><ele>1051.8286</ele><time>2026-05-05T22:37:10.000Z</time></trkpt>
        <trkpt lat="28.270067" lon="105.025035"><ele>1052.5348</ele><time>2026-05-05T22:37:14.000Z</time></trkpt>
        <trkpt lat="28.270112" lon="105.025062"><ele>1051.9199</ele><time>2026-05-05T22:37:19.000Z</time></trkpt>
        <trkpt lat="28.270155" lon="105.025083"><ele>1050.0614</ele><time>2026-05-05T22:37:23.000Z</time></trkpt>
        <trkpt lat="28.270193" lon="105.025114"><ele>1049.6914</ele><time>2026-05-05T22:37:27.000Z</time></trkpt>
        <trkpt lat="28.270237" lon="105.025137"><ele>1048.3044</ele><time>2026-05-05T22:37:32.000Z</time></trkpt>
        <trkpt lat="28.270284" lon="105.025164"><ele>1046.5825</ele><time>2026-05-05T22:37:36.000Z</time></trkpt>
        <trkpt lat="28.27033" lon="105.02519"><ele>1045.2533</ele><time>2026-05-05T22:37:40.000Z</time></trkpt>
        <trkpt lat="28.270374" lon="105.025218"><ele>1045.8558</ele><time>2026-05-05T22:37:44.000Z</time></trkpt>
        <trkpt lat="28.270427" lon="105.025237"><ele>1045.4279</ele><time>2026-05-05T22:37:49.000Z</time></trkpt>
        <trkpt lat="28.270473" lon="105.025262"><ele>1045.9253</ele><time>2026-05-05T22:37:53.000Z</time></trkpt>
        <trkpt lat="28.27052" lon="105.025284"><ele>1045.4739</ele><time>2026-05-05T22:37:57.000Z</time></trkpt>
        <trkpt lat="28.270548" lon="105.025328"><ele>1043.896</ele><time>2026-05-05T22:38:01.000Z</time></trkpt>
        <trkpt lat="28.270588" lon="105.025358"><ele>1042.3105</ele><time>2026-05-05T22:38:05.000Z</time></trkpt>
        <trkpt lat="28.270614" lon="105.025403"><ele>1042.1453</ele><time>2026-05-05T22:38:09.000Z</time></trkpt>
        <trkpt lat="28.270641" lon="105.02545"><ele>1042.4806</ele><time>2026-05-05T22:38:13.000Z</time></trkpt>
        <trkpt lat="28.270667" lon="105.025502"><ele>1042.194</ele><time>2026-05-05T22:38:18.000Z</time></trkpt>
        <trkpt lat="28.270688" lon="105.025557"><ele>1041.8116</ele><time>2026-05-05T22:38:23.000Z</time></trkpt>
        <trkpt lat="28.270692" lon="105.02561"><ele>1040.5245</ele><time>2026-05-05T22:38:30.000Z</time></trkpt>
        <trkpt lat="28.270698" lon="105.025671"><ele>1037.4417</ele><time>2026-05-05T22:38:38.000Z</time></trkpt>
        <trkpt lat="28.270709" lon="105.025725"><ele>1039.637</ele><time>2026-05-05T22:39:20.000Z</time></trkpt>
        <trkpt lat="28.27073" lon="105.025775"><ele>1038.941</ele><time>2026-05-05T22:39:29.000Z</time></trkpt>
        <trkpt lat="28.270747" lon="105.025835"><ele>1037.37</ele><time>2026-05-05T22:39:35.000Z</time></trkpt>
        <trkpt lat="28.270764" lon="105.025895"><ele>1035.7253</ele><time>2026-05-05T22:39:46.000Z</time></trkpt>
        <trkpt lat="28.270777" lon="105.025944"><ele>1034.3934</ele><time>2026-05-05T22:39:51.000Z</time></trkpt>
        <trkpt lat="28.270801" lon="105.025992"><ele>1035.0443</ele><time>2026-05-05T22:39:55.000Z</time></trkpt>
        <trkpt lat="28.270825" lon="105.026041"><ele>1032.8839</ele><time>2026-05-05T22:39:59.000Z</time></trkpt>
        <trkpt lat="28.27086" lon="105.026084"><ele>1032.8314</ele><time>2026-05-05T22:40:03.000Z</time></trkpt>
        <trkpt lat="28.270904" lon="105.026113"><ele>1030.5747</ele><time>2026-05-05T22:40:07.000Z</time></trkpt>
        <trkpt lat="28.270954" lon="105.026123"><ele>1031.4669</ele><time>2026-05-05T22:40:11.000Z</time></trkpt>
        <trkpt lat="28.271003" lon="105.026126"><ele>1031.2284</ele><time>2026-05-05T22:40:15.000Z</time></trkpt>
        <trkpt lat="28.271046" lon="105.0261"><ele>1029.7538</ele><time>2026-05-05T22:40:19.000Z</time></trkpt>
        <trkpt lat="28.271079" lon="105.026062"><ele>1029.1804</ele><time>2026-05-05T22:40:23.000Z</time></trkpt>
        <trkpt lat="28.271096" lon="105.026014"><ele>1028.6997</ele><time>2026-05-05T22:40:27.000Z</time></trkpt>
        <trkpt lat="28.271114" lon="105.025962"><ele>1029.716</ele><time>2026-05-05T22:40:31.000Z</time></trkpt>
        <trkpt lat="28.271124" lon="105.025906"><ele>1028.5822</ele><time>2026-05-05T22:40:35.000Z</time></trkpt>
        <trkpt lat="28.271137" lon="105.025853"><ele>1028.7198</ele><time>2026-05-05T22:40:39.000Z</time></trkpt>
        <trkpt lat="28.271135" lon="105.025796"><ele>1028.9746</ele><time>2026-05-05T22:40:51.000Z</time></trkpt>
        <trkpt lat="28.271153" lon="105.025745"><ele>1028.9075</ele><time>2026-05-05T22:40:58.000Z</time></trkpt>
        <trkpt lat="28.271168" lon="105.025691"><ele>1029.063</ele><time>2026-05-05T22:41:15.000Z</time></trkpt>
        <trkpt lat="28.271205" lon="105.025727"><ele>1030.4125</ele><time>2026-05-05T22:42:02.000Z</time></trkpt>
        <trkpt lat="28.271237" lon="105.025768"><ele>1033.3732</ele><time>2026-05-05T22:42:18.000Z</time></trkpt>
        <trkpt lat="28.271287" lon="105.025764"><ele>1032.6063</ele><time>2026-05-05T22:42:26.000Z</time></trkpt>
        <trkpt lat="28.271338" lon="105.02576"><ele>1033.2174</ele><time>2026-05-05T22:42:31.000Z</time></trkpt>
        <trkpt lat="28.271385" lon="105.025745"><ele>1033.3828</ele><time>2026-05-05T22:42:36.000Z</time></trkpt>
        <trkpt lat="28.271433" lon="105.025732"><ele>1033.6711</ele><time>2026-05-05T22:42:41.000Z</time></trkpt>
        <trkpt lat="28.271479" lon="105.025716"><ele>1033.9847</ele><time>2026-05-05T22:42:45.000Z</time></trkpt>
        <trkpt lat="28.271524" lon="105.025711"><ele>1033.8878</ele><time>2026-05-05T22:42:49.000Z</time></trkpt>
        <trkpt lat="28.27157" lon="105.025695"><ele>1032.584</ele><time>2026-05-05T22:42:54.000Z</time></trkpt>
        <trkpt lat="28.271616" lon="105.025693"><ele>1031.7737</ele><time>2026-05-05T22:42:58.000Z</time></trkpt>
        <trkpt lat="28.271661" lon="105.025681"><ele>1030.4845</ele><time>2026-05-05T22:43:02.000Z</time></trkpt>
        <trkpt lat="28.27171" lon="105.025661"><ele>1028.091</ele><time>2026-05-05T22:43:06.000Z</time></trkpt>
        <trkpt lat="28.271756" lon="105.025686"><ele>1027.5511</ele><time>2026-05-05T22:43:09.000Z</time></trkpt>
        <trkpt lat="28.27179" lon="105.02573"><ele>1026.6136</ele><time>2026-05-05T22:43:13.000Z</time></trkpt>
        <trkpt lat="28.271817" lon="105.025772"><ele>1026.616</ele><time>2026-05-05T22:43:17.000Z</time></trkpt>
        <trkpt lat="28.271843" lon="105.025826"><ele>1026.6854</ele><time>2026-05-05T22:43:22.000Z</time></trkpt>
        <trkpt lat="28.271861" lon="105.025873"><ele>1026.5466</ele><time>2026-05-05T22:43:26.000Z</time></trkpt>
        <trkpt lat="28.271875" lon="105.025925"><ele>1025.9042</ele><time>2026-05-05T22:43:30.000Z</time></trkpt>
        <trkpt lat="28.271889" lon="105.025985"><ele>1026.0483</ele><time>2026-05-05T22:43:35.000Z</time></trkpt>
        <trkpt lat="28.271901" lon="105.026037"><ele>1025.3934</ele><time>2026-05-05T22:43:39.000Z</time></trkpt>
        <trkpt lat="28.271905" lon="105.026097"><ele>1025.038</ele><time>2026-05-05T22:43:44.000Z</time></trkpt>
        <trkpt lat="28.271912" lon="105.026156"><ele>1024.946</ele><time>2026-05-05T22:43:49.000Z</time></trkpt>
        <trkpt lat="28.271917" lon="105.026217"><ele>1023.9536</ele><time>2026-05-05T22:43:53.000Z</time></trkpt>
        <trkpt lat="28.271914" lon="105.026281"><ele>1023.65015</ele><time>2026-05-05T22:43:57.000Z</time></trkpt>
        <trkpt lat="28.271914" lon="105.026337"><ele>1022.36926</ele><time>2026-05-05T22:44:01.000Z</time></trkpt>
        <trkpt lat="28.271908" lon="105.026394"><ele>1020.9428</ele><time>2026-05-05T22:44:05.000Z</time></trkpt>
        <trkpt lat="28.271916" lon="105.026451"><ele>1020.0004</ele><time>2026-05-05T22:44:09.000Z</time></trkpt>
        <trkpt lat="28.271944" lon="105.026501"><ele>1019.36847</ele><time>2026-05-05T22:44:13.000Z</time></trkpt>
        <trkpt lat="28.271972" lon="105.02655"><ele>1018.3118</ele><time>2026-05-05T22:44:17.000Z</time></trkpt>
        <trkpt lat="28.271999" lon="105.026603"><ele>1016.7334</ele><time>2026-05-05T22:44:21.000Z</time></trkpt>
        <trkpt lat="28.272007" lon="105.026663"><ele>1017.1931</ele><time>2026-05-05T22:44:25.000Z</time></trkpt>
        <trkpt lat="28.272027" lon="105.026715"><ele>1016.9296</ele><time>2026-05-05T22:45:22.000Z</time></trkpt>
        <trkpt lat="28.272022" lon="105.02677"><ele>1016.22534</ele><time>2026-05-05T22:45:27.000Z</time></trkpt>
        <trkpt lat="28.272013" lon="105.026824"><ele>1015.6371</ele><time>2026-05-05T22:45:32.000Z</time></trkpt>
        <trkpt lat="28.272007" lon="105.02688"><ele>1014.65796</ele><time>2026-05-05T22:45:35.000Z</time></trkpt>
        <trkpt lat="28.271991" lon="105.02694"><ele>1014.2297</ele><time>2026-05-05T22:45:40.000Z</time></trkpt>
        <trkpt lat="28.271985" lon="105.026992"><ele>1014.28046</ele><time>2026-05-05T22:45:44.000Z</time></trkpt>
        <trkpt lat="28.271976" lon="105.027048"><ele>1014.58716</ele><time>2026-05-05T22:45:49.000Z</time></trkpt>
        <trkpt lat="28.271969" lon="105.027107"><ele>1015.0757</ele><time>2026-05-05T22:45:54.000Z</time></trkpt>
        <trkpt lat="28.271957" lon="105.027166"><ele>1014.3135</ele><time>2026-05-05T22:45:59.000Z</time></trkpt>
        <trkpt lat="28.271942" lon="105.027224"><ele>1014.56647</ele><time>2026-05-05T22:46:03.000Z</time></trkpt>
        <trkpt lat="28.271948" lon="105.027276"><ele>1012.3877</ele><time>2026-05-05T22:46:07.000Z</time></trkpt>
        <trkpt lat="28.271938" lon="105.027333"><ele>1012.18225</ele><time>2026-05-05T22:46:12.000Z</time></trkpt>
        <trkpt lat="28.271928" lon="105.02739"><ele>1012.1406</ele><time>2026-05-05T22:46:17.000Z</time></trkpt>
        <trkpt lat="28.271899" lon="105.027435"><ele>1012.98315</ele><time>2026-05-05T22:46:21.000Z</time></trkpt>
        <trkpt lat="28.27185" lon="105.02746"><ele>1012.34937</ele><time>2026-05-05T22:46:25.000Z</time></trkpt>
        <trkpt lat="28.271791" lon="105.027467"><ele>1011.472</ele><time>2026-05-05T22:46:29.000Z</time></trkpt>
        <trkpt lat="28.271743" lon="105.027445"><ele>1009.4363</ele><time>2026-05-05T22:46:33.000Z</time></trkpt>
        <trkpt lat="28.271697" lon="105.027421"><ele>1008.0359</ele><time>2026-05-05T22:46:37.000Z</time></trkpt>
        <trkpt lat="28.27164" lon="105.027425"><ele>1007.059</ele><time>2026-05-05T22:46:41.000Z</time></trkpt>
        <trkpt lat="28.271587" lon="105.027434"><ele>1006.8487</ele><time>2026-05-05T22:46:45.000Z</time></trkpt>
        <trkpt lat="28.271543" lon="105.027461"><ele>1007.367</ele><time>2026-05-05T22:46:49.000Z</time></trkpt>
        <trkpt lat="28.271516" lon="105.027514"><ele>1008.92017</ele><time>2026-05-05T22:46:54.000Z</time></trkpt>
        <trkpt lat="28.271487" lon="105.027564"><ele>1011.0476</ele><time>2026-05-05T22:46:59.000Z</time></trkpt>
        <trkpt lat="28.271474" lon="105.027621"><ele>1011.6754</ele><time>2026-05-05T22:47:04.000Z</time></trkpt>
        <trkpt lat="28.271448" lon="105.02767"><ele>1009.8919</ele><time>2026-05-05T22:47:09.000Z</time></trkpt>
        <trkpt lat="28.271401" lon="105.027708"><ele>1009.62067</ele><time>2026-05-05T22:47:14.000Z</time></trkpt>
        <trkpt lat="28.271368" lon="105.027749"><ele>1009.21405</ele><time>2026-05-05T22:47:19.000Z</time></trkpt>
        <trkpt lat="28.271338" lon="105.027798"><ele>1009.4141</ele><time>2026-05-05T22:47:24.000Z</time></trkpt>
        <trkpt lat="28.271301" lon="105.027839"><ele>1008.8072</ele><time>2026-05-05T22:47:28.000Z</time></trkpt>
        <trkpt lat="28.271277" lon="105.027885"><ele>1008.6048</ele><time>2026-05-05T22:47:32.000Z</time></trkpt>
        <trkpt lat="28.271241" lon="105.027923"><ele>1007.8575</ele><time>2026-05-05T22:47:36.000Z</time></trkpt>
        <trkpt lat="28.271198" lon="105.02796"><ele>1007.01135</ele><time>2026-05-05T22:47:40.000Z</time></trkpt>
        <trkpt lat="28.271189" lon="105.028012"><ele>1006.905</ele><time>2026-05-05T22:47:45.000Z</time></trkpt>
        <trkpt lat="28.271187" lon="105.028078"><ele>1007.89044</ele><time>2026-05-05T22:47:50.000Z</time></trkpt>
        <trkpt lat="28.271173" lon="105.028136"><ele>1007.2181</ele><time>2026-05-05T22:47:54.000Z</time></trkpt>
        <trkpt lat="28.271159" lon="105.02819"><ele>1012.1396</ele><time>2026-05-05T22:48:01.000Z</time></trkpt>
        <trkpt lat="28.271151" lon="105.028244"><ele>1013.40436</ele><time>2026-05-05T22:48:07.000Z</time></trkpt>
        <trkpt lat="28.271152" lon="105.028305"><ele>1015.16327</ele><time>2026-05-05T22:48:13.000Z</time></trkpt>
        <trkpt lat="28.271133" lon="105.028361"><ele>1013.1362</ele><time>2026-05-05T22:48:24.000Z</time></trkpt>
        <trkpt lat="28.271138" lon="105.028415"><ele>1016.3179</ele><time>2026-05-05T22:48:32.000Z</time></trkpt>
        <trkpt lat="28.27114" lon="105.028476"><ele>1016.7621</ele><time>2026-05-05T22:48:39.000Z</time></trkpt>
        <trkpt lat="28.271148" lon="105.028529"><ele>1015.9096</ele><time>2026-05-05T22:48:45.000Z</time></trkpt>
        <trkpt lat="28.271156" lon="105.028589"><ele>1016.75397</ele><time>2026-05-05T22:48:50.000Z</time></trkpt>
        <trkpt lat="28.271151" lon="105.028643"><ele>1015.5031</ele><time>2026-05-05T22:48:54.000Z</time></trkpt>
        <trkpt lat="28.271144" lon="105.028696"><ele>1015.17053</ele><time>2026-05-05T22:49:00.000Z</time></trkpt>
        <trkpt lat="28.271136" lon="105.028746"><ele>1016.4117</ele><time>2026-05-05T22:49:06.000Z</time></trkpt>
        <trkpt lat="28.271134" lon="105.028806"><ele>1016.17456</ele><time>2026-05-05T22:49:11.000Z</time></trkpt>
        <trkpt lat="28.271117" lon="105.028867"><ele>1014.7624</ele><time>2026-05-05T22:49:16.000Z</time></trkpt>
        <trkpt lat="28.271114" lon="105.028925"><ele>1016.37823</ele><time>2026-05-05T22:49:22.000Z</time></trkpt>
        <trkpt lat="28.271117" lon="105.028983"><ele>1015.90625</ele><time>2026-05-05T22:49:27.000Z</time></trkpt>
        <trkpt lat="28.271128" lon="105.029034"><ele>1017.08295</ele><time>2026-05-05T22:49:32.000Z</time></trkpt>
        <trkpt lat="28.271149" lon="105.029087"><ele>1018.657</ele><time>2026-05-05T22:49:38.000Z</time></trkpt>
        <trkpt lat="28.271158" lon="105.029143"><ele>1019.3155</ele><time>2026-05-05T22:49:45.000Z</time></trkpt>
        <trkpt lat="28.27116" lon="105.029199"><ele>1018.1824</ele><time>2026-05-05T22:49:51.000Z</time></trkpt>
        <trkpt lat="28.271166" lon="105.02925"><ele>1018.5094</ele><time>2026-05-05T22:49:57.000Z</time></trkpt>
        <trkpt lat="28.271184" lon="105.0293"><ele>1018.4289</ele><time>2026-05-05T22:50:02.000Z</time></trkpt>
        <trkpt lat="28.271196" lon="105.029352"><ele>1016.999</ele><time>2026-05-05T22:50:07.000Z</time></trkpt>
        <trkpt lat="28.271222" lon="105.029403"><ele>1016.7859</ele><time>2026-05-05T22:50:12.000Z</time></trkpt>
        <trkpt lat="28.271238" lon="105.029461"><ele>1016.22955</ele><time>2026-05-05T22:50:17.000Z</time></trkpt>
        <trkpt lat="28.271245" lon="105.029514"><ele>1016.63306</ele><time>2026-05-05T22:50:22.000Z</time></trkpt>
        <trkpt lat="28.271239" lon="105.029565"><ele>1015.9572</ele><time>2026-05-05T22:50:26.000Z</time></trkpt>
        <trkpt lat="28.271214" lon="105.029617"><ele>1014.8289</ele><time>2026-05-05T22:50:31.000Z</time></trkpt>
        <trkpt lat="28.271196" lon="105.029666"><ele>1015.3231</ele><time>2026-05-05T22:50:35.000Z</time></trkpt>
        <trkpt lat="28.271194" lon="105.029724"><ele>1015.66785</ele><time>2026-05-05T22:50:40.000Z</time></trkpt>
        <trkpt lat="28.271193" lon="105.029785"><ele>1015.35425</ele><time>2026-05-05T22:50:45.000Z</time></trkpt>
        <trkpt lat="28.271202" lon="105.029851"><ele>1015.4061</ele><time>2026-05-05T22:50:50.000Z</time></trkpt>
        <trkpt lat="28.271206" lon="105.02991"><ele>1014.8451</ele><time>2026-05-05T22:50:55.000Z</time></trkpt>
        <trkpt lat="28.271211" lon="105.029972"><ele>1014.4928</ele><time>2026-05-05T22:51:00.000Z</time></trkpt>
        <trkpt lat="28.27122" lon="105.030029"><ele>1014.80206</ele><time>2026-05-05T22:51:05.000Z</time></trkpt>
        <trkpt lat="28.271216" lon="105.030082"><ele>1014.45667</ele><time>2026-05-05T22:51:11.000Z</time></trkpt>
        <trkpt lat="28.271222" lon="105.030135"><ele>1014.6811</ele><time>2026-05-05T22:51:16.000Z</time></trkpt>
        <trkpt lat="28.27123" lon="105.030198"><ele>1013.9826</ele><time>2026-05-05T22:51:21.000Z</time></trkpt>
        <trkpt lat="28.27124" lon="105.030253"><ele>1014.60266</ele><time>2026-05-05T22:51:28.000Z</time></trkpt>
        <trkpt lat="28.271241" lon="105.030306"><ele>1015.30426</ele><time>2026-05-05T22:51:34.000Z</time></trkpt>
        <trkpt lat="28.271229" lon="105.030362"><ele>1014.0343</ele><time>2026-05-05T22:51:39.000Z</time></trkpt>
        <trkpt lat="28.271203" lon="105.030415"><ele>1013.4048</ele><time>2026-05-05T22:51:45.000Z</time></trkpt>
        <trkpt lat="28.271168" lon="105.030464"><ele>1012.7155</ele><time>2026-05-05T22:51:51.000Z</time></trkpt>
        <trkpt lat="28.271129" lon="105.030492"><ele>1011.8708</ele><time>2026-05-05T22:51:57.000Z</time></trkpt>
        <trkpt lat="28.271102" lon="105.030534"><ele>1012.63477</ele><time>2026-05-05T22:52:03.000Z</time></trkpt>
        <trkpt lat="28.271063" lon="105.030579"><ele>1012.49524</ele><time>2026-05-05T22:52:09.000Z</time></trkpt>
        <trkpt lat="28.271025" lon="105.030609"><ele>1011.82416</ele><time>2026-05-05T22:52:14.000Z</time></trkpt>
        <trkpt lat="28.270988" lon="105.030642"><ele>1011.03326</ele><time>2026-05-05T22:52:18.000Z</time></trkpt>
        <trkpt lat="28.270951" lon="105.030682"><ele>1013.16144</ele><time>2026-05-05T22:52:24.000Z</time></trkpt>
        <trkpt lat="28.27091" lon="105.030712"><ele>1014.0689</ele><time>2026-05-05T22:52:30.000Z</time></trkpt>
        <trkpt lat="28.270868" lon="105.030737"><ele>1014.98486</ele><time>2026-05-05T22:52:38.000Z</time></trkpt>
        <trkpt lat="28.270807" lon="105.030685"><ele>1020.4423</ele><time>2026-05-05T22:53:30.000Z</time></trkpt>
        <trkpt lat="28.270826" lon="105.030736"><ele>1018.0439</ele><time>2026-05-05T22:53:49.000Z</time></trkpt>
        <trkpt lat="28.270797" lon="105.030777"><ele>1014.9272</ele><time>2026-05-05T22:54:24.000Z</time></trkpt>
        <trkpt lat="28.270842" lon="105.030786"><ele>1018.21906</ele><time>2026-05-05T22:55:10.000Z</time></trkpt>
        <trkpt lat="28.270873" lon="105.030826"><ele>1019.6504</ele><time>2026-05-05T22:55:19.000Z</time></trkpt>
        <trkpt lat="28.270912" lon="105.030864"><ele>1021.8032</ele><time>2026-05-05T22:55:26.000Z</time></trkpt>
        <trkpt lat="28.270937" lon="105.030913"><ele>1020.468</ele><time>2026-05-05T22:55:30.000Z</time></trkpt>
        <trkpt lat="28.270947" lon="105.030965"><ele>1019.16815</ele><time>2026-05-05T22:55:34.000Z</time></trkpt>
        <trkpt lat="28.270947" lon="105.031026"><ele>1017.6773</ele><time>2026-05-05T22:55:38.000Z</time></trkpt>
        <trkpt lat="28.270928" lon="105.031084"><ele>1015.984</ele><time>2026-05-05T22:55:43.000Z</time></trkpt>
        <trkpt lat="28.27091" lon="105.031138"><ele>1015.5074</ele><time>2026-05-05T22:55:48.000Z</time></trkpt>
        <trkpt lat="28.270892" lon="105.031192"><ele>1015.79266</ele><time>2026-05-05T22:55:53.000Z</time></trkpt>
        <trkpt lat="28.270876" lon="105.03124"><ele>1015.3895</ele><time>2026-05-05T22:55:58.000Z</time></trkpt>
        <trkpt lat="28.27086" lon="105.031294"><ele>1016.1821</ele><time>2026-05-05T22:56:03.000Z</time></trkpt>
        <trkpt lat="28.27084" lon="105.031344"><ele>1016.07477</ele><time>2026-05-05T22:56:08.000Z</time></trkpt>
        <trkpt lat="28.270821" lon="105.031391"><ele>1017.1462</ele><time>2026-05-05T22:56:13.000Z</time></trkpt>
        <trkpt lat="28.270796" lon="105.031444"><ele>1016.871</ele><time>2026-05-05T22:56:18.000Z</time></trkpt>
        <trkpt lat="28.270767" lon="105.031488"><ele>1016.51447</ele><time>2026-05-05T22:56:23.000Z</time></trkpt>
        <trkpt lat="28.270731" lon="105.031527"><ele>1016.77454</ele><time>2026-05-05T22:56:28.000Z</time></trkpt>
        <trkpt lat="28.270698" lon="105.031571"><ele>1015.43396</ele><time>2026-05-05T22:56:32.000Z</time></trkpt>
        <trkpt lat="28.270679" lon="105.031627"><ele>1015.9777</ele><time>2026-05-05T22:56:37.000Z</time></trkpt>
        <trkpt lat="28.270676" lon="105.031685"><ele>1014.68994</ele><time>2026-05-05T22:56:43.000Z</time></trkpt>
        <trkpt lat="28.270698" lon="105.031739"><ele>1016.34436</ele><time>2026-05-05T22:56:49.000Z</time></trkpt>
        <trkpt lat="28.270716" lon="105.031789"><ele>1018.0518</ele><time>2026-05-05T22:56:54.000Z</time></trkpt>
        <trkpt lat="28.270739" lon="105.031836"><ele>1016.728</ele><time>2026-05-05T22:56:58.000Z</time></trkpt>
        <trkpt lat="28.270756" lon="105.031891"><ele>1016.3767</ele><time>2026-05-05T22:57:07.000Z</time></trkpt>
        <trkpt lat="28.270783" lon="105.031936"><ele>1016.5027</ele><time>2026-05-05T22:57:14.000Z</time></trkpt>
        <trkpt lat="28.270791" lon="105.031989"><ele>1016.29553</ele><time>2026-05-05T22:57:22.000Z</time></trkpt>
        <trkpt lat="28.270775" lon="105.032041"><ele>1017.5494</ele><time>2026-05-05T22:57:28.000Z</time></trkpt>
        <trkpt lat="28.270781" lon="105.032097"><ele>1018.9432</ele><time>2026-05-05T22:57:51.000Z</time></trkpt>
        <trkpt lat="28.270804" lon="105.032151"><ele>1016.35364</ele><time>2026-05-05T22:58:22.000Z</time></trkpt>
        <trkpt lat="28.270817" lon="105.032203"><ele>1016.5458</ele><time>2026-05-05T22:58:29.000Z</time></trkpt>
        <trkpt lat="28.270851" lon="105.03225"><ele>1016.5482</ele><time>2026-05-05T22:58:33.000Z</time></trkpt>
        <trkpt lat="28.27088" lon="105.032294"><ele>1016.7044</ele><time>2026-05-05T22:58:37.000Z</time></trkpt>
        <trkpt lat="28.270913" lon="105.032332"><ele>1015.3769</ele><time>2026-05-05T22:58:42.000Z</time></trkpt>
        <trkpt lat="28.27095" lon="105.032371"><ele>1013.9913</ele><time>2026-05-05T22:58:48.000Z</time></trkpt>
        <trkpt lat="28.270985" lon="105.032406"><ele>1013.46216</ele><time>2026-05-05T22:58:53.000Z</time></trkpt>
        <trkpt lat="28.271026" lon="105.032431"><ele>1013.0908</ele><time>2026-05-05T22:58:58.000Z</time></trkpt>
        <trkpt lat="28.271073" lon="105.032448"><ele>1011.6892</ele><time>2026-05-05T22:59:03.000Z</time></trkpt>
        <trkpt lat="28.271125" lon="105.032464"><ele>1010.55524</ele><time>2026-05-05T22:59:08.000Z</time></trkpt>
        <trkpt lat="28.271178" lon="105.032478"><ele>1010.40155</ele><time>2026-05-05T22:59:12.000Z</time></trkpt>
        <trkpt lat="28.271226" lon="105.03248"><ele>1009.5329</ele><time>2026-05-05T22:59:17.000Z</time></trkpt>
        <trkpt lat="28.271271" lon="105.032495"><ele>1009.96436</ele><time>2026-05-05T22:59:22.000Z</time></trkpt>
        <trkpt lat="28.271315" lon="105.032513"><ele>1008.14276</ele><time>2026-05-05T22:59:27.000Z</time></trkpt>
        <trkpt lat="28.271363" lon="105.032521"><ele>1006.9955</ele><time>2026-05-05T22:59:33.000Z</time></trkpt>
        <trkpt lat="28.271406" lon="105.032536"><ele>1006.15674</ele><time>2026-05-05T22:59:38.000Z</time></trkpt>
        <trkpt lat="28.271451" lon="105.032557"><ele>1004.99536</ele><time>2026-05-05T22:59:43.000Z</time></trkpt>
        <trkpt lat="28.271497" lon="105.032563"><ele>1004.1842</ele><time>2026-05-05T22:59:50.000Z</time></trkpt>
        <trkpt lat="28.271551" lon="105.032581"><ele>1003.15106</ele><time>2026-05-05T22:59:56.000Z</time></trkpt>
        <trkpt lat="28.271603" lon="105.032591"><ele>1002.1671</ele><time>2026-05-05T23:00:04.000Z</time></trkpt>
        <trkpt lat="28.271648" lon="105.032608"><ele>1001.5851</ele><time>2026-05-05T23:00:13.000Z</time></trkpt>
        <trkpt lat="28.271686" lon="105.032638"><ele>1000.2254</ele><time>2026-05-05T23:00:21.000Z</time></trkpt>
        <trkpt lat="28.271716" lon="105.032678"><ele>997.82275</ele><time>2026-05-05T23:00:31.000Z</time></trkpt>
        <trkpt lat="28.271752" lon="105.032714"><ele>995.9534</ele><time>2026-05-05T23:00:38.000Z</time></trkpt>
        <trkpt lat="28.271794" lon="105.032751"><ele>993.2579</ele><time>2026-05-05T23:00:45.000Z</time></trkpt>
        <trkpt lat="28.271816" lon="105.032799"><ele>991.7387</ele><time>2026-05-05T23:00:55.000Z</time></trkpt>
        <trkpt lat="28.27186" lon="105.032814"><ele>986.9557</ele><time>2026-05-05T23:01:08.000Z</time></trkpt>
        <trkpt lat="28.271871" lon="105.032869"><ele>986.06744</ele><time>2026-05-05T23:01:20.000Z</time></trkpt>
        <trkpt lat="28.271921" lon="105.032868"><ele>985.1133</ele><time>2026-05-05T23:01:39.000Z</time></trkpt>
        <trkpt lat="28.271953" lon="105.03283"><ele>987.4001</ele><time>2026-05-05T23:01:59.000Z</time></trkpt>
        <trkpt lat="28.271972" lon="105.032878"><ele>983.9466</ele><time>2026-05-05T23:02:15.000Z</time></trkpt>
        <trkpt lat="28.272012" lon="105.032906"><ele>982.6425</ele><time>2026-05-05T23:02:27.000Z</time></trkpt>
        <trkpt lat="28.272058" lon="105.032904"><ele>979.6137</ele><time>2026-05-05T23:02:48.000Z</time></trkpt>
        <trkpt lat="28.272094" lon="105.032868"><ele>978.90247</ele><time>2026-05-05T23:03:09.000Z</time></trkpt>
        <trkpt lat="28.27214" lon="105.032873"><ele>977.61456</ele><time>2026-05-05T23:03:22.000Z</time></trkpt>
        <trkpt lat="28.272187" lon="105.032861"><ele>979.7985</ele><time>2026-05-05T23:03:39.000Z</time></trkpt>
        <trkpt lat="28.272221" lon="105.032818"><ele>973.15283</ele><time>2026-05-05T23:04:07.000Z</time></trkpt>
        <trkpt lat="28.272249" lon="105.032776"><ele>971.53</ele><time>2026-05-05T23:04:28.000Z</time></trkpt>
        <trkpt lat="28.272261" lon="105.032721"><ele>968.89685</ele><time>2026-05-05T23:04:42.000Z</time></trkpt>
        <trkpt lat="28.272246" lon="105.032668"><ele>964.8669</ele><time>2026-05-05T23:04:57.000Z</time></trkpt>
        <trkpt lat="28.272252" lon="105.032614"><ele>962.96857</ele><time>2026-05-05T23:05:08.000Z</time></trkpt>
        <trkpt lat="28.272234" lon="105.032565"><ele>963.2212</ele><time>2026-05-05T23:05:19.000Z</time></trkpt>
        <trkpt lat="28.272254" lon="105.032513"><ele>971.0535</ele><time>2026-05-05T23:05:53.000Z</time></trkpt>
        <trkpt lat="28.272294" lon="105.032469"><ele>967.29266</ele><time>2026-05-05T23:06:04.000Z</time></trkpt>
        <trkpt lat="28.27234" lon="105.032498"><ele>957.1774</ele><time>2026-05-05T23:06:28.000Z</time></trkpt>
        <trkpt lat="28.272332" lon="105.03255"><ele>953.1937</ele><time>2026-05-05T23:06:40.000Z</time></trkpt>
        <trkpt lat="28.27238" lon="105.032542"><ele>952.12445</ele><time>2026-05-05T23:07:02.000Z</time></trkpt>
        <trkpt lat="28.272427" lon="105.032544"><ele>952.06195</ele><time>2026-05-05T23:07:24.000Z</time></trkpt>
        <trkpt lat="28.272476" lon="105.03255"><ele>950.47736</ele><time>2026-05-05T23:07:37.000Z</time></trkpt>
        <trkpt lat="28.272497" lon="105.032598"><ele>947.9392</ele><time>2026-05-05T23:07:52.000Z</time></trkpt>
        <trkpt lat="28.272541" lon="105.032569"><ele>950.3195</ele><time>2026-05-05T23:08:25.000Z</time></trkpt>
        <trkpt lat="28.272579" lon="105.032532"><ele>951.18756</ele><time>2026-05-05T23:08:30.000Z</time></trkpt>
        <trkpt lat="28.272625" lon="105.032521"><ele>948.8831</ele><time>2026-05-05T23:08:40.000Z</time></trkpt>
        <trkpt lat="28.272651" lon="105.032566"><ele>945.1516</ele><time>2026-05-05T23:08:52.000Z</time></trkpt>
        <trkpt lat="28.272696" lon="105.032582"><ele>940.2176</ele><time>2026-05-05T23:09:01.000Z</time></trkpt>
        <trkpt lat="28.272741" lon="105.032603"><ele>934.1918</ele><time>2026-05-05T23:09:13.000Z</time></trkpt>
        <trkpt lat="28.27279" lon="105.032604"><ele>927.3215</ele><time>2026-05-05T23:09:23.000Z</time></trkpt>
        <trkpt lat="28.272831" lon="105.032627"><ele>926.00635</ele><time>2026-05-05T23:09:30.000Z</time></trkpt>
        <trkpt lat="28.272861" lon="105.032671"><ele>925.18744</ele><time>2026-05-05T23:09:39.000Z</time></trkpt>
        <trkpt lat="28.272901" lon="105.032707"><ele>925.4506</ele><time>2026-05-05T23:09:50.000Z</time></trkpt>
        <trkpt lat="28.272899" lon="105.032762"><ele>921.43896</ele><time>2026-05-05T23:10:03.000Z</time></trkpt>
        <trkpt lat="28.272933" lon="105.032716"><ele>916.6179</ele><time>2026-05-05T23:10:34.000Z</time></trkpt>
        <trkpt lat="28.272978" lon="105.032723"><ele>916.0553</ele><time>2026-05-05T23:10:52.000Z</time></trkpt>
        <trkpt lat="28.27303" lon="105.03272"><ele>917.5022</ele><time>2026-05-05T23:11:01.000Z</time></trkpt>
        <trkpt lat="28.273062" lon="105.032757"><ele>916.3153</ele><time>2026-05-05T23:11:08.000Z</time></trkpt>
        <trkpt lat="28.273109" lon="105.032788"><ele>914.2477</ele><time>2026-05-05T23:11:15.000Z</time></trkpt>
        <trkpt lat="28.27313" lon="105.032839"><ele>913.4837</ele><time>2026-05-05T23:11:22.000Z</time></trkpt>
        <trkpt lat="28.273146" lon="105.032889"><ele>911.70874</ele><time>2026-05-05T23:11:35.000Z</time></trkpt>
        <trkpt lat="28.27319" lon="105.032915"><ele>908.97614</ele><time>2026-05-05T23:11:47.000Z</time></trkpt>
        <trkpt lat="28.27324" lon="105.032922"><ele>908.84344</ele><time>2026-05-05T23:11:54.000Z</time></trkpt>
        <trkpt lat="28.273281" lon="105.032952"><ele>903.2836</ele><time>2026-05-05T23:12:05.000Z</time></trkpt>
        <trkpt lat="28.273323" lon="105.032977"><ele>901.75024</ele><time>2026-05-05T23:12:16.000Z</time></trkpt>
        <trkpt lat="28.273338" lon="105.03303"><ele>897.2823</ele><time>2026-05-05T23:12:28.000Z</time></trkpt>
        <trkpt lat="28.273368" lon="105.033068"><ele>891.2334</ele><time>2026-05-05T23:12:40.000Z</time></trkpt>
        <trkpt lat="28.273414" lon="105.033095"><ele>889.9724</ele><time>2026-05-05T23:12:50.000Z</time></trkpt>
        <trkpt lat="28.273465" lon="105.033126"><ele>887.53925</ele><time>2026-05-05T23:13:02.000Z</time></trkpt>
        <trkpt lat="28.273509" lon="105.03314"><ele>885.67346</ele><time>2026-05-05T23:13:14.000Z</time></trkpt>
        <trkpt lat="28.273559" lon="105.033152"><ele>886.8631</ele><time>2026-05-05T23:13:25.000Z</time></trkpt>
        <trkpt lat="28.273598" lon="105.033123"><ele>887.51025</ele><time>2026-05-05T23:13:40.000Z</time></trkpt>
        <trkpt lat="28.273629" lon="105.033161"><ele>887.7619</ele><time>2026-05-05T23:13:52.000Z</time></trkpt>
        <trkpt lat="28.273675" lon="105.033159"><ele>890.5534</ele><time>2026-05-05T23:14:04.000Z</time></trkpt>
        <trkpt lat="28.273698" lon="105.03311"><ele>887.79755</ele><time>2026-05-05T23:14:13.000Z</time></trkpt>
        <trkpt lat="28.273709" lon="105.033053"><ele>886.66205</ele><time>2026-05-05T23:14:19.000Z</time></trkpt>
        <trkpt lat="28.273725" lon="105.032995"><ele>884.6722</ele><time>2026-05-05T23:14:27.000Z</time></trkpt>
        <trkpt lat="28.273744" lon="105.032945"><ele>884.37067</ele><time>2026-05-05T23:14:36.000Z</time></trkpt>
        <trkpt lat="28.273754" lon="105.032886"><ele>883.8504</ele><time>2026-05-05T23:14:44.000Z</time></trkpt>
        <trkpt lat="28.273739" lon="105.032827"><ele>880.7717</ele><time>2026-05-05T23:14:52.000Z</time></trkpt>
        <trkpt lat="28.273726" lon="105.032775"><ele>875.89355</ele><time>2026-05-05T23:14:59.000Z</time></trkpt>
        <trkpt lat="28.273711" lon="105.032725"><ele>873.43365</ele><time>2026-05-05T23:15:08.000Z</time></trkpt>
        <trkpt lat="28.27371" lon="105.032674"><ele>873.7155</ele><time>2026-05-05T23:15:17.000Z</time></trkpt>
        <trkpt lat="28.273709" lon="105.032616"><ele>872.1364</ele><time>2026-05-05T23:15:24.000Z</time></trkpt>
        <trkpt lat="28.273697" lon="105.032559"><ele>868.1512</ele><time>2026-05-05T23:15:31.000Z</time></trkpt>
        <trkpt lat="28.273678" lon="105.03251"><ele>866.44635</ele><time>2026-05-05T23:15:41.000Z</time></trkpt>
        <trkpt lat="28.273663" lon="105.032459"><ele>862.67535</ele><time>2026-05-05T23:15:49.000Z</time></trkpt>
        <trkpt lat="28.273674" lon="105.032407"><ele>862.0771</ele><time>2026-05-05T23:16:03.000Z</time></trkpt>
        <trkpt lat="28.273657" lon="105.032345"><ele>861.7524</ele><time>2026-05-05T23:16:13.000Z</time></trkpt>
        <trkpt lat="28.273658" lon="105.032283"><ele>861.35516</ele><time>2026-05-05T23:16:24.000Z</time></trkpt>
        <trkpt lat="28.2737" lon="105.032258"><ele>855.2094</ele><time>2026-05-05T23:16:38.000Z</time></trkpt>
        <trkpt lat="28.273745" lon="105.032242"><ele>853.04755</ele><time>2026-05-05T23:16:59.000Z</time></trkpt>
        <trkpt lat="28.273793" lon="105.032225"><ele>850.3814</ele><time>2026-05-05T23:17:09.000Z</time></trkpt>
        <trkpt lat="28.273841" lon="105.03225"><ele>845.7243</ele><time>2026-05-05T23:17:22.000Z</time></trkpt>
        <trkpt lat="28.273862" lon="105.032298"><ele>841.0352</ele><time>2026-05-05T23:17:32.000Z</time></trkpt>
        <trkpt lat="28.273869" lon="105.032353"><ele>840.17566</ele><time>2026-05-05T23:17:42.000Z</time></trkpt>
        <trkpt lat="28.273922" lon="105.032335"><ele>839.9707</ele><time>2026-05-05T23:17:49.000Z</time></trkpt>
        <trkpt lat="28.273969" lon="105.032347"><ele>837.926</ele><time>2026-05-05T23:18:03.000Z</time></trkpt>
        <trkpt lat="28.274008" lon="105.032374"><ele>839.2755</ele><time>2026-05-05T23:18:22.000Z</time></trkpt>
        <trkpt lat="28.273967" lon="105.032397"><ele>837.3972</ele><time>2026-05-05T23:18:55.000Z</time></trkpt>
        <trkpt lat="28.274014" lon="105.032395"><ele>836.72144</ele><time>2026-05-05T23:19:18.000Z</time></trkpt>
        <trkpt lat="28.274043" lon="105.032439"><ele>836.00085</ele><time>2026-05-05T23:19:26.000Z</time></trkpt>
        <trkpt lat="28.274079" lon="105.032482"><ele>835.74164</ele><time>2026-05-05T23:19:34.000Z</time></trkpt>
        <trkpt lat="28.274097" lon="105.032531"><ele>835.8374</ele><time>2026-05-05T23:19:40.000Z</time></trkpt>
        <trkpt lat="28.274115" lon="105.03258"><ele>834.82074</ele><time>2026-05-05T23:19:45.000Z</time></trkpt>
        <trkpt lat="28.274127" lon="105.032641"><ele>834.13904</ele><time>2026-05-05T23:19:52.000Z</time></trkpt>
        <trkpt lat="28.274134" lon="105.032696"><ele>835.1064</ele><time>2026-05-05T23:19:57.000Z</time></trkpt>
        <trkpt lat="28.274144" lon="105.03275"><ele>832.81274</ele><time>2026-05-05T23:20:02.000Z</time></trkpt>
        <trkpt lat="28.274155" lon="105.032803"><ele>833.15894</ele><time>2026-05-05T23:20:07.000Z</time></trkpt>
        <trkpt lat="28.274157" lon="105.032862"><ele>830.66766</ele><time>2026-05-05T23:20:11.000Z</time></trkpt>
        <trkpt lat="28.274153" lon="105.032923"><ele>828.13776</ele><time>2026-05-05T23:20:19.000Z</time></trkpt>
        <trkpt lat="28.274163" lon="105.032973"><ele>828.49835</ele><time>2026-05-05T23:20:24.000Z</time></trkpt>
        <trkpt lat="28.274177" lon="105.033022"><ele>830.28156</ele><time>2026-05-05T23:20:30.000Z</time></trkpt>
        <trkpt lat="28.274176" lon="105.033078"><ele>828.9438</ele><time>2026-05-05T23:20:35.000Z</time></trkpt>
        <trkpt lat="28.274186" lon="105.033134"><ele>829.5272</ele><time>2026-05-05T23:20:41.000Z</time></trkpt>
        <trkpt lat="28.274187" lon="105.033189"><ele>829.2429</ele><time>2026-05-05T23:20:46.000Z</time></trkpt>
        <trkpt lat="28.274187" lon="105.033255"><ele>827.8699</ele><time>2026-05-05T23:20:51.000Z</time></trkpt>
        <trkpt lat="28.274186" lon="105.03331"><ele>826.5801</ele><time>2026-05-05T23:20:56.000Z</time></trkpt>
        <trkpt lat="28.274193" lon="105.033372"><ele>826.6112</ele><time>2026-05-05T23:21:02.000Z</time></trkpt>
        <trkpt lat="28.274177" lon="105.033423"><ele>826.20245</ele><time>2026-05-05T23:21:06.000Z</time></trkpt>
        <trkpt lat="28.27417" lon="105.033475"><ele>825.3404</ele><time>2026-05-05T23:21:10.000Z</time></trkpt>
        <trkpt lat="28.274165" lon="105.03353"><ele>824.84534</ele><time>2026-05-05T23:21:14.000Z</time></trkpt>
        <trkpt lat="28.274168" lon="105.033582"><ele>826.3448</ele><time>2026-05-05T23:21:19.000Z</time></trkpt>
        <trkpt lat="28.27417" lon="105.033638"><ele>825.69794</ele><time>2026-05-05T23:21:23.000Z</time></trkpt>
        <trkpt lat="28.274161" lon="105.033691"><ele>826.2085</ele><time>2026-05-05T23:21:28.000Z</time></trkpt>
        <trkpt lat="28.274159" lon="105.033748"><ele>826.6506</ele><time>2026-05-05T23:21:34.000Z</time></trkpt>
        <trkpt lat="28.274167" lon="105.033815"><ele>826.5852</ele><time>2026-05-05T23:21:40.000Z</time></trkpt>
        <trkpt lat="28.274167" lon="105.033872"><ele>826.4637</ele><time>2026-05-05T23:21:45.000Z</time></trkpt>
        <trkpt lat="28.274169" lon="105.033933"><ele>826.7209</ele><time>2026-05-05T23:21:50.000Z</time></trkpt>
        <trkpt lat="28.274171" lon="105.033989"><ele>826.38165</ele><time>2026-05-05T23:21:55.000Z</time></trkpt>
        <trkpt lat="28.27417" lon="105.034041"><ele>827.37964</ele><time>2026-05-05T23:22:01.000Z</time></trkpt>
        <trkpt lat="28.274174" lon="105.034096"><ele>825.7449</ele><time>2026-05-05T23:22:16.000Z</time></trkpt>
        <trkpt lat="28.27422" lon="105.034079"><ele>826.7117</ele><time>2026-05-05T23:22:33.000Z</time></trkpt>
        <trkpt lat="28.274249" lon="105.034028"><ele>824.13934</ele><time>2026-05-05T23:22:39.000Z</time></trkpt>
        <trkpt lat="28.274267" lon="105.033981"><ele>823.57043</ele><time>2026-05-05T23:22:44.000Z</time></trkpt>
        <trkpt lat="28.274275" lon="105.033927"><ele>824.5791</ele><time>2026-05-05T23:22:51.000Z</time></trkpt>
        <trkpt lat="28.274289" lon="105.033874"><ele>824.849</ele><time>2026-05-05T23:22:59.000Z</time></trkpt>
        <trkpt lat="28.274313" lon="105.033825"><ele>825.5252</ele><time>2026-05-05T23:23:05.000Z</time></trkpt>
        <trkpt lat="28.274331" lon="105.033761"><ele>823.69556</ele><time>2026-05-05T23:23:10.000Z</time></trkpt>
        <trkpt lat="28.274341" lon="105.033706"><ele>823.37476</ele><time>2026-05-05T23:23:14.000Z</time></trkpt>
        <trkpt lat="28.274359" lon="105.033655"><ele>822.8409</ele><time>2026-05-05T23:23:18.000Z</time></trkpt>
        <trkpt lat="28.27436" lon="105.033599"><ele>821.7562</ele><time>2026-05-05T23:23:22.000Z</time></trkpt>
        <trkpt lat="28.274366" lon="105.033545"><ele>820.108</ele><time>2026-05-05T23:23:26.000Z</time></trkpt>
        <trkpt lat="28.27438" lon="105.033496"><ele>819.876</ele><time>2026-05-05T23:23:30.000Z</time></trkpt>
        <trkpt lat="28.274389" lon="105.033444"><ele>819.51355</ele><time>2026-05-05T23:23:34.000Z</time></trkpt>
        <trkpt lat="28.274386" lon="105.033392"><ele>818.0662</ele><time>2026-05-05T23:23:38.000Z</time></trkpt>
        <trkpt lat="28.274386" lon="105.033337"><ele>818.57214</ele><time>2026-05-05T23:23:42.000Z</time></trkpt>
        <trkpt lat="28.274377" lon="105.033279"><ele>818.3979</ele><time>2026-05-05T23:23:48.000Z</time></trkpt>
        <trkpt lat="28.274366" lon="105.033229"><ele>818.61865</ele><time>2026-05-05T23:23:53.000Z</time></trkpt>
        <trkpt lat="28.274353" lon="105.03317"><ele>818.7305</ele><time>2026-05-05T23:24:00.000Z</time></trkpt>
        <trkpt lat="28.274346" lon="105.033114"><ele>819.27496</ele><time>2026-05-05T23:24:05.000Z</time></trkpt>
        <trkpt lat="28.274349" lon="105.033059"><ele>820.83167</ele><time>2026-05-05T23:24:10.000Z</time></trkpt>
        <trkpt lat="28.274364" lon="105.033002"><ele>820.7614</ele><time>2026-05-05T23:24:14.000Z</time></trkpt>
        <trkpt lat="28.274376" lon="105.032943"><ele>818.8622</ele><time>2026-05-05T23:24:20.000Z</time></trkpt>
        <trkpt lat="28.27441" lon="105.032899"><ele>815.46924</ele><time>2026-05-05T23:24:24.000Z</time></trkpt>
        <trkpt lat="28.27445" lon="105.032859"><ele>816.5738</ele><time>2026-05-05T23:24:27.000Z</time></trkpt>
        <trkpt lat="28.274494" lon="105.032882"><ele>813.1087</ele><time>2026-05-05T23:24:33.000Z</time></trkpt>
        <trkpt lat="28.274518" lon="105.032924"><ele>811.4391</ele><time>2026-05-05T23:24:39.000Z</time></trkpt>
        <trkpt lat="28.274544" lon="105.032967"><ele>809.28735</ele><time>2026-05-05T23:24:45.000Z</time></trkpt>
        <trkpt lat="28.27455" lon="105.033019"><ele>808.69086</ele><time>2026-05-05T23:24:50.000Z</time></trkpt>
        <trkpt lat="28.27456" lon="105.033078"><ele>807.07074</ele><time>2026-05-05T23:24:55.000Z</time></trkpt>
        <trkpt lat="28.274559" lon="105.033136"><ele>806.4473</ele><time>2026-05-05T23:25:00.000Z</time></trkpt>
        <trkpt lat="28.27455" lon="105.033194"><ele>804.5201</ele><time>2026-05-05T23:25:05.000Z</time></trkpt>
        <trkpt lat="28.274552" lon="105.033257"><ele>805.4671</ele><time>2026-05-05T23:25:11.000Z</time></trkpt>
        <trkpt lat="28.274557" lon="105.033309"><ele>805.19415</ele><time>2026-05-05T23:25:16.000Z</time></trkpt>
        <trkpt lat="28.274572" lon="105.033359"><ele>805.60236</ele><time>2026-05-05T23:25:20.000Z</time></trkpt>
        <trkpt lat="28.274576" lon="105.03341"><ele>803.3477</ele><time>2026-05-05T23:25:24.000Z</time></trkpt>
        <trkpt lat="28.274587" lon="105.033471"><ele>802.94293</ele><time>2026-05-05T23:25:29.000Z</time></trkpt>
        <trkpt lat="28.274587" lon="105.033532"><ele>801.5064</ele><time>2026-05-05T23:25:34.000Z</time></trkpt>
        <trkpt lat="28.274578" lon="105.033591"><ele>801.5296</ele><time>2026-05-05T23:25:39.000Z</time></trkpt>
        <trkpt lat="28.274573" lon="105.033651"><ele>799.0198</ele><time>2026-05-05T23:25:44.000Z</time></trkpt>
        <trkpt lat="28.274585" lon="105.033719"><ele>799.0794</ele><time>2026-05-05T23:25:50.000Z</time></trkpt>
        <trkpt lat="28.274587" lon="105.033772"><ele>799.49677</ele><time>2026-05-05T23:25:56.000Z</time></trkpt>
        <trkpt lat="28.274584" lon="105.033822"><ele>798.5192</ele><time>2026-05-05T23:26:02.000Z</time></trkpt>
        <trkpt lat="28.274594" lon="105.033882"><ele>798.81647</ele><time>2026-05-05T23:26:09.000Z</time></trkpt>
        <trkpt lat="28.274592" lon="105.033937"><ele>798.1181</ele><time>2026-05-05T23:26:15.000Z</time></trkpt>
        <trkpt lat="28.274583" lon="105.033995"><ele>796.8809</ele><time>2026-05-05T23:26:22.000Z</time></trkpt>
        <trkpt lat="28.274577" lon="105.034053"><ele>797.2083</ele><time>2026-05-05T23:26:29.000Z</time></trkpt>
        <trkpt lat="28.274566" lon="105.034116"><ele>797.0521</ele><time>2026-05-05T23:26:35.000Z</time></trkpt>
        <trkpt lat="28.274555" lon="105.034174"><ele>796.0344</ele><time>2026-05-05T23:26:39.000Z</time></trkpt>
        <trkpt lat="28.274563" lon="105.034237"><ele>797.1833</ele><time>2026-05-05T23:26:44.000Z</time></trkpt>
        <trkpt lat="28.274562" lon="105.034304"><ele>796.32245</ele><time>2026-05-05T23:26:48.000Z</time></trkpt>
        <trkpt lat="28.274563" lon="105.034371"><ele>795.2711</ele><time>2026-05-05T23:26:53.000Z</time></trkpt>
        <trkpt lat="28.274567" lon="105.034431"><ele>794.72614</ele><time>2026-05-05T23:26:58.000Z</time></trkpt>
        <trkpt lat="28.274561" lon="105.034489"><ele>794.45825</ele><time>2026-05-05T23:27:03.000Z</time></trkpt>
        <trkpt lat="28.274563" lon="105.034548"><ele>793.6821</ele><time>2026-05-05T23:27:07.000Z</time></trkpt>
        <trkpt lat="28.274559" lon="105.034602"><ele>790.8349</ele><time>2026-05-05T23:27:12.000Z</time></trkpt>
        <trkpt lat="28.274556" lon="105.03466"><ele>791.4206</ele><time>2026-05-05T23:27:17.000Z</time></trkpt>
        <trkpt lat="28.274554" lon="105.034712"><ele>790.84546</ele><time>2026-05-05T23:27:22.000Z</time></trkpt>
        <trkpt lat="28.274563" lon="105.034764"><ele>790.6531</ele><time>2026-05-05T23:27:26.000Z</time></trkpt>
        <trkpt lat="28.274567" lon="105.034822"><ele>788.3597</ele><time>2026-05-05T23:27:30.000Z</time></trkpt>
        <trkpt lat="28.274585" lon="105.03487"><ele>790.15204</ele><time>2026-05-05T23:27:35.000Z</time></trkpt>
        <trkpt lat="28.274608" lon="105.034923"><ele>789.44855</ele><time>2026-05-05T23:27:41.000Z</time></trkpt>
        <trkpt lat="28.274612" lon="105.034986"><ele>787.5624</ele><time>2026-05-05T23:27:47.000Z</time></trkpt>
        <trkpt lat="28.274618" lon="105.035042"><ele>786.549</ele><time>2026-05-05T23:27:52.000Z</time></trkpt>
        <trkpt lat="28.274628" lon="105.035099"><ele>786.37</ele><time>2026-05-05T23:27:57.000Z</time></trkpt>
        <trkpt lat="28.274634" lon="105.03515"><ele>788.91486</ele><time>2026-05-05T23:28:03.000Z</time></trkpt>
        <trkpt lat="28.274638" lon="105.035204"><ele>788.74286</ele><time>2026-05-05T23:28:08.000Z</time></trkpt>
        <trkpt lat="28.274643" lon="105.035263"><ele>788.28455</ele><time>2026-05-05T23:28:13.000Z</time></trkpt>
        <trkpt lat="28.274655" lon="105.035314"><ele>787.9693</ele><time>2026-05-05T23:28:18.000Z</time></trkpt>
        <trkpt lat="28.274659" lon="105.03537"><ele>788.6226</ele><time>2026-05-05T23:28:23.000Z</time></trkpt>
        <trkpt lat="28.274656" lon="105.035431"><ele>788.2725</ele><time>2026-05-05T23:28:28.000Z</time></trkpt>
        <trkpt lat="28.274651" lon="105.03549"><ele>788.1947</ele><time>2026-05-05T23:28:33.000Z</time></trkpt>
        <trkpt lat="28.274654" lon="105.035552"><ele>788.0021</ele><time>2026-05-05T23:28:37.000Z</time></trkpt>
        <trkpt lat="28.274666" lon="105.035603"><ele>787.1252</ele><time>2026-05-05T23:28:41.000Z</time></trkpt>
        <trkpt lat="28.274676" lon="105.035655"><ele>786.34845</ele><time>2026-05-05T23:28:45.000Z</time></trkpt>
        <trkpt lat="28.274682" lon="105.035713"><ele>785.75415</ele><time>2026-05-05T23:28:50.000Z</time></trkpt>
        <trkpt lat="28.274692" lon="105.035766"><ele>785.9322</ele><time>2026-05-05T23:28:56.000Z</time></trkpt>
        <trkpt lat="28.2747" lon="105.03582"><ele>785.18164</ele><time>2026-05-05T23:29:01.000Z</time></trkpt>
        <trkpt lat="28.274698" lon="105.035873"><ele>782.6475</ele><time>2026-05-05T23:29:06.000Z</time></trkpt>
        <trkpt lat="28.274699" lon="105.035927"><ele>783.54565</ele><time>2026-05-05T23:29:12.000Z</time></trkpt>
        <trkpt lat="28.274707" lon="105.035986"><ele>782.6832</ele><time>2026-05-05T23:29:17.000Z</time></trkpt>
        <trkpt lat="28.274718" lon="105.036043"><ele>783.2934</ele><time>2026-05-05T23:29:23.000Z</time></trkpt>
        <trkpt lat="28.274728" lon="105.036097"><ele>781.7712</ele><time>2026-05-05T23:29:27.000Z</time></trkpt>
        <trkpt lat="28.274728" lon="105.036154"><ele>781.6306</ele><time>2026-05-05T23:29:32.000Z</time></trkpt>
        <trkpt lat="28.274732" lon="105.036205"><ele>781.2178</ele><time>2026-05-05T23:29:37.000Z</time></trkpt>
        <trkpt lat="28.274741" lon="105.036262"><ele>780.8595</ele><time>2026-05-05T23:29:41.000Z</time></trkpt>
        <trkpt lat="28.274746" lon="105.036315"><ele>780.2495</ele><time>2026-05-05T23:29:45.000Z</time></trkpt>
        <trkpt lat="28.274745" lon="105.036386"><ele>778.27466</ele><time>2026-05-05T23:29:50.000Z</time></trkpt>
        <trkpt lat="28.27475" lon="105.03644"><ele>776.8434</ele><time>2026-05-05T23:29:55.000Z</time></trkpt>
        <trkpt lat="28.274736" lon="105.036492"><ele>774.94025</ele><time>2026-05-05T23:29:59.000Z</time></trkpt>
        <trkpt lat="28.27472" lon="105.036549"><ele>773.47473</ele><time>2026-05-05T23:30:03.000Z</time></trkpt>
        <trkpt lat="28.274718" lon="105.036602"><ele>773.33563</ele><time>2026-05-05T23:30:08.000Z</time></trkpt>
        <trkpt lat="28.274716" lon="105.036653"><ele>773.3656</ele><time>2026-05-05T23:30:13.000Z</time></trkpt>
        <trkpt lat="28.274672" lon="105.03669"><ele>771.157</ele><time>2026-05-05T23:30:22.000Z</time></trkpt>
        <trkpt lat="28.274637" lon="105.036729"><ele>770.1516</ele><time>2026-05-05T23:30:35.000Z</time></trkpt>
        <trkpt lat="28.274664" lon="105.036774"><ele>769.8675</ele><time>2026-05-05T23:32:22.000Z</time></trkpt>
        <trkpt lat="28.274698" lon="105.036812"><ele>768.86926</ele><time>2026-05-05T23:32:40.000Z</time></trkpt>
        <trkpt lat="28.274749" lon="105.036825"><ele>768.8002</ele><time>2026-05-05T23:32:46.000Z</time></trkpt>
        <trkpt lat="28.274796" lon="105.036843"><ele>768.5131</ele><time>2026-05-05T23:32:52.000Z</time></trkpt>
        <trkpt lat="28.274838" lon="105.036867"><ele>765.1452</ele><time>2026-05-05T23:33:38.000Z</time></trkpt>
        <trkpt lat="28.27488" lon="105.036888"><ele>764.4221</ele><time>2026-05-05T23:33:48.000Z</time></trkpt>
        <trkpt lat="28.27491" lon="105.036929"><ele>762.049</ele><time>2026-05-05T23:34:02.000Z</time></trkpt>
        <trkpt lat="28.274931" lon="105.036985"><ele>760.2524</ele><time>2026-05-05T23:34:11.000Z</time></trkpt>
        <trkpt lat="28.274943" lon="105.037035"><ele>758.0365</ele><time>2026-05-05T23:34:20.000Z</time></trkpt>
        <trkpt lat="28.274962" lon="105.037083"><ele>754.99866</ele><time>2026-05-05T23:34:28.000Z</time></trkpt>
        <trkpt lat="28.274965" lon="105.037135"><ele>753.45154</ele><time>2026-05-05T23:34:36.000Z</time></trkpt>
        <trkpt lat="28.274988" lon="105.037182"><ele>752.0828</ele><time>2026-05-05T23:34:44.000Z</time></trkpt>
        <trkpt lat="28.275029" lon="105.037205"><ele>751.0157</ele><time>2026-05-05T23:34:52.000Z</time></trkpt>
        <trkpt lat="28.275062" lon="105.03725"><ele>749.2927</ele><time>2026-05-05T23:34:59.000Z</time></trkpt>
        <trkpt lat="28.2751" lon="105.037298"><ele>747.6557</ele><time>2026-05-05T23:35:08.000Z</time></trkpt>
        <trkpt lat="28.275114" lon="105.037346"><ele>746.9846</ele><time>2026-05-05T23:35:15.000Z</time></trkpt>
        <trkpt lat="28.275113" lon="105.037399"><ele>745.9991</ele><time>2026-05-05T23:35:25.000Z</time></trkpt>
        <trkpt lat="28.27509" lon="105.037444"><ele>745.7651</ele><time>2026-05-05T23:35:37.000Z</time></trkpt>
        <trkpt lat="28.275036" lon="105.037446"><ele>745.72723</ele><time>2026-05-05T23:35:45.000Z</time></trkpt>
        <trkpt lat="28.274981" lon="105.03745"><ele>745.3228</ele><time>2026-05-05T23:35:52.000Z</time></trkpt>
        <trkpt lat="28.274936" lon="105.037446"><ele>744.36566</ele><time>2026-05-05T23:36:01.000Z</time></trkpt>
        <trkpt lat="28.274885" lon="105.037469"><ele>743.765</ele><time>2026-05-05T23:36:08.000Z</time></trkpt>
        <trkpt lat="28.274837" lon="105.037449"><ele>744.697</ele><time>2026-05-05T23:36:16.000Z</time></trkpt>
        <trkpt lat="28.274789" lon="105.037451"><ele>746.0158</ele><time>2026-05-05T23:36:27.000Z</time></trkpt>
        <trkpt lat="28.274747" lon="105.037474"><ele>746.5197</ele><time>2026-05-05T23:36:45.000Z</time></trkpt>
        <trkpt lat="28.274702" lon="105.037504"><ele>747.96625</ele><time>2026-05-05T23:36:58.000Z</time></trkpt>
        <trkpt lat="28.27466" lon="105.037531"><ele>748.9035</ele><time>2026-05-05T23:37:28.000Z</time></trkpt>
        <trkpt lat="28.274626" lon="105.037568"><ele>746.6383</ele><time>2026-05-05T23:37:41.000Z</time></trkpt>
        <trkpt lat="28.274579" lon="105.037575"><ele>745.2825</ele><time>2026-05-05T23:37:49.000Z</time></trkpt>
        <trkpt lat="28.27454" lon="105.037604"><ele>744.2067</ele><time>2026-05-05T23:37:58.000Z</time></trkpt>
        <trkpt lat="28.27449" lon="105.037606"><ele>743.66187</ele><time>2026-05-05T23:38:06.000Z</time></trkpt>
        <trkpt lat="28.274457" lon="105.037564"><ele>743.104</ele><time>2026-05-05T23:38:14.000Z</time></trkpt>
        <trkpt lat="28.274423" lon="105.037529"><ele>743.8331</ele><time>2026-05-05T23:38:22.000Z</time></trkpt>
        <trkpt lat="28.274371" lon="105.037551"><ele>745.3507</ele><time>2026-05-05T23:38:42.000Z</time></trkpt>
        <trkpt lat="28.274326" lon="105.037566"><ele>746.04346</ele><time>2026-05-05T23:38:47.000Z</time></trkpt>
        <trkpt lat="28.274275" lon="105.037576"><ele>746.12396</ele><time>2026-05-05T23:38:54.000Z</time></trkpt>
        <trkpt lat="28.274233" lon="105.0376"><ele>745.38605</ele><time>2026-05-05T23:38:58.000Z</time></trkpt>
        <trkpt lat="28.274187" lon="105.037619"><ele>743.9664</ele><time>2026-05-05T23:39:03.000Z</time></trkpt>
        <trkpt lat="28.274141" lon="105.037628"><ele>742.7323</ele><time>2026-05-05T23:39:08.000Z</time></trkpt>
        <trkpt lat="28.27409" lon="105.03764"><ele>741.8566</ele><time>2026-05-05T23:39:13.000Z</time></trkpt>
        <trkpt lat="28.274051" lon="105.037609"><ele>741.38556</ele><time>2026-05-05T23:39:20.000Z</time></trkpt>
        <trkpt lat="28.274006" lon="105.037646"><ele>744.3255</ele><time>2026-05-05T23:39:38.000Z</time></trkpt>
        <trkpt lat="28.273984" lon="105.037691"><ele>743.3196</ele><time>2026-05-05T23:39:44.000Z</time></trkpt>
        <trkpt lat="28.273957" lon="105.037735"><ele>742.28467</ele><time>2026-05-05T23:39:50.000Z</time></trkpt>
        <trkpt lat="28.273918" lon="105.037771"><ele>738.6287</ele><time>2026-05-05T23:39:58.000Z</time></trkpt>
        <trkpt lat="28.273874" lon="105.037784"><ele>735.40875</ele><time>2026-05-05T23:40:04.000Z</time></trkpt>
        <trkpt lat="28.273822" lon="105.037824"><ele>733.8486</ele><time>2026-05-05T23:40:12.000Z</time></trkpt>
        <trkpt lat="28.27377" lon="105.037856"><ele>730.8131</ele><time>2026-05-05T23:40:19.000Z</time></trkpt>
        <trkpt lat="28.273725" lon="105.03789"><ele>728.45197</ele><time>2026-05-05T23:40:24.000Z</time></trkpt>
        <trkpt lat="28.273683" lon="105.03791"><ele>727.3294</ele><time>2026-05-05T23:40:29.000Z</time></trkpt>
        <trkpt lat="28.273632" lon="105.037922"><ele>727.72626</ele><time>2026-05-05T23:40:34.000Z</time></trkpt>
        <trkpt lat="28.273585" lon="105.037942"><ele>726.73206</ele><time>2026-05-05T23:40:41.000Z</time></trkpt>
        <trkpt lat="28.273541" lon="105.037956"><ele>726.00616</ele><time>2026-05-05T23:40:48.000Z</time></trkpt>
        <trkpt lat="28.273495" lon="105.037987"><ele>725.854</ele><time>2026-05-05T23:41:01.000Z</time></trkpt>
        <trkpt lat="28.273444" lon="105.037995"><ele>724.3549</ele><time>2026-05-05T23:41:07.000Z</time></trkpt>
        <trkpt lat="28.273399" lon="105.037983"><ele>723.9099</ele><time>2026-05-05T23:41:12.000Z</time></trkpt>
        <trkpt lat="28.27335" lon="105.037955"><ele>723.2815</ele><time>2026-05-05T23:41:18.000Z</time></trkpt>
        <trkpt lat="28.273305" lon="105.037919"><ele>723.2542</ele><time>2026-05-05T23:41:25.000Z</time></trkpt>
        <trkpt lat="28.273261" lon="105.037902"><ele>722.52234</ele><time>2026-05-05T23:41:33.000Z</time></trkpt>
        <trkpt lat="28.27323" lon="105.037859"><ele>721.85443</ele><time>2026-05-05T23:41:42.000Z</time></trkpt>
        <trkpt lat="28.273189" lon="105.037824"><ele>721.6857</ele><time>2026-05-05T23:41:49.000Z</time></trkpt>
        <trkpt lat="28.273148" lon="105.037799"><ele>721.60583</ele><time>2026-05-05T23:42:00.000Z</time></trkpt>
        <trkpt lat="28.273122" lon="105.037846"><ele>720.6361</ele><time>2026-05-05T23:42:08.000Z</time></trkpt>
        <trkpt lat="28.273094" lon="105.037896"><ele>721.8466</ele><time>2026-05-05T23:42:15.000Z</time></trkpt>
        <trkpt lat="28.273065" lon="105.037939"><ele>719.9298</ele><time>2026-05-05T23:42:22.000Z</time></trkpt>
        <trkpt lat="28.273047" lon="105.037986"><ele>718.234</ele><time>2026-05-05T23:42:27.000Z</time></trkpt>
        <trkpt lat="28.273034" lon="105.038038"><ele>715.65564</ele><time>2026-05-05T23:42:34.000Z</time></trkpt>
        <trkpt lat="28.27299" lon="105.038024"><ele>711.0596</ele><time>2026-05-05T23:42:49.000Z</time></trkpt>
        <trkpt lat="28.272959" lon="105.037987"><ele>711.0389</ele><time>2026-05-05T23:42:55.000Z</time></trkpt>
        <trkpt lat="28.272923" lon="105.037947"><ele>710.9491</ele><time>2026-05-05T23:43:04.000Z</time></trkpt>
        <trkpt lat="28.272887" lon="105.037978"><ele>712.4469</ele><time>2026-05-05T23:43:29.000Z</time></trkpt>
        <trkpt lat="28.272856" lon="105.038022"><ele>711.73035</ele><time>2026-05-05T23:43:39.000Z</time></trkpt>
        <trkpt lat="28.272834" lon="105.038075"><ele>712.0195</ele><time>2026-05-05T23:43:49.000Z</time></trkpt>
        <trkpt lat="28.272809" lon="105.038119"><ele>711.4017</ele><time>2026-05-05T23:43:59.000Z</time></trkpt>
        <trkpt lat="28.272792" lon="105.038172"><ele>710.87616</ele><time>2026-05-05T23:44:06.000Z</time></trkpt>
        <trkpt lat="28.27275" lon="105.038202"><ele>709.88324</ele><time>2026-05-05T23:44:12.000Z</time></trkpt>
        <trkpt lat="28.272701" lon="105.038209"><ele>708.40045</ele><time>2026-05-05T23:44:17.000Z</time></trkpt>
        <trkpt lat="28.272654" lon="105.038227"><ele>706.5379</ele><time>2026-05-05T23:44:25.000Z</time></trkpt>
        <trkpt lat="28.27261" lon="105.038254"><ele>705.1795</ele><time>2026-05-05T23:44:32.000Z</time></trkpt>
        <trkpt lat="28.272562" lon="105.03826"><ele>703.6965</ele><time>2026-05-05T23:44:41.000Z</time></trkpt>
        <trkpt lat="28.272518" lon="105.038277"><ele>703.46027</ele><time>2026-05-05T23:44:50.000Z</time></trkpt>
        <trkpt lat="28.272477" lon="105.038311"><ele>703.5732</ele><time>2026-05-05T23:44:57.000Z</time></trkpt>
        <trkpt lat="28.272504" lon="105.038361"><ele>701.59174</ele><time>2026-05-05T23:45:08.000Z</time></trkpt>
        <trkpt lat="28.272538" lon="105.038398"><ele>700.27216</ele><time>2026-05-05T23:45:17.000Z</time></trkpt>
        <trkpt lat="28.27257" lon="105.038435"><ele>699.1843</ele><time>2026-05-05T23:45:23.000Z</time></trkpt>
        <trkpt lat="28.272607" lon="105.038466"><ele>698.76184</ele><time>2026-05-05T23:45:29.000Z</time></trkpt>
        <trkpt lat="28.272625" lon="105.038517"><ele>698.6493</ele><time>2026-05-05T23:45:35.000Z</time></trkpt>
        <trkpt lat="28.272657" lon="105.038556"><ele>699.01013</ele><time>2026-05-05T23:45:40.000Z</time></trkpt>
        <trkpt lat="28.272689" lon="105.0386"><ele>696.7028</ele><time>2026-05-05T23:45:46.000Z</time></trkpt>
        <trkpt lat="28.272706" lon="105.03866"><ele>695.7371</ele><time>2026-05-05T23:45:53.000Z</time></trkpt>
        <trkpt lat="28.272717" lon="105.038713"><ele>695.2494</ele><time>2026-05-05T23:45:57.000Z</time></trkpt>
        <trkpt lat="28.272739" lon="105.038757"><ele>694.1636</ele><time>2026-05-05T23:46:03.000Z</time></trkpt>
        <trkpt lat="28.272761" lon="105.038808"><ele>693.01294</ele><time>2026-05-05T23:46:09.000Z</time></trkpt>
        <trkpt lat="28.272768" lon="105.038859"><ele>692.45605</ele><time>2026-05-05T23:46:15.000Z</time></trkpt>
        <trkpt lat="28.27278" lon="105.038915"><ele>692.038</ele><time>2026-05-05T23:46:19.000Z</time></trkpt>
        <trkpt lat="28.2728" lon="105.038969"><ele>690.6159</ele><time>2026-05-05T23:46:26.000Z</time></trkpt>
        <trkpt lat="28.272822" lon="105.039015"><ele>690.1546</ele><time>2026-05-05T23:46:31.000Z</time></trkpt>
        <trkpt lat="28.272857" lon="105.039064"><ele>689.34973</ele><time>2026-05-05T23:46:38.000Z</time></trkpt>
        <trkpt lat="28.272887" lon="105.039105"><ele>687.9483</ele><time>2026-05-05T23:46:43.000Z</time></trkpt>
        <trkpt lat="28.272918" lon="105.039149"><ele>685.8767</ele><time>2026-05-05T23:46:50.000Z</time></trkpt>
        <trkpt lat="28.272948" lon="105.039194"><ele>685.6736</ele><time>2026-05-05T23:46:57.000Z</time></trkpt>
        <trkpt lat="28.272982" lon="105.039234"><ele>684.42926</ele><time>2026-05-05T23:47:02.000Z</time></trkpt>
        <trkpt lat="28.273021" lon="105.03926"><ele>683.8934</ele><time>2026-05-05T23:47:07.000Z</time></trkpt>
        <trkpt lat="28.273065" lon="105.039293"><ele>683.43054</ele><time>2026-05-05T23:47:13.000Z</time></trkpt>
        <trkpt lat="28.273102" lon="105.039326"><ele>682.93634</ele><time>2026-05-05T23:47:18.000Z</time></trkpt>
        <trkpt lat="28.27313" lon="105.039373"><ele>682.8452</ele><time>2026-05-05T23:47:23.000Z</time></trkpt>
        <trkpt lat="28.273173" lon="105.039424"><ele>682.4486</ele><time>2026-05-05T23:47:27.000Z</time></trkpt>
        <trkpt lat="28.273216" lon="105.039443"><ele>681.46844</ele><time>2026-05-05T23:47:32.000Z</time></trkpt>
        <trkpt lat="28.273266" lon="105.039458"><ele>681.28906</ele><time>2026-05-05T23:47:37.000Z</time></trkpt>
        <trkpt lat="28.273311" lon="105.039476"><ele>680.9408</ele><time>2026-05-05T23:47:42.000Z</time></trkpt>
        <trkpt lat="28.273349" lon="105.039505"><ele>680.8882</ele><time>2026-05-05T23:47:48.000Z</time></trkpt>
        <trkpt lat="28.273394" lon="105.039535"><ele>679.3438</ele><time>2026-05-05T23:47:53.000Z</time></trkpt>
        <trkpt lat="28.273446" lon="105.03955"><ele>677.9552</ele><time>2026-05-05T23:48:00.000Z</time></trkpt>
        <trkpt lat="28.273496" lon="105.039553"><ele>677.3754</ele><time>2026-05-05T23:48:06.000Z</time></trkpt>
        <trkpt lat="28.273533" lon="105.039587"><ele>675.9478</ele><time>2026-05-05T23:48:17.000Z</time></trkpt>
        <trkpt lat="28.273584" lon="105.039596"><ele>673.01154</ele><time>2026-05-05T23:48:25.000Z</time></trkpt>
        <trkpt lat="28.273638" lon="105.039607"><ele>671.867</ele><time>2026-05-05T23:48:32.000Z</time></trkpt>
        <trkpt lat="28.273687" lon="105.039616"><ele>670.2671</ele><time>2026-05-05T23:48:38.000Z</time></trkpt>
        <trkpt lat="28.273736" lon="105.039625"><ele>668.8535</ele><time>2026-05-05T23:48:44.000Z</time></trkpt>
        <trkpt lat="28.273792" lon="105.039644"><ele>668.9377</ele><time>2026-05-05T23:48:51.000Z</time></trkpt>
        <trkpt lat="28.273837" lon="105.039647"><ele>668.47003</ele><time>2026-05-05T23:48:56.000Z</time></trkpt>
        <trkpt lat="28.273875" lon="105.039677"><ele>669.1387</ele><time>2026-05-05T23:49:02.000Z</time></trkpt>
        <trkpt lat="28.273911" lon="105.039713"><ele>668.7837</ele><time>2026-05-05T23:49:07.000Z</time></trkpt>
        <trkpt lat="28.273932" lon="105.039762"><ele>667.8797</ele><time>2026-05-05T23:49:12.000Z</time></trkpt>
        <trkpt lat="28.273946" lon="105.03982"><ele>665.7031</ele><time>2026-05-05T23:49:17.000Z</time></trkpt>
        <trkpt lat="28.27395" lon="105.039883"><ele>662.1531</ele><time>2026-05-05T23:49:26.000Z</time></trkpt>
        <trkpt lat="28.273954" lon="105.039935"><ele>658.67975</ele><time>2026-05-05T23:49:34.000Z</time></trkpt>
        <trkpt lat="28.273958" lon="105.039991"><ele>656.26636</ele><time>2026-05-05T23:49:43.000Z</time></trkpt>
        <trkpt lat="28.273967" lon="105.040044"><ele>655.53217</ele><time>2026-05-05T23:49:50.000Z</time></trkpt>
        <trkpt lat="28.273997" lon="105.040084"><ele>653.79065</ele><time>2026-05-05T23:49:59.000Z</time></trkpt>
        <trkpt lat="28.274014" lon="105.040138"><ele>654.12396</ele><time>2026-05-05T23:50:05.000Z</time></trkpt>
        <trkpt lat="28.274055" lon="105.040181"><ele>653.85974</ele><time>2026-05-05T23:50:11.000Z</time></trkpt>
        <trkpt lat="28.274093" lon="105.040218"><ele>654.5774</ele><time>2026-05-05T23:50:16.000Z</time></trkpt>
        <trkpt lat="28.274138" lon="105.040241"><ele>655.04443</ele><time>2026-05-05T23:50:22.000Z</time></trkpt>
        <trkpt lat="28.274184" lon="105.040266"><ele>655.3073</ele><time>2026-05-05T23:50:27.000Z</time></trkpt>
        <trkpt lat="28.274221" lon="105.040298"><ele>654.9832</ele><time>2026-05-05T23:50:31.000Z</time></trkpt>
        <trkpt lat="28.274251" lon="105.040338"><ele>655.1053</ele><time>2026-05-05T23:50:38.000Z</time></trkpt>
        <trkpt lat="28.274289" lon="105.040368"><ele>655.0227</ele><time>2026-05-05T23:50:44.000Z</time></trkpt>
        <trkpt lat="28.274333" lon="105.04039"><ele>654.64014</ele><time>2026-05-05T23:50:49.000Z</time></trkpt>
        <trkpt lat="28.274381" lon="105.0404"><ele>654.7612</ele><time>2026-05-05T23:50:55.000Z</time></trkpt>
        <trkpt lat="28.274425" lon="105.040419"><ele>653.32007</ele><time>2026-05-05T23:51:02.000Z</time></trkpt>
        <trkpt lat="28.274474" lon="105.040432"><ele>652.27325</ele><time>2026-05-05T23:51:07.000Z</time></trkpt>
        <trkpt lat="28.274517" lon="105.040452"><ele>651.96246</ele><time>2026-05-05T23:51:13.000Z</time></trkpt>
        <trkpt lat="28.274561" lon="105.040468"><ele>652.7111</ele><time>2026-05-05T23:51:17.000Z</time></trkpt>
        <trkpt lat="28.274613" lon="105.040475"><ele>651.98395</ele><time>2026-05-05T23:51:22.000Z</time></trkpt>
        <trkpt lat="28.27466" lon="105.040489"><ele>652.45825</ele><time>2026-05-05T23:51:27.000Z</time></trkpt>
        <trkpt lat="28.274717" lon="105.040505"><ele>652.58984</ele><time>2026-05-05T23:51:32.000Z</time></trkpt>
        <trkpt lat="28.274765" lon="105.040518"><ele>652.7815</ele><time>2026-05-05T23:51:37.000Z</time></trkpt>
        <trkpt lat="28.274809" lon="105.040538"><ele>652.85205</ele><time>2026-05-05T23:51:42.000Z</time></trkpt>
        <trkpt lat="28.274849" lon="105.040571"><ele>652.9381</ele><time>2026-05-05T23:51:49.000Z</time></trkpt>
        <trkpt lat="28.274882" lon="105.040609"><ele>652.1999</ele><time>2026-05-05T23:51:53.000Z</time></trkpt>
        <trkpt lat="28.274912" lon="105.040664"><ele>651.1065</ele><time>2026-05-05T23:51:59.000Z</time></trkpt>
        <trkpt lat="28.274932" lon="105.040718"><ele>650.0273</ele><time>2026-05-05T23:52:03.000Z</time></trkpt>
        <trkpt lat="28.274959" lon="105.040761"><ele>650.09283</ele><time>2026-05-05T23:52:09.000Z</time></trkpt>
        <trkpt lat="28.274991" lon="105.0408"><ele>647.596</ele><time>2026-05-05T23:52:16.000Z</time></trkpt>
        <trkpt lat="28.275012" lon="105.040847"><ele>646.8781</ele><time>2026-05-05T23:52:20.000Z</time></trkpt>
        <trkpt lat="28.275036" lon="105.040898"><ele>647.6941</ele><time>2026-05-05T23:52:24.000Z</time></trkpt>
        <trkpt lat="28.275062" lon="105.040948"><ele>647.0779</ele><time>2026-05-05T23:52:31.000Z</time></trkpt>
        <trkpt lat="28.275094" lon="105.041003"><ele>646.6664</ele><time>2026-05-05T23:52:36.000Z</time></trkpt>
        <trkpt lat="28.275117" lon="105.041048"><ele>646.80865</ele><time>2026-05-05T23:52:42.000Z</time></trkpt>
        <trkpt lat="28.275135" lon="105.041102"><ele>646.67584</ele><time>2026-05-05T23:52:48.000Z</time></trkpt>
        <trkpt lat="28.275145" lon="105.041152"><ele>645.4353</ele><time>2026-05-05T23:52:53.000Z</time></trkpt>
        <trkpt lat="28.27516" lon="105.041203"><ele>644.42786</ele><time>2026-05-05T23:53:00.000Z</time></trkpt>
        <trkpt lat="28.275168" lon="105.041255"><ele>642.85114</ele><time>2026-05-05T23:53:05.000Z</time></trkpt>
        <trkpt lat="28.27519" lon="105.04131"><ele>641.6328</ele><time>2026-05-05T23:53:12.000Z</time></trkpt>
        <trkpt lat="28.275214" lon="105.04136"><ele>639.9408</ele><time>2026-05-05T23:53:18.000Z</time></trkpt>
        <trkpt lat="28.27523" lon="105.041409"><ele>639.075</ele><time>2026-05-05T23:53:22.000Z</time></trkpt>
        <trkpt lat="28.275245" lon="105.041468"><ele>638.02747</ele><time>2026-05-05T23:53:29.000Z</time></trkpt>
        <trkpt lat="28.275263" lon="105.041518"><ele>637.0311</ele><time>2026-05-05T23:53:35.000Z</time></trkpt>
        <trkpt lat="28.275274" lon="105.041576"><ele>635.4511</ele><time>2026-05-05T23:53:42.000Z</time></trkpt>
        <trkpt lat="28.27528" lon="105.041627"><ele>636.0762</ele><time>2026-05-05T23:53:47.000Z</time></trkpt>
        <trkpt lat="28.275303" lon="105.041671"><ele>635.5798</ele><time>2026-05-05T23:53:52.000Z</time></trkpt>
        <trkpt lat="28.27532" lon="105.041719"><ele>635.408</ele><time>2026-05-05T23:53:59.000Z</time></trkpt>
        <trkpt lat="28.275332" lon="105.04177"><ele>631.4812</ele><time>2026-05-05T23:54:11.000Z</time></trkpt>
        <trkpt lat="28.275348" lon="105.041821"><ele>630.8515</ele><time>2026-05-05T23:54:26.000Z</time></trkpt>
        <trkpt lat="28.275341" lon="105.041876"><ele>631.29193</ele><time>2026-05-05T23:54:53.000Z</time></trkpt>
        <trkpt lat="28.275369" lon="105.041923"><ele>630.7809</ele><time>2026-05-05T23:55:02.000Z</time></trkpt>
        <trkpt lat="28.275387" lon="105.041972"><ele>630.88763</ele><time>2026-05-05T23:55:09.000Z</time></trkpt>
        <trkpt lat="28.275401" lon="105.042033"><ele>631.54614</ele><time>2026-05-05T23:55:15.000Z</time></trkpt>
        <trkpt lat="28.275366" lon="105.042069"><ele>628.8466</ele><time>2026-05-05T23:55:25.000Z</time></trkpt>
        <trkpt lat="28.275319" lon="105.042054"><ele>628.21765</ele><time>2026-05-05T23:55:33.000Z</time></trkpt>
        <trkpt lat="28.275281" lon="105.04202"><ele>626.9258</ele><time>2026-05-05T23:55:39.000Z</time></trkpt>
        <trkpt lat="28.275241" lon="105.041993"><ele>626.4008</ele><time>2026-05-05T23:55:44.000Z</time></trkpt>
        <trkpt lat="28.275197" lon="105.041972"><ele>625.87146</ele><time>2026-05-05T23:55:50.000Z</time></trkpt>
        <trkpt lat="28.275154" lon="105.041945"><ele>625.57294</ele><time>2026-05-05T23:55:56.000Z</time></trkpt>
        <trkpt lat="28.275105" lon="105.041918"><ele>625.18475</ele><time>2026-05-05T23:56:03.000Z</time></trkpt>
        <trkpt lat="28.275065" lon="105.041888"><ele>625.6429</ele><time>2026-05-05T23:56:08.000Z</time></trkpt>
        <trkpt lat="28.275022" lon="105.04186"><ele>626.9032</ele><time>2026-05-05T23:56:14.000Z</time></trkpt>
        <trkpt lat="28.27498" lon="105.041834"><ele>627.28516</ele><time>2026-05-05T23:56:20.000Z</time></trkpt>
        <trkpt lat="28.274937" lon="105.041805"><ele>626.7173</ele><time>2026-05-05T23:56:28.000Z</time></trkpt>
        <trkpt lat="28.274889" lon="105.041818"><ele>627.5055</ele><time>2026-05-05T23:56:41.000Z</time></trkpt>
        <trkpt lat="28.274863" lon="105.04186"><ele>629.93524</ele><time>2026-05-05T23:56:58.000Z</time></trkpt>
        <trkpt lat="28.274821" lon="105.041882"><ele>631.9167</ele><time>2026-05-05T23:57:18.000Z</time></trkpt>
        <trkpt lat="28.274798" lon="105.041837"><ele>631.05774</ele><time>2026-05-05T23:59:34.000Z</time></trkpt>
        <trkpt lat="28.274754" lon="105.041857"><ele>632.88525</ele><time>2026-05-05T23:59:49.000Z</time></trkpt>
        <trkpt lat="28.27471" lon="105.041874"><ele>635.6885</ele><time>2026-05-06T00:00:03.000Z</time></trkpt>
        <trkpt lat="28.274664" lon="105.04187"><ele>636.8291</ele><time>2026-05-06T00:00:29.000Z</time></trkpt>
        <trkpt lat="28.27465" lon="105.041924"><ele>638.1692</ele><time>2026-05-06T00:01:41.000Z</time></trkpt>
        <trkpt lat="28.274652" lon="105.041982"><ele>637.54675</ele><time>2026-05-06T00:02:07.000Z</time></trkpt>
        <trkpt lat="28.27465" lon="105.042034"><ele>635.1219</ele><time>2026-05-06T00:02:16.000Z</time></trkpt>
        <trkpt lat="28.27468" lon="105.042083"><ele>632.93304</ele><time>2026-05-06T00:02:34.000Z</time></trkpt>
        <trkpt lat="28.274691" lon="105.042138"><ele>632.984</ele><time>2026-05-06T00:02:51.000Z</time></trkpt>
        <trkpt lat="28.274689" lon="105.042194"><ele>632.6781</ele><time>2026-05-06T00:03:00.000Z</time></trkpt>
        <trkpt lat="28.274672" lon="105.042241"><ele>631.9267</ele><time>2026-05-06T00:03:22.000Z</time></trkpt>
        <trkpt lat="28.274643" lon="105.042281"><ele>635.2387</ele><time>2026-05-06T00:03:46.000Z</time></trkpt>
        <trkpt lat="28.274602" lon="105.042314"><ele>637.7539</ele><time>2026-05-06T00:03:56.000Z</time></trkpt>
        <trkpt lat="28.274565" lon="105.042348"><ele>645.0308</ele><time>2026-05-06T00:04:08.000Z</time></trkpt>
        <trkpt lat="28.274614" lon="105.042347"><ele>643.35236</ele><time>2026-05-06T00:05:05.000Z</time></trkpt>
        <trkpt lat="28.274584" lon="105.042282"><ele>639.14703</ele><time>2026-05-06T00:06:23.000Z</time></trkpt>
        <trkpt lat="28.27463" lon="105.042288"><ele>647.571</ele><time>2026-05-06T00:08:10.000Z</time></trkpt>
        <trkpt lat="28.274679" lon="105.042289"><ele>639.5939</ele><time>2026-05-06T00:08:35.000Z</time></trkpt>
        <trkpt lat="28.274724" lon="105.042305"><ele>639.3855</ele><time>2026-05-06T00:08:44.000Z</time></trkpt>
        <trkpt lat="28.274759" lon="105.04234"><ele>636.69904</ele><time>2026-05-06T00:08:53.000Z</time></trkpt>
        <trkpt lat="28.274802" lon="105.042383"><ele>631.0541</ele><time>2026-05-06T00:09:20.000Z</time></trkpt>
        <trkpt lat="28.274844" lon="105.042414"><ele>631.3411</ele><time>2026-05-06T00:09:33.000Z</time></trkpt>
        <trkpt lat="28.274902" lon="105.042401"><ele>628.81506</ele><time>2026-05-06T00:09:49.000Z</time></trkpt>
        <trkpt lat="28.274914" lon="105.04245"><ele>629.73047</ele><time>2026-05-06T00:09:55.000Z</time></trkpt>
        <trkpt lat="28.274913" lon="105.042502"><ele>629.0878</ele><time>2026-05-06T00:10:02.000Z</time></trkpt>
        <trkpt lat="28.274912" lon="105.042554"><ele>629.9957</ele><time>2026-05-06T00:10:12.000Z</time></trkpt>
        <trkpt lat="28.274933" lon="105.042506"><ele>630.0692</ele><time>2026-05-06T00:10:33.000Z</time></trkpt>
        <trkpt lat="28.27493" lon="105.042449"><ele>631.34296</ele><time>2026-05-06T00:10:40.000Z</time></trkpt>
        <trkpt lat="28.274939" lon="105.04238"><ele>630.9065</ele><time>2026-05-06T00:10:47.000Z</time></trkpt>
        <trkpt lat="28.274959" lon="105.042331"><ele>630.3363</ele><time>2026-05-06T00:10:53.000Z</time></trkpt>
        <trkpt lat="28.274997" lon="105.042293"><ele>629.9334</ele><time>2026-05-06T00:11:01.000Z</time></trkpt>
        <trkpt lat="28.275041" lon="105.04232"><ele>626.4419</ele><time>2026-05-06T00:11:34.000Z</time></trkpt>
        <trkpt lat="28.275016" lon="105.042376"><ele>623.29395</ele><time>2026-05-06T00:12:50.000Z</time></trkpt>
        <trkpt lat="28.274996" lon="105.042429"><ele>623.9919</ele><time>2026-05-06T00:12:57.000Z</time></trkpt>
        <trkpt lat="28.274979" lon="105.042476"><ele>624.9917</ele><time>2026-05-06T00:13:02.000Z</time></trkpt>
        <trkpt lat="28.274969" lon="105.042531"><ele>625.3874</ele><time>2026-05-06T00:13:08.000Z</time></trkpt>
        <trkpt lat="28.274964" lon="105.042586"><ele>626.9095</ele><time>2026-05-06T00:13:13.000Z</time></trkpt>
        <trkpt lat="28.274951" lon="105.04264"><ele>627.1579</ele><time>2026-05-06T00:13:18.000Z</time></trkpt>
        <trkpt lat="28.274932" lon="105.042687"><ele>627.972</ele><time>2026-05-06T00:13:22.000Z</time></trkpt>
        <trkpt lat="28.274912" lon="105.04274"><ele>627.88806</ele><time>2026-05-06T00:13:27.000Z</time></trkpt>
        <trkpt lat="28.274887" lon="105.042789"><ele>628.9747</ele><time>2026-05-06T00:13:32.000Z</time></trkpt>
        <trkpt lat="28.274863" lon="105.042839"><ele>629.2626</ele><time>2026-05-06T00:13:37.000Z</time></trkpt>
        <trkpt lat="28.27483" lon="105.042884"><ele>630.69507</ele><time>2026-05-06T00:13:42.000Z</time></trkpt>
        <trkpt lat="28.274813" lon="105.042935"><ele>631.32336</ele><time>2026-05-06T00:13:46.000Z</time></trkpt>
        <trkpt lat="28.274786" lon="105.042991"><ele>632.6293</ele><time>2026-05-06T00:13:52.000Z</time></trkpt>
        <trkpt lat="28.274753" lon="105.043037"><ele>633.6441</ele><time>2026-05-06T00:13:58.000Z</time></trkpt>
        <trkpt lat="28.274719" lon="105.043088"><ele>634.4978</ele><time>2026-05-06T00:14:02.000Z</time></trkpt>
        <trkpt lat="28.27469" lon="105.043127"><ele>636.36816</ele><time>2026-05-06T00:14:07.000Z</time></trkpt>
        <trkpt lat="28.274662" lon="105.043173"><ele>638.2795</ele><time>2026-05-06T00:14:13.000Z</time></trkpt>
        <trkpt lat="28.27463" lon="105.043213"><ele>639.47736</ele><time>2026-05-06T00:14:18.000Z</time></trkpt>
        <trkpt lat="28.2746" lon="105.043252"><ele>640.23883</ele><time>2026-05-06T00:14:23.000Z</time></trkpt>
        <trkpt lat="28.274567" lon="105.043293"><ele>640.9913</ele><time>2026-05-06T00:14:29.000Z</time></trkpt>
        <trkpt lat="28.274532" lon="105.043334"><ele>641.8783</ele><time>2026-05-06T00:14:34.000Z</time></trkpt>
        <trkpt lat="28.274493" lon="105.043367"><ele>643.0599</ele><time>2026-05-06T00:14:39.000Z</time></trkpt>
        <trkpt lat="28.274445" lon="105.043401"><ele>643.62616</ele><time>2026-05-06T00:14:44.000Z</time></trkpt>
        <trkpt lat="28.274407" lon="105.043431"><ele>644.7927</ele><time>2026-05-06T00:14:49.000Z</time></trkpt>
        <trkpt lat="28.274362" lon="105.043443"><ele>645.10315</ele><time>2026-05-06T00:14:53.000Z</time></trkpt>
        <trkpt lat="28.274315" lon="105.04347"><ele>645.2965</ele><time>2026-05-06T00:14:58.000Z</time></trkpt>
        <trkpt lat="28.274268" lon="105.043468"><ele>644.8889</ele><time>2026-05-06T00:15:03.000Z</time></trkpt>
        <trkpt lat="28.27422" lon="105.04346"><ele>644.3946</ele><time>2026-05-06T00:15:07.000Z</time></trkpt>
        <trkpt lat="28.27417" lon="105.043463"><ele>644.4434</ele><time>2026-05-06T00:15:12.000Z</time></trkpt>
        <trkpt lat="28.274125" lon="105.043459"><ele>643.8315</ele><time>2026-05-06T00:15:17.000Z</time></trkpt>
        <trkpt lat="28.274078" lon="105.043453"><ele>644.0803</ele><time>2026-05-06T00:15:22.000Z</time></trkpt>
        <trkpt lat="28.274036" lon="105.043423"><ele>643.78217</ele><time>2026-05-06T00:15:27.000Z</time></trkpt>
        <trkpt lat="28.273991" lon="105.043393"><ele>643.1145</ele><time>2026-05-06T00:15:32.000Z</time></trkpt>
        <trkpt lat="28.273955" lon="105.043359"><ele>643.121</ele><time>2026-05-06T00:15:37.000Z</time></trkpt>
        <trkpt lat="28.273917" lon="105.043319"><ele>643.55743</ele><time>2026-05-06T00:15:42.000Z</time></trkpt>
        <trkpt lat="28.273881" lon="105.043282"><ele>643.537</ele><time>2026-05-06T00:15:47.000Z</time></trkpt>
        <trkpt lat="28.273842" lon="105.043239"><ele>643.07605</ele><time>2026-05-06T00:15:52.000Z</time></trkpt>
        <trkpt lat="28.273808" lon="105.043189"><ele>644.36316</ele><time>2026-05-06T00:15:57.000Z</time></trkpt>
        <trkpt lat="28.273777" lon="105.043144"><ele>644.20557</ele><time>2026-05-06T00:16:02.000Z</time></trkpt>
        <trkpt lat="28.273746" lon="105.043107"><ele>643.9936</ele><time>2026-05-06T00:16:07.000Z</time></trkpt>
        <trkpt lat="28.27371" lon="105.043069"><ele>644.11755</ele><time>2026-05-06T00:16:13.000Z</time></trkpt>
        <trkpt lat="28.27367" lon="105.043035"><ele>642.9038</ele><time>2026-05-06T00:16:21.000Z</time></trkpt>
        <trkpt lat="28.273623" lon="105.043012"><ele>644.3693</ele><time>2026-05-06T00:16:32.000Z</time></trkpt>
        <trkpt lat="28.273574" lon="105.043024"><ele>645.81635</ele><time>2026-05-06T00:16:43.000Z</time></trkpt>
        <trkpt lat="28.273528" lon="105.043041"><ele>647.226</ele><time>2026-05-06T00:16:51.000Z</time></trkpt>
        <trkpt lat="28.273484" lon="105.04308"><ele>647.82446</ele><time>2026-05-06T00:16:58.000Z</time></trkpt>
        <trkpt lat="28.273463" lon="105.043125"><ele>648.70685</ele><time>2026-05-06T00:17:06.000Z</time></trkpt>
        <trkpt lat="28.273444" lon="105.043175"><ele>647.72266</ele><time>2026-05-06T00:17:12.000Z</time></trkpt>
        <trkpt lat="28.273423" lon="105.043226"><ele>646.30695</ele><time>2026-05-06T00:17:18.000Z</time></trkpt>
        <trkpt lat="28.273411" lon="105.043294"><ele>645.623</ele><time>2026-05-06T00:17:24.000Z</time></trkpt>
        <trkpt lat="28.273393" lon="105.043347"><ele>644.9248</ele><time>2026-05-06T00:17:29.000Z</time></trkpt>
        <trkpt lat="28.273369" lon="105.043395"><ele>644.6755</ele><time>2026-05-06T00:17:34.000Z</time></trkpt>
        <trkpt lat="28.273348" lon="105.043449"><ele>643.30664</ele><time>2026-05-06T00:17:39.000Z</time></trkpt>
        <trkpt lat="28.273325" lon="105.043501"><ele>642.57983</ele><time>2026-05-06T00:17:43.000Z</time></trkpt>
        <trkpt lat="28.273305" lon="105.043557"><ele>641.4559</ele><time>2026-05-06T00:17:48.000Z</time></trkpt>
        <trkpt lat="28.273283" lon="105.04361"><ele>641.5365</ele><time>2026-05-06T00:17:53.000Z</time></trkpt>
        <trkpt lat="28.273259" lon="105.043662"><ele>640.99347</ele><time>2026-05-06T00:17:58.000Z</time></trkpt>
        <trkpt lat="28.273242" lon="105.043714"><ele>640.9226</ele><time>2026-05-06T00:18:03.000Z</time></trkpt>
        <trkpt lat="28.273216" lon="105.043762"><ele>640.27484</ele><time>2026-05-06T00:18:08.000Z</time></trkpt>
        <trkpt lat="28.273187" lon="105.043807"><ele>639.5499</ele><time>2026-05-06T00:18:13.000Z</time></trkpt>
        <trkpt lat="28.273168" lon="105.043865"><ele>640.1456</ele><time>2026-05-06T00:18:18.000Z</time></trkpt>
        <trkpt lat="28.273142" lon="105.043911"><ele>639.2308</ele><time>2026-05-06T00:18:23.000Z</time></trkpt>
        <trkpt lat="28.273107" lon="105.043952"><ele>638.60547</ele><time>2026-05-06T00:18:27.000Z</time></trkpt>
        <trkpt lat="28.273063" lon="105.043974"><ele>638.7299</ele><time>2026-05-06T00:18:32.000Z</time></trkpt>
        <trkpt lat="28.273015" lon="105.044005"><ele>639.0975</ele><time>2026-05-06T00:18:37.000Z</time></trkpt>
        <trkpt lat="28.272965" lon="105.044013"><ele>638.53723</ele><time>2026-05-06T00:18:42.000Z</time></trkpt>
        <trkpt lat="28.272917" lon="105.044019"><ele>638.8904</ele><time>2026-05-06T00:18:47.000Z</time></trkpt>
        <trkpt lat="28.272865" lon="105.044024"><ele>639.4103</ele><time>2026-05-06T00:18:52.000Z</time></trkpt>
        <trkpt lat="28.272815" lon="105.044015"><ele>639.4924</ele><time>2026-05-06T00:18:57.000Z</time></trkpt>
        <trkpt lat="28.272767" lon="105.043998"><ele>642.05725</ele><time>2026-05-06T00:19:02.000Z</time></trkpt>
        <trkpt lat="28.272719" lon="105.043976"><ele>641.9186</ele><time>2026-05-06T00:19:08.000Z</time></trkpt>
        <trkpt lat="28.272677" lon="105.043952"><ele>641.7817</ele><time>2026-05-06T00:19:13.000Z</time></trkpt>
        <trkpt lat="28.272628" lon="105.043943"><ele>642.8967</ele><time>2026-05-06T00:19:19.000Z</time></trkpt>
        <trkpt lat="28.272578" lon="105.043929"><ele>642.2664</ele><time>2026-05-06T00:19:25.000Z</time></trkpt>
        <trkpt lat="28.272529" lon="105.043913"><ele>643.15594</ele><time>2026-05-06T00:19:31.000Z</time></trkpt>
        <trkpt lat="28.272483" lon="105.043914"><ele>644.6824</ele><time>2026-05-06T00:19:36.000Z</time></trkpt>
        <trkpt lat="28.272441" lon="105.043937"><ele>644.978</ele><time>2026-05-06T00:19:42.000Z</time></trkpt>
        <trkpt lat="28.272401" lon="105.043971"><ele>644.43964</ele><time>2026-05-06T00:19:48.000Z</time></trkpt>
        <trkpt lat="28.27237" lon="105.044011"><ele>644.48956</ele><time>2026-05-06T00:19:54.000Z</time></trkpt>
        <trkpt lat="28.272346" lon="105.04406"><ele>644.33795</ele><time>2026-05-06T00:19:59.000Z</time></trkpt>
        <trkpt lat="28.272313" lon="105.044101"><ele>642.77435</ele><time>2026-05-06T00:20:05.000Z</time></trkpt>
        <trkpt lat="28.272285" lon="105.044145"><ele>642.50226</ele><time>2026-05-06T00:20:11.000Z</time></trkpt>
        <trkpt lat="28.27226" lon="105.044192"><ele>642.272</ele><time>2026-05-06T00:20:17.000Z</time></trkpt>
        <trkpt lat="28.272224" lon="105.044236"><ele>643.0703</ele><time>2026-05-06T00:20:23.000Z</time></trkpt>
        <trkpt lat="28.272193" lon="105.044281"><ele>643.2694</ele><time>2026-05-06T00:20:27.000Z</time></trkpt>
        <trkpt lat="28.272146" lon="105.044315"><ele>643.10175</ele><time>2026-05-06T00:20:31.000Z</time></trkpt>
        <trkpt lat="28.2721" lon="105.044334"><ele>642.1704</ele><time>2026-05-06T00:20:35.000Z</time></trkpt>
        <trkpt lat="28.27206" lon="105.044361"><ele>641.70276</ele><time>2026-05-06T00:20:39.000Z</time></trkpt>
        <trkpt lat="28.272018" lon="105.044395"><ele>642.8525</ele><time>2026-05-06T00:20:44.000Z</time></trkpt>
        <trkpt lat="28.271968" lon="105.044411"><ele>643.4282</ele><time>2026-05-06T00:20:49.000Z</time></trkpt>
        <trkpt lat="28.271923" lon="105.044429"><ele>644.3783</ele><time>2026-05-06T00:20:54.000Z</time></trkpt>
        <trkpt lat="28.271876" lon="105.044451"><ele>644.86395</ele><time>2026-05-06T00:21:00.000Z</time></trkpt>
        <trkpt lat="28.271826" lon="105.04446"><ele>644.6098</ele><time>2026-05-06T00:21:05.000Z</time></trkpt>
        <trkpt lat="28.271787" lon="105.04449"><ele>644.9571</ele><time>2026-05-06T00:21:09.000Z</time></trkpt>
        <trkpt lat="28.27174" lon="105.044518"><ele>645.84814</ele><time>2026-05-06T00:21:15.000Z</time></trkpt>
        <trkpt lat="28.271698" lon="105.044541"><ele>647.6595</ele><time>2026-05-06T00:21:20.000Z</time></trkpt>
        <trkpt lat="28.271673" lon="105.044595"><ele>650.22955</ele><time>2026-05-06T00:21:27.000Z</time></trkpt>
        <trkpt lat="28.271649" lon="105.044651"><ele>650.3119</ele><time>2026-05-06T00:21:33.000Z</time></trkpt>
        <trkpt lat="28.271638" lon="105.044706"><ele>650.46234</ele><time>2026-05-06T00:21:38.000Z</time></trkpt>
        <trkpt lat="28.271622" lon="105.044756"><ele>648.8054</ele><time>2026-05-06T00:21:43.000Z</time></trkpt>
        <trkpt lat="28.271608" lon="105.044814"><ele>648.0246</ele><time>2026-05-06T00:21:48.000Z</time></trkpt>
        <trkpt lat="28.271582" lon="105.044867"><ele>646.74554</ele><time>2026-05-06T00:21:53.000Z</time></trkpt>
        <trkpt lat="28.271566" lon="105.044934"><ele>646.9934</ele><time>2026-05-06T00:21:58.000Z</time></trkpt>
        <trkpt lat="28.271547" lon="105.044986"><ele>646.89014</ele><time>2026-05-06T00:22:03.000Z</time></trkpt>
        <trkpt lat="28.27153" lon="105.045035"><ele>646.1677</ele><time>2026-05-06T00:22:07.000Z</time></trkpt>
        <trkpt lat="28.271507" lon="105.045091"><ele>645.9895</ele><time>2026-05-06T00:22:12.000Z</time></trkpt>
        <trkpt lat="28.271476" lon="105.04514"><ele>645.49786</ele><time>2026-05-06T00:22:17.000Z</time></trkpt>
        <trkpt lat="28.27145" lon="105.045189"><ele>645.66254</ele><time>2026-05-06T00:22:21.000Z</time></trkpt>
        <trkpt lat="28.271416" lon="105.045233"><ele>646.58655</ele><time>2026-05-06T00:22:26.000Z</time></trkpt>
        <trkpt lat="28.271386" lon="105.045271"><ele>646.44336</ele><time>2026-05-06T00:22:30.000Z</time></trkpt>
        <trkpt lat="28.271358" lon="105.045314"><ele>647.3016</ele><time>2026-05-06T00:22:34.000Z</time></trkpt>
        <trkpt lat="28.271319" lon="105.045355"><ele>647.17224</ele><time>2026-05-06T00:22:39.000Z</time></trkpt>
        <trkpt lat="28.271278" lon="105.045387"><ele>647.3079</ele><time>2026-05-06T00:22:43.000Z</time></trkpt>
        <trkpt lat="28.271227" lon="105.045412"><ele>647.5239</ele><time>2026-05-06T00:22:48.000Z</time></trkpt>
        <trkpt lat="28.271177" lon="105.045428"><ele>647.3587</ele><time>2026-05-06T00:22:53.000Z</time></trkpt>
        <trkpt lat="28.271124" lon="105.045444"><ele>647.73517</ele><time>2026-05-06T00:22:59.000Z</time></trkpt>
        <trkpt lat="28.271071" lon="105.045439"><ele>648.4368</ele><time>2026-05-06T00:23:04.000Z</time></trkpt>
        <trkpt lat="28.27102" lon="105.045429"><ele>649.177</ele><time>2026-05-06T00:23:09.000Z</time></trkpt>
        <trkpt lat="28.270976" lon="105.045416"><ele>648.4059</ele><time>2026-05-06T00:23:13.000Z</time></trkpt>
        <trkpt lat="28.270934" lon="105.045391"><ele>648.9207</ele><time>2026-05-06T00:23:18.000Z</time></trkpt>
        <trkpt lat="28.270892" lon="105.045361"><ele>649.7672</ele><time>2026-05-06T00:23:22.000Z</time></trkpt>
        <trkpt lat="28.270843" lon="105.045341"><ele>650.11597</ele><time>2026-05-06T00:23:28.000Z</time></trkpt>
        <trkpt lat="28.270804" lon="105.045307"><ele>650.2383</ele><time>2026-05-06T00:23:32.000Z</time></trkpt>
        <trkpt lat="28.270756" lon="105.045306"><ele>651.6906</ele><time>2026-05-06T00:23:37.000Z</time></trkpt>
        <trkpt lat="28.270703" lon="105.045304"><ele>652.77954</ele><time>2026-05-06T00:23:43.000Z</time></trkpt>
        <trkpt lat="28.270659" lon="105.045316"><ele>653.0029</ele><time>2026-05-06T00:23:48.000Z</time></trkpt>
        <trkpt lat="28.270627" lon="105.045359"><ele>653.7685</ele><time>2026-05-06T00:23:57.000Z</time></trkpt>
        <trkpt lat="28.270608" lon="105.04542"><ele>654.2814</ele><time>2026-05-06T00:24:05.000Z</time></trkpt>
        <trkpt lat="28.270585" lon="105.045465"><ele>652.2546</ele><time>2026-05-06T00:24:11.000Z</time></trkpt>
        <trkpt lat="28.270563" lon="105.045511"><ele>650.78174</ele><time>2026-05-06T00:24:15.000Z</time></trkpt>
        <trkpt lat="28.270535" lon="105.045553"><ele>651.45703</ele><time>2026-05-06T00:24:19.000Z</time></trkpt>
        <trkpt lat="28.270515" lon="105.045601"><ele>651.5011</ele><time>2026-05-06T00:24:22.000Z</time></trkpt>
        <trkpt lat="28.270483" lon="105.045648"><ele>650.8508</ele><time>2026-05-06T00:24:27.000Z</time></trkpt>
        <trkpt lat="28.270454" lon="105.045705"><ele>650.2321</ele><time>2026-05-06T00:24:32.000Z</time></trkpt>
        <trkpt lat="28.270439" lon="105.04576"><ele>647.9925</ele><time>2026-05-06T00:24:38.000Z</time></trkpt>
        <trkpt lat="28.270412" lon="105.045806"><ele>646.8909</ele><time>2026-05-06T00:24:43.000Z</time></trkpt>
        <trkpt lat="28.270376" lon="105.045847"><ele>645.41895</ele><time>2026-05-06T00:24:48.000Z</time></trkpt>
        <trkpt lat="28.27035" lon="105.045891"><ele>645.3102</ele><time>2026-05-06T00:24:51.000Z</time></trkpt>
        <trkpt lat="28.27032" lon="105.045931"><ele>646.1755</ele><time>2026-05-06T00:24:55.000Z</time></trkpt>
        <trkpt lat="28.270285" lon="105.045973"><ele>646.5747</ele><time>2026-05-06T00:24:59.000Z</time></trkpt>
        <trkpt lat="28.270251" lon="105.046016"><ele>647.3553</ele><time>2026-05-06T00:25:03.000Z</time></trkpt>
        <trkpt lat="28.270203" lon="105.046047"><ele>646.2809</ele><time>2026-05-06T00:25:08.000Z</time></trkpt>
        <trkpt lat="28.270166" lon="105.046077"><ele>644.7754</ele><time>2026-05-06T00:25:12.000Z</time></trkpt>
        <trkpt lat="28.270124" lon="105.046098"><ele>644.77673</ele><time>2026-05-06T00:25:17.000Z</time></trkpt>
        <trkpt lat="28.270067" lon="105.046106"><ele>646.24976</ele><time>2026-05-06T00:25:22.000Z</time></trkpt>
        <trkpt lat="28.27001" lon="105.046101"><ele>645.0045</ele><time>2026-05-06T00:25:27.000Z</time></trkpt>
        <trkpt lat="28.269958" lon="105.04609"><ele>646.79553</ele><time>2026-05-06T00:25:31.000Z</time></trkpt>
        <trkpt lat="28.269913" lon="105.046092"><ele>645.2398</ele><time>2026-05-06T00:25:35.000Z</time></trkpt>
        <trkpt lat="28.269866" lon="105.046111"><ele>643.3143</ele><time>2026-05-06T00:25:41.000Z</time></trkpt>
        <trkpt lat="28.269815" lon="105.046139"><ele>644.3859</ele><time>2026-05-06T00:25:45.000Z</time></trkpt>
        <trkpt lat="28.269777" lon="105.046187"><ele>643.854</ele><time>2026-05-06T00:25:51.000Z</time></trkpt>
        <trkpt lat="28.26974" lon="105.046248"><ele>643.90735</ele><time>2026-05-06T00:25:58.000Z</time></trkpt>
        <trkpt lat="28.269711" lon="105.046299"><ele>644.04425</ele><time>2026-05-06T00:26:05.000Z</time></trkpt>
        <trkpt lat="28.269676" lon="105.046332"><ele>643.2504</ele><time>2026-05-06T00:26:10.000Z</time></trkpt>
        <trkpt lat="28.269634" lon="105.046356"><ele>643.4863</ele><time>2026-05-06T00:26:15.000Z</time></trkpt>
        <trkpt lat="28.269588" lon="105.046377"><ele>643.3344</ele><time>2026-05-06T00:26:21.000Z</time></trkpt>
        <trkpt lat="28.269539" lon="105.046395"><ele>645.3027</ele><time>2026-05-06T00:26:27.000Z</time></trkpt>
        <trkpt lat="28.269494" lon="105.046401"><ele>646.282</ele><time>2026-05-06T00:26:32.000Z</time></trkpt>
        <trkpt lat="28.26944" lon="105.046419"><ele>644.782</ele><time>2026-05-06T00:26:37.000Z</time></trkpt>
        <trkpt lat="28.269399" lon="105.046454"><ele>645.44714</ele><time>2026-05-06T00:26:41.000Z</time></trkpt>
        <trkpt lat="28.269377" lon="105.046508"><ele>643.73193</ele><time>2026-05-06T00:26:46.000Z</time></trkpt>
        <trkpt lat="28.269381" lon="105.046565"><ele>643.77985</ele><time>2026-05-06T00:26:50.000Z</time></trkpt>
        <trkpt lat="28.269372" lon="105.046615"><ele>642.85</ele><time>2026-05-06T00:26:54.000Z</time></trkpt>
        <trkpt lat="28.26935" lon="105.046668"><ele>642.74677</ele><time>2026-05-06T00:26:59.000Z</time></trkpt>
        <trkpt lat="28.269319" lon="105.046706"><ele>642.6971</ele><time>2026-05-06T00:27:03.000Z</time></trkpt>
        <trkpt lat="28.269279" lon="105.046732"><ele>641.6628</ele><time>2026-05-06T00:27:08.000Z</time></trkpt>
        <trkpt lat="28.26923" lon="105.046744"><ele>641.6078</ele><time>2026-05-06T00:27:14.000Z</time></trkpt>
        <trkpt lat="28.26918" lon="105.046756"><ele>641.28564</ele><time>2026-05-06T00:27:19.000Z</time></trkpt>
        <trkpt lat="28.269151" lon="105.0468"><ele>639.708</ele><time>2026-05-06T00:27:25.000Z</time></trkpt>
        <trkpt lat="28.269149" lon="105.046858"><ele>640.2111</ele><time>2026-05-06T00:27:30.000Z</time></trkpt>
        <trkpt lat="28.269157" lon="105.046923"><ele>639.8818</ele><time>2026-05-06T00:27:35.000Z</time></trkpt>
        <trkpt lat="28.269183" lon="105.04697"><ele>639.7812</ele><time>2026-05-06T00:27:40.000Z</time></trkpt>
        <trkpt lat="28.269222" lon="105.047005"><ele>640.0265</ele><time>2026-05-06T00:27:46.000Z</time></trkpt>
        <trkpt lat="28.26927" lon="105.047012"><ele>640.4864</ele><time>2026-05-06T00:27:53.000Z</time></trkpt>
        <trkpt lat="28.269319" lon="105.047"><ele>640.10675</ele><time>2026-05-06T00:28:31.000Z</time></trkpt>
        <trkpt lat="28.269365" lon="105.046974"><ele>638.2574</ele><time>2026-05-06T00:28:41.000Z</time></trkpt>
        <trkpt lat="28.26941" lon="105.046961"><ele>637.6157</ele><time>2026-05-06T00:28:49.000Z</time></trkpt>
        <trkpt lat="28.269455" lon="105.046939"><ele>637.02905</ele><time>2026-05-06T00:28:56.000Z</time></trkpt>
        <trkpt lat="28.269495" lon="105.046911"><ele>636.94257</ele><time>2026-05-06T00:29:02.000Z</time></trkpt>
        <trkpt lat="28.269541" lon="105.046874"><ele>635.7341</ele><time>2026-05-06T00:29:10.000Z</time></trkpt>
        <trkpt lat="28.26959" lon="105.046867"><ele>635.7385</ele><time>2026-05-06T00:29:16.000Z</time></trkpt>
        <trkpt lat="28.269645" lon="105.046867"><ele>635.03876</ele><time>2026-05-06T00:29:22.000Z</time></trkpt>
        <trkpt lat="28.269689" lon="105.046886"><ele>635.58563</ele><time>2026-05-06T00:29:30.000Z</time></trkpt>
        <trkpt lat="28.269727" lon="105.046918"><ele>636.76843</ele><time>2026-05-06T00:29:35.000Z</time></trkpt>
        <trkpt lat="28.269752" lon="105.04697"><ele>636.6661</ele><time>2026-05-06T00:29:42.000Z</time></trkpt>
        <trkpt lat="28.269798" lon="105.046991"><ele>638.4195</ele><time>2026-05-06T00:29:50.000Z</time></trkpt>
        <trkpt lat="28.269849" lon="105.046973"><ele>638.26605</ele><time>2026-05-06T00:29:57.000Z</time></trkpt>
        <trkpt lat="28.269887" lon="105.046935"><ele>638.1011</ele><time>2026-05-06T00:30:01.000Z</time></trkpt>
        <trkpt lat="28.269914" lon="105.046878"><ele>638.58435</ele><time>2026-05-06T00:30:09.000Z</time></trkpt>
        <trkpt lat="28.269941" lon="105.046836"><ele>638.90533</ele><time>2026-05-06T00:30:15.000Z</time></trkpt>
        <trkpt lat="28.269993" lon="105.04683"><ele>639.743</ele><time>2026-05-06T00:30:22.000Z</time></trkpt>
        <trkpt lat="28.270039" lon="105.046821"><ele>636.45435</ele><time>2026-05-06T00:30:31.000Z</time></trkpt>
        <trkpt lat="28.270084" lon="105.04684"><ele>634.66876</ele><time>2026-05-06T00:30:47.000Z</time></trkpt>
        <trkpt lat="28.27014" lon="105.046869"><ele>634.31006</ele><time>2026-05-06T00:30:53.000Z</time></trkpt>
        <trkpt lat="28.27018" lon="105.046907"><ele>634.65643</ele><time>2026-05-06T00:30:58.000Z</time></trkpt>
        <trkpt lat="28.270216" lon="105.04694"><ele>634.1114</ele><time>2026-05-06T00:31:03.000Z</time></trkpt>
        <trkpt lat="28.270266" lon="105.046953"><ele>633.7463</ele><time>2026-05-06T00:31:08.000Z</time></trkpt>
        <trkpt lat="28.270306" lon="105.046984"><ele>635.0849</ele><time>2026-05-06T00:31:13.000Z</time></trkpt>
        <trkpt lat="28.270348" lon="105.047014"><ele>635.6447</ele><time>2026-05-06T00:31:18.000Z</time></trkpt>
        <trkpt lat="28.270385" lon="105.047044"><ele>635.39307</ele><time>2026-05-06T00:31:22.000Z</time></trkpt>
        <trkpt lat="28.270433" lon="105.047051"><ele>634.8039</ele><time>2026-05-06T00:31:27.000Z</time></trkpt>
        <trkpt lat="28.270479" lon="105.047059"><ele>633.44073</ele><time>2026-05-06T00:31:33.000Z</time></trkpt>
        <trkpt lat="28.270521" lon="105.04703"><ele>631.3351</ele><time>2026-05-06T00:31:39.000Z</time></trkpt>
        <trkpt lat="28.270563" lon="105.047048"><ele>629.56995</ele><time>2026-05-06T00:31:46.000Z</time></trkpt>
        <trkpt lat="28.270614" lon="105.047047"><ele>630.74286</ele><time>2026-05-06T00:31:53.000Z</time></trkpt>
        <trkpt lat="28.270663" lon="105.047053"><ele>628.8228</ele><time>2026-05-06T00:32:00.000Z</time></trkpt>
        <trkpt lat="28.270698" lon="105.047087"><ele>628.68225</ele><time>2026-05-06T00:32:04.000Z</time></trkpt>
        <trkpt lat="28.270741" lon="105.047108"><ele>629.6837</ele><time>2026-05-06T00:32:12.000Z</time></trkpt>
        <trkpt lat="28.270783" lon="105.047133"><ele>630.9262</ele><time>2026-05-06T00:32:19.000Z</time></trkpt>
        <trkpt lat="28.270818" lon="105.047166"><ele>630.7723</ele><time>2026-05-06T00:32:24.000Z</time></trkpt>
        <trkpt lat="28.270848" lon="105.047205"><ele>630.6779</ele><time>2026-05-06T00:32:28.000Z</time></trkpt>
        <trkpt lat="28.270895" lon="105.047237"><ele>630.242</ele><time>2026-05-06T00:32:34.000Z</time></trkpt>
        <trkpt lat="28.27095" lon="105.047247"><ele>631.20264</ele><time>2026-05-06T00:32:38.000Z</time></trkpt>
        <trkpt lat="28.270998" lon="105.047231"><ele>631.7509</ele><time>2026-05-06T00:32:43.000Z</time></trkpt>
        <trkpt lat="28.271047" lon="105.047254"><ele>633.00757</ele><time>2026-05-06T00:32:49.000Z</time></trkpt>
        <trkpt lat="28.271096" lon="105.047284"><ele>632.6999</ele><time>2026-05-06T00:32:55.000Z</time></trkpt>
        <trkpt lat="28.271145" lon="105.047288"><ele>630.9824</ele><time>2026-05-06T00:33:01.000Z</time></trkpt>
        <trkpt lat="28.271192" lon="105.047293"><ele>632.7606</ele><time>2026-05-06T00:33:09.000Z</time></trkpt>
        <trkpt lat="28.271242" lon="105.047318"><ele>633.00366</ele><time>2026-05-06T00:33:16.000Z</time></trkpt>
        <trkpt lat="28.271287" lon="105.047332"><ele>633.9189</ele><time>2026-05-06T00:33:25.000Z</time></trkpt>
        <trkpt lat="28.271327" lon="105.047361"><ele>635.3637</ele><time>2026-05-06T00:33:38.000Z</time></trkpt>
        <trkpt lat="28.27138" lon="105.047375"><ele>634.64996</ele><time>2026-05-06T00:33:46.000Z</time></trkpt>
        <trkpt lat="28.271423" lon="105.047399"><ele>634.99255</ele><time>2026-05-06T00:33:52.000Z</time></trkpt>
        <trkpt lat="28.271469" lon="105.047411"><ele>637.03455</ele><time>2026-05-06T00:34:01.000Z</time></trkpt>
        <trkpt lat="28.271517" lon="105.047393"><ele>638.19745</ele><time>2026-05-06T00:34:10.000Z</time></trkpt>
        <trkpt lat="28.271523" lon="105.047335"><ele>637.65735</ele><time>2026-05-06T00:34:18.000Z</time></trkpt>
        <trkpt lat="28.271536" lon="105.047277"><ele>640.0934</ele><time>2026-05-06T00:34:24.000Z</time></trkpt>
        <trkpt lat="28.271559" lon="105.047228"><ele>642.43005</ele><time>2026-05-06T00:34:30.000Z</time></trkpt>
        <trkpt lat="28.271586" lon="105.047181"><ele>643.9079</ele><time>2026-05-06T00:34:37.000Z</time></trkpt>
        <trkpt lat="28.27161" lon="105.047128"><ele>643.19727</ele><time>2026-05-06T00:34:45.000Z</time></trkpt>
        <trkpt lat="28.271629" lon="105.047068"><ele>643.66223</ele><time>2026-05-06T00:34:52.000Z</time></trkpt>
        <trkpt lat="28.271641" lon="105.047009"><ele>643.7533</ele><time>2026-05-06T00:34:58.000Z</time></trkpt>
        <trkpt lat="28.271655" lon="105.046958"><ele>642.91394</ele><time>2026-05-06T00:35:03.000Z</time></trkpt>
        <trkpt lat="28.271671" lon="105.046909"><ele>642.16016</ele><time>2026-05-06T00:35:07.000Z</time></trkpt>
        <trkpt lat="28.271679" lon="105.046857"><ele>640.5515</ele><time>2026-05-06T00:35:15.000Z</time></trkpt>
        <trkpt lat="28.271696" lon="105.046802"><ele>639.701</ele><time>2026-05-06T00:35:22.000Z</time></trkpt>
        <trkpt lat="28.271718" lon="105.046756"><ele>637.5234</ele><time>2026-05-06T00:35:27.000Z</time></trkpt>
        <trkpt lat="28.271743" lon="105.04671"><ele>635.9588</ele><time>2026-05-06T00:35:32.000Z</time></trkpt>
        <trkpt lat="28.271773" lon="105.046664"><ele>635.48474</ele><time>2026-05-06T00:35:37.000Z</time></trkpt>
        <trkpt lat="28.271812" lon="105.046632"><ele>636.6113</ele><time>2026-05-06T00:35:44.000Z</time></trkpt>
        <trkpt lat="28.271856" lon="105.046595"><ele>637.71747</ele><time>2026-05-06T00:35:51.000Z</time></trkpt>
        <trkpt lat="28.271912" lon="105.046601"><ele>637.7453</ele><time>2026-05-06T00:35:58.000Z</time></trkpt>
        <trkpt lat="28.271973" lon="105.046585"><ele>638.5472</ele><time>2026-05-06T00:36:06.000Z</time></trkpt>
        <trkpt lat="28.272019" lon="105.046597"><ele>639.6845</ele><time>2026-05-06T00:36:14.000Z</time></trkpt>
        <trkpt lat="28.272065" lon="105.046596"><ele>640.9054</ele><time>2026-05-06T00:36:19.000Z</time></trkpt>
        <trkpt lat="28.272111" lon="105.046591"><ele>640.79156</ele><time>2026-05-06T00:36:25.000Z</time></trkpt>
        <trkpt lat="28.272156" lon="105.046579"><ele>640.41376</ele><time>2026-05-06T00:36:31.000Z</time></trkpt>
        <trkpt lat="28.272203" lon="105.046572"><ele>639.3551</ele><time>2026-05-06T00:36:38.000Z</time></trkpt>
        <trkpt lat="28.272249" lon="105.046559"><ele>637.9416</ele><time>2026-05-06T00:36:43.000Z</time></trkpt>
        <trkpt lat="28.272296" lon="105.046554"><ele>635.5975</ele><time>2026-05-06T00:36:50.000Z</time></trkpt>
        <trkpt lat="28.272342" lon="105.046543"><ele>636.60974</ele><time>2026-05-06T00:36:54.000Z</time></trkpt>
        <trkpt lat="28.272387" lon="105.046555"><ele>635.8161</ele><time>2026-05-06T00:37:02.000Z</time></trkpt>
        <trkpt lat="28.272438" lon="105.046559"><ele>635.5036</ele><time>2026-05-06T00:37:08.000Z</time></trkpt>
        <trkpt lat="28.272488" lon="105.046549"><ele>634.3281</ele><time>2026-05-06T00:37:16.000Z</time></trkpt>
        <trkpt lat="28.272532" lon="105.046532"><ele>633.7296</ele><time>2026-05-06T00:37:21.000Z</time></trkpt>
        <trkpt lat="28.272579" lon="105.046524"><ele>632.4872</ele><time>2026-05-06T00:37:27.000Z</time></trkpt>
        <trkpt lat="28.272629" lon="105.046514"><ele>631.5773</ele><time>2026-05-06T00:37:32.000Z</time></trkpt>
        <trkpt lat="28.272676" lon="105.046517"><ele>631.82227</ele><time>2026-05-06T00:37:37.000Z</time></trkpt>
        <trkpt lat="28.272729" lon="105.046513"><ele>631.3088</ele><time>2026-05-06T00:37:43.000Z</time></trkpt>
        <trkpt lat="28.272781" lon="105.046495"><ele>630.7909</ele><time>2026-05-06T00:37:49.000Z</time></trkpt>
        <trkpt lat="28.272832" lon="105.046501"><ele>629.4046</ele><time>2026-05-06T00:37:56.000Z</time></trkpt>
        <trkpt lat="28.272882" lon="105.046495"><ele>628.8507</ele><time>2026-05-06T00:38:03.000Z</time></trkpt>
        <trkpt lat="28.272926" lon="105.046479"><ele>627.91016</ele><time>2026-05-06T00:38:14.000Z</time></trkpt>
        <trkpt lat="28.272973" lon="105.046488"><ele>626.2842</ele><time>2026-05-06T00:38:21.000Z</time></trkpt>
        <trkpt lat="28.27302" lon="105.046482"><ele>624.9633</ele><time>2026-05-06T00:38:27.000Z</time></trkpt>
        <trkpt lat="28.27307" lon="105.046465"><ele>624.5658</ele><time>2026-05-06T00:38:33.000Z</time></trkpt>
        <trkpt lat="28.273115" lon="105.04645"><ele>622.93024</ele><time>2026-05-06T00:38:42.000Z</time></trkpt>
        <trkpt lat="28.273159" lon="105.046438"><ele>622.6625</ele><time>2026-05-06T00:38:48.000Z</time></trkpt>
        <trkpt lat="28.273206" lon="105.046434"><ele>622.02795</ele><time>2026-05-06T00:38:55.000Z</time></trkpt>
        <trkpt lat="28.273257" lon="105.046438"><ele>622.55145</ele><time>2026-05-06T00:39:02.000Z</time></trkpt>
        <trkpt lat="28.273307" lon="105.046451"><ele>621.7328</ele><time>2026-05-06T00:39:11.000Z</time></trkpt>
        <trkpt lat="28.273351" lon="105.046465"><ele>621.16376</ele><time>2026-05-06T00:39:21.000Z</time></trkpt>
        <trkpt lat="28.273406" lon="105.046467"><ele>620.7827</ele><time>2026-05-06T00:39:29.000Z</time></trkpt>
        <trkpt lat="28.273458" lon="105.046442"><ele>618.49554</ele><time>2026-05-06T00:39:37.000Z</time></trkpt>
        <trkpt lat="28.273496" lon="105.046415"><ele>616.0473</ele><time>2026-05-06T00:39:42.000Z</time></trkpt>
        <trkpt lat="28.273541" lon="105.046386"><ele>615.52747</ele><time>2026-05-06T00:39:48.000Z</time></trkpt>
        <trkpt lat="28.273596" lon="105.046358"><ele>614.9982</ele><time>2026-05-06T00:39:54.000Z</time></trkpt>
        <trkpt lat="28.273641" lon="105.046344"><ele>612.6809</ele><time>2026-05-06T00:40:01.000Z</time></trkpt>
        <trkpt lat="28.273684" lon="105.046319"><ele>611.51056</ele><time>2026-05-06T00:40:07.000Z</time></trkpt>
        <trkpt lat="28.273733" lon="105.046312"><ele>608.73553</ele><time>2026-05-06T00:40:13.000Z</time></trkpt>
        <trkpt lat="28.273785" lon="105.046315"><ele>607.12177</ele><time>2026-05-06T00:40:18.000Z</time></trkpt>
        <trkpt lat="28.273845" lon="105.046317"><ele>604.7684</ele><time>2026-05-06T00:40:23.000Z</time></trkpt>
        <trkpt lat="28.273889" lon="105.046348"><ele>604.79877</ele><time>2026-05-06T00:40:30.000Z</time></trkpt>
        <trkpt lat="28.273933" lon="105.046355"><ele>604.9472</ele><time>2026-05-06T00:40:35.000Z</time></trkpt>
        <trkpt lat="28.273967" lon="105.04632"><ele>603.5158</ele><time>2026-05-06T00:40:39.000Z</time></trkpt>
        <trkpt lat="28.274003" lon="105.046287"><ele>601.46594</ele><time>2026-05-06T00:40:46.000Z</time></trkpt>
        <trkpt lat="28.274018" lon="105.046232"><ele>599.98816</ele><time>2026-05-06T00:40:52.000Z</time></trkpt>
        <trkpt lat="28.27401" lon="105.046181"><ele>598.6122</ele><time>2026-05-06T00:40:58.000Z</time></trkpt>
        <trkpt lat="28.273989" lon="105.046128"><ele>596.9846</ele><time>2026-05-06T00:41:04.000Z</time></trkpt>
        <trkpt lat="28.273954" lon="105.046095"><ele>595.17206</ele><time>2026-05-06T00:41:12.000Z</time></trkpt>
        <trkpt lat="28.273906" lon="105.04606"><ele>596.34033</ele><time>2026-05-06T00:41:17.000Z</time></trkpt>
        <trkpt lat="28.273865" lon="105.046039"><ele>595.56757</ele><time>2026-05-06T00:41:22.000Z</time></trkpt>
        <trkpt lat="28.273824" lon="105.046012"><ele>594.8483</ele><time>2026-05-06T00:41:29.000Z</time></trkpt>
        <trkpt lat="28.273778" lon="105.046011"><ele>594.98517</ele><time>2026-05-06T00:41:37.000Z</time></trkpt>
        <trkpt lat="28.273734" lon="105.045997"><ele>595.56354</ele><time>2026-05-06T00:41:46.000Z</time></trkpt>
        <trkpt lat="28.273687" lon="105.045998"><ele>595.81946</ele><time>2026-05-06T00:41:53.000Z</time></trkpt>
        <trkpt lat="28.273645" lon="105.045972"><ele>594.2865</ele><time>2026-05-06T00:42:01.000Z</time></trkpt>
        <trkpt lat="28.273617" lon="105.045924"><ele>592.87006</ele><time>2026-05-06T00:42:11.000Z</time></trkpt>
        <trkpt lat="28.273571" lon="105.045891"><ele>591.1458</ele><time>2026-05-06T00:42:17.000Z</time></trkpt>
        <trkpt lat="28.27356" lon="105.045835"><ele>590.05536</ele><time>2026-05-06T00:42:29.000Z</time></trkpt>
        <trkpt lat="28.273559" lon="105.045783"><ele>590.15485</ele><time>2026-05-06T00:42:37.000Z</time></trkpt>
        <trkpt lat="28.273549" lon="105.04573"><ele>587.5755</ele><time>2026-05-06T00:42:54.000Z</time></trkpt>
        <trkpt lat="28.27354" lon="105.045677"><ele>586.2158</ele><time>2026-05-06T00:43:07.000Z</time></trkpt>
        <trkpt lat="28.27353" lon="105.045621"><ele>584.68097</ele><time>2026-05-06T00:43:18.000Z</time></trkpt>
        <trkpt lat="28.273488" lon="105.045595"><ele>582.83</ele><time>2026-05-06T00:43:27.000Z</time></trkpt>
        <trkpt lat="28.273447" lon="105.04557"><ele>581.5983</ele><time>2026-05-06T00:43:42.000Z</time></trkpt>
        <trkpt lat="28.273418" lon="105.045519"><ele>580.499</ele><time>2026-05-06T00:43:58.000Z</time></trkpt>
        <trkpt lat="28.273388" lon="105.045472"><ele>580.20917</ele><time>2026-05-06T00:44:09.000Z</time></trkpt>
        <trkpt lat="28.273346" lon="105.045446"><ele>580.289</ele><time>2026-05-06T00:44:22.000Z</time></trkpt>
        <trkpt lat="28.273302" lon="105.045415"><ele>579.04803</ele><time>2026-05-06T00:44:34.000Z</time></trkpt>
        <trkpt lat="28.273266" lon="105.04538"><ele>578.60004</ele><time>2026-05-06T00:44:44.000Z</time></trkpt>
        <trkpt lat="28.273244" lon="105.045331"><ele>580.9015</ele><time>2026-05-06T00:44:58.000Z</time></trkpt>
        <trkpt lat="28.273203" lon="105.045306"><ele>582.67847</ele><time>2026-05-06T00:45:19.000Z</time></trkpt>
        <trkpt lat="28.273183" lon="105.04526"><ele>583.2615</ele><time>2026-05-06T00:45:28.000Z</time></trkpt>
        <trkpt lat="28.273133" lon="105.045246"><ele>585.6097</ele><time>2026-05-06T00:45:44.000Z</time></trkpt>
        <trkpt lat="28.273079" lon="105.045207"><ele>587.02594</ele><time>2026-05-06T00:45:57.000Z</time></trkpt>
        <trkpt lat="28.273043" lon="105.045243"><ele>589.0133</ele><time>2026-05-06T00:46:04.000Z</time></trkpt>
        <trkpt lat="28.27299" lon="105.045268"><ele>590.854</ele><time>2026-05-06T00:46:25.000Z</time></trkpt>
        <trkpt lat="28.272959" lon="105.045224"><ele>592.1651</ele><time>2026-05-06T00:46:30.000Z</time></trkpt>
        <trkpt lat="28.272916" lon="105.045191"><ele>593.4874</ele><time>2026-05-06T00:46:35.000Z</time></trkpt>
        <trkpt lat="28.272952" lon="105.045225"><ele>596.5038</ele><time>2026-05-06T00:46:53.000Z</time></trkpt>
        <trkpt lat="28.272995" lon="105.045247"><ele>595.9946</ele><time>2026-05-06T00:46:59.000Z</time></trkpt>
        <trkpt lat="28.273041" lon="105.04525"><ele>592.4735</ele><time>2026-05-06T00:47:09.000Z</time></trkpt>
        <trkpt lat="28.273089" lon="105.045258"><ele>589.37213</ele><time>2026-05-06T00:47:45.000Z</time></trkpt>
        <trkpt lat="28.273144" lon="105.04523"><ele>586.0549</ele><time>2026-05-06T00:48:02.000Z</time></trkpt>
        <trkpt lat="28.273186" lon="105.045195"><ele>583.8833</ele><time>2026-05-06T00:48:13.000Z</time></trkpt>
        <trkpt lat="28.273227" lon="105.045167"><ele>582.8147</ele><time>2026-05-06T00:48:28.000Z</time></trkpt>
        <trkpt lat="28.273275" lon="105.045165"><ele>582.2394</ele><time>2026-05-06T00:48:37.000Z</time></trkpt>
        <trkpt lat="28.273328" lon="105.045176"><ele>581.23346</ele><time>2026-05-06T00:48:48.000Z</time></trkpt>
        <trkpt lat="28.273306" lon="105.045116"><ele>583.7247</ele><time>2026-05-06T00:49:10.000Z</time></trkpt>
        <trkpt lat="28.273356" lon="105.04511"><ele>585.3255</ele><time>2026-05-06T00:49:26.000Z</time></trkpt>
        <trkpt lat="28.273395" lon="105.045139"><ele>583.04144</ele><time>2026-05-06T00:49:40.000Z</time></trkpt>
        <trkpt lat="28.273443" lon="105.045131"><ele>582.14716</ele><time>2026-05-06T00:49:47.000Z</time></trkpt>
        <trkpt lat="28.273484" lon="105.045111"><ele>581.11957</ele><time>2026-05-06T00:49:52.000Z</time></trkpt>
        <trkpt lat="28.273531" lon="105.045094"><ele>579.8464</ele><time>2026-05-06T00:50:00.000Z</time></trkpt>
        <trkpt lat="28.273576" lon="105.045073"><ele>579.1485</ele><time>2026-05-06T00:50:07.000Z</time></trkpt>
        <trkpt lat="28.273628" lon="105.045036"><ele>579.1228</ele><time>2026-05-06T00:50:16.000Z</time></trkpt>
        <trkpt lat="28.27367" lon="105.045073"><ele>578.7223</ele><time>2026-05-06T00:50:19.000Z</time></trkpt>
        <trkpt lat="28.273719" lon="105.045089"><ele>577.9221</ele><time>2026-05-06T00:50:23.000Z</time></trkpt>
        <trkpt lat="28.273774" lon="105.045108"><ele>573.70386</ele><time>2026-05-06T00:50:35.000Z</time></trkpt>
        <trkpt lat="28.273786" lon="105.045055"><ele>569.7654</ele><time>2026-05-06T00:51:00.000Z</time></trkpt>
        <trkpt lat="28.273833" lon="105.045083"><ele>566.95996</ele><time>2026-05-06T00:51:25.000Z</time></trkpt>
        <trkpt lat="28.273857" lon="105.045028"><ele>566.14075</ele><time>2026-05-06T00:51:35.000Z</time></trkpt>
        <trkpt lat="28.273908" lon="105.045049"><ele>565.8592</ele><time>2026-05-06T00:51:54.000Z</time></trkpt>
        <trkpt lat="28.273955" lon="105.045043"><ele>565.27826</ele><time>2026-05-06T00:52:05.000Z</time></trkpt>
        <trkpt lat="28.273967" lon="105.044974"><ele>564.20575</ele><time>2026-05-06T00:52:19.000Z</time></trkpt>
        <trkpt lat="28.273965" lon="105.044902"><ele>564.5797</ele><time>2026-05-06T00:52:23.000Z</time></trkpt>
        <trkpt lat="28.273999" lon="105.044866"><ele>566.4345</ele><time>2026-05-06T00:52:32.000Z</time></trkpt>
        <trkpt lat="28.274043" lon="105.044879"><ele>567.0805</ele><time>2026-05-06T00:52:36.000Z</time></trkpt>
        <trkpt lat="28.274088" lon="105.044893"><ele>565.97955</ele><time>2026-05-06T00:52:41.000Z</time></trkpt>
        <trkpt lat="28.274132" lon="105.044869"><ele>565.60834</ele><time>2026-05-06T00:52:47.000Z</time></trkpt>
        <trkpt lat="28.274176" lon="105.044885"><ele>565.16986</ele><time>2026-05-06T00:52:52.000Z</time></trkpt>
        <trkpt lat="28.27423" lon="105.044871"><ele>561.9273</ele><time>2026-05-06T00:53:08.000Z</time></trkpt>
        <trkpt lat="28.27428" lon="105.044894"><ele>560.0857</ele><time>2026-05-06T00:53:27.000Z</time></trkpt>
        <trkpt lat="28.274248" lon="105.044853"><ele>558.6528</ele><time>2026-05-06T00:54:02.000Z</time></trkpt>
        <trkpt lat="28.274297" lon="105.044853"><ele>558.4091</ele><time>2026-05-06T00:54:21.000Z</time></trkpt>
        <trkpt lat="28.274344" lon="105.04485"><ele>557.60614</ele><time>2026-05-06T00:54:30.000Z</time></trkpt>
        <trkpt lat="28.27435" lon="105.044902"><ele>555.25085</ele><time>2026-05-06T00:54:54.000Z</time></trkpt>
        <trkpt lat="28.274387" lon="105.044854"><ele>554.70447</ele><time>2026-05-06T00:56:31.000Z</time></trkpt>
        <trkpt lat="28.274376" lon="105.044911"><ele>554.06714</ele><time>2026-05-06T01:00:58.000Z</time></trkpt>
        <trkpt lat="28.274346" lon="105.04495"><ele>552.96436</ele><time>2026-05-06T01:01:19.000Z</time></trkpt>
        <trkpt lat="28.274312" lon="105.044902"><ele>556.3068</ele><time>2026-05-06T01:02:04.000Z</time></trkpt>
        <trkpt lat="28.274286" lon="105.044958"><ele>551.277</ele><time>2026-05-06T01:02:30.000Z</time></trkpt>
        <trkpt lat="28.274208" lon="105.044955"><ele>553.5122</ele><time>2026-05-06T01:04:18.000Z</time></trkpt>
        <trkpt lat="28.274251" lon="105.044936"><ele>553.923</ele><time>2026-05-06T01:04:37.000Z</time></trkpt>
        <trkpt lat="28.2743" lon="105.04496"><ele>553.9708</ele><time>2026-05-06T01:04:58.000Z</time></trkpt>
        <trkpt lat="28.274337" lon="105.04493"><ele>552.3893</ele><time>2026-05-06T01:05:40.000Z</time></trkpt>
        <trkpt lat="28.274332" lon="105.044982"><ele>553.26874</ele><time>2026-05-06T01:06:11.000Z</time></trkpt>
        <trkpt lat="28.274391" lon="105.044976"><ele>551.9332</ele><time>2026-05-06T01:06:24.000Z</time></trkpt>
        <trkpt lat="28.274453" lon="105.044946"><ele>553.08954</ele><time>2026-05-06T01:06:36.000Z</time></trkpt>
        <trkpt lat="28.274501" lon="105.044926"><ele>553.31964</ele><time>2026-05-06T01:06:45.000Z</time></trkpt>
        <trkpt lat="28.274533" lon="105.044966"><ele>551.8402</ele><time>2026-05-06T01:06:52.000Z</time></trkpt>
        <trkpt lat="28.274581" lon="105.044968"><ele>552.4075</ele><time>2026-05-06T01:07:01.000Z</time></trkpt>
        <trkpt lat="28.274623" lon="105.044991"><ele>551.509</ele><time>2026-05-06T01:07:07.000Z</time></trkpt>
        <trkpt lat="28.274669" lon="105.04502"><ele>550.6686</ele><time>2026-05-06T01:07:15.000Z</time></trkpt>
        <trkpt lat="28.27471" lon="105.045047"><ele>550.1945</ele><time>2026-05-06T01:07:21.000Z</time></trkpt>
        <trkpt lat="28.274755" lon="105.045078"><ele>549.39795</ele><time>2026-05-06T01:07:26.000Z</time></trkpt>
        <trkpt lat="28.2748" lon="105.045086"><ele>549.12024</ele><time>2026-05-06T01:07:30.000Z</time></trkpt>
        <trkpt lat="28.27485" lon="105.045112"><ele>548.9993</ele><time>2026-05-06T01:07:35.000Z</time></trkpt>
        <trkpt lat="28.274903" lon="105.045137"><ele>548.4467</ele><time>2026-05-06T01:07:40.000Z</time></trkpt>
        <trkpt lat="28.274944" lon="105.045164"><ele>547.5297</ele><time>2026-05-06T01:07:44.000Z</time></trkpt>
        <trkpt lat="28.274965" lon="105.045214"><ele>544.77045</ele><time>2026-05-06T01:07:51.000Z</time></trkpt>
        <trkpt lat="28.275" lon="105.045248"><ele>540.7747</ele><time>2026-05-06T01:07:59.000Z</time></trkpt>
        <trkpt lat="28.27503" lon="105.0453"><ele>537.24884</ele><time>2026-05-06T01:08:06.000Z</time></trkpt>
        <trkpt lat="28.275067" lon="105.045333"><ele>538.07336</ele><time>2026-05-06T01:08:14.000Z</time></trkpt>
        <trkpt lat="28.275056" lon="105.045383"><ele>537.74963</ele><time>2026-05-06T01:08:20.000Z</time></trkpt>
        <trkpt lat="28.27505" lon="105.045444"><ele>536.98627</ele><time>2026-05-06T01:08:24.000Z</time></trkpt>
        <trkpt lat="28.275076" lon="105.045502"><ele>536.46814</ele><time>2026-05-06T01:08:28.000Z</time></trkpt>
        <trkpt lat="28.275121" lon="105.045514"><ele>535.8484</ele><time>2026-05-06T01:08:32.000Z</time></trkpt>
        <trkpt lat="28.275174" lon="105.045521"><ele>534.13916</ele><time>2026-05-06T01:08:36.000Z</time></trkpt>
        <trkpt lat="28.275221" lon="105.045503"><ele>532.8462</ele><time>2026-05-06T01:08:40.000Z</time></trkpt>
        <trkpt lat="28.275263" lon="105.045539"><ele>531.31244</ele><time>2026-05-06T01:08:51.000Z</time></trkpt>
        <trkpt lat="28.275313" lon="105.045567"><ele>530.28455</ele><time>2026-05-06T01:08:57.000Z</time></trkpt>
        <trkpt lat="28.275364" lon="105.045567"><ele>529.55707</ele><time>2026-05-06T01:09:01.000Z</time></trkpt>
        <trkpt lat="28.275413" lon="105.045546"><ele>528.19104</ele><time>2026-05-06T01:09:08.000Z</time></trkpt>
        <trkpt lat="28.275462" lon="105.0455"><ele>526.5997</ele><time>2026-05-06T01:09:17.000Z</time></trkpt>
        <trkpt lat="28.275493" lon="105.045541"><ele>526.34814</ele><time>2026-05-06T01:09:29.000Z</time></trkpt>
        <trkpt lat="28.27554" lon="105.04556"><ele>523.4665</ele><time>2026-05-06T01:09:44.000Z</time></trkpt>
        <trkpt lat="28.275588" lon="105.045561"><ele>524.66846</ele><time>2026-05-06T01:10:05.000Z</time></trkpt>
        <trkpt lat="28.275617" lon="105.045602"><ele>525.1759</ele><time>2026-05-06T01:10:16.000Z</time></trkpt>
        <trkpt lat="28.275654" lon="105.045637"><ele>523.6352</ele><time>2026-05-06T01:10:38.000Z</time></trkpt>
        <trkpt lat="28.275704" lon="105.045646"><ele>520.938</ele><time>2026-05-06T01:10:52.000Z</time></trkpt>
        <trkpt lat="28.275739" lon="105.045683"><ele>519.4559</ele><time>2026-05-06T01:11:01.000Z</time></trkpt>
        <trkpt lat="28.275747" lon="105.045749"><ele>521.54755</ele><time>2026-05-06T01:11:15.000Z</time></trkpt>
        <trkpt lat="28.275731" lon="105.045808"><ele>522.1139</ele><time>2026-05-06T01:11:23.000Z</time></trkpt>
        <trkpt lat="28.275738" lon="105.045859"><ele>522.8065</ele><time>2026-05-06T01:11:26.000Z</time></trkpt>
        <trkpt lat="28.275764" lon="105.045917"><ele>525.643</ele><time>2026-05-06T01:11:32.000Z</time></trkpt>
        <trkpt lat="28.275802" lon="105.045955"><ele>529.0113</ele><time>2026-05-06T01:11:39.000Z</time></trkpt>
        <trkpt lat="28.275785" lon="105.046009"><ele>527.5452</ele><time>2026-05-06T01:11:45.000Z</time></trkpt>
        <trkpt lat="28.275773" lon="105.046069"><ele>525.9877</ele><time>2026-05-06T01:11:50.000Z</time></trkpt>
        <trkpt lat="28.275765" lon="105.046122"><ele>525.3005</ele><time>2026-05-06T01:11:55.000Z</time></trkpt>
        <trkpt lat="28.275794" lon="105.046169"><ele>522.69946</ele><time>2026-05-06T01:12:02.000Z</time></trkpt>
        <trkpt lat="28.275847" lon="105.046181"><ele>522.729</ele><time>2026-05-06T01:12:06.000Z</time></trkpt>
        <trkpt lat="28.275897" lon="105.04618"><ele>521.28107</ele><time>2026-05-06T01:12:10.000Z</time></trkpt>
        <trkpt lat="28.275945" lon="105.046171"><ele>518.97534</ele><time>2026-05-06T01:12:15.000Z</time></trkpt>
        <trkpt lat="28.275988" lon="105.04615"><ele>517.8693</ele><time>2026-05-06T01:12:20.000Z</time></trkpt>
        <trkpt lat="28.27604" lon="105.046167"><ele>517.18964</ele><time>2026-05-06T01:12:26.000Z</time></trkpt>
        <trkpt lat="28.276087" lon="105.04619"><ele>516.3321</ele><time>2026-05-06T01:12:32.000Z</time></trkpt>
        <trkpt lat="28.27613" lon="105.046218"><ele>514.8356</ele><time>2026-05-06T01:12:38.000Z</time></trkpt>
        <trkpt lat="28.276183" lon="105.046224"><ele>514.1293</ele><time>2026-05-06T01:12:45.000Z</time></trkpt>
        <trkpt lat="28.276225" lon="105.046245"><ele>512.50116</ele><time>2026-05-06T01:12:52.000Z</time></trkpt>
        <trkpt lat="28.276269" lon="105.04626"><ele>511.26025</ele><time>2026-05-06T01:13:03.000Z</time></trkpt>
        <trkpt lat="28.276318" lon="105.046248"><ele>509.71716</ele><time>2026-05-06T01:13:08.000Z</time></trkpt>
        <trkpt lat="28.276363" lon="105.04628"><ele>509.09387</ele><time>2026-05-06T01:13:19.000Z</time></trkpt>
        <trkpt lat="28.276404" lon="105.04632"><ele>508.00888</ele><time>2026-05-06T01:13:28.000Z</time></trkpt>
        <trkpt lat="28.276441" lon="105.046352"><ele>506.50983</ele><time>2026-05-06T01:13:42.000Z</time></trkpt>
        <trkpt lat="28.276465" lon="105.046304"><ele>505.2189</ele><time>2026-05-06T01:13:49.000Z</time></trkpt>
        <trkpt lat="28.276463" lon="105.046253"><ele>504.5843</ele><time>2026-05-06T01:13:52.000Z</time></trkpt>
        <trkpt lat="28.276417" lon="105.046223"><ele>504.47388</ele><time>2026-05-06T01:13:58.000Z</time></trkpt>
        <trkpt lat="28.276393" lon="105.046179"><ele>503.90326</ele><time>2026-05-06T01:14:05.000Z</time></trkpt>
        <trkpt lat="28.276441" lon="105.046213"><ele>506.90936</ele><time>2026-05-06T01:15:08.000Z</time></trkpt>
        <trkpt lat="28.276467" lon="105.046167"><ele>500.958</ele><time>2026-05-06T01:16:37.000Z</time></trkpt>
        <trkpt lat="28.276492" lon="105.046213"><ele>509.56973</ele><time>2026-05-06T01:17:14.000Z</time></trkpt>
        <trkpt lat="28.276504" lon="105.046267"><ele>507.8567</ele><time>2026-05-06T01:17:26.000Z</time></trkpt>
        <trkpt lat="28.276537" lon="105.046304"><ele>504.75323</ele><time>2026-05-06T01:17:40.000Z</time></trkpt>
        <trkpt lat="28.276556" lon="105.046352"><ele>502.13437</ele><time>2026-05-06T01:17:53.000Z</time></trkpt>
        <trkpt lat="28.276608" lon="105.046362"><ele>502.9901</ele><time>2026-05-06T01:18:10.000Z</time></trkpt>
        <trkpt lat="28.276647" lon="105.046403"><ele>505.03772</ele><time>2026-05-06T01:18:22.000Z</time></trkpt>
        <trkpt lat="28.276621" lon="105.046452"><ele>506.76718</ele><time>2026-05-06T01:18:28.000Z</time></trkpt>
        <trkpt lat="28.276612" lon="105.046502"><ele>505.945</ele><time>2026-05-06T01:18:33.000Z</time></trkpt>
        <trkpt lat="28.276618" lon="105.046556"><ele>505.6738</ele><time>2026-05-06T01:18:41.000Z</time></trkpt>
        <trkpt lat="28.276654" lon="105.04659"><ele>504.36575</ele><time>2026-05-06T01:18:52.000Z</time></trkpt>
        <trkpt lat="28.276687" lon="105.046624"><ele>503.61542</ele><time>2026-05-06T01:18:59.000Z</time></trkpt>
        <trkpt lat="28.276722" lon="105.04668"><ele>504.40875</ele><time>2026-05-06T01:19:06.000Z</time></trkpt>
        <trkpt lat="28.27676" lon="105.046719"><ele>506.40875</ele><time>2026-05-06T01:19:16.000Z</time></trkpt>
        <trkpt lat="28.276801" lon="105.046746"><ele>506.40213</ele><time>2026-05-06T01:19:21.000Z</time></trkpt>
        <trkpt lat="28.27684" lon="105.046778"><ele>503.15894</ele><time>2026-05-06T01:19:27.000Z</time></trkpt>
        <trkpt lat="28.276889" lon="105.046808"><ele>501.54156</ele><time>2026-05-06T01:19:32.000Z</time></trkpt>
        <trkpt lat="28.276926" lon="105.046865"><ele>496.12634</ele><time>2026-05-06T01:19:39.000Z</time></trkpt>
        <trkpt lat="28.27696" lon="105.04691"><ele>491.46777</ele><time>2026-05-06T01:19:45.000Z</time></trkpt>
        <trkpt lat="28.276997" lon="105.046939"><ele>488.9557</ele><time>2026-05-06T01:19:49.000Z</time></trkpt>
        <trkpt lat="28.277006" lon="105.046991"><ele>485.02637</ele><time>2026-05-06T01:19:53.000Z</time></trkpt>
        <trkpt lat="28.277018" lon="105.047041"><ele>480.46747</ele><time>2026-05-06T01:20:00.000Z</time></trkpt>
        <trkpt lat="28.277044" lon="105.047094"><ele>479.36044</ele><time>2026-05-06T01:20:07.000Z</time></trkpt>
        <trkpt lat="28.277015" lon="105.04714"><ele>476.38034</ele><time>2026-05-06T01:20:19.000Z</time></trkpt>
        <trkpt lat="28.276996" lon="105.047189"><ele>473.9891</ele><time>2026-05-06T01:20:30.000Z</time></trkpt>
        <trkpt lat="28.277009" lon="105.047243"><ele>473.05435</ele><time>2026-05-06T01:20:40.000Z</time></trkpt>
        <trkpt lat="28.277034" lon="105.047292"><ele>472.5932</ele><time>2026-05-06T01:20:46.000Z</time></trkpt>
        <trkpt lat="28.277071" lon="105.047335"><ele>471.9616</ele><time>2026-05-06T01:20:52.000Z</time></trkpt>
        <trkpt lat="28.27711" lon="105.047369"><ele>471.6547</ele><time>2026-05-06T01:20:59.000Z</time></trkpt>
        <trkpt lat="28.277151" lon="105.047391"><ele>471.5807</ele><time>2026-05-06T01:21:06.000Z</time></trkpt>
        <trkpt lat="28.277193" lon="105.047417"><ele>472.66428</ele><time>2026-05-06T01:21:15.000Z</time></trkpt>
        <trkpt lat="28.277241" lon="105.047435"><ele>472.5844</ele><time>2026-05-06T01:21:26.000Z</time></trkpt>
        <trkpt lat="28.277291" lon="105.047444"><ele>471.82065</ele><time>2026-05-06T01:21:36.000Z</time></trkpt>
        <trkpt lat="28.277338" lon="105.04745"><ele>472.33542</ele><time>2026-05-06T01:21:46.000Z</time></trkpt>
        <trkpt lat="28.277381" lon="105.047468"><ele>474.49313</ele><time>2026-05-06T01:21:58.000Z</time></trkpt>
        <trkpt lat="28.277423" lon="105.047491"><ele>478.0473</ele><time>2026-05-06T01:22:12.000Z</time></trkpt>
        <trkpt lat="28.277464" lon="105.047512"><ele>479.2667</ele><time>2026-05-06T01:22:19.000Z</time></trkpt>
        <trkpt lat="28.277512" lon="105.047502"><ele>479.9744</ele><time>2026-05-06T01:22:29.000Z</time></trkpt>
        <trkpt lat="28.277554" lon="105.04748"><ele>479.74036</ele><time>2026-05-06T01:22:37.000Z</time></trkpt>
        <trkpt lat="28.27755" lon="105.047535"><ele>478.87018</ele><time>2026-05-06T01:22:55.000Z</time></trkpt>
        <trkpt lat="28.277511" lon="105.047569"><ele>479.45963</ele><time>2026-05-06T01:23:04.000Z</time></trkpt>
        <trkpt lat="28.277471" lon="105.047602"><ele>479.9263</ele><time>2026-05-06T01:23:11.000Z</time></trkpt>
        <trkpt lat="28.277435" lon="105.047634"><ele>479.986</ele><time>2026-05-06T01:23:17.000Z</time></trkpt>
        <trkpt lat="28.2774" lon="105.047674"><ele>479.68</ele><time>2026-05-06T01:23:24.000Z</time></trkpt>
        <trkpt lat="28.277356" lon="105.0477"><ele>479.9526</ele><time>2026-05-06T01:23:31.000Z</time></trkpt>
        <trkpt lat="28.277311" lon="105.047709"><ele>479.83472</ele><time>2026-05-06T01:23:36.000Z</time></trkpt>
        <trkpt lat="28.277268" lon="105.047729"><ele>480.35626</ele><time>2026-05-06T01:23:47.000Z</time></trkpt>
        <trkpt lat="28.277219" lon="105.047745"><ele>480.49667</ele><time>2026-05-06T01:23:54.000Z</time></trkpt>
        <trkpt lat="28.277179" lon="105.04778"><ele>480.72726</ele><time>2026-05-06T01:24:01.000Z</time></trkpt>
        <trkpt lat="28.277187" lon="105.047831"><ele>482.08057</ele><time>2026-05-06T01:24:08.000Z</time></trkpt>
        <trkpt lat="28.277238" lon="105.047842"><ele>483.0449</ele><time>2026-05-06T01:24:15.000Z</time></trkpt>
        <trkpt lat="28.277288" lon="105.047836"><ele>484.2672</ele><time>2026-05-06T01:24:21.000Z</time></trkpt>
        <trkpt lat="28.277334" lon="105.047837"><ele>484.6379</ele><time>2026-05-06T01:24:30.000Z</time></trkpt>
        <trkpt lat="28.27738" lon="105.047851"><ele>484.29593</ele><time>2026-05-06T01:24:38.000Z</time></trkpt>
        <trkpt lat="28.27743" lon="105.047855"><ele>484.7221</ele><time>2026-05-06T01:24:46.000Z</time></trkpt>
        <trkpt lat="28.277483" lon="105.047852"><ele>486.31628</ele><time>2026-05-06T01:24:54.000Z</time></trkpt>
        <trkpt lat="28.277528" lon="105.047832"><ele>486.4946</ele><time>2026-05-06T01:25:01.000Z</time></trkpt>
        <trkpt lat="28.277575" lon="105.04782"><ele>488.76862</ele><time>2026-05-06T01:25:10.000Z</time></trkpt>
        <trkpt lat="28.277622" lon="105.047815"><ele>489.62515</ele><time>2026-05-06T01:25:18.000Z</time></trkpt>
        <trkpt lat="28.277668" lon="105.047807"><ele>491.33224</ele><time>2026-05-06T01:25:25.000Z</time></trkpt>
        <trkpt lat="28.277712" lon="105.047785"><ele>492.5321</ele><time>2026-05-06T01:25:33.000Z</time></trkpt>
        <trkpt lat="28.277757" lon="105.047763"><ele>493.99097</ele><time>2026-05-06T01:25:40.000Z</time></trkpt>
        <trkpt lat="28.277805" lon="105.04774"><ele>495.48578</ele><time>2026-05-06T01:25:47.000Z</time></trkpt>
        <trkpt lat="28.277852" lon="105.047716"><ele>495.55322</ele><time>2026-05-06T01:25:54.000Z</time></trkpt>
        <trkpt lat="28.277895" lon="105.047698"><ele>495.2756</ele><time>2026-05-06T01:26:01.000Z</time></trkpt>
        <trkpt lat="28.27794" lon="105.047682"><ele>496.13702</ele><time>2026-05-06T01:26:07.000Z</time></trkpt>
        <trkpt lat="28.277987" lon="105.04767"><ele>496.63535</ele><time>2026-05-06T01:26:13.000Z</time></trkpt>
        <trkpt lat="28.278032" lon="105.047661"><ele>497.33862</ele><time>2026-05-06T01:26:19.000Z</time></trkpt>
        <trkpt lat="28.278078" lon="105.04765"><ele>497.45026</ele><time>2026-05-06T01:26:25.000Z</time></trkpt>
        <trkpt lat="28.278124" lon="105.047634"><ele>497.68405</ele><time>2026-05-06T01:26:32.000Z</time></trkpt>
        <trkpt lat="28.278162" lon="105.047599"><ele>499.3333</ele><time>2026-05-06T01:26:38.000Z</time></trkpt>
        <trkpt lat="28.278192" lon="105.047557"><ele>498.72327</ele><time>2026-05-06T01:26:46.000Z</time></trkpt>
        <trkpt lat="28.278237" lon="105.047539"><ele>497.53915</ele><time>2026-05-06T01:26:54.000Z</time></trkpt>
        <trkpt lat="28.278278" lon="105.047507"><ele>497.18048</ele><time>2026-05-06T01:27:08.000Z</time></trkpt>
        <trkpt lat="28.278311" lon="105.047469"><ele>496.58203</ele><time>2026-05-06T01:27:16.000Z</time></trkpt>
        <trkpt lat="28.278339" lon="105.047426"><ele>495.79443</ele><time>2026-05-06T01:27:23.000Z</time></trkpt>
        <trkpt lat="28.278367" lon="105.047384"><ele>495.9085</ele><time>2026-05-06T01:27:29.000Z</time></trkpt>
        <trkpt lat="28.278395" lon="105.047343"><ele>496.0828</ele><time>2026-05-06T01:27:34.000Z</time></trkpt>
        <trkpt lat="28.278435" lon="105.047309"><ele>495.13123</ele><time>2026-05-06T01:27:41.000Z</time></trkpt>
        <trkpt lat="28.27848" lon="105.047281"><ele>496.37714</ele><time>2026-05-06T01:27:48.000Z</time></trkpt>
        <trkpt lat="28.278525" lon="105.047286"><ele>499.0601</ele><time>2026-05-06T01:27:55.000Z</time></trkpt>
        <trkpt lat="28.278577" lon="105.047282"><ele>499.05478</ele><time>2026-05-06T01:28:02.000Z</time></trkpt>
        <trkpt lat="28.278628" lon="105.047289"><ele>497.67526</ele><time>2026-05-06T01:28:07.000Z</time></trkpt>
        <trkpt lat="28.278675" lon="105.047299"><ele>498.41727</ele><time>2026-05-06T01:28:14.000Z</time></trkpt>
        <trkpt lat="28.278716" lon="105.047276"><ele>496.64978</ele><time>2026-05-06T01:29:52.000Z</time></trkpt>
        <trkpt lat="28.278757" lon="105.047304"><ele>496.34024</ele><time>2026-05-06T01:30:09.000Z</time></trkpt>
        <trkpt lat="28.2788" lon="105.047339"><ele>497.56992</ele><time>2026-05-06T01:30:16.000Z</time></trkpt>
        <trkpt lat="28.278847" lon="105.047371"><ele>498.89783</ele><time>2026-05-06T01:30:23.000Z</time></trkpt>
        <trkpt lat="28.278889" lon="105.04739"><ele>499.8199</ele><time>2026-05-06T01:30:28.000Z</time></trkpt>
        <trkpt lat="28.278938" lon="105.047366"><ele>500.93796</ele><time>2026-05-06T01:30:35.000Z</time></trkpt>
        <trkpt lat="28.27895" lon="105.047308"><ele>501.30487</ele><time>2026-05-06T01:30:42.000Z</time></trkpt>
        <trkpt lat="28.278942" lon="105.047257"><ele>502.18796</ele><time>2026-05-06T01:30:47.000Z</time></trkpt>
        <trkpt lat="28.27896" lon="105.047201"><ele>501.16785</ele><time>2026-05-06T01:30:56.000Z</time></trkpt>
        <trkpt lat="28.278963" lon="105.047145"><ele>499.6232</ele><time>2026-05-06T01:31:04.000Z</time></trkpt>
        <trkpt lat="28.278976" lon="105.047089"><ele>498.45813</ele><time>2026-05-06T01:31:12.000Z</time></trkpt>
        <trkpt lat="28.278985" lon="105.047037"><ele>497.4317</ele><time>2026-05-06T01:31:19.000Z</time></trkpt>
        <trkpt lat="28.279004" lon="105.046986"><ele>495.0061</ele><time>2026-05-06T01:31:27.000Z</time></trkpt>
        <trkpt lat="28.279026" lon="105.046928"><ele>494.1014</ele><time>2026-05-06T01:31:34.000Z</time></trkpt>
        <trkpt lat="28.279047" lon="105.04688"><ele>493.81537</ele><time>2026-05-06T01:31:40.000Z</time></trkpt>
        <trkpt lat="28.279073" lon="105.046831"><ele>492.73517</ele><time>2026-05-06T01:31:46.000Z</time></trkpt>
        <trkpt lat="28.279097" lon="105.046785"><ele>491.80887</ele><time>2026-05-06T01:31:51.000Z</time></trkpt>
        <trkpt lat="28.279131" lon="105.046745"><ele>491.06213</ele><time>2026-05-06T01:31:57.000Z</time></trkpt>
        <trkpt lat="28.27917" lon="105.046715"><ele>489.35596</ele><time>2026-05-06T01:32:03.000Z</time></trkpt>
        <trkpt lat="28.279215" lon="105.046685"><ele>488.79745</ele><time>2026-05-06T01:32:11.000Z</time></trkpt>
        <trkpt lat="28.279267" lon="105.04668"><ele>488.56842</ele><time>2026-05-06T01:32:22.000Z</time></trkpt>
        <trkpt lat="28.279316" lon="105.046667"><ele>488.69373</ele><time>2026-05-06T01:32:28.000Z</time></trkpt>
        <trkpt lat="28.279361" lon="105.046653"><ele>488.8235</ele><time>2026-05-06T01:32:34.000Z</time></trkpt>
        <trkpt lat="28.27941" lon="105.046639"><ele>488.15875</ele><time>2026-05-06T01:32:40.000Z</time></trkpt>
        <trkpt lat="28.279451" lon="105.046614"><ele>488.49063</ele><time>2026-05-06T01:32:45.000Z</time></trkpt>
        <trkpt lat="28.279491" lon="105.046578"><ele>488.7141</ele><time>2026-05-06T01:32:51.000Z</time></trkpt>
        <trkpt lat="28.279521" lon="105.046536"><ele>490.1611</ele><time>2026-05-06T01:32:56.000Z</time></trkpt>
        <trkpt lat="28.279542" lon="105.04649"><ele>491.4089</ele><time>2026-05-06T01:33:02.000Z</time></trkpt>
        <trkpt lat="28.279565" lon="105.046443"><ele>491.14432</ele><time>2026-05-06T01:33:07.000Z</time></trkpt>
        <trkpt lat="28.2796" lon="105.046398"><ele>490.77914</ele><time>2026-05-06T01:33:13.000Z</time></trkpt>
        <trkpt lat="28.279633" lon="105.046359"><ele>490.79407</ele><time>2026-05-06T01:33:18.000Z</time></trkpt>
        <trkpt lat="28.279662" lon="105.046317"><ele>489.74994</ele><time>2026-05-06T01:33:23.000Z</time></trkpt>
        <trkpt lat="28.279701" lon="105.046277"><ele>489.62</ele><time>2026-05-06T01:33:28.000Z</time></trkpt>
        <trkpt lat="28.279736" lon="105.046232"><ele>489.0083</ele><time>2026-05-06T01:33:34.000Z</time></trkpt>
        <trkpt lat="28.27977" lon="105.046191"><ele>487.48016</ele><time>2026-05-06T01:33:39.000Z</time></trkpt>
        <trkpt lat="28.2798" lon="105.04614"><ele>487.21448</ele><time>2026-05-06T01:33:44.000Z</time></trkpt>
        <trkpt lat="28.279826" lon="105.046096"><ele>487.0307</ele><time>2026-05-06T01:33:49.000Z</time></trkpt>
        <trkpt lat="28.279863" lon="105.046064"><ele>486.90427</ele><time>2026-05-06T01:33:54.000Z</time></trkpt>
        <trkpt lat="28.279899" lon="105.046026"><ele>485.85944</ele><time>2026-05-06T01:33:59.000Z</time></trkpt>
        <trkpt lat="28.279934" lon="105.045986"><ele>485.08084</ele><time>2026-05-06T01:34:05.000Z</time></trkpt>
        <trkpt lat="28.279968" lon="105.045946"><ele>484.40518</ele><time>2026-05-06T01:34:12.000Z</time></trkpt>
        <trkpt lat="28.28001" lon="105.045928"><ele>483.24243</ele><time>2026-05-06T01:34:17.000Z</time></trkpt>
        <trkpt lat="28.280053" lon="105.045902"><ele>482.87027</ele><time>2026-05-06T01:34:23.000Z</time></trkpt>
        <trkpt lat="28.280094" lon="105.045876"><ele>483.99094</ele><time>2026-05-06T01:34:29.000Z</time></trkpt>
        <trkpt lat="28.280139" lon="105.045854"><ele>483.71436</ele><time>2026-05-06T01:34:34.000Z</time></trkpt>
        <trkpt lat="28.280187" lon="105.045836"><ele>484.08472</ele><time>2026-05-06T01:34:40.000Z</time></trkpt>
        <trkpt lat="28.280222" lon="105.045798"><ele>484.35968</ele><time>2026-05-06T01:34:46.000Z</time></trkpt>
        <trkpt lat="28.280262" lon="105.045774"><ele>484.22598</ele><time>2026-05-06T01:34:52.000Z</time></trkpt>
        <trkpt lat="28.280307" lon="105.045753"><ele>483.04108</ele><time>2026-05-06T01:34:58.000Z</time></trkpt>
        <trkpt lat="28.280348" lon="105.045729"><ele>482.6783</ele><time>2026-05-06T01:35:03.000Z</time></trkpt>
        <trkpt lat="28.280379" lon="105.045686"><ele>481.51035</ele><time>2026-05-06T01:35:09.000Z</time></trkpt>
        <trkpt lat="28.280407" lon="105.045644"><ele>480.8676</ele><time>2026-05-06T01:35:13.000Z</time></trkpt>
        <trkpt lat="28.280436" lon="105.045592"><ele>480.04883</ele><time>2026-05-06T01:35:18.000Z</time></trkpt>
        <trkpt lat="28.280459" lon="105.04554"><ele>481.18808</ele><time>2026-05-06T01:35:24.000Z</time></trkpt>
        <trkpt lat="28.280471" lon="105.045485"><ele>480.7035</ele><time>2026-05-06T01:35:29.000Z</time></trkpt>
        <trkpt lat="28.280477" lon="105.045429"><ele>480.14722</ele><time>2026-05-06T01:35:33.000Z</time></trkpt>
        <trkpt lat="28.280493" lon="105.045369"><ele>480.68878</ele><time>2026-05-06T01:35:38.000Z</time></trkpt>
        <trkpt lat="28.280614" lon="105.0453"><ele>482.23083</ele><time>2026-05-06T01:35:40.000Z</time></trkpt>
        <trkpt lat="28.280511" lon="105.045335"><ele>480.5124</ele><time>2026-05-06T01:35:41.000Z</time></trkpt>
        <trkpt lat="28.280544" lon="105.045291"><ele>480.0363</ele><time>2026-05-06T01:35:45.000Z</time></trkpt>
        <trkpt lat="28.280583" lon="105.045249"><ele>478.66003</ele><time>2026-05-06T01:35:49.000Z</time></trkpt>
        <trkpt lat="28.280624" lon="105.045218"><ele>477.6744</ele><time>2026-05-06T01:35:53.000Z</time></trkpt>
        <trkpt lat="28.280669" lon="105.045191"><ele>476.50104</ele><time>2026-05-06T01:35:58.000Z</time></trkpt>
        <trkpt lat="28.280721" lon="105.045166"><ele>475.06635</ele><time>2026-05-06T01:36:03.000Z</time></trkpt>
        <trkpt lat="28.280765" lon="105.045137"><ele>473.8718</ele><time>2026-05-06T01:36:09.000Z</time></trkpt>
        <trkpt lat="28.280809" lon="105.045104"><ele>474.08322</ele><time>2026-05-06T01:36:14.000Z</time></trkpt>
        <trkpt lat="28.280839" lon="105.045048"><ele>474.03427</ele><time>2026-05-06T01:36:21.000Z</time></trkpt>
        <trkpt lat="28.280866" lon="105.045007"><ele>473.9858</ele><time>2026-05-06T01:36:26.000Z</time></trkpt>
        <trkpt lat="28.280885" lon="105.044958"><ele>473.47812</ele><time>2026-05-06T01:36:32.000Z</time></trkpt>
        <trkpt lat="28.280901" lon="105.044908"><ele>473.2122</ele><time>2026-05-06T01:36:37.000Z</time></trkpt>
        <trkpt lat="28.280921" lon="105.044853"><ele>472.08337</ele><time>2026-05-06T01:36:42.000Z</time></trkpt>
        <trkpt lat="28.280939" lon="105.0448"><ele>470.6392</ele><time>2026-05-06T01:36:47.000Z</time></trkpt>
        <trkpt lat="28.280951" lon="105.044749"><ele>470.36948</ele><time>2026-05-06T01:36:52.000Z</time></trkpt>
        <trkpt lat="28.280971" lon="105.044698"><ele>469.9991</ele><time>2026-05-06T01:36:57.000Z</time></trkpt>
        <trkpt lat="28.280991" lon="105.044643"><ele>469.80478</ele><time>2026-05-06T01:37:02.000Z</time></trkpt>
        <trkpt lat="28.28101" lon="105.044597"><ele>470.0957</ele><time>2026-05-06T01:37:06.000Z</time></trkpt>
        <trkpt lat="28.281032" lon="105.044549"><ele>470.1319</ele><time>2026-05-06T01:37:11.000Z</time></trkpt>
        <trkpt lat="28.281063" lon="105.044497"><ele>469.4149</ele><time>2026-05-06T01:37:16.000Z</time></trkpt>
        <trkpt lat="28.281093" lon="105.044445"><ele>469.45404</ele><time>2026-05-06T01:37:21.000Z</time></trkpt>
        <trkpt lat="28.281149" lon="105.044374"><ele>468.0688</ele><time>2026-05-06T01:38:33.000Z</time></trkpt>
        <trkpt lat="28.281164" lon="105.044323"><ele>467.67905</ele><time>2026-05-06T01:38:34.000Z</time></trkpt>
        <trkpt lat="28.281171" lon="105.044258"><ele>467.34717</ele><time>2026-05-06T01:38:35.000Z</time></trkpt>
        <trkpt lat="28.281184" lon="105.044196"><ele>466.74362</ele><time>2026-05-06T01:38:36.000Z</time></trkpt>
        <trkpt lat="28.281179" lon="105.044144"><ele>467.15707</ele><time>2026-05-06T01:38:37.000Z</time></trkpt>
        <trkpt lat="28.28118" lon="105.04409"><ele>466.73868</ele><time>2026-05-06T01:38:38.000Z</time></trkpt>
        <trkpt lat="28.281174" lon="105.044024"><ele>466.33026</ele><time>2026-05-06T01:38:39.000Z</time></trkpt>
        <trkpt lat="28.281167" lon="105.043964"><ele>466.15396</ele><time>2026-05-06T01:38:40.000Z</time></trkpt>
        <trkpt lat="28.281161" lon="105.0439"><ele>465.51022</ele><time>2026-05-06T01:38:41.000Z</time></trkpt>
        <trkpt lat="28.281251" lon="105.043869"><ele>464.69913</ele><time>2026-05-06T01:38:42.000Z</time></trkpt>
        <trkpt lat="28.281264" lon="105.043816"><ele>464.26025</ele><time>2026-05-06T01:38:43.000Z</time></trkpt>
        <trkpt lat="28.281277" lon="105.043766"><ele>462.49155</ele><time>2026-05-06T01:38:44.000Z</time></trkpt>
        <trkpt lat="28.281293" lon="105.043702"><ele>461.9918</ele><time>2026-05-06T01:38:45.000Z</time></trkpt>
        <trkpt lat="28.281301" lon="105.043629"><ele>461.45923</ele><time>2026-05-06T01:38:46.000Z</time></trkpt>
        <trkpt lat="28.281338" lon="105.043563"><ele>461.27438</ele><time>2026-05-06T01:38:47.000Z</time></trkpt>
        <trkpt lat="28.281358" lon="105.043493"><ele>459.83148</ele><time>2026-05-06T01:38:48.000Z</time></trkpt>
        <trkpt lat="28.281372" lon="105.04342"><ele>459.69278</ele><time>2026-05-06T01:38:49.000Z</time></trkpt>
        <trkpt lat="28.281383" lon="105.043346"><ele>459.5429</ele><time>2026-05-06T01:38:50.000Z</time></trkpt>
        <trkpt lat="28.281391" lon="105.043279"><ele>459.4264</ele><time>2026-05-06T01:38:51.000Z</time></trkpt>
        <trkpt lat="28.281422" lon="105.043212"><ele>459.13864</ele><time>2026-05-06T01:38:52.000Z</time></trkpt>
        <trkpt lat="28.281406" lon="105.043139"><ele>458.78793</ele><time>2026-05-06T01:38:53.000Z</time></trkpt>
        <trkpt lat="28.28142" lon="105.043075"><ele>458.29572</ele><time>2026-05-06T01:38:54.000Z</time></trkpt>
        <trkpt lat="28.281436" lon="105.043"><ele>457.8632</ele><time>2026-05-06T01:38:55.000Z</time></trkpt>
        <trkpt lat="28.281458" lon="105.042951"><ele>458.22403</ele><time>2026-05-06T01:38:56.000Z</time></trkpt>
        <trkpt lat="28.281516" lon="105.042872"><ele>457.65924</ele><time>2026-05-06T01:38:58.000Z</time></trkpt>
        <trkpt lat="28.281556" lon="105.042835"><ele>457.26895</ele><time>2026-05-06T01:38:59.000Z</time></trkpt>
        <trkpt lat="28.281607" lon="105.042806"><ele>456.726</ele><time>2026-05-06T01:39:00.000Z</time></trkpt>
        <trkpt lat="28.281661" lon="105.042789"><ele>456.71875</ele><time>2026-05-06T01:39:01.000Z</time></trkpt>
        <trkpt lat="28.281713" lon="105.042793"><ele>456.41916</ele><time>2026-05-06T01:39:02.000Z</time></trkpt>
        <trkpt lat="28.281767" lon="105.042816"><ele>456.18372</ele><time>2026-05-06T01:39:03.000Z</time></trkpt>
        <trkpt lat="28.281822" lon="105.042839"><ele>455.74295</ele><time>2026-05-06T01:39:04.000Z</time></trkpt>
        <trkpt lat="28.28186" lon="105.042877"><ele>455.53293</ele><time>2026-05-06T01:39:05.000Z</time></trkpt>
        <trkpt lat="28.281915" lon="105.042916"><ele>455.1407</ele><time>2026-05-06T01:39:06.000Z</time></trkpt>
        <trkpt lat="28.281959" lon="105.042954"><ele>455.089</ele><time>2026-05-06T01:39:07.000Z</time></trkpt>
        <trkpt lat="28.282012" lon="105.042988"><ele>455.06604</ele><time>2026-05-06T01:39:08.000Z</time></trkpt>
        <trkpt lat="28.282066" lon="105.043031"><ele>454.26758</ele><time>2026-05-06T01:39:09.000Z</time></trkpt>
        <trkpt lat="28.282123" lon="105.043074"><ele>453.99127</ele><time>2026-05-06T01:39:10.000Z</time></trkpt>
        <trkpt lat="28.282181" lon="105.043118"><ele>453.1462</ele><time>2026-05-06T01:39:10.000Z</time></trkpt>
        <trkpt lat="28.282238" lon="105.043158"><ele>452.70276</ele><time>2026-05-06T01:39:11.000Z</time></trkpt>
        <trkpt lat="28.282298" lon="105.043195"><ele>452.0506</ele><time>2026-05-06T01:39:12.000Z</time></trkpt>
        <trkpt lat="28.282355" lon="105.043214"><ele>452.43143</ele><time>2026-05-06T01:39:13.000Z</time></trkpt>
        <trkpt lat="28.282416" lon="105.043234"><ele>451.48877</ele><time>2026-05-06T01:39:14.000Z</time></trkpt>
        <trkpt lat="28.282479" lon="105.043245"><ele>450.878</ele><time>2026-05-06T01:39:15.000Z</time></trkpt>
        <trkpt lat="28.282543" lon="105.043256"><ele>450.7294</ele><time>2026-05-06T01:39:16.000Z</time></trkpt>
        <trkpt lat="28.282613" lon="105.043256"><ele>450.18683</ele><time>2026-05-06T01:39:17.000Z</time></trkpt>
        <trkpt lat="28.282686" lon="105.043262"><ele>449.8489</ele><time>2026-05-06T01:39:18.000Z</time></trkpt>
        <trkpt lat="28.282757" lon="105.043264"><ele>449.18982</ele><time>2026-05-06T01:39:19.000Z</time></trkpt>
        <trkpt lat="28.282826" lon="105.043253"><ele>449.22552</ele><time>2026-05-06T01:39:20.000Z</time></trkpt>
        <trkpt lat="28.282893" lon="105.043248"><ele>447.50067</ele><time>2026-05-06T01:39:21.000Z</time></trkpt>
        <trkpt lat="28.282949" lon="105.043232"><ele>448.1052</ele><time>2026-05-06T01:39:22.000Z</time></trkpt>
        <trkpt lat="28.283004" lon="105.043202"><ele>447.67496</ele><time>2026-05-06T01:39:23.000Z</time></trkpt>
        <trkpt lat="28.283067" lon="105.043164"><ele>447.79718</ele><time>2026-05-06T01:39:24.000Z</time></trkpt>
        <trkpt lat="28.283143" lon="105.043119"><ele>447.7089</ele><time>2026-05-06T01:39:25.000Z</time></trkpt>
        <trkpt lat="28.283197" lon="105.043078"><ele>447.96634</ele><time>2026-05-06T01:39:26.000Z</time></trkpt>
        <trkpt lat="28.283255" lon="105.043046"><ele>447.2916</ele><time>2026-05-06T01:39:27.000Z</time></trkpt>
        <trkpt lat="28.283313" lon="105.043012"><ele>448.1636</ele><time>2026-05-06T01:39:28.000Z</time></trkpt>
        <trkpt lat="28.283368" lon="105.042982"><ele>448.09857</ele><time>2026-05-06T01:39:29.000Z</time></trkpt>
        <trkpt lat="28.283429" lon="105.04295"><ele>448.17627</ele><time>2026-05-06T01:39:30.000Z</time></trkpt>
        <trkpt lat="28.283489" lon="105.04292"><ele>448.43982</ele><time>2026-05-06T01:39:31.000Z</time></trkpt>
        <trkpt lat="28.283544" lon="105.042889"><ele>448.58438</ele><time>2026-05-06T01:39:32.000Z</time></trkpt>
        <trkpt lat="28.283601" lon="105.042855"><ele>449.07285</ele><time>2026-05-06T01:39:33.000Z</time></trkpt>
        <trkpt lat="28.283657" lon="105.042819"><ele>449.18845</ele><time>2026-05-06T01:39:34.000Z</time></trkpt>
        <trkpt lat="28.28372" lon="105.042777"><ele>449.7859</ele><time>2026-05-06T01:39:35.000Z</time></trkpt>
        <trkpt lat="28.283766" lon="105.04273"><ele>450.35294</ele><time>2026-05-06T01:39:36.000Z</time></trkpt>
        <trkpt lat="28.283825" lon="105.042688"><ele>450.78107</ele><time>2026-05-06T01:39:37.000Z</time></trkpt>
        <trkpt lat="28.283877" lon="105.042646"><ele>450.91483</ele><time>2026-05-06T01:39:38.000Z</time></trkpt>
        <trkpt lat="28.283927" lon="105.042591"><ele>451.411</ele><time>2026-05-06T01:39:39.000Z</time></trkpt>
        <trkpt lat="28.283972" lon="105.042539"><ele>452.593</ele><time>2026-05-06T01:39:40.000Z</time></trkpt>
        <trkpt lat="28.284038" lon="105.042493"><ele>452.7263</ele><time>2026-05-06T01:39:41.000Z</time></trkpt>
        <trkpt lat="28.284091" lon="105.042437"><ele>453.46243</ele><time>2026-05-06T01:39:42.000Z</time></trkpt>
        <trkpt lat="28.284147" lon="105.042381"><ele>453.81842</ele><time>2026-05-06T01:39:43.000Z</time></trkpt>
        <trkpt lat="28.284208" lon="105.042331"><ele>454.80548</ele><time>2026-05-06T01:39:44.000Z</time></trkpt>
        <trkpt lat="28.284267" lon="105.042284"><ele>455.6336</ele><time>2026-05-06T01:39:45.000Z</time></trkpt>
        <trkpt lat="28.284321" lon="105.042245"><ele>456.63974</ele><time>2026-05-06T01:39:46.000Z</time></trkpt>
        <trkpt lat="28.284369" lon="105.042203"><ele>457.133</ele><time>2026-05-06T01:39:47.000Z</time></trkpt>
        <trkpt lat="28.284424" lon="105.042175"><ele>458.09464</ele><time>2026-05-06T01:39:48.000Z</time></trkpt>
        <trkpt lat="28.284487" lon="105.04215"><ele>458.48407</ele><time>2026-05-06T01:39:49.000Z</time></trkpt>
        <trkpt lat="28.28456" lon="105.042118"><ele>458.7932</ele><time>2026-05-06T01:39:50.000Z</time></trkpt>
        <trkpt lat="28.284629" lon="105.042078"><ele>459.09573</ele><time>2026-05-06T01:39:51.000Z</time></trkpt>
        <trkpt lat="28.284715" lon="105.042041"><ele>459.4318</ele><time>2026-05-06T01:39:53.000Z</time></trkpt>
        <trkpt lat="28.284782" lon="105.042018"><ele>459.6118</ele><time>2026-05-06T01:39:54.000Z</time></trkpt>
        <trkpt lat="28.28485" lon="105.041991"><ele>460.08264</ele><time>2026-05-06T01:39:55.000Z</time></trkpt>
        <trkpt lat="28.284918" lon="105.041962"><ele>460.424</ele><time>2026-05-06T01:39:56.000Z</time></trkpt>
        <trkpt lat="28.284984" lon="105.041942"><ele>460.33664</ele><time>2026-05-06T01:39:57.000Z</time></trkpt>
        <trkpt lat="28.285061" lon="105.041932"><ele>460.4565</ele><time>2026-05-06T01:39:58.000Z</time></trkpt>
        <trkpt lat="28.285139" lon="105.041925"><ele>460.3655</ele><time>2026-05-06T01:39:59.000Z</time></trkpt>
        <trkpt lat="28.285218" lon="105.041931"><ele>460.07382</ele><time>2026-05-06T01:40:00.000Z</time></trkpt>
        <trkpt lat="28.285304" lon="105.041941"><ele>459.99783</ele><time>2026-05-06T01:40:01.000Z</time></trkpt>
        <trkpt lat="28.285385" lon="105.041955"><ele>459.2506</ele><time>2026-05-06T01:40:02.000Z</time></trkpt>
        <trkpt lat="28.285463" lon="105.041966"><ele>459.91815</ele><time>2026-05-06T01:40:03.000Z</time></trkpt>
        <trkpt lat="28.285534" lon="105.041968"><ele>460.11282</ele><time>2026-05-06T01:40:04.000Z</time></trkpt>
        <trkpt lat="28.285594" lon="105.041959"><ele>460.10873</ele><time>2026-05-06T01:40:05.000Z</time></trkpt>
        <trkpt lat="28.285663" lon="105.041933"><ele>459.92807</ele><time>2026-05-06T01:40:06.000Z</time></trkpt>
        <trkpt lat="28.285718" lon="105.041897"><ele>460.04047</ele><time>2026-05-06T01:40:07.000Z</time></trkpt>
        <trkpt lat="28.285772" lon="105.041868"><ele>459.1836</ele><time>2026-05-06T01:40:08.000Z</time></trkpt>
        <trkpt lat="28.285816" lon="105.041817"><ele>459.3717</ele><time>2026-05-06T01:40:09.000Z</time></trkpt>
        <trkpt lat="28.285862" lon="105.04176"><ele>458.77414</ele><time>2026-05-06T01:40:10.000Z</time></trkpt>
        <trkpt lat="28.285924" lon="105.041712"><ele>457.92343</ele><time>2026-05-06T01:40:11.000Z</time></trkpt>
        <trkpt lat="28.285985" lon="105.041668"><ele>458.02814</ele><time>2026-05-06T01:40:12.000Z</time></trkpt>
        <trkpt lat="28.286046" lon="105.041624"><ele>458.32745</ele><time>2026-05-06T01:40:13.000Z</time></trkpt>
        <trkpt lat="28.28611" lon="105.041587"><ele>457.44864</ele><time>2026-05-06T01:40:14.000Z</time></trkpt>
        <trkpt lat="28.28618" lon="105.041538"><ele>457.6836</ele><time>2026-05-06T01:40:15.000Z</time></trkpt>
        <trkpt lat="28.286243" lon="105.041484"><ele>458.11996</ele><time>2026-05-06T01:40:16.000Z</time></trkpt>
        <trkpt lat="28.286303" lon="105.041429"><ele>458.04483</ele><time>2026-05-06T01:40:17.000Z</time></trkpt>
        <trkpt lat="28.286351" lon="105.041377"><ele>458.85193</ele><time>2026-05-06T01:40:18.000Z</time></trkpt>
        <trkpt lat="28.286393" lon="105.041331"><ele>459.05215</ele><time>2026-05-06T01:40:19.000Z</time></trkpt>
        <trkpt lat="28.286446" lon="105.04128"><ele>459.25003</ele><time>2026-05-06T01:40:20.000Z</time></trkpt>
        <trkpt lat="28.286493" lon="105.041247"><ele>460.07196</ele><time>2026-05-06T01:40:21.000Z</time></trkpt>
        <trkpt lat="28.286543" lon="105.041212"><ele>460.24762</ele><time>2026-05-06T01:40:22.000Z</time></trkpt>
        <trkpt lat="28.286583" lon="105.041163"><ele>460.0877</ele><time>2026-05-06T01:40:23.000Z</time></trkpt>
        <trkpt lat="28.286631" lon="105.041099"><ele>460.0735</ele><time>2026-05-06T01:40:24.000Z</time></trkpt>
        <trkpt lat="28.28669" lon="105.041042"><ele>460.04834</ele><time>2026-05-06T01:40:25.000Z</time></trkpt>
        <trkpt lat="28.286754" lon="105.040986"><ele>459.48306</ele><time>2026-05-06T01:40:26.000Z</time></trkpt>
        <trkpt lat="28.28681" lon="105.04096"><ele>458.98013</ele><time>2026-05-06T01:40:27.000Z</time></trkpt>
        <trkpt lat="28.286877" lon="105.040912"><ele>458.52713</ele><time>2026-05-06T01:40:28.000Z</time></trkpt>
        <trkpt lat="28.286942" lon="105.040891"><ele>458.39166</ele><time>2026-05-06T01:40:29.000Z</time></trkpt>
        <trkpt lat="28.28699" lon="105.040861"><ele>458.01468</ele><time>2026-05-06T01:40:30.000Z</time></trkpt>
        <trkpt lat="28.287033" lon="105.040828"><ele>457.75632</ele><time>2026-05-06T01:40:31.000Z</time></trkpt>
        <trkpt lat="28.28706" lon="105.040787"><ele>458.15372</ele><time>2026-05-06T01:40:32.000Z</time></trkpt>
        <trkpt lat="28.287075" lon="105.040738"><ele>457.90973</ele><time>2026-05-06T01:40:33.000Z</time></trkpt>
        <trkpt lat="28.287106" lon="105.040647"><ele>457.32648</ele><time>2026-05-06T01:40:35.000Z</time></trkpt>
        <trkpt lat="28.287131" lon="105.040597"><ele>457.37885</ele><time>2026-05-06T01:40:36.000Z</time></trkpt>
        <trkpt lat="28.287182" lon="105.040514"><ele>455.54578</ele><time>2026-05-06T01:40:38.000Z</time></trkpt>
        <trkpt lat="28.287217" lon="105.040464"><ele>455.3619</ele><time>2026-05-06T01:40:39.000Z</time></trkpt>
        <trkpt lat="28.287264" lon="105.040413"><ele>453.80005</ele><time>2026-05-06T01:40:40.000Z</time></trkpt>
        <trkpt lat="28.287288" lon="105.040361"><ele>452.8607</ele><time>2026-05-06T01:40:41.000Z</time></trkpt>
        <trkpt lat="28.287331" lon="105.04032"><ele>451.71603</ele><time>2026-05-06T01:40:42.000Z</time></trkpt>
        <trkpt lat="28.287381" lon="105.040274"><ele>450.58405</ele><time>2026-05-06T01:40:43.000Z</time></trkpt>
        <trkpt lat="28.287425" lon="105.04024"><ele>449.29413</ele><time>2026-05-06T01:40:44.000Z</time></trkpt>
        <trkpt lat="28.287468" lon="105.040204"><ele>448.2626</ele><time>2026-05-06T01:40:45.000Z</time></trkpt>
        <trkpt lat="28.287519" lon="105.040165"><ele>447.26218</ele><time>2026-05-06T01:40:46.000Z</time></trkpt>
        <trkpt lat="28.287564" lon="105.040137"><ele>446.34314</ele><time>2026-05-06T01:40:47.000Z</time></trkpt>
        <trkpt lat="28.287656" lon="105.040143"><ele>444.44</ele><time>2026-05-06T01:40:49.000Z</time></trkpt>
        <trkpt lat="28.287713" lon="105.040146"><ele>444.06024</ele><time>2026-05-06T01:40:50.000Z</time></trkpt>
        <trkpt lat="28.287766" lon="105.040145"><ele>443.62787</ele><time>2026-05-06T01:40:51.000Z</time></trkpt>
        <trkpt lat="28.28783" lon="105.040138"><ele>443.62683</ele><time>2026-05-06T01:40:53.000Z</time></trkpt>
        <trkpt lat="28.287883" lon="105.040116"><ele>443.147</ele><time>2026-05-06T01:40:55.000Z</time></trkpt>
        <trkpt lat="28.287946" lon="105.040027"><ele>442.89658</ele><time>2026-05-06T01:40:57.000Z</time></trkpt>
        <trkpt lat="28.287975" lon="105.039981"><ele>442.17606</ele><time>2026-05-06T01:40:58.000Z</time></trkpt>
        <trkpt lat="28.288002" lon="105.039937"><ele>441.8749</ele><time>2026-05-06T01:40:59.000Z</time></trkpt>
        <trkpt lat="28.288028" lon="105.039876"><ele>441.27106</ele><time>2026-05-06T01:41:00.000Z</time></trkpt>
        <trkpt lat="28.288059" lon="105.039826"><ele>440.01703</ele><time>2026-05-06T01:41:01.000Z</time></trkpt>
        <trkpt lat="28.288092" lon="105.039769"><ele>439.2927</ele><time>2026-05-06T01:41:02.000Z</time></trkpt>
        <trkpt lat="28.288123" lon="105.039711"><ele>438.68704</ele><time>2026-05-06T01:41:03.000Z</time></trkpt>
        <trkpt lat="28.288168" lon="105.039661"><ele>438.156</ele><time>2026-05-06T01:41:04.000Z</time></trkpt>
        <trkpt lat="28.288213" lon="105.039613"><ele>437.2182</ele><time>2026-05-06T01:41:05.000Z</time></trkpt>
        <trkpt lat="28.288279" lon="105.039565"><ele>437.64114</ele><time>2026-05-06T01:41:06.000Z</time></trkpt>
        <trkpt lat="28.288345" lon="105.039536"><ele>436.75766</ele><time>2026-05-06T01:41:07.000Z</time></trkpt>
        <trkpt lat="28.288406" lon="105.039517"><ele>436.33768</ele><time>2026-05-06T01:41:08.000Z</time></trkpt>
        <trkpt lat="28.288478" lon="105.039502"><ele>436.44092</ele><time>2026-05-06T01:41:09.000Z</time></trkpt>
        <trkpt lat="28.288549" lon="105.039504"><ele>436.40802</ele><time>2026-05-06T01:41:10.000Z</time></trkpt>
        <trkpt lat="28.288624" lon="105.039505"><ele>436.60205</ele><time>2026-05-06T01:41:11.000Z</time></trkpt>
        <trkpt lat="28.288691" lon="105.039493"><ele>436.90842</ele><time>2026-05-06T01:41:12.000Z</time></trkpt>
        <trkpt lat="28.288756" lon="105.03949"><ele>437.1044</ele><time>2026-05-06T01:41:13.000Z</time></trkpt>
        <trkpt lat="28.28883" lon="105.039484"><ele>436.96405</ele><time>2026-05-06T01:41:14.000Z</time></trkpt>
        <trkpt lat="28.288904" lon="105.039463"><ele>437.11346</ele><time>2026-05-06T01:41:15.000Z</time></trkpt>
        <trkpt lat="28.28897" lon="105.039441"><ele>437.30444</ele><time>2026-05-06T01:41:16.000Z</time></trkpt>
        <trkpt lat="28.289032" lon="105.039414"><ele>437.229</ele><time>2026-05-06T01:41:16.000Z</time></trkpt>
        <trkpt lat="28.289098" lon="105.039378"><ele>437.35413</ele><time>2026-05-06T01:41:17.000Z</time></trkpt>
        <trkpt lat="28.289157" lon="105.039339"><ele>437.6164</ele><time>2026-05-06T01:41:18.000Z</time></trkpt>
        <trkpt lat="28.289227" lon="105.03932"><ele>437.2763</ele><time>2026-05-06T01:41:19.000Z</time></trkpt>
        <trkpt lat="28.289291" lon="105.0393"><ele>437.0262</ele><time>2026-05-06T01:41:20.000Z</time></trkpt>
        <trkpt lat="28.289361" lon="105.039281"><ele>435.93613</ele><time>2026-05-06T01:41:21.000Z</time></trkpt>
        <trkpt lat="28.289426" lon="105.039256"><ele>435.99225</ele><time>2026-05-06T01:41:22.000Z</time></trkpt>
        <trkpt lat="28.289495" lon="105.039219"><ele>435.7308</ele><time>2026-05-06T01:41:23.000Z</time></trkpt>
        <trkpt lat="28.289557" lon="105.039169"><ele>434.3225</ele><time>2026-05-06T01:41:24.000Z</time></trkpt>
        <trkpt lat="28.289618" lon="105.039134"><ele>433.8414</ele><time>2026-05-06T01:41:25.000Z</time></trkpt>
        <trkpt lat="28.289676" lon="105.039114"><ele>433.09717</ele><time>2026-05-06T01:41:26.000Z</time></trkpt>
        <trkpt lat="28.289725" lon="105.039088"><ele>432.091</ele><time>2026-05-06T01:41:27.000Z</time></trkpt>
        <trkpt lat="28.289785" lon="105.039054"><ele>431.41016</ele><time>2026-05-06T01:41:29.000Z</time></trkpt>
        <trkpt lat="28.289846" lon="105.039047"><ele>431.1058</ele><time>2026-05-06T01:41:32.000Z</time></trkpt>
        <trkpt lat="28.289893" lon="105.039067"><ele>432.31494</ele><time>2026-05-06T01:41:34.000Z</time></trkpt>
        <trkpt lat="28.289955" lon="105.039083"><ele>433.34912</ele><time>2026-05-06T01:41:36.000Z</time></trkpt>
        <trkpt lat="28.290012" lon="105.039089"><ele>434.2463</ele><time>2026-05-06T01:41:37.000Z</time></trkpt>
        <trkpt lat="28.290062" lon="105.039104"><ele>435.02374</ele><time>2026-05-06T01:41:38.000Z</time></trkpt>
        <trkpt lat="28.290112" lon="105.039115"><ele>435.42053</ele><time>2026-05-06T01:41:39.000Z</time></trkpt>
        <trkpt lat="28.29016" lon="105.039108"><ele>435.85217</ele><time>2026-05-06T01:41:40.000Z</time></trkpt>
        <trkpt lat="28.290243" lon="105.039128"><ele>436.471</ele><time>2026-05-06T01:41:42.000Z</time></trkpt>
        <trkpt lat="28.290323" lon="105.039126"><ele>437.4438</ele><time>2026-05-06T01:41:44.000Z</time></trkpt>
        <trkpt lat="28.290414" lon="105.039091"><ele>439.33963</ele><time>2026-05-06T01:41:46.000Z</time></trkpt>
        <trkpt lat="28.290466" lon="105.039072"><ele>440.27362</ele><time>2026-05-06T01:41:47.000Z</time></trkpt>
        <trkpt lat="28.290518" lon="105.039056"><ele>440.60333</ele><time>2026-05-06T01:41:48.000Z</time></trkpt>
        <trkpt lat="28.290562" lon="105.039042"><ele>441.68304</ele><time>2026-05-06T01:41:49.000Z</time></trkpt>
        <trkpt lat="28.2906" lon="105.039008"><ele>442.59183</ele><time>2026-05-06T01:41:50.000Z</time></trkpt>
        <trkpt lat="28.290657" lon="105.038955"><ele>443.3523</ele><time>2026-05-06T01:41:52.000Z</time></trkpt>
        <trkpt lat="28.290699" lon="105.038918"><ele>443.28406</ele><time>2026-05-06T01:41:54.000Z</time></trkpt>
        <trkpt lat="28.290725" lon="105.038843"><ele>443.0466</ele><time>2026-05-06T01:41:56.000Z</time></trkpt>
        <trkpt lat="28.290798" lon="105.038766"><ele>442.59613</ele><time>2026-05-06T01:41:58.000Z</time></trkpt>
        <trkpt lat="28.290845" lon="105.038727"><ele>441.65457</ele><time>2026-05-06T01:41:59.000Z</time></trkpt>
        <trkpt lat="28.290881" lon="105.038674"><ele>442.06674</ele><time>2026-05-06T01:42:00.000Z</time></trkpt>
        <trkpt lat="28.290941" lon="105.038598"><ele>440.998</ele><time>2026-05-06T01:42:02.000Z</time></trkpt>
        <trkpt lat="28.290987" lon="105.038562"><ele>441.31543</ele><time>2026-05-06T01:42:03.000Z</time></trkpt>
        <trkpt lat="28.291034" lon="105.038527"><ele>440.83395</ele><time>2026-05-06T01:42:04.000Z</time></trkpt>
        <trkpt lat="28.291066" lon="105.038489"><ele>440.0161</ele><time>2026-05-06T01:42:05.000Z</time></trkpt>
        <trkpt lat="28.291104" lon="105.038459"><ele>439.7208</ele><time>2026-05-06T01:42:06.000Z</time></trkpt>
        <trkpt lat="28.291172" lon="105.03843"><ele>438.23657</ele><time>2026-05-06T01:42:07.000Z</time></trkpt>
        <trkpt lat="28.291227" lon="105.038375"><ele>436.74765</ele><time>2026-05-06T01:42:08.000Z</time></trkpt>
        <trkpt lat="28.291281" lon="105.038328"><ele>435.63132</ele><time>2026-05-06T01:42:09.000Z</time></trkpt>
        <trkpt lat="28.291335" lon="105.038269"><ele>434.36765</ele><time>2026-05-06T01:42:10.000Z</time></trkpt>
        <trkpt lat="28.29139" lon="105.038241"><ele>433.77304</ele><time>2026-05-06T01:42:11.000Z</time></trkpt>
        <trkpt lat="28.291462" lon="105.038214"><ele>432.31854</ele><time>2026-05-06T01:42:12.000Z</time></trkpt>
        <trkpt lat="28.291535" lon="105.038183"><ele>432.89474</ele><time>2026-05-06T01:42:13.000Z</time></trkpt>
        <trkpt lat="28.2916" lon="105.038159"><ele>432.7383</ele><time>2026-05-06T01:42:14.000Z</time></trkpt>
        <trkpt lat="28.29166" lon="105.038151"><ele>431.97363</ele><time>2026-05-06T01:42:15.000Z</time></trkpt>
        <trkpt lat="28.291716" lon="105.038143"><ele>432.0874</ele><time>2026-05-06T01:42:16.000Z</time></trkpt>
        <trkpt lat="28.291766" lon="105.038131"><ele>431.42722</ele><time>2026-05-06T01:42:17.000Z</time></trkpt>
        <trkpt lat="28.291839" lon="105.03807"><ele>430.41943</ele><time>2026-05-06T01:42:19.000Z</time></trkpt>
        <trkpt lat="28.291868" lon="105.038009"><ele>430.07703</ele><time>2026-05-06T01:42:20.000Z</time></trkpt>
        <trkpt lat="28.291902" lon="105.037963"><ele>430.03513</ele><time>2026-05-06T01:42:21.000Z</time></trkpt>
        <trkpt lat="28.29195" lon="105.037919"><ele>429.5671</ele><time>2026-05-06T01:42:22.000Z</time></trkpt>
        <trkpt lat="28.292007" lon="105.03788"><ele>429.34198</ele><time>2026-05-06T01:42:24.000Z</time></trkpt>
        <trkpt lat="28.292055" lon="105.03784"><ele>429.6983</ele><time>2026-05-06T01:42:25.000Z</time></trkpt>
        <trkpt lat="28.292118" lon="105.037827"><ele>428.7251</ele><time>2026-05-06T01:42:26.000Z</time></trkpt>
        <trkpt lat="28.29217" lon="105.037809"><ele>428.5746</ele><time>2026-05-06T01:42:27.000Z</time></trkpt>
        <trkpt lat="28.292228" lon="105.037802"><ele>429.28403</ele><time>2026-05-06T01:42:28.000Z</time></trkpt>
        <trkpt lat="28.292294" lon="105.037792"><ele>429.17642</ele><time>2026-05-06T01:42:29.000Z</time></trkpt>
        <trkpt lat="28.29235" lon="105.037778"><ele>429.1547</ele><time>2026-05-06T01:42:30.000Z</time></trkpt>
        <trkpt lat="28.292411" lon="105.03777"><ele>428.9256</ele><time>2026-05-06T01:42:31.000Z</time></trkpt>
        <trkpt lat="28.292464" lon="105.037766"><ele>429.17084</ele><time>2026-05-06T01:42:32.000Z</time></trkpt>
        <trkpt lat="28.292524" lon="105.03776"><ele>429.45026</ele><time>2026-05-06T01:42:33.000Z</time></trkpt>
        <trkpt lat="28.292575" lon="105.037756"><ele>430.48172</ele><time>2026-05-06T01:42:34.000Z</time></trkpt>
        <trkpt lat="28.292619" lon="105.037742"><ele>430.5839</ele><time>2026-05-06T01:42:35.000Z</time></trkpt>
        <trkpt lat="28.292684" lon="105.037707"><ele>430.99216</ele><time>2026-05-06T01:42:37.000Z</time></trkpt>
        <trkpt lat="28.29273" lon="105.037686"><ele>430.77402</ele><time>2026-05-06T01:42:38.000Z</time></trkpt>
        <trkpt lat="28.292782" lon="105.037653"><ele>431.52267</ele><time>2026-05-06T01:42:39.000Z</time></trkpt>
        <trkpt lat="28.292834" lon="105.037625"><ele>431.92297</ele><time>2026-05-06T01:42:40.000Z</time></trkpt>
        <trkpt lat="28.292872" lon="105.03759"><ele>433.3731</ele><time>2026-05-06T01:42:41.000Z</time></trkpt>
        <trkpt lat="28.292928" lon="105.037543"><ele>433.5137</ele><time>2026-05-06T01:42:43.000Z</time></trkpt>
        <trkpt lat="28.292985" lon="105.037487"><ele>432.8236</ele><time>2026-05-06T01:42:45.000Z</time></trkpt>
        <trkpt lat="28.29303" lon="105.037463"><ele>432.23328</ele><time>2026-05-06T01:42:46.000Z</time></trkpt>
        <trkpt lat="28.293096" lon="105.037443"><ele>430.71344</ele><time>2026-05-06T01:42:47.000Z</time></trkpt>
        <trkpt lat="28.29317" lon="105.037425"><ele>430.427</ele><time>2026-05-06T01:42:48.000Z</time></trkpt>
        <trkpt lat="28.293239" lon="105.037398"><ele>430.27728</ele><time>2026-05-06T01:42:49.000Z</time></trkpt>
        <trkpt lat="28.293296" lon="105.037378"><ele>431.18143</ele><time>2026-05-06T01:42:50.000Z</time></trkpt>
        <trkpt lat="28.293353" lon="105.037345"><ele>430.36426</ele><time>2026-05-06T01:42:51.000Z</time></trkpt>
        <trkpt lat="28.2934" lon="105.037314"><ele>430.1419</ele><time>2026-05-06T01:42:52.000Z</time></trkpt>
        <trkpt lat="28.293448" lon="105.037284"><ele>429.55692</ele><time>2026-05-06T01:42:53.000Z</time></trkpt>
        <trkpt lat="28.2935" lon="105.037256"><ele>429.16385</ele><time>2026-05-06T01:42:54.000Z</time></trkpt>
        <trkpt lat="28.293538" lon="105.037218"><ele>429.14594</ele><time>2026-05-06T01:42:55.000Z</time></trkpt>
        <trkpt lat="28.293583" lon="105.037171"><ele>428.45404</ele><time>2026-05-06T01:42:56.000Z</time></trkpt>
        <trkpt lat="28.293612" lon="105.037113"><ele>427.94345</ele><time>2026-05-06T01:42:57.000Z</time></trkpt>
        <trkpt lat="28.293641" lon="105.037062"><ele>427.86337</ele><time>2026-05-06T01:42:58.000Z</time></trkpt>
        <trkpt lat="28.293657" lon="105.036999"><ele>427.93646</ele><time>2026-05-06T01:42:59.000Z</time></trkpt>
        <trkpt lat="28.293691" lon="105.036958"><ele>427.40875</ele><time>2026-05-06T01:43:00.000Z</time></trkpt>
        <trkpt lat="28.293776" lon="105.036896"><ele>427.3084</ele><time>2026-05-06T01:43:02.000Z</time></trkpt>
        <trkpt lat="28.293824" lon="105.036865"><ele>427.07706</ele><time>2026-05-06T01:43:03.000Z</time></trkpt>
        <trkpt lat="28.293877" lon="105.036841"><ele>426.1049</ele><time>2026-05-06T01:43:04.000Z</time></trkpt>
        <trkpt lat="28.293914" lon="105.036806"><ele>425.9053</ele><time>2026-05-06T01:43:05.000Z</time></trkpt>
        <trkpt lat="28.293958" lon="105.036763"><ele>425.73608</ele><time>2026-05-06T01:43:06.000Z</time></trkpt>
        <trkpt lat="28.293997" lon="105.036726"><ele>425.02972</ele><time>2026-05-06T01:43:07.000Z</time></trkpt>
        <trkpt lat="28.29404" lon="105.03669"><ele>425.28625</ele><time>2026-05-06T01:43:08.000Z</time></trkpt>
        <trkpt lat="28.294085" lon="105.036659"><ele>424.3764</ele><time>2026-05-06T01:43:09.000Z</time></trkpt>
        <trkpt lat="28.294131" lon="105.036623"><ele>424.30728</ele><time>2026-05-06T01:43:10.000Z</time></trkpt>
        <trkpt lat="28.29418" lon="105.036577"><ele>423.79535</ele><time>2026-05-06T01:43:11.000Z</time></trkpt>
        <trkpt lat="28.294223" lon="105.036547"><ele>424.0097</ele><time>2026-05-06T01:43:12.000Z</time></trkpt>
        <trkpt lat="28.294271" lon="105.036511"><ele>424.1716</ele><time>2026-05-06T01:43:13.000Z</time></trkpt>
        <trkpt lat="28.294307" lon="105.036468"><ele>423.8192</ele><time>2026-05-06T01:43:14.000Z</time></trkpt>
        <trkpt lat="28.294339" lon="105.036431"><ele>423.83185</ele><time>2026-05-06T01:43:15.000Z</time></trkpt>
        <trkpt lat="28.29438" lon="105.036399"><ele>424.38837</ele><time>2026-05-06T01:43:16.000Z</time></trkpt>
        <trkpt lat="28.294415" lon="105.03636"><ele>424.68274</ele><time>2026-05-06T01:43:17.000Z</time></trkpt>
        <trkpt lat="28.29446" lon="105.036283"><ele>423.88782</ele><time>2026-05-06T01:43:19.000Z</time></trkpt>
        <trkpt lat="28.29446" lon="105.036186"><ele>423.12085</ele><time>2026-05-06T01:43:21.000Z</time></trkpt>
        <trkpt lat="28.294451" lon="105.036126"><ele>422.3198</ele><time>2026-05-06T01:43:22.000Z</time></trkpt>
        <trkpt lat="28.294444" lon="105.036059"><ele>421.12695</ele><time>2026-05-06T01:43:22.000Z</time></trkpt>
        <trkpt lat="28.294453" lon="105.035994"><ele>420.4812</ele><time>2026-05-06T01:43:23.000Z</time></trkpt>
        <trkpt lat="28.294462" lon="105.035942"><ele>419.89413</ele><time>2026-05-06T01:43:24.000Z</time></trkpt>
        <trkpt lat="28.294494" lon="105.035889"><ele>418.88467</ele><time>2026-05-06T01:43:25.000Z</time></trkpt>
        <trkpt lat="28.294526" lon="105.035845"><ele>418.8695</ele><time>2026-05-06T01:43:26.000Z</time></trkpt>
        <trkpt lat="28.294573" lon="105.035799"><ele>418.49377</ele><time>2026-05-06T01:43:27.000Z</time></trkpt>
        <trkpt lat="28.294606" lon="105.035759"><ele>418.03653</ele><time>2026-05-06T01:43:28.000Z</time></trkpt>
        <trkpt lat="28.294663" lon="105.035686"><ele>417.9277</ele><time>2026-05-06T01:43:30.000Z</time></trkpt>
        <trkpt lat="28.294722" lon="105.035616"><ele>418.02444</ele><time>2026-05-06T01:43:32.000Z</time></trkpt>
        <trkpt lat="28.294752" lon="105.035566"><ele>418.27835</ele><time>2026-05-06T01:43:33.000Z</time></trkpt>
        <trkpt lat="28.294787" lon="105.035518"><ele>418.73303</ele><time>2026-05-06T01:43:34.000Z</time></trkpt>
        <trkpt lat="28.294823" lon="105.035479"><ele>418.4516</ele><time>2026-05-06T01:43:35.000Z</time></trkpt>
        <trkpt lat="28.29485" lon="105.035437"><ele>418.70212</ele><time>2026-05-06T01:43:36.000Z</time></trkpt>
        <trkpt lat="28.294886" lon="105.035366"><ele>418.2496</ele><time>2026-05-06T01:43:37.000Z</time></trkpt>
        <trkpt lat="28.294908" lon="105.03532"><ele>418.45248</ele><time>2026-05-06T01:43:38.000Z</time></trkpt>
        <trkpt lat="28.294923" lon="105.035262"><ele>418.36603</ele><time>2026-05-06T01:43:39.000Z</time></trkpt>
        <trkpt lat="28.294942" lon="105.035192"><ele>417.90237</ele><time>2026-05-06T01:43:40.000Z</time></trkpt>
        <trkpt lat="28.294966" lon="105.03513"><ele>417.73685</ele><time>2026-05-06T01:43:41.000Z</time></trkpt>
        <trkpt lat="28.295002" lon="105.035089"><ele>416.9888</ele><time>2026-05-06T01:43:42.000Z</time></trkpt>
        <trkpt lat="28.295034" lon="105.035035"><ele>417.28818</ele><time>2026-05-06T01:43:43.000Z</time></trkpt>
        <trkpt lat="28.295071" lon="105.034991"><ele>417.22693</ele><time>2026-05-06T01:43:44.000Z</time></trkpt>
        <trkpt lat="28.295113" lon="105.034952"><ele>417.48145</ele><time>2026-05-06T01:43:45.000Z</time></trkpt>
        <trkpt lat="28.295158" lon="105.034898"><ele>417.08344</ele><time>2026-05-06T01:43:46.000Z</time></trkpt>
        <trkpt lat="28.295212" lon="105.034839"><ele>417.4417</ele><time>2026-05-06T01:43:47.000Z</time></trkpt>
        <trkpt lat="28.295269" lon="105.034784"><ele>417.59018</ele><time>2026-05-06T01:43:48.000Z</time></trkpt>
        <trkpt lat="28.295317" lon="105.034735"><ele>418.06467</ele><time>2026-05-06T01:43:49.000Z</time></trkpt>
        <trkpt lat="28.295362" lon="105.034681"><ele>417.66782</ele><time>2026-05-06T01:43:50.000Z</time></trkpt>
        <trkpt lat="28.295407" lon="105.034625"><ele>418.08093</ele><time>2026-05-06T01:43:51.000Z</time></trkpt>
        <trkpt lat="28.295443" lon="105.034558"><ele>418.09158</ele><time>2026-05-06T01:43:52.000Z</time></trkpt>
        <trkpt lat="28.295464" lon="105.034487"><ele>418.21533</ele><time>2026-05-06T01:43:53.000Z</time></trkpt>
        <trkpt lat="28.295485" lon="105.034422"><ele>418.41653</ele><time>2026-05-06T01:43:54.000Z</time></trkpt>
        <trkpt lat="28.295497" lon="105.034352"><ele>419.14462</ele><time>2026-05-06T01:43:55.000Z</time></trkpt>
        <trkpt lat="28.295507" lon="105.034285"><ele>419.84183</ele><time>2026-05-06T01:43:56.000Z</time></trkpt>
        <trkpt lat="28.295502" lon="105.034207"><ele>420.19894</ele><time>2026-05-06T01:43:57.000Z</time></trkpt>
        <trkpt lat="28.295494" lon="105.034147"><ele>420.90176</ele><time>2026-05-06T01:43:58.000Z</time></trkpt>
        <trkpt lat="28.295508" lon="105.034088"><ele>421.5251</ele><time>2026-05-06T01:43:59.000Z</time></trkpt>
        <trkpt lat="28.295531" lon="105.034029"><ele>422.22183</ele><time>2026-05-06T01:44:00.000Z</time></trkpt>
        <trkpt lat="28.295555" lon="105.033975"><ele>423.4436</ele><time>2026-05-06T01:44:01.000Z</time></trkpt>
        <trkpt lat="28.295581" lon="105.033909"><ele>423.5055</ele><time>2026-05-06T01:44:02.000Z</time></trkpt>
        <trkpt lat="28.295634" lon="105.033837"><ele>423.6239</ele><time>2026-05-06T01:44:03.000Z</time></trkpt>
        <trkpt lat="28.295668" lon="105.03377"><ele>423.67804</ele><time>2026-05-06T01:44:04.000Z</time></trkpt>
        <trkpt lat="28.295706" lon="105.033697"><ele>424.27277</ele><time>2026-05-06T01:44:05.000Z</time></trkpt>
        <trkpt lat="28.295745" lon="105.033625"><ele>424.4848</ele><time>2026-05-06T01:44:06.000Z</time></trkpt>
        <trkpt lat="28.295774" lon="105.033544"><ele>424.30936</ele><time>2026-05-06T01:44:07.000Z</time></trkpt>
        <trkpt lat="28.295797" lon="105.033476"><ele>425.42422</ele><time>2026-05-06T01:44:08.000Z</time></trkpt>
        <trkpt lat="28.295812" lon="105.033415"><ele>425.47272</ele><time>2026-05-06T01:44:09.000Z</time></trkpt>
        <trkpt lat="28.29582" lon="105.033359"><ele>425.66876</ele><time>2026-05-06T01:44:10.000Z</time></trkpt>
        <trkpt lat="28.295835" lon="105.033292"><ele>425.48697</ele><time>2026-05-06T01:44:11.000Z</time></trkpt>
        <trkpt lat="28.295841" lon="105.033236"><ele>424.77713</ele><time>2026-05-06T01:44:13.000Z</time></trkpt>
        <trkpt lat="28.295851" lon="105.033182"><ele>424.01566</ele><time>2026-05-06T01:44:15.000Z</time></trkpt>
        <trkpt lat="28.295843" lon="105.033119"><ele>423.18695</ele><time>2026-05-06T01:44:17.000Z</time></trkpt>
        <trkpt lat="28.295862" lon="105.033043"><ele>422.80444</ele><time>2026-05-06T01:44:19.000Z</time></trkpt>
        <trkpt lat="28.295907" lon="105.032967"><ele>423.07755</ele><time>2026-05-06T01:44:21.000Z</time></trkpt>
        <trkpt lat="28.295917" lon="105.032913"><ele>422.03244</ele><time>2026-05-06T01:44:30.000Z</time></trkpt>
        <trkpt lat="28.295916" lon="105.032856"><ele>422.47485</ele><time>2026-05-06T01:44:45.000Z</time></trkpt>
      </trkseg>
  </trk>
</gpx>